<?xml version="1.0" encoding="UTF-8" standalone="no" ?>
<gpx xmlns="http://www.topografix.com/GPX/1/1" xmlns:xsi="http://www.w3.org/2001/XMLSchema-instance" xsi:schemaLocation="http://www.topografix.com/GPX/1/1 http://www.topografix.com/GPX/1/1/gpx.xsd" version="1.1" creator="VisuGPX - https://www.visugpx.com">
  <metadata>
    <name>032SG76-8203567</name>
    <desc><![CDATA[03]]></desc>
  </metadata>
  <trk>
    <name><![CDATA[032SG76-8203567]]></name>
    <trkseg>
      <trkpt lat="46.69871" lon="-1.93393">
        <ele>5</ele>
        <time>2018-03-20T21:25:05Z</time>
      </trkpt>
      <trkpt lat="46.69892" lon="-1.93385">
        <ele>5</ele>
        <time>2018-03-20T21:26:05Z</time>
      </trkpt>
      <trkpt lat="46.69898" lon="-1.93383">
        <ele>5</ele>
        <time>2018-03-20T21:27:05Z</time>
      </trkpt>
      <trkpt lat="46.69901" lon="-1.93383">
        <ele>5</ele>
        <time>2018-03-20T21:28:05Z</time>
      </trkpt>
      <trkpt lat="46.69908" lon="-1.93383">
        <ele>4</ele>
        <time>2018-03-20T21:29:05Z</time>
      </trkpt>
      <trkpt lat="46.69907" lon="-1.93379">
        <ele>5</ele>
        <time>2018-03-20T21:30:05Z</time>
      </trkpt>
      <trkpt lat="46.69908" lon="-1.93377">
        <ele>5</ele>
        <time>2018-03-20T21:31:05Z</time>
      </trkpt>
      <trkpt lat="46.69908" lon="-1.93376">
        <ele>5</ele>
        <time>2018-03-20T21:32:05Z</time>
      </trkpt>
      <trkpt lat="46.69909" lon="-1.93375">
        <ele>5</ele>
        <time>2018-03-20T21:33:05Z</time>
      </trkpt>
      <trkpt lat="46.69911" lon="-1.93375">
        <ele>5</ele>
        <time>2018-03-20T21:34:05Z</time>
      </trkpt>
      <trkpt lat="46.69912" lon="-1.93375">
        <ele>5</ele>
        <time>2018-03-20T21:35:05Z</time>
      </trkpt>
      <trkpt lat="46.69914" lon="-1.93375">
        <ele>5</ele>
        <time>2018-03-20T21:36:05Z</time>
      </trkpt>
      <trkpt lat="46.69915" lon="-1.93376">
        <ele>5</ele>
        <time>2018-03-20T21:37:05Z</time>
      </trkpt>
      <trkpt lat="46.69915" lon="-1.93377">
        <ele>4</ele>
        <time>2018-03-20T21:38:05Z</time>
      </trkpt>
      <trkpt lat="46.69916" lon="-1.93379">
        <ele>4</ele>
        <time>2018-03-20T21:39:05Z</time>
      </trkpt>
      <trkpt lat="46.69916" lon="-1.93382">
        <ele>4</ele>
        <time>2018-03-20T21:40:05Z</time>
      </trkpt>
      <trkpt lat="46.69915" lon="-1.93383">
        <ele>4</ele>
        <time>2018-03-20T21:41:05Z</time>
      </trkpt>
      <trkpt lat="46.69922" lon="-1.93383">
        <ele>4</ele>
        <time>2018-03-20T21:42:05Z</time>
      </trkpt>
      <trkpt lat="46.69925" lon="-1.93383">
        <ele>4</ele>
        <time>2018-03-20T21:43:05Z</time>
      </trkpt>
      <trkpt lat="46.69935" lon="-1.93382">
        <ele>4</ele>
        <time>2018-03-20T21:44:05Z</time>
      </trkpt>
      <trkpt lat="46.69944" lon="-1.93381">
        <ele>4</ele>
        <time>2018-03-20T21:45:05Z</time>
      </trkpt>
      <trkpt lat="46.69949" lon="-1.93379">
        <ele>4</ele>
        <time>2018-03-20T21:46:05Z</time>
      </trkpt>
      <trkpt lat="46.69953" lon="-1.93377">
        <ele>4</ele>
        <time>2018-03-20T21:47:05Z</time>
      </trkpt>
      <trkpt lat="46.69958" lon="-1.93375">
        <ele>4</ele>
        <time>2018-03-20T21:48:05Z</time>
      </trkpt>
      <trkpt lat="46.69963" lon="-1.93373">
        <ele>4</ele>
        <time>2018-03-20T21:49:05Z</time>
      </trkpt>
      <trkpt lat="46.69969" lon="-1.9337">
        <ele>4</ele>
        <time>2018-03-20T21:50:05Z</time>
      </trkpt>
      <trkpt lat="46.69973" lon="-1.93367">
        <ele>4</ele>
        <time>2018-03-20T21:51:05Z</time>
      </trkpt>
      <trkpt lat="46.69976" lon="-1.93367">
        <ele>4</ele>
        <time>2018-03-20T21:52:05Z</time>
      </trkpt>
      <trkpt lat="46.69978" lon="-1.93366">
        <ele>3</ele>
        <time>2018-03-20T21:53:05Z</time>
      </trkpt>
      <trkpt lat="46.69979" lon="-1.93366">
        <ele>3</ele>
        <time>2018-03-20T21:54:05Z</time>
      </trkpt>
      <trkpt lat="46.69982" lon="-1.93367">
        <ele>3</ele>
        <time>2018-03-20T21:55:05Z</time>
      </trkpt>
      <trkpt lat="46.69987" lon="-1.93369">
        <ele>3</ele>
        <time>2018-03-20T21:56:05Z</time>
      </trkpt>
      <trkpt lat="46.70002" lon="-1.93375">
        <ele>3</ele>
        <time>2018-03-20T21:57:05Z</time>
      </trkpt>
      <trkpt lat="46.70015" lon="-1.9338">
        <ele>3</ele>
        <time>2018-03-20T21:58:05Z</time>
      </trkpt>
      <trkpt lat="46.7002" lon="-1.93382">
        <ele>3</ele>
        <time>2018-03-20T21:59:05Z</time>
      </trkpt>
      <trkpt lat="46.70023" lon="-1.93384">
        <ele>3</ele>
        <time>2018-03-20T22:00:05Z</time>
      </trkpt>
      <trkpt lat="46.70025" lon="-1.93386">
        <ele>3</ele>
        <time>2018-03-20T22:01:05Z</time>
      </trkpt>
      <trkpt lat="46.70028" lon="-1.93388">
        <ele>3</ele>
        <time>2018-03-20T22:02:05Z</time>
      </trkpt>
      <trkpt lat="46.7003" lon="-1.93391">
        <ele>3</ele>
        <time>2018-03-20T22:03:05Z</time>
      </trkpt>
      <trkpt lat="46.70033" lon="-1.93394">
        <ele>2</ele>
        <time>2018-03-20T22:04:05Z</time>
      </trkpt>
      <trkpt lat="46.70036" lon="-1.93397">
        <ele>2</ele>
        <time>2018-03-20T22:05:05Z</time>
      </trkpt>
      <trkpt lat="46.70038" lon="-1.93398">
        <ele>2</ele>
        <time>2018-03-20T22:06:05Z</time>
      </trkpt>
      <trkpt lat="46.70041" lon="-1.934">
        <ele>2</ele>
        <time>2018-03-20T22:07:05Z</time>
      </trkpt>
      <trkpt lat="46.70043" lon="-1.93401">
        <ele>2</ele>
        <time>2018-03-20T22:08:05Z</time>
      </trkpt>
      <trkpt lat="46.70046" lon="-1.93402">
        <ele>2</ele>
        <time>2018-03-20T22:09:05Z</time>
      </trkpt>
      <trkpt lat="46.70052" lon="-1.93405">
        <ele>2</ele>
        <time>2018-03-20T22:10:05Z</time>
      </trkpt>
      <trkpt lat="46.70052" lon="-1.93404">
        <ele>2</ele>
        <time>2018-03-20T22:11:05Z</time>
      </trkpt>
      <trkpt lat="46.70052" lon="-1.93403">
        <ele>2</ele>
        <time>2018-03-20T22:12:05Z</time>
      </trkpt>
      <trkpt lat="46.70052" lon="-1.93402">
        <ele>2</ele>
        <time>2018-03-20T22:13:05Z</time>
      </trkpt>
      <trkpt lat="46.70052" lon="-1.93401">
        <ele>2</ele>
        <time>2018-03-20T22:14:05Z</time>
      </trkpt>
      <trkpt lat="46.70053" lon="-1.93401">
        <ele>2</ele>
        <time>2018-03-20T22:15:05Z</time>
      </trkpt>
      <trkpt lat="46.70053" lon="-1.934">
        <ele>2</ele>
        <time>2018-03-20T22:16:05Z</time>
      </trkpt>
      <trkpt lat="46.70053" lon="-1.93399">
        <ele>2</ele>
        <time>2018-03-20T22:17:05Z</time>
      </trkpt>
      <trkpt lat="46.70054" lon="-1.93399">
        <ele>2</ele>
        <time>2018-03-20T22:18:05Z</time>
      </trkpt>
      <trkpt lat="46.70054" lon="-1.93398">
        <ele>2</ele>
        <time>2018-03-20T22:19:05Z</time>
      </trkpt>
      <trkpt lat="46.70055" lon="-1.93398">
        <ele>2</ele>
        <time>2018-03-20T22:20:05Z</time>
      </trkpt>
      <trkpt lat="46.70056" lon="-1.93398">
        <ele>2</ele>
        <time>2018-03-20T22:21:05Z</time>
      </trkpt>
      <trkpt lat="46.70056" lon="-1.93397">
        <ele>2</ele>
        <time>2018-03-20T22:22:05Z</time>
      </trkpt>
      <trkpt lat="46.70057" lon="-1.93397">
        <ele>2</ele>
        <time>2018-03-20T22:23:05Z</time>
      </trkpt>
      <trkpt lat="46.70058" lon="-1.93397">
        <ele>2</ele>
        <time>2018-03-20T22:24:05Z</time>
      </trkpt>
      <trkpt lat="46.70059" lon="-1.93398">
        <ele>2</ele>
        <time>2018-03-20T22:25:05Z</time>
      </trkpt>
      <trkpt lat="46.7006" lon="-1.93398">
        <ele>2</ele>
        <time>2018-03-20T22:26:05Z</time>
      </trkpt>
      <trkpt lat="46.7006" lon="-1.93399">
        <ele>2</ele>
        <time>2018-03-20T22:27:05Z</time>
      </trkpt>
      <trkpt lat="46.70061" lon="-1.93399">
        <ele>2</ele>
        <time>2018-03-20T22:28:05Z</time>
      </trkpt>
      <trkpt lat="46.70061" lon="-1.934">
        <ele>2</ele>
        <time>2018-03-20T22:29:05Z</time>
      </trkpt>
      <trkpt lat="46.70061" lon="-1.93401">
        <ele>2</ele>
        <time>2018-03-20T22:30:05Z</time>
      </trkpt>
      <trkpt lat="46.70062" lon="-1.93401">
        <ele>2</ele>
        <time>2018-03-20T22:31:05Z</time>
      </trkpt>
      <trkpt lat="46.70062" lon="-1.93402">
        <ele>2</ele>
        <time>2018-03-20T22:32:05Z</time>
      </trkpt>
      <trkpt lat="46.70062" lon="-1.93403">
        <ele>2</ele>
        <time>2018-03-20T22:33:05Z</time>
      </trkpt>
      <trkpt lat="46.70062" lon="-1.93404">
        <ele>2</ele>
        <time>2018-03-20T22:34:05Z</time>
      </trkpt>
      <trkpt lat="46.70062" lon="-1.93405">
        <ele>2</ele>
        <time>2018-03-20T22:35:05Z</time>
      </trkpt>
      <trkpt lat="46.70083" lon="-1.93405">
        <ele>2</ele>
        <time>2018-03-20T22:36:05Z</time>
      </trkpt>
      <trkpt lat="46.70093" lon="-1.934">
        <ele>2</ele>
        <time>2018-03-20T22:37:05Z</time>
      </trkpt>
      <trkpt lat="46.70098" lon="-1.93397">
        <ele>2</ele>
        <time>2018-03-20T22:38:05Z</time>
      </trkpt>
      <trkpt lat="46.70102" lon="-1.93395">
        <ele>2</ele>
        <time>2018-03-20T22:39:05Z</time>
      </trkpt>
      <trkpt lat="46.70107" lon="-1.93391">
        <ele>2</ele>
        <time>2018-03-20T22:40:05Z</time>
      </trkpt>
      <trkpt lat="46.70111" lon="-1.93388">
        <ele>2</ele>
        <time>2018-03-20T22:41:05Z</time>
      </trkpt>
      <trkpt lat="46.70114" lon="-1.93384">
        <ele>2</ele>
        <time>2018-03-20T22:42:05Z</time>
      </trkpt>
      <trkpt lat="46.70114" lon="-1.93384">
        <ele>2</ele>
        <time>2018-03-20T22:43:05Z</time>
      </trkpt>
      <trkpt lat="46.70115" lon="-1.93383">
        <ele>2</ele>
        <time>2018-03-20T22:44:05Z</time>
      </trkpt>
      <trkpt lat="46.70115" lon="-1.93382">
        <ele>2</ele>
        <time>2018-03-20T22:45:05Z</time>
      </trkpt>
      <trkpt lat="46.70115" lon="-1.93381">
        <ele>2</ele>
        <time>2018-03-20T22:46:05Z</time>
      </trkpt>
      <trkpt lat="46.70116" lon="-1.9338">
        <ele>2</ele>
        <time>2018-03-20T22:47:05Z</time>
      </trkpt>
      <trkpt lat="46.70116" lon="-1.93378">
        <ele>2</ele>
        <time>2018-03-20T22:48:05Z</time>
      </trkpt>
      <trkpt lat="46.70116" lon="-1.93377">
        <ele>2</ele>
        <time>2018-03-20T22:49:05Z</time>
      </trkpt>
      <trkpt lat="46.70117" lon="-1.93376">
        <ele>2</ele>
        <time>2018-03-20T22:50:05Z</time>
      </trkpt>
      <trkpt lat="46.70117" lon="-1.93375">
        <ele>2</ele>
        <time>2018-03-20T22:51:05Z</time>
      </trkpt>
      <trkpt lat="46.70118" lon="-1.93374">
        <ele>1</ele>
        <time>2018-03-20T22:52:05Z</time>
      </trkpt>
      <trkpt lat="46.70119" lon="-1.93373">
        <ele>1</ele>
        <time>2018-03-20T22:53:05Z</time>
      </trkpt>
      <trkpt lat="46.70119" lon="-1.93372">
        <ele>1</ele>
        <time>2018-03-20T22:54:05Z</time>
      </trkpt>
      <trkpt lat="46.7012" lon="-1.93372">
        <ele>1</ele>
        <time>2018-03-20T22:55:05Z</time>
      </trkpt>
      <trkpt lat="46.70121" lon="-1.93371">
        <ele>1</ele>
        <time>2018-03-20T22:56:05Z</time>
      </trkpt>
      <trkpt lat="46.70122" lon="-1.9337">
        <ele>1</ele>
        <time>2018-03-20T22:57:05Z</time>
      </trkpt>
      <trkpt lat="46.70123" lon="-1.93369">
        <ele>1</ele>
        <time>2018-03-20T22:58:05Z</time>
      </trkpt>
      <trkpt lat="46.70124" lon="-1.93369">
        <ele>1</ele>
        <time>2018-03-20T22:59:05Z</time>
      </trkpt>
      <trkpt lat="46.70125" lon="-1.93368">
        <ele>2</ele>
        <time>2018-03-20T23:00:05Z</time>
      </trkpt>
      <trkpt lat="46.70126" lon="-1.93368">
        <ele>2</ele>
        <time>2018-03-20T23:01:05Z</time>
      </trkpt>
      <trkpt lat="46.70127" lon="-1.93368">
        <ele>2</ele>
        <time>2018-03-20T23:02:05Z</time>
      </trkpt>
      <trkpt lat="46.70128" lon="-1.93368">
        <ele>2</ele>
        <time>2018-03-20T23:03:05Z</time>
      </trkpt>
      <trkpt lat="46.70129" lon="-1.93368">
        <ele>2</ele>
        <time>2018-03-20T23:04:05Z</time>
      </trkpt>
      <trkpt lat="46.7013" lon="-1.93368">
        <ele>2</ele>
        <time>2018-03-20T23:05:05Z</time>
      </trkpt>
      <trkpt lat="46.70131" lon="-1.93369">
        <ele>2</ele>
        <time>2018-03-20T23:06:05Z</time>
      </trkpt>
      <trkpt lat="46.70132" lon="-1.93369">
        <ele>2</ele>
        <time>2018-03-20T23:07:05Z</time>
      </trkpt>
      <trkpt lat="46.70132" lon="-1.9337">
        <ele>2</ele>
        <time>2018-03-20T23:08:05Z</time>
      </trkpt>
      <trkpt lat="46.70133" lon="-1.9337">
        <ele>2</ele>
        <time>2018-03-20T23:09:05Z</time>
      </trkpt>
      <trkpt lat="46.70134" lon="-1.93371">
        <ele>2</ele>
        <time>2018-03-20T23:10:05Z</time>
      </trkpt>
      <trkpt lat="46.70135" lon="-1.93372">
        <ele>2</ele>
        <time>2018-03-20T23:11:05Z</time>
      </trkpt>
      <trkpt lat="46.70136" lon="-1.93373">
        <ele>2</ele>
        <time>2018-03-20T23:12:05Z</time>
      </trkpt>
      <trkpt lat="46.70136" lon="-1.93374">
        <ele>2</ele>
        <time>2018-03-20T23:13:05Z</time>
      </trkpt>
      <trkpt lat="46.70137" lon="-1.93374">
        <ele>2</ele>
        <time>2018-03-20T23:14:05Z</time>
      </trkpt>
      <trkpt lat="46.70137" lon="-1.93375">
        <ele>1</ele>
        <time>2018-03-20T23:15:05Z</time>
      </trkpt>
      <trkpt lat="46.70138" lon="-1.93376">
        <ele>1</ele>
        <time>2018-03-20T23:16:05Z</time>
      </trkpt>
      <trkpt lat="46.70138" lon="-1.93377">
        <ele>1</ele>
        <time>2018-03-20T23:17:05Z</time>
      </trkpt>
      <trkpt lat="46.70138" lon="-1.93378">
        <ele>1</ele>
        <time>2018-03-20T23:18:05Z</time>
      </trkpt>
      <trkpt lat="46.70165" lon="-1.93375">
        <ele>1</ele>
        <time>2018-03-20T23:19:05Z</time>
      </trkpt>
      <trkpt lat="46.7017" lon="-1.93374">
        <ele>1</ele>
        <time>2018-03-20T23:20:05Z</time>
      </trkpt>
      <trkpt lat="46.70173" lon="-1.93372">
        <ele>1</ele>
        <time>2018-03-20T23:21:05Z</time>
      </trkpt>
      <trkpt lat="46.70181" lon="-1.93366">
        <ele>2</ele>
        <time>2018-03-20T23:22:05Z</time>
      </trkpt>
      <trkpt lat="46.70194" lon="-1.93356">
        <ele>1</ele>
        <time>2018-03-20T23:23:05Z</time>
      </trkpt>
      <trkpt lat="46.70205" lon="-1.93347">
        <ele>1</ele>
        <time>2018-03-20T23:24:05Z</time>
      </trkpt>
      <trkpt lat="46.70211" lon="-1.9334">
        <ele>1</ele>
        <time>2018-03-20T23:25:05Z</time>
      </trkpt>
      <trkpt lat="46.70216" lon="-1.93332">
        <ele>1</ele>
        <time>2018-03-20T23:26:05Z</time>
      </trkpt>
      <trkpt lat="46.70224" lon="-1.9332">
        <ele>1</ele>
        <time>2018-03-20T23:27:05Z</time>
      </trkpt>
      <trkpt lat="46.70239" lon="-1.93295">
        <ele>2</ele>
        <time>2018-03-20T23:28:05Z</time>
      </trkpt>
      <trkpt lat="46.70251" lon="-1.9328">
        <ele>2</ele>
        <time>2018-03-20T23:29:05Z</time>
      </trkpt>
      <trkpt lat="46.70263" lon="-1.93271">
        <ele>2</ele>
        <time>2018-03-20T23:30:05Z</time>
      </trkpt>
      <trkpt lat="46.70276" lon="-1.93263">
        <ele>2</ele>
        <time>2018-03-20T23:31:05Z</time>
      </trkpt>
      <trkpt lat="46.7028" lon="-1.9326">
        <ele>2</ele>
        <time>2018-03-20T23:32:05Z</time>
      </trkpt>
      <trkpt lat="46.70288" lon="-1.93253">
        <ele>2</ele>
        <time>2018-03-20T23:33:05Z</time>
      </trkpt>
      <trkpt lat="46.70295" lon="-1.93245">
        <ele>2</ele>
        <time>2018-03-20T23:34:05Z</time>
      </trkpt>
      <trkpt lat="46.70304" lon="-1.9323">
        <ele>2</ele>
        <time>2018-03-20T23:35:05Z</time>
      </trkpt>
      <trkpt lat="46.70304" lon="-1.9323">
        <ele>2</ele>
        <time>2018-03-20T23:36:05Z</time>
      </trkpt>
      <trkpt lat="46.70328" lon="-1.93232">
        <ele>2</ele>
        <time>2018-03-20T23:37:05Z</time>
      </trkpt>
      <trkpt lat="46.70362" lon="-1.9324">
        <ele>2</ele>
        <time>2018-03-20T23:38:05Z</time>
      </trkpt>
      <trkpt lat="46.70398" lon="-1.93249">
        <ele>3</ele>
        <time>2018-03-20T23:39:05Z</time>
      </trkpt>
      <trkpt lat="46.70419" lon="-1.93258">
        <ele>3</ele>
        <time>2018-03-20T23:40:05Z</time>
      </trkpt>
      <trkpt lat="46.70429" lon="-1.93262">
        <ele>3</ele>
        <time>2018-03-20T23:41:05Z</time>
      </trkpt>
      <trkpt lat="46.70439" lon="-1.93265">
        <ele>3</ele>
        <time>2018-03-20T23:42:05Z</time>
      </trkpt>
      <trkpt lat="46.70449" lon="-1.93267">
        <ele>3</ele>
        <time>2018-03-20T23:43:05Z</time>
      </trkpt>
      <trkpt lat="46.70458" lon="-1.93268">
        <ele>3</ele>
        <time>2018-03-20T23:44:05Z</time>
      </trkpt>
      <trkpt lat="46.70465" lon="-1.93267">
        <ele>3</ele>
        <time>2018-03-20T23:45:05Z</time>
      </trkpt>
      <trkpt lat="46.70472" lon="-1.93265">
        <ele>3</ele>
        <time>2018-03-20T23:46:05Z</time>
      </trkpt>
      <trkpt lat="46.7048" lon="-1.9326">
        <ele>4</ele>
        <time>2018-03-20T23:47:05Z</time>
      </trkpt>
      <trkpt lat="46.70489" lon="-1.93253">
        <ele>4</ele>
        <time>2018-03-20T23:48:05Z</time>
      </trkpt>
      <trkpt lat="46.70503" lon="-1.93244">
        <ele>4</ele>
        <time>2018-03-20T23:49:05Z</time>
      </trkpt>
      <trkpt lat="46.7052" lon="-1.93232">
        <ele>5</ele>
        <time>2018-03-20T23:50:05Z</time>
      </trkpt>
      <trkpt lat="46.70533" lon="-1.93223">
        <ele>5</ele>
        <time>2018-03-20T23:51:05Z</time>
      </trkpt>
      <trkpt lat="46.70548" lon="-1.93216">
        <ele>5</ele>
        <time>2018-03-20T23:52:05Z</time>
      </trkpt>
      <trkpt lat="46.70566" lon="-1.93211">
        <ele>6</ele>
        <time>2018-03-20T23:53:05Z</time>
      </trkpt>
      <trkpt lat="46.70588" lon="-1.93206">
        <ele>6</ele>
        <time>2018-03-20T23:54:05Z</time>
      </trkpt>
      <trkpt lat="46.7061" lon="-1.93202">
        <ele>7</ele>
        <time>2018-03-20T23:55:05Z</time>
      </trkpt>
      <trkpt lat="46.7063" lon="-1.93198">
        <ele>7</ele>
        <time>2018-03-20T23:56:05Z</time>
      </trkpt>
      <trkpt lat="46.70648" lon="-1.93197">
        <ele>8</ele>
        <time>2018-03-20T23:57:05Z</time>
      </trkpt>
      <trkpt lat="46.70659" lon="-1.93197">
        <ele>8</ele>
        <time>2018-03-20T23:58:05Z</time>
      </trkpt>
      <trkpt lat="46.70671" lon="-1.932">
        <ele>8</ele>
        <time>2018-03-20T23:59:05Z</time>
      </trkpt>
      <trkpt lat="46.70691" lon="-1.93205">
        <ele>8</ele>
        <time>2018-03-21T00:00:05Z</time>
      </trkpt>
      <trkpt lat="46.7071" lon="-1.93211">
        <ele>8</ele>
        <time>2018-03-21T00:01:05Z</time>
      </trkpt>
      <trkpt lat="46.70712" lon="-1.93212">
        <ele>8</ele>
        <time>2018-03-21T00:02:05Z</time>
      </trkpt>
      <trkpt lat="46.70729" lon="-1.93213">
        <ele>8</ele>
        <time>2018-03-21T00:03:05Z</time>
      </trkpt>
      <trkpt lat="46.70745" lon="-1.93212">
        <ele>8</ele>
        <time>2018-03-21T00:04:05Z</time>
      </trkpt>
      <trkpt lat="46.70752" lon="-1.9321">
        <ele>8</ele>
        <time>2018-03-21T00:05:05Z</time>
      </trkpt>
      <trkpt lat="46.70758" lon="-1.93207">
        <ele>8</ele>
        <time>2018-03-21T00:06:05Z</time>
      </trkpt>
      <trkpt lat="46.70766" lon="-1.93202">
        <ele>8</ele>
        <time>2018-03-21T00:07:05Z</time>
      </trkpt>
      <trkpt lat="46.70772" lon="-1.93197">
        <ele>8</ele>
        <time>2018-03-21T00:08:05Z</time>
      </trkpt>
      <trkpt lat="46.70785" lon="-1.93186">
        <ele>9</ele>
        <time>2018-03-21T00:09:05Z</time>
      </trkpt>
      <trkpt lat="46.70795" lon="-1.93179">
        <ele>9</ele>
        <time>2018-03-21T00:10:05Z</time>
      </trkpt>
      <trkpt lat="46.70804" lon="-1.93173">
        <ele>9</ele>
        <time>2018-03-21T00:11:05Z</time>
      </trkpt>
      <trkpt lat="46.70813" lon="-1.9317">
        <ele>9</ele>
        <time>2018-03-21T00:12:05Z</time>
      </trkpt>
      <trkpt lat="46.70821" lon="-1.93168">
        <ele>9</ele>
        <time>2018-03-21T00:13:05Z</time>
      </trkpt>
      <trkpt lat="46.70829" lon="-1.93167">
        <ele>9</ele>
        <time>2018-03-21T00:14:05Z</time>
      </trkpt>
      <trkpt lat="46.70835" lon="-1.93168">
        <ele>9</ele>
        <time>2018-03-21T00:15:05Z</time>
      </trkpt>
      <trkpt lat="46.70844" lon="-1.93169">
        <ele>9</ele>
        <time>2018-03-21T00:16:05Z</time>
      </trkpt>
      <trkpt lat="46.70877" lon="-1.93174">
        <ele>8</ele>
        <time>2018-03-21T00:17:05Z</time>
      </trkpt>
      <trkpt lat="46.70916" lon="-1.93179">
        <ele>7</ele>
        <time>2018-03-21T00:18:05Z</time>
      </trkpt>
      <trkpt lat="46.70936" lon="-1.93181">
        <ele>7</ele>
        <time>2018-03-21T00:19:05Z</time>
      </trkpt>
      <trkpt lat="46.70956" lon="-1.93184">
        <ele>7</ele>
        <time>2018-03-21T00:20:05Z</time>
      </trkpt>
      <trkpt lat="46.70974" lon="-1.93184">
        <ele>7</ele>
        <time>2018-03-21T00:21:05Z</time>
      </trkpt>
      <trkpt lat="46.71007" lon="-1.9318">
        <ele>7</ele>
        <time>2018-03-21T00:22:05Z</time>
      </trkpt>
      <trkpt lat="46.71025" lon="-1.93175">
        <ele>7</ele>
        <time>2018-03-21T00:23:05Z</time>
      </trkpt>
      <trkpt lat="46.71038" lon="-1.93168">
        <ele>7</ele>
        <time>2018-03-21T00:24:05Z</time>
      </trkpt>
      <trkpt lat="46.71048" lon="-1.93158">
        <ele>7</ele>
        <time>2018-03-21T00:25:05Z</time>
      </trkpt>
      <trkpt lat="46.71062" lon="-1.93143">
        <ele>7</ele>
        <time>2018-03-21T00:26:05Z</time>
      </trkpt>
      <trkpt lat="46.7109" lon="-1.93111">
        <ele>7</ele>
        <time>2018-03-21T00:27:05Z</time>
      </trkpt>
      <trkpt lat="46.71123" lon="-1.93073">
        <ele>7</ele>
        <time>2018-03-21T00:28:05Z</time>
      </trkpt>
      <trkpt lat="46.71124" lon="-1.93072">
        <ele>7</ele>
        <time>2018-03-21T00:29:05Z</time>
      </trkpt>
      <trkpt lat="46.71141" lon="-1.93051">
        <ele>7</ele>
        <time>2018-03-21T00:30:05Z</time>
      </trkpt>
      <trkpt lat="46.7115" lon="-1.93042">
        <ele>7</ele>
        <time>2018-03-21T00:31:05Z</time>
      </trkpt>
      <trkpt lat="46.71159" lon="-1.93035">
        <ele>8</ele>
        <time>2018-03-21T00:32:05Z</time>
      </trkpt>
      <trkpt lat="46.71167" lon="-1.93032">
        <ele>8</ele>
        <time>2018-03-21T00:33:05Z</time>
      </trkpt>
      <trkpt lat="46.71178" lon="-1.9303">
        <ele>7</ele>
        <time>2018-03-21T00:34:05Z</time>
      </trkpt>
      <trkpt lat="46.71195" lon="-1.93028">
        <ele>7</ele>
        <time>2018-03-21T00:35:05Z</time>
      </trkpt>
      <trkpt lat="46.71215" lon="-1.93028">
        <ele>6</ele>
        <time>2018-03-21T00:36:05Z</time>
      </trkpt>
      <trkpt lat="46.71225" lon="-1.93026">
        <ele>6</ele>
        <time>2018-03-21T00:37:05Z</time>
      </trkpt>
      <trkpt lat="46.71236" lon="-1.93024">
        <ele>5</ele>
        <time>2018-03-21T00:38:05Z</time>
      </trkpt>
      <trkpt lat="46.71243" lon="-1.93018">
        <ele>5</ele>
        <time>2018-03-21T00:39:05Z</time>
      </trkpt>
      <trkpt lat="46.71246" lon="-1.93012">
        <ele>5</ele>
        <time>2018-03-21T00:40:05Z</time>
      </trkpt>
      <trkpt lat="46.71249" lon="-1.93002">
        <ele>5</ele>
        <time>2018-03-21T00:41:05Z</time>
      </trkpt>
      <trkpt lat="46.71252" lon="-1.92988">
        <ele>5</ele>
        <time>2018-03-21T00:42:05Z</time>
      </trkpt>
      <trkpt lat="46.71256" lon="-1.92969">
        <ele>5</ele>
        <time>2018-03-21T00:43:05Z</time>
      </trkpt>
      <trkpt lat="46.71259" lon="-1.92949">
        <ele>5</ele>
        <time>2018-03-21T00:44:05Z</time>
      </trkpt>
      <trkpt lat="46.71259" lon="-1.92949">
        <ele>5</ele>
        <time>2018-03-21T00:45:05Z</time>
      </trkpt>
      <trkpt lat="46.71261" lon="-1.92937">
        <ele>4</ele>
        <time>2018-03-21T00:46:05Z</time>
      </trkpt>
      <trkpt lat="46.71265" lon="-1.92901">
        <ele>3</ele>
        <time>2018-03-21T00:47:05Z</time>
      </trkpt>
      <trkpt lat="46.71269" lon="-1.9287">
        <ele>3</ele>
        <time>2018-03-21T00:48:05Z</time>
      </trkpt>
      <trkpt lat="46.71269" lon="-1.92869">
        <ele>3</ele>
        <time>2018-03-21T00:49:05Z</time>
      </trkpt>
      <trkpt lat="46.71274" lon="-1.92841">
        <ele>3</ele>
        <time>2018-03-21T00:50:05Z</time>
      </trkpt>
      <trkpt lat="46.71281" lon="-1.92808">
        <ele>4</ele>
        <time>2018-03-21T00:51:05Z</time>
      </trkpt>
      <trkpt lat="46.71289" lon="-1.92771">
        <ele>4</ele>
        <time>2018-03-21T00:52:05Z</time>
      </trkpt>
      <trkpt lat="46.71299" lon="-1.92726">
        <ele>5</ele>
        <time>2018-03-21T00:53:05Z</time>
      </trkpt>
      <trkpt lat="46.71299" lon="-1.92723">
        <ele>5</ele>
        <time>2018-03-21T00:54:05Z</time>
      </trkpt>
      <trkpt lat="46.71306" lon="-1.927">
        <ele>6</ele>
        <time>2018-03-21T00:55:05Z</time>
      </trkpt>
      <trkpt lat="46.71306" lon="-1.92696">
        <ele>6</ele>
        <time>2018-03-21T00:56:05Z</time>
      </trkpt>
      <trkpt lat="46.71307" lon="-1.92691">
        <ele>6</ele>
        <time>2018-03-21T00:57:05Z</time>
      </trkpt>
      <trkpt lat="46.71308" lon="-1.92684">
        <ele>6</ele>
        <time>2018-03-21T00:58:05Z</time>
      </trkpt>
      <trkpt lat="46.71308" lon="-1.92681">
        <ele>7</ele>
        <time>2018-03-21T00:59:05Z</time>
      </trkpt>
      <trkpt lat="46.71307" lon="-1.92661">
        <ele>7</ele>
        <time>2018-03-21T01:00:05Z</time>
      </trkpt>
      <trkpt lat="46.71305" lon="-1.92644">
        <ele>8</ele>
        <time>2018-03-21T01:01:05Z</time>
      </trkpt>
      <trkpt lat="46.71305" lon="-1.9264">
        <ele>8</ele>
        <time>2018-03-21T01:02:05Z</time>
      </trkpt>
      <trkpt lat="46.71305" lon="-1.92636">
        <ele>8</ele>
        <time>2018-03-21T01:03:05Z</time>
      </trkpt>
      <trkpt lat="46.71305" lon="-1.92629">
        <ele>8</ele>
        <time>2018-03-21T01:04:05Z</time>
      </trkpt>
      <trkpt lat="46.71306" lon="-1.92623">
        <ele>8</ele>
        <time>2018-03-21T01:05:05Z</time>
      </trkpt>
      <trkpt lat="46.71307" lon="-1.92618">
        <ele>8</ele>
        <time>2018-03-21T01:06:05Z</time>
      </trkpt>
      <trkpt lat="46.71311" lon="-1.92597">
        <ele>8</ele>
        <time>2018-03-21T01:07:05Z</time>
      </trkpt>
      <trkpt lat="46.71325" lon="-1.92544">
        <ele>8</ele>
        <time>2018-03-21T01:08:05Z</time>
      </trkpt>
      <trkpt lat="46.7133" lon="-1.92521">
        <ele>8</ele>
        <time>2018-03-21T01:09:05Z</time>
      </trkpt>
      <trkpt lat="46.71331" lon="-1.92518">
        <ele>8</ele>
        <time>2018-03-21T01:10:05Z</time>
      </trkpt>
      <trkpt lat="46.71332" lon="-1.92515">
        <ele>8</ele>
        <time>2018-03-21T01:11:05Z</time>
      </trkpt>
      <trkpt lat="46.71333" lon="-1.92509">
        <ele>8</ele>
        <time>2018-03-21T01:12:05Z</time>
      </trkpt>
      <trkpt lat="46.71333" lon="-1.92502">
        <ele>8</ele>
        <time>2018-03-21T01:13:05Z</time>
      </trkpt>
      <trkpt lat="46.71332" lon="-1.92476">
        <ele>8</ele>
        <time>2018-03-21T01:14:05Z</time>
      </trkpt>
      <trkpt lat="46.7133" lon="-1.92445">
        <ele>9</ele>
        <time>2018-03-21T01:15:05Z</time>
      </trkpt>
      <trkpt lat="46.71327" lon="-1.92413">
        <ele>9</ele>
        <time>2018-03-21T01:16:05Z</time>
      </trkpt>
      <trkpt lat="46.71326" lon="-1.92402">
        <ele>9</ele>
        <time>2018-03-21T01:17:05Z</time>
      </trkpt>
      <trkpt lat="46.71323" lon="-1.92389">
        <ele>9</ele>
        <time>2018-03-21T01:18:05Z</time>
      </trkpt>
      <trkpt lat="46.71322" lon="-1.92385">
        <ele>9</ele>
        <time>2018-03-21T01:19:05Z</time>
      </trkpt>
      <trkpt lat="46.71321" lon="-1.9238">
        <ele>9</ele>
        <time>2018-03-21T01:20:05Z</time>
      </trkpt>
      <trkpt lat="46.71318" lon="-1.9237">
        <ele>9</ele>
        <time>2018-03-21T01:21:05Z</time>
      </trkpt>
      <trkpt lat="46.71315" lon="-1.92363">
        <ele>9</ele>
        <time>2018-03-21T01:22:05Z</time>
      </trkpt>
      <trkpt lat="46.71311" lon="-1.92355">
        <ele>9</ele>
        <time>2018-03-21T01:23:05Z</time>
      </trkpt>
      <trkpt lat="46.71306" lon="-1.92347">
        <ele>9</ele>
        <time>2018-03-21T01:24:05Z</time>
      </trkpt>
      <trkpt lat="46.71306" lon="-1.92347">
        <ele>9</ele>
        <time>2018-03-21T01:25:05Z</time>
      </trkpt>
      <trkpt lat="46.71322" lon="-1.92344">
        <ele>8</ele>
        <time>2018-03-21T01:26:05Z</time>
      </trkpt>
      <trkpt lat="46.71334" lon="-1.9234">
        <ele>8</ele>
        <time>2018-03-21T01:27:05Z</time>
      </trkpt>
      <trkpt lat="46.71352" lon="-1.92336">
        <ele>7</ele>
        <time>2018-03-21T01:28:05Z</time>
      </trkpt>
      <trkpt lat="46.71383" lon="-1.92327">
        <ele>6</ele>
        <time>2018-03-21T01:29:05Z</time>
      </trkpt>
      <trkpt lat="46.71414" lon="-1.92316">
        <ele>5</ele>
        <time>2018-03-21T01:30:05Z</time>
      </trkpt>
      <trkpt lat="46.71418" lon="-1.92313">
        <ele>5</ele>
        <time>2018-03-21T01:31:05Z</time>
      </trkpt>
      <trkpt lat="46.71421" lon="-1.92311">
        <ele>5</ele>
        <time>2018-03-21T01:32:05Z</time>
      </trkpt>
      <trkpt lat="46.71423" lon="-1.92308">
        <ele>5</ele>
        <time>2018-03-21T01:33:05Z</time>
      </trkpt>
      <trkpt lat="46.71426" lon="-1.92303">
        <ele>5</ele>
        <time>2018-03-21T01:34:05Z</time>
      </trkpt>
      <trkpt lat="46.71429" lon="-1.92297">
        <ele>5</ele>
        <time>2018-03-21T01:35:05Z</time>
      </trkpt>
      <trkpt lat="46.71432" lon="-1.92285">
        <ele>5</ele>
        <time>2018-03-21T01:36:05Z</time>
      </trkpt>
      <trkpt lat="46.71432" lon="-1.92282">
        <ele>5</ele>
        <time>2018-03-21T01:37:05Z</time>
      </trkpt>
      <trkpt lat="46.7144" lon="-1.92252">
        <ele>6</ele>
        <time>2018-03-21T01:38:05Z</time>
      </trkpt>
      <trkpt lat="46.71448" lon="-1.92225">
        <ele>6</ele>
        <time>2018-03-21T01:39:05Z</time>
      </trkpt>
      <trkpt lat="46.71456" lon="-1.92198">
        <ele>6</ele>
        <time>2018-03-21T01:40:05Z</time>
      </trkpt>
      <trkpt lat="46.71459" lon="-1.92185">
        <ele>6</ele>
        <time>2018-03-21T01:41:05Z</time>
      </trkpt>
      <trkpt lat="46.7146" lon="-1.92183">
        <ele>6</ele>
        <time>2018-03-21T01:42:05Z</time>
      </trkpt>
      <trkpt lat="46.71466" lon="-1.92164">
        <ele>6</ele>
        <time>2018-03-21T01:43:05Z</time>
      </trkpt>
      <trkpt lat="46.71469" lon="-1.9215">
        <ele>6</ele>
        <time>2018-03-21T01:44:05Z</time>
      </trkpt>
      <trkpt lat="46.71474" lon="-1.92129">
        <ele>6</ele>
        <time>2018-03-21T01:45:05Z</time>
      </trkpt>
      <trkpt lat="46.7148" lon="-1.92105">
        <ele>6</ele>
        <time>2018-03-21T01:46:05Z</time>
      </trkpt>
      <trkpt lat="46.71484" lon="-1.92081">
        <ele>5</ele>
        <time>2018-03-21T01:47:05Z</time>
      </trkpt>
      <trkpt lat="46.71491" lon="-1.9204">
        <ele>6</ele>
        <time>2018-03-21T01:48:05Z</time>
      </trkpt>
      <trkpt lat="46.71492" lon="-1.92037">
        <ele>6</ele>
        <time>2018-03-21T01:49:05Z</time>
      </trkpt>
      <trkpt lat="46.715" lon="-1.91985">
        <ele>7</ele>
        <time>2018-03-21T01:50:05Z</time>
      </trkpt>
      <trkpt lat="46.71504" lon="-1.91966">
        <ele>7</ele>
        <time>2018-03-21T01:51:05Z</time>
      </trkpt>
      <trkpt lat="46.71508" lon="-1.9194">
        <ele>7</ele>
        <time>2018-03-21T01:52:05Z</time>
      </trkpt>
      <trkpt lat="46.71511" lon="-1.91921">
        <ele>7</ele>
        <time>2018-03-21T01:53:05Z</time>
      </trkpt>
      <trkpt lat="46.71515" lon="-1.91902">
        <ele>7</ele>
        <time>2018-03-21T01:54:05Z</time>
      </trkpt>
      <trkpt lat="46.71518" lon="-1.91883">
        <ele>8</ele>
        <time>2018-03-21T01:55:05Z</time>
      </trkpt>
      <trkpt lat="46.71523" lon="-1.91865">
        <ele>8</ele>
        <time>2018-03-21T01:56:05Z</time>
      </trkpt>
      <trkpt lat="46.71528" lon="-1.91847">
        <ele>8</ele>
        <time>2018-03-21T01:57:05Z</time>
      </trkpt>
      <trkpt lat="46.71534" lon="-1.91828">
        <ele>8</ele>
        <time>2018-03-21T01:58:05Z</time>
      </trkpt>
      <trkpt lat="46.71548" lon="-1.91786">
        <ele>7</ele>
        <time>2018-03-21T01:59:05Z</time>
      </trkpt>
      <trkpt lat="46.71559" lon="-1.91759">
        <ele>7</ele>
        <time>2018-03-21T02:00:05Z</time>
      </trkpt>
      <trkpt lat="46.71565" lon="-1.91742">
        <ele>7</ele>
        <time>2018-03-21T02:01:05Z</time>
      </trkpt>
      <trkpt lat="46.71573" lon="-1.91722">
        <ele>7</ele>
        <time>2018-03-21T02:02:05Z</time>
      </trkpt>
      <trkpt lat="46.71589" lon="-1.91683">
        <ele>7</ele>
        <time>2018-03-21T02:03:05Z</time>
      </trkpt>
      <trkpt lat="46.71614" lon="-1.91622">
        <ele>5</ele>
        <time>2018-03-21T02:04:05Z</time>
      </trkpt>
      <trkpt lat="46.71624" lon="-1.91596">
        <ele>5</ele>
        <time>2018-03-21T02:05:05Z</time>
      </trkpt>
      <trkpt lat="46.71632" lon="-1.9158">
        <ele>4</ele>
        <time>2018-03-21T02:06:05Z</time>
      </trkpt>
      <trkpt lat="46.71641" lon="-1.9157">
        <ele>4</ele>
        <time>2018-03-21T02:07:05Z</time>
      </trkpt>
      <trkpt lat="46.71648" lon="-1.91565">
        <ele>4</ele>
        <time>2018-03-21T02:08:05Z</time>
      </trkpt>
      <trkpt lat="46.71664" lon="-1.91556">
        <ele>3</ele>
        <time>2018-03-21T02:09:05Z</time>
      </trkpt>
      <trkpt lat="46.71674" lon="-1.91552">
        <ele>3</ele>
        <time>2018-03-21T02:10:05Z</time>
      </trkpt>
      <trkpt lat="46.71699" lon="-1.9154">
        <ele>2</ele>
        <time>2018-03-21T02:11:05Z</time>
      </trkpt>
      <trkpt lat="46.71723" lon="-1.91529">
        <ele>2</ele>
        <time>2018-03-21T02:12:05Z</time>
      </trkpt>
      <trkpt lat="46.7174" lon="-1.91519">
        <ele>2</ele>
        <time>2018-03-21T02:13:05Z</time>
      </trkpt>
      <trkpt lat="46.7175" lon="-1.91512">
        <ele>2</ele>
        <time>2018-03-21T02:14:05Z</time>
      </trkpt>
      <trkpt lat="46.7176" lon="-1.91502">
        <ele>2</ele>
        <time>2018-03-21T02:15:05Z</time>
      </trkpt>
      <trkpt lat="46.71765" lon="-1.91492">
        <ele>2</ele>
        <time>2018-03-21T02:16:05Z</time>
      </trkpt>
      <trkpt lat="46.71768" lon="-1.91484">
        <ele>2</ele>
        <time>2018-03-21T02:17:05Z</time>
      </trkpt>
      <trkpt lat="46.7177" lon="-1.91473">
        <ele>2</ele>
        <time>2018-03-21T02:18:05Z</time>
      </trkpt>
      <trkpt lat="46.71777" lon="-1.91414">
        <ele>1</ele>
        <time>2018-03-21T02:19:05Z</time>
      </trkpt>
      <trkpt lat="46.7178" lon="-1.91384">
        <ele>1</ele>
        <time>2018-03-21T02:20:05Z</time>
      </trkpt>
      <trkpt lat="46.71785" lon="-1.91362">
        <ele>1</ele>
        <time>2018-03-21T02:21:05Z</time>
      </trkpt>
      <trkpt lat="46.71792" lon="-1.91336">
        <ele>1</ele>
        <time>2018-03-21T02:22:05Z</time>
      </trkpt>
      <trkpt lat="46.71809" lon="-1.91278">
        <ele>2</ele>
        <time>2018-03-21T02:23:05Z</time>
      </trkpt>
      <trkpt lat="46.71822" lon="-1.91229">
        <ele>3</ele>
        <time>2018-03-21T02:24:05Z</time>
      </trkpt>
      <trkpt lat="46.71834" lon="-1.91176">
        <ele>3</ele>
        <time>2018-03-21T02:25:05Z</time>
      </trkpt>
      <trkpt lat="46.71839" lon="-1.91152">
        <ele>3</ele>
        <time>2018-03-21T02:26:05Z</time>
      </trkpt>
      <trkpt lat="46.71847" lon="-1.91107">
        <ele>2</ele>
        <time>2018-03-21T02:27:05Z</time>
      </trkpt>
      <trkpt lat="46.71851" lon="-1.91083">
        <ele>2</ele>
        <time>2018-03-21T02:28:05Z</time>
      </trkpt>
      <trkpt lat="46.71852" lon="-1.91064">
        <ele>2</ele>
        <time>2018-03-21T02:29:05Z</time>
      </trkpt>
      <trkpt lat="46.71852" lon="-1.91047">
        <ele>2</ele>
        <time>2018-03-21T02:30:05Z</time>
      </trkpt>
      <trkpt lat="46.71851" lon="-1.9102">
        <ele>3</ele>
        <time>2018-03-21T02:31:05Z</time>
      </trkpt>
      <trkpt lat="46.71846" lon="-1.90978">
        <ele>3</ele>
        <time>2018-03-21T02:32:05Z</time>
      </trkpt>
      <trkpt lat="46.71837" lon="-1.90885">
        <ele>5</ele>
        <time>2018-03-21T02:33:05Z</time>
      </trkpt>
      <trkpt lat="46.71832" lon="-1.90833">
        <ele>6</ele>
        <time>2018-03-21T02:34:05Z</time>
      </trkpt>
      <trkpt lat="46.71827" lon="-1.90802">
        <ele>6</ele>
        <time>2018-03-21T02:35:05Z</time>
      </trkpt>
      <trkpt lat="46.71821" lon="-1.90766">
        <ele>6</ele>
        <time>2018-03-21T02:36:05Z</time>
      </trkpt>
      <trkpt lat="46.7182" lon="-1.90764">
        <ele>6</ele>
        <time>2018-03-21T02:37:05Z</time>
      </trkpt>
      <trkpt lat="46.71811" lon="-1.90722">
        <ele>6</ele>
        <time>2018-03-21T02:38:05Z</time>
      </trkpt>
      <trkpt lat="46.71801" lon="-1.90668">
        <ele>5</ele>
        <time>2018-03-21T02:39:05Z</time>
      </trkpt>
      <trkpt lat="46.71797" lon="-1.90646">
        <ele>5</ele>
        <time>2018-03-21T02:40:05Z</time>
      </trkpt>
      <trkpt lat="46.71795" lon="-1.90616">
        <ele>6</ele>
        <time>2018-03-21T02:41:05Z</time>
      </trkpt>
      <trkpt lat="46.71795" lon="-1.90597">
        <ele>7</ele>
        <time>2018-03-21T02:42:05Z</time>
      </trkpt>
      <trkpt lat="46.71795" lon="-1.90578">
        <ele>7</ele>
        <time>2018-03-21T02:43:05Z</time>
      </trkpt>
      <trkpt lat="46.71798" lon="-1.90553">
        <ele>7</ele>
        <time>2018-03-21T02:44:05Z</time>
      </trkpt>
      <trkpt lat="46.71806" lon="-1.90529">
        <ele>7</ele>
        <time>2018-03-21T02:45:05Z</time>
      </trkpt>
      <trkpt lat="46.71818" lon="-1.90502">
        <ele>6</ele>
        <time>2018-03-21T02:46:05Z</time>
      </trkpt>
      <trkpt lat="46.71819" lon="-1.90499">
        <ele>6</ele>
        <time>2018-03-21T02:47:05Z</time>
      </trkpt>
      <trkpt lat="46.7183" lon="-1.90473">
        <ele>5</ele>
        <time>2018-03-21T02:48:05Z</time>
      </trkpt>
      <trkpt lat="46.71842" lon="-1.90449">
        <ele>5</ele>
        <time>2018-03-21T02:49:05Z</time>
      </trkpt>
      <trkpt lat="46.71845" lon="-1.90439">
        <ele>4</ele>
        <time>2018-03-21T02:50:05Z</time>
      </trkpt>
      <trkpt lat="46.71846" lon="-1.90435">
        <ele>4</ele>
        <time>2018-03-21T02:51:05Z</time>
      </trkpt>
      <trkpt lat="46.71847" lon="-1.90431">
        <ele>4</ele>
        <time>2018-03-21T02:52:05Z</time>
      </trkpt>
      <trkpt lat="46.71848" lon="-1.90421">
        <ele>4</ele>
        <time>2018-03-21T02:53:05Z</time>
      </trkpt>
      <trkpt lat="46.71851" lon="-1.90389">
        <ele>5</ele>
        <time>2018-03-21T02:54:05Z</time>
      </trkpt>
      <trkpt lat="46.71852" lon="-1.90384">
        <ele>5</ele>
        <time>2018-03-21T02:55:05Z</time>
      </trkpt>
      <trkpt lat="46.71852" lon="-1.9038">
        <ele>5</ele>
        <time>2018-03-21T02:56:05Z</time>
      </trkpt>
      <trkpt lat="46.71851" lon="-1.90377">
        <ele>5</ele>
        <time>2018-03-21T02:57:05Z</time>
      </trkpt>
      <trkpt lat="46.71851" lon="-1.90375">
        <ele>5</ele>
        <time>2018-03-21T02:58:05Z</time>
      </trkpt>
      <trkpt lat="46.7185" lon="-1.90372">
        <ele>5</ele>
        <time>2018-03-21T02:59:05Z</time>
      </trkpt>
      <trkpt lat="46.7185" lon="-1.9037">
        <ele>5</ele>
        <time>2018-03-21T03:00:05Z</time>
      </trkpt>
      <trkpt lat="46.71848" lon="-1.90366">
        <ele>5</ele>
        <time>2018-03-21T03:01:05Z</time>
      </trkpt>
      <trkpt lat="46.71844" lon="-1.90358">
        <ele>6</ele>
        <time>2018-03-21T03:02:05Z</time>
      </trkpt>
      <trkpt lat="46.71839" lon="-1.90349">
        <ele>6</ele>
        <time>2018-03-21T03:03:05Z</time>
      </trkpt>
      <trkpt lat="46.71839" lon="-1.90349">
        <ele>6</ele>
        <time>2018-03-21T03:04:05Z</time>
      </trkpt>
      <trkpt lat="46.71865" lon="-1.90316">
        <ele>6</ele>
        <time>2018-03-21T03:05:05Z</time>
      </trkpt>
      <trkpt lat="46.71869" lon="-1.90308">
        <ele>6</ele>
        <time>2018-03-21T03:06:05Z</time>
      </trkpt>
      <trkpt lat="46.71872" lon="-1.90301">
        <ele>6</ele>
        <time>2018-03-21T03:07:05Z</time>
      </trkpt>
      <trkpt lat="46.71876" lon="-1.90283">
        <ele>7</ele>
        <time>2018-03-21T03:08:05Z</time>
      </trkpt>
      <trkpt lat="46.71879" lon="-1.90274">
        <ele>7</ele>
        <time>2018-03-21T03:09:05Z</time>
      </trkpt>
      <trkpt lat="46.71883" lon="-1.90267">
        <ele>7</ele>
        <time>2018-03-21T03:10:05Z</time>
      </trkpt>
      <trkpt lat="46.71886" lon="-1.90263">
        <ele>7</ele>
        <time>2018-03-21T03:11:05Z</time>
      </trkpt>
      <trkpt lat="46.7189" lon="-1.9026">
        <ele>7</ele>
        <time>2018-03-21T03:12:05Z</time>
      </trkpt>
      <trkpt lat="46.71896" lon="-1.90256">
        <ele>7</ele>
        <time>2018-03-21T03:13:05Z</time>
      </trkpt>
      <trkpt lat="46.719" lon="-1.90254">
        <ele>7</ele>
        <time>2018-03-21T03:14:05Z</time>
      </trkpt>
      <trkpt lat="46.71914" lon="-1.90248">
        <ele>6</ele>
        <time>2018-03-21T03:15:05Z</time>
      </trkpt>
      <trkpt lat="46.71927" lon="-1.9024">
        <ele>6</ele>
        <time>2018-03-21T03:16:05Z</time>
      </trkpt>
      <trkpt lat="46.71934" lon="-1.90235">
        <ele>6</ele>
        <time>2018-03-21T03:17:05Z</time>
      </trkpt>
      <trkpt lat="46.71941" lon="-1.90227">
        <ele>6</ele>
        <time>2018-03-21T03:18:05Z</time>
      </trkpt>
      <trkpt lat="46.71946" lon="-1.90218">
        <ele>6</ele>
        <time>2018-03-21T03:19:05Z</time>
      </trkpt>
      <trkpt lat="46.71949" lon="-1.90211">
        <ele>6</ele>
        <time>2018-03-21T03:20:05Z</time>
      </trkpt>
      <trkpt lat="46.71953" lon="-1.90203">
        <ele>6</ele>
        <time>2018-03-21T03:21:05Z</time>
      </trkpt>
      <trkpt lat="46.71953" lon="-1.90201">
        <ele>6</ele>
        <time>2018-03-21T03:22:05Z</time>
      </trkpt>
      <trkpt lat="46.71956" lon="-1.90191">
        <ele>6</ele>
        <time>2018-03-21T03:23:05Z</time>
      </trkpt>
      <trkpt lat="46.71958" lon="-1.90176">
        <ele>6</ele>
        <time>2018-03-21T03:24:05Z</time>
      </trkpt>
      <trkpt lat="46.71959" lon="-1.90153">
        <ele>6</ele>
        <time>2018-03-21T03:25:05Z</time>
      </trkpt>
      <trkpt lat="46.71962" lon="-1.90125">
        <ele>6</ele>
        <time>2018-03-21T03:26:05Z</time>
      </trkpt>
      <trkpt lat="46.71965" lon="-1.90106">
        <ele>6</ele>
        <time>2018-03-21T03:27:05Z</time>
      </trkpt>
      <trkpt lat="46.71968" lon="-1.9008">
        <ele>6</ele>
        <time>2018-03-21T03:28:05Z</time>
      </trkpt>
      <trkpt lat="46.71973" lon="-1.90062">
        <ele>6</ele>
        <time>2018-03-21T03:29:05Z</time>
      </trkpt>
      <trkpt lat="46.71979" lon="-1.9005">
        <ele>6</ele>
        <time>2018-03-21T03:30:05Z</time>
      </trkpt>
      <trkpt lat="46.7199" lon="-1.90031">
        <ele>6</ele>
        <time>2018-03-21T03:31:05Z</time>
      </trkpt>
      <trkpt lat="46.72002" lon="-1.90007">
        <ele>6</ele>
        <time>2018-03-21T03:32:05Z</time>
      </trkpt>
      <trkpt lat="46.72013" lon="-1.89987">
        <ele>6</ele>
        <time>2018-03-21T03:33:05Z</time>
      </trkpt>
      <trkpt lat="46.7202" lon="-1.89975">
        <ele>7</ele>
        <time>2018-03-21T03:34:05Z</time>
      </trkpt>
      <trkpt lat="46.72029" lon="-1.8996">
        <ele>7</ele>
        <time>2018-03-21T03:35:05Z</time>
      </trkpt>
      <trkpt lat="46.72037" lon="-1.89948">
        <ele>7</ele>
        <time>2018-03-21T03:36:05Z</time>
      </trkpt>
      <trkpt lat="46.72042" lon="-1.89942">
        <ele>7</ele>
        <time>2018-03-21T03:37:05Z</time>
      </trkpt>
      <trkpt lat="46.72056" lon="-1.8993">
        <ele>7</ele>
        <time>2018-03-21T03:38:05Z</time>
      </trkpt>
      <trkpt lat="46.72084" lon="-1.89908">
        <ele>7</ele>
        <time>2018-03-21T03:39:05Z</time>
      </trkpt>
      <trkpt lat="46.72119" lon="-1.89878">
        <ele>8</ele>
        <time>2018-03-21T03:40:05Z</time>
      </trkpt>
      <trkpt lat="46.72143" lon="-1.89859">
        <ele>9</ele>
        <time>2018-03-21T03:41:05Z</time>
      </trkpt>
      <trkpt lat="46.72178" lon="-1.8983">
        <ele>9</ele>
        <time>2018-03-21T03:42:05Z</time>
      </trkpt>
      <trkpt lat="46.72203" lon="-1.89809">
        <ele>8</ele>
        <time>2018-03-21T03:43:05Z</time>
      </trkpt>
      <trkpt lat="46.72225" lon="-1.89792">
        <ele>7</ele>
        <time>2018-03-21T03:44:05Z</time>
      </trkpt>
      <trkpt lat="46.72253" lon="-1.8977">
        <ele>7</ele>
        <time>2018-03-21T03:45:05Z</time>
      </trkpt>
      <trkpt lat="46.72253" lon="-1.8977">
        <ele>7</ele>
        <time>2018-03-21T03:46:05Z</time>
      </trkpt>
      <trkpt lat="46.72261" lon="-1.89791">
        <ele>7</ele>
        <time>2018-03-21T03:47:05Z</time>
      </trkpt>
      <trkpt lat="46.72271" lon="-1.89821">
        <ele>6</ele>
        <time>2018-03-21T03:48:05Z</time>
      </trkpt>
      <trkpt lat="46.72283" lon="-1.89855">
        <ele>6</ele>
        <time>2018-03-21T03:49:05Z</time>
      </trkpt>
      <trkpt lat="46.72292" lon="-1.8988">
        <ele>6</ele>
        <time>2018-03-21T03:50:05Z</time>
      </trkpt>
      <trkpt lat="46.723" lon="-1.89904">
        <ele>6</ele>
        <time>2018-03-21T03:51:05Z</time>
      </trkpt>
      <trkpt lat="46.72307" lon="-1.89925">
        <ele>6</ele>
        <time>2018-03-21T03:52:05Z</time>
      </trkpt>
      <trkpt lat="46.72315" lon="-1.89944">
        <ele>6</ele>
        <time>2018-03-21T03:53:05Z</time>
      </trkpt>
      <trkpt lat="46.72323" lon="-1.8996">
        <ele>6</ele>
        <time>2018-03-21T03:54:05Z</time>
      </trkpt>
      <trkpt lat="46.72329" lon="-1.89969">
        <ele>6</ele>
        <time>2018-03-21T03:55:05Z</time>
      </trkpt>
      <trkpt lat="46.72336" lon="-1.89977">
        <ele>6</ele>
        <time>2018-03-21T03:56:05Z</time>
      </trkpt>
      <trkpt lat="46.72348" lon="-1.89995">
        <ele>5</ele>
        <time>2018-03-21T03:57:05Z</time>
      </trkpt>
      <trkpt lat="46.72358" lon="-1.90013">
        <ele>5</ele>
        <time>2018-03-21T03:58:05Z</time>
      </trkpt>
      <trkpt lat="46.72372" lon="-1.90041">
        <ele>4</ele>
        <time>2018-03-21T03:59:05Z</time>
      </trkpt>
      <trkpt lat="46.72388" lon="-1.90076">
        <ele>3</ele>
        <time>2018-03-21T04:00:05Z</time>
      </trkpt>
      <trkpt lat="46.72403" lon="-1.90108">
        <ele>3</ele>
        <time>2018-03-21T04:01:05Z</time>
      </trkpt>
      <trkpt lat="46.72412" lon="-1.90128">
        <ele>2</ele>
        <time>2018-03-21T04:02:05Z</time>
      </trkpt>
      <trkpt lat="46.7243" lon="-1.90169">
        <ele>2</ele>
        <time>2018-03-21T04:03:05Z</time>
      </trkpt>
      <trkpt lat="46.7244" lon="-1.9019">
        <ele>2</ele>
        <time>2018-03-21T04:04:05Z</time>
      </trkpt>
      <trkpt lat="46.7245" lon="-1.90213">
        <ele>2</ele>
        <time>2018-03-21T04:05:05Z</time>
      </trkpt>
      <trkpt lat="46.72458" lon="-1.90226">
        <ele>2</ele>
        <time>2018-03-21T04:06:05Z</time>
      </trkpt>
      <trkpt lat="46.72468" lon="-1.90239">
        <ele>2</ele>
        <time>2018-03-21T04:07:05Z</time>
      </trkpt>
      <trkpt lat="46.72485" lon="-1.90257">
        <ele>2</ele>
        <time>2018-03-21T04:08:05Z</time>
      </trkpt>
      <trkpt lat="46.72506" lon="-1.90278">
        <ele>2</ele>
        <time>2018-03-21T04:09:05Z</time>
      </trkpt>
      <trkpt lat="46.7254" lon="-1.90311">
        <ele>1</ele>
        <time>2018-03-21T04:10:05Z</time>
      </trkpt>
      <trkpt lat="46.72573" lon="-1.90343">
        <ele>1</ele>
        <time>2018-03-21T04:11:05Z</time>
      </trkpt>
      <trkpt lat="46.72603" lon="-1.90372">
        <ele>3.5</ele>
        <time>2018-03-21T04:12:05Z</time>
      </trkpt>
      <trkpt lat="46.72643" lon="-1.90413">
        <ele>3.7</ele>
        <time>2018-03-21T04:13:05Z</time>
      </trkpt>
      <trkpt lat="46.72671" lon="-1.9044">
        <ele>3.8</ele>
        <time>2018-03-21T04:14:05Z</time>
      </trkpt>
      <trkpt lat="46.72682" lon="-1.90451">
        <ele>3.5</ele>
        <time>2018-03-21T04:15:05Z</time>
      </trkpt>
      <trkpt lat="46.72693" lon="-1.90461">
        <ele>2.3</ele>
        <time>2018-03-21T04:16:05Z</time>
      </trkpt>
      <trkpt lat="46.72699" lon="-1.90466">
        <ele>1.7</ele>
        <time>2018-03-21T04:17:05Z</time>
      </trkpt>
      <trkpt lat="46.72704" lon="-1.90472">
        <ele>1.4</ele>
        <time>2018-03-21T04:18:05Z</time>
      </trkpt>
      <trkpt lat="46.72704" lon="-1.90472">
        <ele>1.4</ele>
        <time>2018-03-21T04:19:05Z</time>
      </trkpt>
      <trkpt lat="46.72712" lon="-1.9048">
        <ele>2.3</ele>
        <time>2018-03-21T04:20:05Z</time>
      </trkpt>
      <trkpt lat="46.7272" lon="-1.90488">
        <ele>3.1</ele>
        <time>2018-03-21T04:21:05Z</time>
      </trkpt>
      <trkpt lat="46.72728" lon="-1.90494">
        <ele>3.2</ele>
        <time>2018-03-21T04:22:05Z</time>
      </trkpt>
      <trkpt lat="46.72749" lon="-1.90513">
        <ele>3</ele>
        <time>2018-03-21T04:23:05Z</time>
      </trkpt>
      <trkpt lat="46.7276" lon="-1.90525">
        <ele>3.2</ele>
        <time>2018-03-21T04:24:05Z</time>
      </trkpt>
      <trkpt lat="46.72781" lon="-1.90543">
        <ele>1</ele>
        <time>2018-03-21T04:25:05Z</time>
      </trkpt>
      <trkpt lat="46.72794" lon="-1.90558">
        <ele>2.5</ele>
        <time>2018-03-21T04:26:05Z</time>
      </trkpt>
      <trkpt lat="46.72812" lon="-1.9058">
        <ele>3.4</ele>
        <time>2018-03-21T04:27:05Z</time>
      </trkpt>
      <trkpt lat="46.72831" lon="-1.90608">
        <ele>2.9</ele>
        <time>2018-03-21T04:28:05Z</time>
      </trkpt>
      <trkpt lat="46.72851" lon="-1.9064">
        <ele>3</ele>
        <time>2018-03-21T04:29:05Z</time>
      </trkpt>
      <trkpt lat="46.7288" lon="-1.90681">
        <ele>1</ele>
        <time>2018-03-21T04:30:05Z</time>
      </trkpt>
      <trkpt lat="46.72909" lon="-1.90728">
        <ele>2.6</ele>
        <time>2018-03-21T04:31:05Z</time>
      </trkpt>
      <trkpt lat="46.72951" lon="-1.90792">
        <ele>3.2</ele>
        <time>2018-03-21T04:32:05Z</time>
      </trkpt>
      <trkpt lat="46.72986" lon="-1.90845">
        <ele>1</ele>
        <time>2018-03-21T04:33:05Z</time>
      </trkpt>
      <trkpt lat="46.73019" lon="-1.90898">
        <ele>2.8</ele>
        <time>2018-03-21T04:34:05Z</time>
      </trkpt>
      <trkpt lat="46.73057" lon="-1.90954">
        <ele>1</ele>
        <time>2018-03-21T04:35:05Z</time>
      </trkpt>
      <trkpt lat="46.73098" lon="-1.91017">
        <ele>2</ele>
        <time>2018-03-21T04:36:05Z</time>
      </trkpt>
      <trkpt lat="46.7313" lon="-1.91067">
        <ele>4</ele>
        <time>2018-03-21T04:37:05Z</time>
      </trkpt>
      <trkpt lat="46.73137" lon="-1.91077">
        <ele>4</ele>
        <time>2018-03-21T04:38:05Z</time>
      </trkpt>
      <trkpt lat="46.73148" lon="-1.91095">
        <ele>4</ele>
        <time>2018-03-21T04:39:05Z</time>
      </trkpt>
      <trkpt lat="46.73151" lon="-1.91102">
        <ele>4</ele>
        <time>2018-03-21T04:40:05Z</time>
      </trkpt>
      <trkpt lat="46.73163" lon="-1.91117">
        <ele>5</ele>
        <time>2018-03-21T04:41:05Z</time>
      </trkpt>
      <trkpt lat="46.73169" lon="-1.91126">
        <ele>5</ele>
        <time>2018-03-21T04:42:05Z</time>
      </trkpt>
      <trkpt lat="46.73174" lon="-1.91134">
        <ele>6</ele>
        <time>2018-03-21T04:43:05Z</time>
      </trkpt>
      <trkpt lat="46.73184" lon="-1.91155">
        <ele>7</ele>
        <time>2018-03-21T04:44:05Z</time>
      </trkpt>
      <trkpt lat="46.73197" lon="-1.91182">
        <ele>8</ele>
        <time>2018-03-21T04:45:05Z</time>
      </trkpt>
      <trkpt lat="46.73208" lon="-1.91204">
        <ele>8</ele>
        <time>2018-03-21T04:46:05Z</time>
      </trkpt>
      <trkpt lat="46.73223" lon="-1.91238">
        <ele>9</ele>
        <time>2018-03-21T04:47:05Z</time>
      </trkpt>
      <trkpt lat="46.73227" lon="-1.91249">
        <ele>9</ele>
        <time>2018-03-21T04:48:05Z</time>
      </trkpt>
      <trkpt lat="46.73239" lon="-1.91274">
        <ele>10</ele>
        <time>2018-03-21T04:49:05Z</time>
      </trkpt>
      <trkpt lat="46.7325" lon="-1.91296">
        <ele>12</ele>
        <time>2018-03-21T04:50:05Z</time>
      </trkpt>
      <trkpt lat="46.73264" lon="-1.91328">
        <ele>13</ele>
        <time>2018-03-21T04:51:05Z</time>
      </trkpt>
      <trkpt lat="46.7328" lon="-1.91361">
        <ele>13</ele>
        <time>2018-03-21T04:52:05Z</time>
      </trkpt>
      <trkpt lat="46.73298" lon="-1.91401">
        <ele>13</ele>
        <time>2018-03-21T04:53:05Z</time>
      </trkpt>
      <trkpt lat="46.73304" lon="-1.91414">
        <ele>13</ele>
        <time>2018-03-21T04:54:05Z</time>
      </trkpt>
      <trkpt lat="46.73312" lon="-1.91432">
        <ele>13</ele>
        <time>2018-03-21T04:55:05Z</time>
      </trkpt>
      <trkpt lat="46.73321" lon="-1.91454">
        <ele>14</ele>
        <time>2018-03-21T04:56:05Z</time>
      </trkpt>
      <trkpt lat="46.73327" lon="-1.91472">
        <ele>14</ele>
        <time>2018-03-21T04:57:05Z</time>
      </trkpt>
      <trkpt lat="46.73331" lon="-1.9149">
        <ele>14</ele>
        <time>2018-03-21T04:58:05Z</time>
      </trkpt>
      <trkpt lat="46.73331" lon="-1.9149">
        <ele>14</ele>
        <time>2018-03-21T04:59:05Z</time>
      </trkpt>
      <trkpt lat="46.73335" lon="-1.91484">
        <ele>14</ele>
        <time>2018-03-21T05:00:05Z</time>
      </trkpt>
      <trkpt lat="46.73337" lon="-1.9148">
        <ele>14</ele>
        <time>2018-03-21T05:01:05Z</time>
      </trkpt>
      <trkpt lat="46.73339" lon="-1.91474">
        <ele>14</ele>
        <time>2018-03-21T05:02:05Z</time>
      </trkpt>
      <trkpt lat="46.7334" lon="-1.91469">
        <ele>13</ele>
        <time>2018-03-21T05:03:05Z</time>
      </trkpt>
      <trkpt lat="46.73344" lon="-1.91455">
        <ele>13</ele>
        <time>2018-03-21T05:04:05Z</time>
      </trkpt>
      <trkpt lat="46.73349" lon="-1.91432">
        <ele>13</ele>
        <time>2018-03-21T05:05:05Z</time>
      </trkpt>
      <trkpt lat="46.73355" lon="-1.91413">
        <ele>13</ele>
        <time>2018-03-21T05:06:05Z</time>
      </trkpt>
      <trkpt lat="46.73357" lon="-1.91405">
        <ele>13</ele>
        <time>2018-03-21T05:07:05Z</time>
      </trkpt>
      <trkpt lat="46.7336" lon="-1.91399">
        <ele>12</ele>
        <time>2018-03-21T05:08:05Z</time>
      </trkpt>
      <trkpt lat="46.73368" lon="-1.91384">
        <ele>12</ele>
        <time>2018-03-21T05:09:05Z</time>
      </trkpt>
      <trkpt lat="46.73392" lon="-1.91347">
        <ele>11</ele>
        <time>2018-03-21T05:10:05Z</time>
      </trkpt>
      <trkpt lat="46.73421" lon="-1.91295">
        <ele>11</ele>
        <time>2018-03-21T05:11:05Z</time>
      </trkpt>
      <trkpt lat="46.73442" lon="-1.91257">
        <ele>11</ele>
        <time>2018-03-21T05:12:05Z</time>
      </trkpt>
      <trkpt lat="46.73456" lon="-1.91235">
        <ele>10</ele>
        <time>2018-03-21T05:13:05Z</time>
      </trkpt>
      <trkpt lat="46.73456" lon="-1.91235">
        <ele>10</ele>
        <time>2018-03-21T05:14:05Z</time>
      </trkpt>
      <trkpt lat="46.73481" lon="-1.91256">
        <ele>9</ele>
        <time>2018-03-21T05:15:05Z</time>
      </trkpt>
      <trkpt lat="46.73522" lon="-1.91298">
        <ele>8</ele>
        <time>2018-03-21T05:16:05Z</time>
      </trkpt>
      <trkpt lat="46.73546" lon="-1.91323">
        <ele>8</ele>
        <time>2018-03-21T05:17:05Z</time>
      </trkpt>
      <trkpt lat="46.73558" lon="-1.91337">
        <ele>8</ele>
        <time>2018-03-21T05:18:05Z</time>
      </trkpt>
      <trkpt lat="46.73569" lon="-1.91351">
        <ele>7</ele>
        <time>2018-03-21T05:19:05Z</time>
      </trkpt>
      <trkpt lat="46.73578" lon="-1.91364">
        <ele>7</ele>
        <time>2018-03-21T05:20:05Z</time>
      </trkpt>
      <trkpt lat="46.73615" lon="-1.91424">
        <ele>6</ele>
        <time>2018-03-21T05:21:05Z</time>
      </trkpt>
      <trkpt lat="46.73651" lon="-1.91488">
        <ele>5</ele>
        <time>2018-03-21T05:22:05Z</time>
      </trkpt>
      <trkpt lat="46.73685" lon="-1.91548">
        <ele>6</ele>
        <time>2018-03-21T05:23:05Z</time>
      </trkpt>
      <trkpt lat="46.73728" lon="-1.91632">
        <ele>7</ele>
        <time>2018-03-21T05:24:05Z</time>
      </trkpt>
      <trkpt lat="46.73752" lon="-1.91678">
        <ele>5</ele>
        <time>2018-03-21T05:25:05Z</time>
      </trkpt>
      <trkpt lat="46.73761" lon="-1.91698">
        <ele>5</ele>
        <time>2018-03-21T05:26:05Z</time>
      </trkpt>
      <trkpt lat="46.73767" lon="-1.91714">
        <ele>5</ele>
        <time>2018-03-21T05:27:05Z</time>
      </trkpt>
      <trkpt lat="46.73771" lon="-1.91727">
        <ele>5</ele>
        <time>2018-03-21T05:28:05Z</time>
      </trkpt>
      <trkpt lat="46.73775" lon="-1.9174">
        <ele>5</ele>
        <time>2018-03-21T05:29:05Z</time>
      </trkpt>
      <trkpt lat="46.73777" lon="-1.9175">
        <ele>5</ele>
        <time>2018-03-21T05:30:05Z</time>
      </trkpt>
      <trkpt lat="46.73779" lon="-1.91762">
        <ele>5</ele>
        <time>2018-03-21T05:31:05Z</time>
      </trkpt>
      <trkpt lat="46.7378" lon="-1.91777">
        <ele>5</ele>
        <time>2018-03-21T05:32:05Z</time>
      </trkpt>
      <trkpt lat="46.73781" lon="-1.91794">
        <ele>5</ele>
        <time>2018-03-21T05:33:05Z</time>
      </trkpt>
      <trkpt lat="46.73781" lon="-1.91846">
        <ele>5</ele>
        <time>2018-03-21T05:34:05Z</time>
      </trkpt>
      <trkpt lat="46.73781" lon="-1.91858">
        <ele>5</ele>
        <time>2018-03-21T05:35:05Z</time>
      </trkpt>
      <trkpt lat="46.73781" lon="-1.91872">
        <ele>5</ele>
        <time>2018-03-21T05:36:05Z</time>
      </trkpt>
      <trkpt lat="46.73782" lon="-1.91884">
        <ele>5</ele>
        <time>2018-03-21T05:37:05Z</time>
      </trkpt>
      <trkpt lat="46.73784" lon="-1.91895">
        <ele>5</ele>
        <time>2018-03-21T05:38:05Z</time>
      </trkpt>
      <trkpt lat="46.73787" lon="-1.91904">
        <ele>5</ele>
        <time>2018-03-21T05:39:05Z</time>
      </trkpt>
      <trkpt lat="46.73787" lon="-1.91904">
        <ele>5</ele>
        <time>2018-03-21T05:40:05Z</time>
      </trkpt>
      <trkpt lat="46.73793" lon="-1.91895">
        <ele>5</ele>
        <time>2018-03-21T05:41:05Z</time>
      </trkpt>
      <trkpt lat="46.738" lon="-1.91886">
        <ele>5</ele>
        <time>2018-03-21T05:42:05Z</time>
      </trkpt>
      <trkpt lat="46.73813" lon="-1.91873">
        <ele>5</ele>
        <time>2018-03-21T05:43:05Z</time>
      </trkpt>
      <trkpt lat="46.73863" lon="-1.91828">
        <ele>4</ele>
        <time>2018-03-21T05:44:05Z</time>
      </trkpt>
      <trkpt lat="46.73918" lon="-1.91773">
        <ele>4</ele>
        <time>2018-03-21T05:45:05Z</time>
      </trkpt>
      <trkpt lat="46.73929" lon="-1.91762">
        <ele>4</ele>
        <time>2018-03-21T05:46:05Z</time>
      </trkpt>
      <trkpt lat="46.73946" lon="-1.91744">
        <ele>4</ele>
        <time>2018-03-21T05:47:05Z</time>
      </trkpt>
      <trkpt lat="46.73954" lon="-1.91736">
        <ele>5</ele>
        <time>2018-03-21T05:48:05Z</time>
      </trkpt>
      <trkpt lat="46.73966" lon="-1.91725">
        <ele>5</ele>
        <time>2018-03-21T05:49:05Z</time>
      </trkpt>
      <trkpt lat="46.73966" lon="-1.91725">
        <ele>5</ele>
        <time>2018-03-21T05:50:05Z</time>
      </trkpt>
      <trkpt lat="46.73994" lon="-1.91701">
        <ele>5</ele>
        <time>2018-03-21T05:51:05Z</time>
      </trkpt>
      <trkpt lat="46.74036" lon="-1.91667">
        <ele>6</ele>
        <time>2018-03-21T05:52:05Z</time>
      </trkpt>
      <trkpt lat="46.74089" lon="-1.91626">
        <ele>5</ele>
        <time>2018-03-21T05:53:05Z</time>
      </trkpt>
      <trkpt lat="46.74117" lon="-1.91604">
        <ele>5</ele>
        <time>2018-03-21T05:54:05Z</time>
      </trkpt>
      <trkpt lat="46.74143" lon="-1.91582">
        <ele>5</ele>
        <time>2018-03-21T05:55:05Z</time>
      </trkpt>
      <trkpt lat="46.74156" lon="-1.9157">
        <ele>5</ele>
        <time>2018-03-21T05:56:05Z</time>
      </trkpt>
      <trkpt lat="46.74172" lon="-1.91555">
        <ele>5</ele>
        <time>2018-03-21T05:57:05Z</time>
      </trkpt>
      <trkpt lat="46.74174" lon="-1.91553">
        <ele>5</ele>
        <time>2018-03-21T05:58:05Z</time>
      </trkpt>
      <trkpt lat="46.74192" lon="-1.91535">
        <ele>5</ele>
        <time>2018-03-21T05:59:05Z</time>
      </trkpt>
      <trkpt lat="46.74235" lon="-1.91492">
        <ele>5</ele>
        <time>2018-03-21T06:00:05Z</time>
      </trkpt>
      <trkpt lat="46.74245" lon="-1.91482">
        <ele>5</ele>
        <time>2018-03-21T06:01:05Z</time>
      </trkpt>
      <trkpt lat="46.74283" lon="-1.91443">
        <ele>4</ele>
        <time>2018-03-21T06:02:05Z</time>
      </trkpt>
      <trkpt lat="46.74292" lon="-1.91432">
        <ele>4</ele>
        <time>2018-03-21T06:03:05Z</time>
      </trkpt>
      <trkpt lat="46.74294" lon="-1.91432">
        <ele>4</ele>
        <time>2018-03-21T06:04:05Z</time>
      </trkpt>
      <trkpt lat="46.74297" lon="-1.91431">
        <ele>4</ele>
        <time>2018-03-21T06:05:05Z</time>
      </trkpt>
      <trkpt lat="46.74311" lon="-1.91431">
        <ele>4</ele>
        <time>2018-03-21T06:06:05Z</time>
      </trkpt>
      <trkpt lat="46.74311" lon="-1.91431">
        <ele>4</ele>
        <time>2018-03-21T06:07:05Z</time>
      </trkpt>
      <trkpt lat="46.74317" lon="-1.91418">
        <ele>4</ele>
        <time>2018-03-21T06:08:05Z</time>
      </trkpt>
      <trkpt lat="46.74324" lon="-1.91402">
        <ele>4</ele>
        <time>2018-03-21T06:09:05Z</time>
      </trkpt>
      <trkpt lat="46.74333" lon="-1.91384">
        <ele>4</ele>
        <time>2018-03-21T06:10:05Z</time>
      </trkpt>
      <trkpt lat="46.74344" lon="-1.9136">
        <ele>4</ele>
        <time>2018-03-21T06:11:05Z</time>
      </trkpt>
      <trkpt lat="46.74351" lon="-1.91346">
        <ele>4</ele>
        <time>2018-03-21T06:12:05Z</time>
      </trkpt>
      <trkpt lat="46.74358" lon="-1.91334">
        <ele>4</ele>
        <time>2018-03-21T06:13:05Z</time>
      </trkpt>
      <trkpt lat="46.74367" lon="-1.91321">
        <ele>4</ele>
        <time>2018-03-21T06:14:05Z</time>
      </trkpt>
      <trkpt lat="46.74375" lon="-1.91309">
        <ele>3</ele>
        <time>2018-03-21T06:15:05Z</time>
      </trkpt>
      <trkpt lat="46.74385" lon="-1.91297">
        <ele>3</ele>
        <time>2018-03-21T06:16:05Z</time>
      </trkpt>
      <trkpt lat="46.74388" lon="-1.91293">
        <ele>3</ele>
        <time>2018-03-21T06:17:05Z</time>
      </trkpt>
      <trkpt lat="46.74418" lon="-1.91257">
        <ele>3</ele>
        <time>2018-03-21T06:18:05Z</time>
      </trkpt>
      <trkpt lat="46.74469" lon="-1.91194">
        <ele>4</ele>
        <time>2018-03-21T06:19:05Z</time>
      </trkpt>
      <trkpt lat="46.74477" lon="-1.91184">
        <ele>4</ele>
        <time>2018-03-21T06:20:05Z</time>
      </trkpt>
      <trkpt lat="46.74534" lon="-1.91117">
        <ele>3</ele>
        <time>2018-03-21T06:21:05Z</time>
      </trkpt>
      <trkpt lat="46.74563" lon="-1.91079">
        <ele>3</ele>
        <time>2018-03-21T06:22:05Z</time>
      </trkpt>
      <trkpt lat="46.74569" lon="-1.91072">
        <ele>2</ele>
        <time>2018-03-21T06:23:05Z</time>
      </trkpt>
      <trkpt lat="46.74573" lon="-1.91066">
        <ele>2</ele>
        <time>2018-03-21T06:24:05Z</time>
      </trkpt>
      <trkpt lat="46.74576" lon="-1.9106">
        <ele>2</ele>
        <time>2018-03-21T06:25:05Z</time>
      </trkpt>
      <trkpt lat="46.74584" lon="-1.91045">
        <ele>2</ele>
        <time>2018-03-21T06:26:05Z</time>
      </trkpt>
      <trkpt lat="46.74581" lon="-1.91042">
        <ele>3</ele>
        <time>2018-03-21T06:27:05Z</time>
      </trkpt>
      <trkpt lat="46.7458" lon="-1.91039">
        <ele>3</ele>
        <time>2018-03-21T06:28:05Z</time>
      </trkpt>
      <trkpt lat="46.74579" lon="-1.91036">
        <ele>3</ele>
        <time>2018-03-21T06:29:05Z</time>
      </trkpt>
      <trkpt lat="46.74579" lon="-1.91033">
        <ele>3</ele>
        <time>2018-03-21T06:30:05Z</time>
      </trkpt>
      <trkpt lat="46.7458" lon="-1.9103">
        <ele>3</ele>
        <time>2018-03-21T06:31:05Z</time>
      </trkpt>
      <trkpt lat="46.74583" lon="-1.91026">
        <ele>3</ele>
        <time>2018-03-21T06:32:05Z</time>
      </trkpt>
      <trkpt lat="46.74586" lon="-1.91024">
        <ele>3</ele>
        <time>2018-03-21T06:33:05Z</time>
      </trkpt>
      <trkpt lat="46.74589" lon="-1.91025">
        <ele>3</ele>
        <time>2018-03-21T06:34:05Z</time>
      </trkpt>
      <trkpt lat="46.74591" lon="-1.91026">
        <ele>3</ele>
        <time>2018-03-21T06:35:05Z</time>
      </trkpt>
      <trkpt lat="46.74596" lon="-1.91019">
        <ele>3</ele>
        <time>2018-03-21T06:36:05Z</time>
      </trkpt>
      <trkpt lat="46.74597" lon="-1.91017">
        <ele>3</ele>
        <time>2018-03-21T06:37:05Z</time>
      </trkpt>
      <trkpt lat="46.74598" lon="-1.91015">
        <ele>3</ele>
        <time>2018-03-21T06:38:05Z</time>
      </trkpt>
      <trkpt lat="46.746" lon="-1.91009">
        <ele>3</ele>
        <time>2018-03-21T06:39:05Z</time>
      </trkpt>
      <trkpt lat="46.74602" lon="-1.91001">
        <ele>3</ele>
        <time>2018-03-21T06:40:05Z</time>
      </trkpt>
      <trkpt lat="46.74603" lon="-1.9099">
        <ele>3</ele>
        <time>2018-03-21T06:41:05Z</time>
      </trkpt>
      <trkpt lat="46.74603" lon="-1.9098">
        <ele>3</ele>
        <time>2018-03-21T06:42:05Z</time>
      </trkpt>
      <trkpt lat="46.74602" lon="-1.9097">
        <ele>3</ele>
        <time>2018-03-21T06:43:05Z</time>
      </trkpt>
      <trkpt lat="46.74599" lon="-1.9096">
        <ele>3</ele>
        <time>2018-03-21T06:44:05Z</time>
      </trkpt>
      <trkpt lat="46.74594" lon="-1.90947">
        <ele>3</ele>
        <time>2018-03-21T06:45:05Z</time>
      </trkpt>
      <trkpt lat="46.74591" lon="-1.9094">
        <ele>3</ele>
        <time>2018-03-21T06:46:05Z</time>
      </trkpt>
      <trkpt lat="46.74581" lon="-1.90912">
        <ele>3</ele>
        <time>2018-03-21T06:47:05Z</time>
      </trkpt>
      <trkpt lat="46.7458" lon="-1.90911">
        <ele>3</ele>
        <time>2018-03-21T06:48:05Z</time>
      </trkpt>
      <trkpt lat="46.74576" lon="-1.90901">
        <ele>3</ele>
        <time>2018-03-21T06:49:05Z</time>
      </trkpt>
      <trkpt lat="46.74572" lon="-1.90893">
        <ele>4</ele>
        <time>2018-03-21T06:50:05Z</time>
      </trkpt>
      <trkpt lat="46.74566" lon="-1.9088">
        <ele>4</ele>
        <time>2018-03-21T06:51:05Z</time>
      </trkpt>
      <trkpt lat="46.74566" lon="-1.9088">
        <ele>4</ele>
        <time>2018-03-21T06:52:05Z</time>
      </trkpt>
      <trkpt lat="46.74564" lon="-1.90876">
        <ele>4</ele>
        <time>2018-03-21T06:53:05Z</time>
      </trkpt>
      <trkpt lat="46.74554" lon="-1.90862">
        <ele>4</ele>
        <time>2018-03-21T06:54:05Z</time>
      </trkpt>
      <trkpt lat="46.74534" lon="-1.90836">
        <ele>5</ele>
        <time>2018-03-21T06:55:05Z</time>
      </trkpt>
      <trkpt lat="46.74528" lon="-1.90828">
        <ele>5</ele>
        <time>2018-03-21T06:56:05Z</time>
      </trkpt>
      <trkpt lat="46.74523" lon="-1.90822">
        <ele>5</ele>
        <time>2018-03-21T06:57:05Z</time>
      </trkpt>
      <trkpt lat="46.74511" lon="-1.90805">
        <ele>5</ele>
        <time>2018-03-21T06:58:05Z</time>
      </trkpt>
      <trkpt lat="46.74508" lon="-1.90798">
        <ele>5</ele>
        <time>2018-03-21T06:59:05Z</time>
      </trkpt>
      <trkpt lat="46.74503" lon="-1.90787">
        <ele>5</ele>
        <time>2018-03-21T07:00:05Z</time>
      </trkpt>
      <trkpt lat="46.74496" lon="-1.90771">
        <ele>5</ele>
        <time>2018-03-21T07:01:05Z</time>
      </trkpt>
      <trkpt lat="46.74491" lon="-1.90757">
        <ele>5</ele>
        <time>2018-03-21T07:02:05Z</time>
      </trkpt>
      <trkpt lat="46.74487" lon="-1.90744">
        <ele>5</ele>
        <time>2018-03-21T07:03:05Z</time>
      </trkpt>
      <trkpt lat="46.74486" lon="-1.90734">
        <ele>5</ele>
        <time>2018-03-21T07:04:05Z</time>
      </trkpt>
      <trkpt lat="46.74485" lon="-1.90722">
        <ele>5</ele>
        <time>2018-03-21T07:05:05Z</time>
      </trkpt>
      <trkpt lat="46.74486" lon="-1.90716">
        <ele>5</ele>
        <time>2018-03-21T07:06:05Z</time>
      </trkpt>
      <trkpt lat="46.74487" lon="-1.90711">
        <ele>5</ele>
        <time>2018-03-21T07:07:05Z</time>
      </trkpt>
      <trkpt lat="46.74489" lon="-1.90704">
        <ele>5</ele>
        <time>2018-03-21T07:08:05Z</time>
      </trkpt>
      <trkpt lat="46.74493" lon="-1.90698">
        <ele>4</ele>
        <time>2018-03-21T07:09:05Z</time>
      </trkpt>
      <trkpt lat="46.74497" lon="-1.9069">
        <ele>4</ele>
        <time>2018-03-21T07:10:05Z</time>
      </trkpt>
      <trkpt lat="46.74502" lon="-1.90684">
        <ele>4</ele>
        <time>2018-03-21T07:11:05Z</time>
      </trkpt>
      <trkpt lat="46.74506" lon="-1.90678">
        <ele>4</ele>
        <time>2018-03-21T07:12:05Z</time>
      </trkpt>
      <trkpt lat="46.74512" lon="-1.90668">
        <ele>4</ele>
        <time>2018-03-21T07:13:05Z</time>
      </trkpt>
      <trkpt lat="46.74519" lon="-1.90656">
        <ele>4</ele>
        <time>2018-03-21T07:14:05Z</time>
      </trkpt>
      <trkpt lat="46.74519" lon="-1.90656">
        <ele>4</ele>
        <time>2018-03-21T07:15:05Z</time>
      </trkpt>
      <trkpt lat="46.74523" lon="-1.90646">
        <ele>4</ele>
        <time>2018-03-21T07:16:05Z</time>
      </trkpt>
      <trkpt lat="46.74529" lon="-1.90639">
        <ele>4</ele>
        <time>2018-03-21T07:17:05Z</time>
      </trkpt>
      <trkpt lat="46.74538" lon="-1.90629">
        <ele>4</ele>
        <time>2018-03-21T07:18:05Z</time>
      </trkpt>
      <trkpt lat="46.74549" lon="-1.90627">
        <ele>3</ele>
        <time>2018-03-21T07:19:05Z</time>
      </trkpt>
      <trkpt lat="46.74552" lon="-1.90625">
        <ele>3</ele>
        <time>2018-03-21T07:20:05Z</time>
      </trkpt>
      <trkpt lat="46.74567" lon="-1.90615">
        <ele>3</ele>
        <time>2018-03-21T07:21:05Z</time>
      </trkpt>
      <trkpt lat="46.74573" lon="-1.9061">
        <ele>3</ele>
        <time>2018-03-21T07:22:05Z</time>
      </trkpt>
      <trkpt lat="46.74591" lon="-1.90595">
        <ele>2</ele>
        <time>2018-03-21T07:23:05Z</time>
      </trkpt>
      <trkpt lat="46.74603" lon="-1.90586">
        <ele>2</ele>
        <time>2018-03-21T07:24:05Z</time>
      </trkpt>
      <trkpt lat="46.74612" lon="-1.90578">
        <ele>2</ele>
        <time>2018-03-21T07:25:05Z</time>
      </trkpt>
      <trkpt lat="46.74618" lon="-1.90573">
        <ele>2</ele>
        <time>2018-03-21T07:26:05Z</time>
      </trkpt>
      <trkpt lat="46.74672" lon="-1.90525">
        <ele>3</ele>
        <time>2018-03-21T07:27:05Z</time>
      </trkpt>
      <trkpt lat="46.74727" lon="-1.90479">
        <ele>4</ele>
        <time>2018-03-21T07:28:05Z</time>
      </trkpt>
      <trkpt lat="46.7473" lon="-1.90477">
        <ele>4</ele>
        <time>2018-03-21T07:29:05Z</time>
      </trkpt>
      <trkpt lat="46.74758" lon="-1.90455">
        <ele>4</ele>
        <time>2018-03-21T07:30:05Z</time>
      </trkpt>
      <trkpt lat="46.74812" lon="-1.90415">
        <ele>4</ele>
        <time>2018-03-21T07:31:05Z</time>
      </trkpt>
      <trkpt lat="46.74824" lon="-1.90396">
        <ele>4</ele>
        <time>2018-03-21T07:32:05Z</time>
      </trkpt>
      <trkpt lat="46.74824" lon="-1.90396">
        <ele>4</ele>
        <time>2018-03-21T07:33:05Z</time>
      </trkpt>
      <trkpt lat="46.74826" lon="-1.90393">
        <ele>4</ele>
        <time>2018-03-21T07:34:05Z</time>
      </trkpt>
      <trkpt lat="46.74827" lon="-1.9039">
        <ele>4</ele>
        <time>2018-03-21T07:35:05Z</time>
      </trkpt>
      <trkpt lat="46.74828" lon="-1.90387">
        <ele>4</ele>
        <time>2018-03-21T07:36:05Z</time>
      </trkpt>
      <trkpt lat="46.74833" lon="-1.90389">
        <ele>4</ele>
        <time>2018-03-21T07:37:05Z</time>
      </trkpt>
      <trkpt lat="46.74849" lon="-1.90399">
        <ele>4</ele>
        <time>2018-03-21T07:38:05Z</time>
      </trkpt>
      <trkpt lat="46.74857" lon="-1.90405">
        <ele>4</ele>
        <time>2018-03-21T07:39:05Z</time>
      </trkpt>
      <trkpt lat="46.7487" lon="-1.90405">
        <ele>4</ele>
        <time>2018-03-21T07:40:05Z</time>
      </trkpt>
      <trkpt lat="46.74894" lon="-1.90404">
        <ele>4</ele>
        <time>2018-03-21T07:41:05Z</time>
      </trkpt>
      <trkpt lat="46.7493" lon="-1.90404">
        <ele>4</ele>
        <time>2018-03-21T07:42:05Z</time>
      </trkpt>
      <trkpt lat="46.74972" lon="-1.90405">
        <ele>4</ele>
        <time>2018-03-21T07:43:05Z</time>
      </trkpt>
      <trkpt lat="46.74977" lon="-1.90405">
        <ele>4</ele>
        <time>2018-03-21T07:44:05Z</time>
      </trkpt>
      <trkpt lat="46.74986" lon="-1.90406">
        <ele>4</ele>
        <time>2018-03-21T07:45:05Z</time>
      </trkpt>
      <trkpt lat="46.7499" lon="-1.90406">
        <ele>4</ele>
        <time>2018-03-21T07:46:05Z</time>
      </trkpt>
      <trkpt lat="46.75003" lon="-1.90407">
        <ele>4</ele>
        <time>2018-03-21T07:47:05Z</time>
      </trkpt>
      <trkpt lat="46.75012" lon="-1.90407">
        <ele>4</ele>
        <time>2018-03-21T07:48:05Z</time>
      </trkpt>
      <trkpt lat="46.75027" lon="-1.90405">
        <ele>4</ele>
        <time>2018-03-21T07:49:05Z</time>
      </trkpt>
      <trkpt lat="46.75037" lon="-1.90403">
        <ele>3</ele>
        <time>2018-03-21T07:50:05Z</time>
      </trkpt>
      <trkpt lat="46.75056" lon="-1.90401">
        <ele>3</ele>
        <time>2018-03-21T07:51:05Z</time>
      </trkpt>
      <trkpt lat="46.75082" lon="-1.90398">
        <ele>3</ele>
        <time>2018-03-21T07:52:05Z</time>
      </trkpt>
      <trkpt lat="46.75102" lon="-1.90394">
        <ele>3</ele>
        <time>2018-03-21T07:53:05Z</time>
      </trkpt>
      <trkpt lat="46.7512" lon="-1.90389">
        <ele>3</ele>
        <time>2018-03-21T07:54:05Z</time>
      </trkpt>
      <trkpt lat="46.7514" lon="-1.90382">
        <ele>2</ele>
        <time>2018-03-21T07:55:05Z</time>
      </trkpt>
      <trkpt lat="46.75154" lon="-1.90376">
        <ele>2</ele>
        <time>2018-03-21T07:56:05Z</time>
      </trkpt>
      <trkpt lat="46.75209" lon="-1.90356">
        <ele>3</ele>
        <time>2018-03-21T07:57:05Z</time>
      </trkpt>
      <trkpt lat="46.75253" lon="-1.90344">
        <ele>3</ele>
        <time>2018-03-21T07:58:05Z</time>
      </trkpt>
      <trkpt lat="46.75275" lon="-1.90336">
        <ele>3</ele>
        <time>2018-03-21T07:59:05Z</time>
      </trkpt>
      <trkpt lat="46.75304" lon="-1.90326">
        <ele>3</ele>
        <time>2018-03-21T08:00:05Z</time>
      </trkpt>
      <trkpt lat="46.75324" lon="-1.90317">
        <ele>3</ele>
        <time>2018-03-21T08:01:05Z</time>
      </trkpt>
      <trkpt lat="46.75342" lon="-1.90309">
        <ele>3</ele>
        <time>2018-03-21T08:02:05Z</time>
      </trkpt>
      <trkpt lat="46.75351" lon="-1.90304">
        <ele>3</ele>
        <time>2018-03-21T08:03:05Z</time>
      </trkpt>
      <trkpt lat="46.75364" lon="-1.90296">
        <ele>2</ele>
        <time>2018-03-21T08:04:05Z</time>
      </trkpt>
      <trkpt lat="46.7537" lon="-1.90291">
        <ele>2</ele>
        <time>2018-03-21T08:05:05Z</time>
      </trkpt>
      <trkpt lat="46.75376" lon="-1.90285">
        <ele>2</ele>
        <time>2018-03-21T08:06:05Z</time>
      </trkpt>
      <trkpt lat="46.75381" lon="-1.90281">
        <ele>2</ele>
        <time>2018-03-21T08:07:05Z</time>
      </trkpt>
      <trkpt lat="46.75385" lon="-1.90276">
        <ele>2</ele>
        <time>2018-03-21T08:08:05Z</time>
      </trkpt>
      <trkpt lat="46.75391" lon="-1.90269">
        <ele>2</ele>
        <time>2018-03-21T08:09:05Z</time>
      </trkpt>
      <trkpt lat="46.75399" lon="-1.90259">
        <ele>2</ele>
        <time>2018-03-21T08:10:05Z</time>
      </trkpt>
      <trkpt lat="46.75415" lon="-1.9024">
        <ele>2</ele>
        <time>2018-03-21T08:11:05Z</time>
      </trkpt>
      <trkpt lat="46.75449" lon="-1.90196">
        <ele>3</ele>
        <time>2018-03-21T08:12:05Z</time>
      </trkpt>
      <trkpt lat="46.75474" lon="-1.90165">
        <ele>3</ele>
        <time>2018-03-21T08:13:05Z</time>
      </trkpt>
      <trkpt lat="46.75507" lon="-1.90119">
        <ele>3</ele>
        <time>2018-03-21T08:14:05Z</time>
      </trkpt>
      <trkpt lat="46.75536" lon="-1.90077">
        <ele>3</ele>
        <time>2018-03-21T08:15:05Z</time>
      </trkpt>
      <trkpt lat="46.75546" lon="-1.90063">
        <ele>3</ele>
        <time>2018-03-21T08:16:05Z</time>
      </trkpt>
      <trkpt lat="46.75576" lon="-1.90019">
        <ele>3</ele>
        <time>2018-03-21T08:17:05Z</time>
      </trkpt>
      <trkpt lat="46.75612" lon="-1.89968">
        <ele>3</ele>
        <time>2018-03-21T08:18:05Z</time>
      </trkpt>
      <trkpt lat="46.75657" lon="-1.89906">
        <ele>2</ele>
        <time>2018-03-21T08:19:05Z</time>
      </trkpt>
      <trkpt lat="46.75693" lon="-1.89855">
        <ele>3</ele>
        <time>2018-03-21T08:20:05Z</time>
      </trkpt>
      <trkpt lat="46.75721" lon="-1.89813">
        <ele>4</ele>
        <time>2018-03-21T08:21:05Z</time>
      </trkpt>
      <trkpt lat="46.75744" lon="-1.8978">
        <ele>4</ele>
        <time>2018-03-21T08:22:05Z</time>
      </trkpt>
      <trkpt lat="46.75768" lon="-1.89746">
        <ele>4</ele>
        <time>2018-03-21T08:23:05Z</time>
      </trkpt>
      <trkpt lat="46.75803" lon="-1.89686">
        <ele>4</ele>
        <time>2018-03-21T08:24:05Z</time>
      </trkpt>
      <trkpt lat="46.75805" lon="-1.89682">
        <ele>4</ele>
        <time>2018-03-21T08:25:05Z</time>
      </trkpt>
      <trkpt lat="46.75819" lon="-1.89656">
        <ele>4</ele>
        <time>2018-03-21T08:26:05Z</time>
      </trkpt>
      <trkpt lat="46.75834" lon="-1.89629">
        <ele>4</ele>
        <time>2018-03-21T08:27:05Z</time>
      </trkpt>
      <trkpt lat="46.75837" lon="-1.89622">
        <ele>4</ele>
        <time>2018-03-21T08:28:05Z</time>
      </trkpt>
      <trkpt lat="46.75857" lon="-1.89591">
        <ele>4</ele>
        <time>2018-03-21T08:29:05Z</time>
      </trkpt>
      <trkpt lat="46.75882" lon="-1.89551">
        <ele>3</ele>
        <time>2018-03-21T08:30:05Z</time>
      </trkpt>
      <trkpt lat="46.75911" lon="-1.89505">
        <ele>3</ele>
        <time>2018-03-21T08:31:05Z</time>
      </trkpt>
      <trkpt lat="46.75925" lon="-1.89485">
        <ele>3</ele>
        <time>2018-03-21T08:32:05Z</time>
      </trkpt>
      <trkpt lat="46.75935" lon="-1.8947">
        <ele>3</ele>
        <time>2018-03-21T08:33:05Z</time>
      </trkpt>
      <trkpt lat="46.75989" lon="-1.89403">
        <ele>4</ele>
        <time>2018-03-21T08:34:05Z</time>
      </trkpt>
      <trkpt lat="46.76018" lon="-1.89367">
        <ele>4</ele>
        <time>2018-03-21T08:35:05Z</time>
      </trkpt>
      <trkpt lat="46.76026" lon="-1.89356">
        <ele>4</ele>
        <time>2018-03-21T08:36:05Z</time>
      </trkpt>
      <trkpt lat="46.76031" lon="-1.89349">
        <ele>4</ele>
        <time>2018-03-21T08:37:05Z</time>
      </trkpt>
      <trkpt lat="46.76041" lon="-1.89335">
        <ele>4</ele>
        <time>2018-03-21T08:38:05Z</time>
      </trkpt>
      <trkpt lat="46.7605" lon="-1.89322">
        <ele>4</ele>
        <time>2018-03-21T08:39:05Z</time>
      </trkpt>
      <trkpt lat="46.76072" lon="-1.89289">
        <ele>4</ele>
        <time>2018-03-21T08:40:05Z</time>
      </trkpt>
      <trkpt lat="46.76104" lon="-1.89238">
        <ele>4</ele>
        <time>2018-03-21T08:41:05Z</time>
      </trkpt>
      <trkpt lat="46.76128" lon="-1.89196">
        <ele>4</ele>
        <time>2018-03-21T08:42:05Z</time>
      </trkpt>
      <trkpt lat="46.76158" lon="-1.89147">
        <ele>3</ele>
        <time>2018-03-21T08:43:05Z</time>
      </trkpt>
      <trkpt lat="46.76188" lon="-1.89101">
        <ele>3</ele>
        <time>2018-03-21T08:44:05Z</time>
      </trkpt>
      <trkpt lat="46.762" lon="-1.89085">
        <ele>3</ele>
        <time>2018-03-21T08:45:05Z</time>
      </trkpt>
      <trkpt lat="46.76207" lon="-1.89075">
        <ele>3</ele>
        <time>2018-03-21T08:46:05Z</time>
      </trkpt>
      <trkpt lat="46.76216" lon="-1.89064">
        <ele>3</ele>
        <time>2018-03-21T08:47:05Z</time>
      </trkpt>
      <trkpt lat="46.76238" lon="-1.8904">
        <ele>3</ele>
        <time>2018-03-21T08:48:05Z</time>
      </trkpt>
      <trkpt lat="46.76259" lon="-1.89016">
        <ele>4</ele>
        <time>2018-03-21T08:49:05Z</time>
      </trkpt>
      <trkpt lat="46.76264" lon="-1.89011">
        <ele>4</ele>
        <time>2018-03-21T08:50:05Z</time>
      </trkpt>
      <trkpt lat="46.76272" lon="-1.89001">
        <ele>4</ele>
        <time>2018-03-21T08:51:05Z</time>
      </trkpt>
      <trkpt lat="46.76284" lon="-1.88985">
        <ele>5</ele>
        <time>2018-03-21T08:52:05Z</time>
      </trkpt>
      <trkpt lat="46.76296" lon="-1.88969">
        <ele>5</ele>
        <time>2018-03-21T08:53:05Z</time>
      </trkpt>
      <trkpt lat="46.76309" lon="-1.88949">
        <ele>5</ele>
        <time>2018-03-21T08:54:05Z</time>
      </trkpt>
      <trkpt lat="46.76324" lon="-1.88928">
        <ele>5</ele>
        <time>2018-03-21T08:55:05Z</time>
      </trkpt>
      <trkpt lat="46.7634" lon="-1.88904">
        <ele>5</ele>
        <time>2018-03-21T08:56:05Z</time>
      </trkpt>
      <trkpt lat="46.76385" lon="-1.88837">
        <ele>5</ele>
        <time>2018-03-21T08:57:05Z</time>
      </trkpt>
      <trkpt lat="46.76428" lon="-1.88781">
        <ele>5</ele>
        <time>2018-03-21T08:58:05Z</time>
      </trkpt>
      <trkpt lat="46.76477" lon="-1.88715">
        <ele>5</ele>
        <time>2018-03-21T08:59:05Z</time>
      </trkpt>
      <trkpt lat="46.76487" lon="-1.887">
        <ele>4</ele>
        <time>2018-03-21T09:00:05Z</time>
      </trkpt>
      <trkpt lat="46.76492" lon="-1.88687">
        <ele>4</ele>
        <time>2018-03-21T09:01:05Z</time>
      </trkpt>
      <trkpt lat="46.76494" lon="-1.88684">
        <ele>4</ele>
        <time>2018-03-21T09:02:05Z</time>
      </trkpt>
      <trkpt lat="46.7651" lon="-1.88657">
        <ele>4</ele>
        <time>2018-03-21T09:03:05Z</time>
      </trkpt>
      <trkpt lat="46.7651" lon="-1.88655">
        <ele>4</ele>
        <time>2018-03-21T09:04:05Z</time>
      </trkpt>
      <trkpt lat="46.76512" lon="-1.88653">
        <ele>4</ele>
        <time>2018-03-21T09:05:05Z</time>
      </trkpt>
      <trkpt lat="46.76514" lon="-1.8865">
        <ele>4</ele>
        <time>2018-03-21T09:06:05Z</time>
      </trkpt>
      <trkpt lat="46.76514" lon="-1.8865">
        <ele>4</ele>
        <time>2018-03-21T09:07:05Z</time>
      </trkpt>
      <trkpt lat="46.76514" lon="-1.88647">
        <ele>4</ele>
        <time>2018-03-21T09:08:05Z</time>
      </trkpt>
      <trkpt lat="46.76515" lon="-1.88645">
        <ele>4</ele>
        <time>2018-03-21T09:09:05Z</time>
      </trkpt>
      <trkpt lat="46.76517" lon="-1.88644">
        <ele>4</ele>
        <time>2018-03-21T09:10:05Z</time>
      </trkpt>
      <trkpt lat="46.76517" lon="-1.88643">
        <ele>4</ele>
        <time>2018-03-21T09:11:05Z</time>
      </trkpt>
      <trkpt lat="46.76519" lon="-1.88642">
        <ele>4</ele>
        <time>2018-03-21T09:12:05Z</time>
      </trkpt>
      <trkpt lat="46.76521" lon="-1.88642">
        <ele>4</ele>
        <time>2018-03-21T09:13:05Z</time>
      </trkpt>
      <trkpt lat="46.76523" lon="-1.88642">
        <ele>4</ele>
        <time>2018-03-21T09:14:05Z</time>
      </trkpt>
      <trkpt lat="46.76531" lon="-1.88636">
        <ele>4</ele>
        <time>2018-03-21T09:15:05Z</time>
      </trkpt>
      <trkpt lat="46.76542" lon="-1.8863">
        <ele>5</ele>
        <time>2018-03-21T09:16:05Z</time>
      </trkpt>
      <trkpt lat="46.76559" lon="-1.88617">
        <ele>5</ele>
        <time>2018-03-21T09:17:05Z</time>
      </trkpt>
      <trkpt lat="46.76572" lon="-1.88604">
        <ele>5</ele>
        <time>2018-03-21T09:18:05Z</time>
      </trkpt>
      <trkpt lat="46.76581" lon="-1.88595">
        <ele>6</ele>
        <time>2018-03-21T09:19:05Z</time>
      </trkpt>
      <trkpt lat="46.7659" lon="-1.88588">
        <ele>6</ele>
        <time>2018-03-21T09:20:05Z</time>
      </trkpt>
      <trkpt lat="46.76597" lon="-1.88583">
        <ele>6</ele>
        <time>2018-03-21T09:21:05Z</time>
      </trkpt>
      <trkpt lat="46.76604" lon="-1.88578">
        <ele>6</ele>
        <time>2018-03-21T09:22:05Z</time>
      </trkpt>
      <trkpt lat="46.76611" lon="-1.88574">
        <ele>6</ele>
        <time>2018-03-21T09:23:05Z</time>
      </trkpt>
      <trkpt lat="46.7662" lon="-1.88569">
        <ele>6</ele>
        <time>2018-03-21T09:24:05Z</time>
      </trkpt>
      <trkpt lat="46.76643" lon="-1.8856">
        <ele>7</ele>
        <time>2018-03-21T09:25:05Z</time>
      </trkpt>
      <trkpt lat="46.76678" lon="-1.88543">
        <ele>6</ele>
        <time>2018-03-21T09:26:05Z</time>
      </trkpt>
      <trkpt lat="46.76691" lon="-1.88536">
        <ele>6</ele>
        <time>2018-03-21T09:27:05Z</time>
      </trkpt>
      <trkpt lat="46.76718" lon="-1.88522">
        <ele>6</ele>
        <time>2018-03-21T09:28:05Z</time>
      </trkpt>
      <trkpt lat="46.76736" lon="-1.88514">
        <ele>5</ele>
        <time>2018-03-21T09:29:05Z</time>
      </trkpt>
      <trkpt lat="46.7675" lon="-1.88509">
        <ele>5</ele>
        <time>2018-03-21T09:30:05Z</time>
      </trkpt>
      <trkpt lat="46.76759" lon="-1.88507">
        <ele>5</ele>
        <time>2018-03-21T09:31:05Z</time>
      </trkpt>
      <trkpt lat="46.76766" lon="-1.88506">
        <ele>5</ele>
        <time>2018-03-21T09:32:05Z</time>
      </trkpt>
      <trkpt lat="46.76774" lon="-1.88506">
        <ele>5</ele>
        <time>2018-03-21T09:33:05Z</time>
      </trkpt>
      <trkpt lat="46.76782" lon="-1.88506">
        <ele>5</ele>
        <time>2018-03-21T09:34:05Z</time>
      </trkpt>
      <trkpt lat="46.76809" lon="-1.88508">
        <ele>4</ele>
        <time>2018-03-21T09:35:05Z</time>
      </trkpt>
      <trkpt lat="46.76832" lon="-1.88509">
        <ele>4</ele>
        <time>2018-03-21T09:36:05Z</time>
      </trkpt>
      <trkpt lat="46.76843" lon="-1.88509">
        <ele>4</ele>
        <time>2018-03-21T09:37:05Z</time>
      </trkpt>
      <trkpt lat="46.76851" lon="-1.88509">
        <ele>4</ele>
        <time>2018-03-21T09:38:05Z</time>
      </trkpt>
      <trkpt lat="46.7686" lon="-1.88508">
        <ele>4</ele>
        <time>2018-03-21T09:39:05Z</time>
      </trkpt>
      <trkpt lat="46.76877" lon="-1.88506">
        <ele>4</ele>
        <time>2018-03-21T09:40:05Z</time>
      </trkpt>
      <trkpt lat="46.7691" lon="-1.885">
        <ele>5</ele>
        <time>2018-03-21T09:41:05Z</time>
      </trkpt>
      <trkpt lat="46.76956" lon="-1.88491">
        <ele>5</ele>
        <time>2018-03-21T09:42:05Z</time>
      </trkpt>
      <trkpt lat="46.76976" lon="-1.88487">
        <ele>4</ele>
        <time>2018-03-21T09:43:05Z</time>
      </trkpt>
      <trkpt lat="46.76992" lon="-1.88483">
        <ele>4</ele>
        <time>2018-03-21T09:44:05Z</time>
      </trkpt>
      <trkpt lat="46.77003" lon="-1.88481">
        <ele>4</ele>
        <time>2018-03-21T09:45:05Z</time>
      </trkpt>
      <trkpt lat="46.77016" lon="-1.88478">
        <ele>4</ele>
        <time>2018-03-21T09:46:05Z</time>
      </trkpt>
      <trkpt lat="46.77031" lon="-1.88473">
        <ele>5</ele>
        <time>2018-03-21T09:47:05Z</time>
      </trkpt>
      <trkpt lat="46.77045" lon="-1.88467">
        <ele>5</ele>
        <time>2018-03-21T09:48:05Z</time>
      </trkpt>
      <trkpt lat="46.77054" lon="-1.88464">
        <ele>5</ele>
        <time>2018-03-21T09:49:05Z</time>
      </trkpt>
      <trkpt lat="46.77092" lon="-1.88444">
        <ele>5</ele>
        <time>2018-03-21T09:50:05Z</time>
      </trkpt>
      <trkpt lat="46.7715" lon="-1.88413">
        <ele>4</ele>
        <time>2018-03-21T09:51:05Z</time>
      </trkpt>
      <trkpt lat="46.77199" lon="-1.88384">
        <ele>4</ele>
        <time>2018-03-21T09:52:05Z</time>
      </trkpt>
      <trkpt lat="46.77231" lon="-1.88367">
        <ele>3</ele>
        <time>2018-03-21T09:53:05Z</time>
      </trkpt>
      <trkpt lat="46.77259" lon="-1.8835">
        <ele>3</ele>
        <time>2018-03-21T09:54:05Z</time>
      </trkpt>
      <trkpt lat="46.77281" lon="-1.88335">
        <ele>3</ele>
        <time>2018-03-21T09:55:05Z</time>
      </trkpt>
      <trkpt lat="46.77293" lon="-1.88328">
        <ele>3</ele>
        <time>2018-03-21T09:56:05Z</time>
      </trkpt>
      <trkpt lat="46.77302" lon="-1.8832">
        <ele>3</ele>
        <time>2018-03-21T09:57:05Z</time>
      </trkpt>
      <trkpt lat="46.7731" lon="-1.88313">
        <ele>3</ele>
        <time>2018-03-21T09:58:05Z</time>
      </trkpt>
      <trkpt lat="46.77319" lon="-1.88304">
        <ele>3</ele>
        <time>2018-03-21T09:59:05Z</time>
      </trkpt>
      <trkpt lat="46.77331" lon="-1.8829">
        <ele>4</ele>
        <time>2018-03-21T10:00:05Z</time>
      </trkpt>
      <trkpt lat="46.77362" lon="-1.88248">
        <ele>3</ele>
        <time>2018-03-21T10:01:05Z</time>
      </trkpt>
      <trkpt lat="46.77398" lon="-1.88199">
        <ele>4</ele>
        <time>2018-03-21T10:02:05Z</time>
      </trkpt>
      <trkpt lat="46.77407" lon="-1.88186">
        <ele>4</ele>
        <time>2018-03-21T10:03:05Z</time>
      </trkpt>
      <trkpt lat="46.7743" lon="-1.8815">
        <ele>4</ele>
        <time>2018-03-21T10:04:05Z</time>
      </trkpt>
      <trkpt lat="46.77435" lon="-1.88142">
        <ele>4</ele>
        <time>2018-03-21T10:05:05Z</time>
      </trkpt>
      <trkpt lat="46.77461" lon="-1.88105">
        <ele>4</ele>
        <time>2018-03-21T10:06:05Z</time>
      </trkpt>
      <trkpt lat="46.77484" lon="-1.88078">
        <ele>4</ele>
        <time>2018-03-21T10:07:05Z</time>
      </trkpt>
      <trkpt lat="46.77515" lon="-1.88043">
        <ele>4</ele>
        <time>2018-03-21T10:08:05Z</time>
      </trkpt>
      <trkpt lat="46.7754" lon="-1.88017">
        <ele>5</ele>
        <time>2018-03-21T10:09:05Z</time>
      </trkpt>
      <trkpt lat="46.7758" lon="-1.87976">
        <ele>5</ele>
        <time>2018-03-21T10:10:05Z</time>
      </trkpt>
      <trkpt lat="46.77635" lon="-1.8792">
        <ele>4</ele>
        <time>2018-03-21T10:11:05Z</time>
      </trkpt>
      <trkpt lat="46.77662" lon="-1.87893">
        <ele>3</ele>
        <time>2018-03-21T10:12:05Z</time>
      </trkpt>
      <trkpt lat="46.77669" lon="-1.87886">
        <ele>3</ele>
        <time>2018-03-21T10:13:05Z</time>
      </trkpt>
      <trkpt lat="46.77684" lon="-1.8787">
        <ele>3</ele>
        <time>2018-03-21T10:14:05Z</time>
      </trkpt>
      <trkpt lat="46.77692" lon="-1.87858">
        <ele>3</ele>
        <time>2018-03-21T10:15:05Z</time>
      </trkpt>
      <trkpt lat="46.77699" lon="-1.87847">
        <ele>3</ele>
        <time>2018-03-21T10:16:05Z</time>
      </trkpt>
      <trkpt lat="46.77706" lon="-1.87834">
        <ele>3</ele>
        <time>2018-03-21T10:17:05Z</time>
      </trkpt>
      <trkpt lat="46.77713" lon="-1.87819">
        <ele>3</ele>
        <time>2018-03-21T10:18:05Z</time>
      </trkpt>
      <trkpt lat="46.77723" lon="-1.87796">
        <ele>3</ele>
        <time>2018-03-21T10:19:05Z</time>
      </trkpt>
      <trkpt lat="46.77726" lon="-1.87792">
        <ele>3</ele>
        <time>2018-03-21T10:20:05Z</time>
      </trkpt>
      <trkpt lat="46.77734" lon="-1.87771">
        <ele>3</ele>
        <time>2018-03-21T10:21:05Z</time>
      </trkpt>
      <trkpt lat="46.7774" lon="-1.87752">
        <ele>3</ele>
        <time>2018-03-21T10:22:05Z</time>
      </trkpt>
      <trkpt lat="46.77743" lon="-1.87734">
        <ele>3</ele>
        <time>2018-03-21T10:23:05Z</time>
      </trkpt>
      <trkpt lat="46.77741" lon="-1.8772">
        <ele>3</ele>
        <time>2018-03-21T10:24:05Z</time>
      </trkpt>
      <trkpt lat="46.7774" lon="-1.87697">
        <ele>4</ele>
        <time>2018-03-21T10:25:05Z</time>
      </trkpt>
      <trkpt lat="46.7774" lon="-1.87697">
        <ele>4</ele>
        <time>2018-03-21T10:26:05Z</time>
      </trkpt>
      <trkpt lat="46.77739" lon="-1.87696">
        <ele>4</ele>
        <time>2018-03-21T10:27:05Z</time>
      </trkpt>
      <trkpt lat="46.77738" lon="-1.87694">
        <ele>4</ele>
        <time>2018-03-21T10:28:05Z</time>
      </trkpt>
      <trkpt lat="46.77737" lon="-1.87693">
        <ele>4</ele>
        <time>2018-03-21T10:29:05Z</time>
      </trkpt>
      <trkpt lat="46.77736" lon="-1.87692">
        <ele>4</ele>
        <time>2018-03-21T10:30:05Z</time>
      </trkpt>
      <trkpt lat="46.77735" lon="-1.8769">
        <ele>4</ele>
        <time>2018-03-21T10:31:05Z</time>
      </trkpt>
      <trkpt lat="46.77734" lon="-1.87688">
        <ele>4</ele>
        <time>2018-03-21T10:32:05Z</time>
      </trkpt>
      <trkpt lat="46.77734" lon="-1.87687">
        <ele>4</ele>
        <time>2018-03-21T10:33:05Z</time>
      </trkpt>
      <trkpt lat="46.77733" lon="-1.87685">
        <ele>4</ele>
        <time>2018-03-21T10:34:05Z</time>
      </trkpt>
      <trkpt lat="46.77733" lon="-1.87683">
        <ele>4</ele>
        <time>2018-03-21T10:35:05Z</time>
      </trkpt>
      <trkpt lat="46.77732" lon="-1.87681">
        <ele>4</ele>
        <time>2018-03-21T10:36:05Z</time>
      </trkpt>
      <trkpt lat="46.77732" lon="-1.87679">
        <ele>4</ele>
        <time>2018-03-21T10:37:05Z</time>
      </trkpt>
      <trkpt lat="46.77732" lon="-1.87677">
        <ele>4</ele>
        <time>2018-03-21T10:38:05Z</time>
      </trkpt>
      <trkpt lat="46.77732" lon="-1.87675">
        <ele>4</ele>
        <time>2018-03-21T10:39:05Z</time>
      </trkpt>
      <trkpt lat="46.77732" lon="-1.87673">
        <ele>4</ele>
        <time>2018-03-21T10:40:05Z</time>
      </trkpt>
      <trkpt lat="46.77732" lon="-1.87671">
        <ele>4</ele>
        <time>2018-03-21T10:41:05Z</time>
      </trkpt>
      <trkpt lat="46.77732" lon="-1.87669">
        <ele>4</ele>
        <time>2018-03-21T10:42:05Z</time>
      </trkpt>
      <trkpt lat="46.77733" lon="-1.87667">
        <ele>4</ele>
        <time>2018-03-21T10:43:05Z</time>
      </trkpt>
      <trkpt lat="46.77733" lon="-1.87666">
        <ele>4</ele>
        <time>2018-03-21T10:44:05Z</time>
      </trkpt>
      <trkpt lat="46.77734" lon="-1.87664">
        <ele>4</ele>
        <time>2018-03-21T10:45:05Z</time>
      </trkpt>
      <trkpt lat="46.77734" lon="-1.87662">
        <ele>4</ele>
        <time>2018-03-21T10:46:05Z</time>
      </trkpt>
      <trkpt lat="46.77735" lon="-1.87661">
        <ele>4</ele>
        <time>2018-03-21T10:47:05Z</time>
      </trkpt>
      <trkpt lat="46.77736" lon="-1.87659">
        <ele>4</ele>
        <time>2018-03-21T10:48:05Z</time>
      </trkpt>
      <trkpt lat="46.77737" lon="-1.87658">
        <ele>4</ele>
        <time>2018-03-21T10:49:05Z</time>
      </trkpt>
      <trkpt lat="46.77737" lon="-1.87656">
        <ele>4</ele>
        <time>2018-03-21T10:50:05Z</time>
      </trkpt>
      <trkpt lat="46.77738" lon="-1.87655">
        <ele>4</ele>
        <time>2018-03-21T10:51:05Z</time>
      </trkpt>
      <trkpt lat="46.77739" lon="-1.87654">
        <ele>4</ele>
        <time>2018-03-21T10:52:05Z</time>
      </trkpt>
      <trkpt lat="46.7774" lon="-1.87653">
        <ele>4</ele>
        <time>2018-03-21T10:53:05Z</time>
      </trkpt>
      <trkpt lat="46.77741" lon="-1.87653">
        <ele>4</ele>
        <time>2018-03-21T10:54:05Z</time>
      </trkpt>
      <trkpt lat="46.77743" lon="-1.87652">
        <ele>4</ele>
        <time>2018-03-21T10:55:05Z</time>
      </trkpt>
      <trkpt lat="46.77744" lon="-1.87651">
        <ele>4</ele>
        <time>2018-03-21T10:56:05Z</time>
      </trkpt>
      <trkpt lat="46.77745" lon="-1.87651">
        <ele>4</ele>
        <time>2018-03-21T10:57:05Z</time>
      </trkpt>
      <trkpt lat="46.77752" lon="-1.87616">
        <ele>5</ele>
        <time>2018-03-21T10:58:05Z</time>
      </trkpt>
      <trkpt lat="46.7775" lon="-1.87601">
        <ele>5</ele>
        <time>2018-03-21T10:59:05Z</time>
      </trkpt>
      <trkpt lat="46.77739" lon="-1.87534">
        <ele>4</ele>
        <time>2018-03-21T11:00:05Z</time>
      </trkpt>
      <trkpt lat="46.77731" lon="-1.87481">
        <ele>5</ele>
        <time>2018-03-21T11:01:05Z</time>
      </trkpt>
      <trkpt lat="46.77716" lon="-1.87374">
        <ele>5</ele>
        <time>2018-03-21T11:02:05Z</time>
      </trkpt>
      <trkpt lat="46.77705" lon="-1.87303">
        <ele>4</ele>
        <time>2018-03-21T11:03:05Z</time>
      </trkpt>
      <trkpt lat="46.77696" lon="-1.87244">
        <ele>4</ele>
        <time>2018-03-21T11:04:05Z</time>
      </trkpt>
      <trkpt lat="46.77696" lon="-1.8724">
        <ele>4</ele>
        <time>2018-03-21T11:05:05Z</time>
      </trkpt>
      <trkpt lat="46.77691" lon="-1.87204">
        <ele>5</ele>
        <time>2018-03-21T11:06:05Z</time>
      </trkpt>
      <trkpt lat="46.77686" lon="-1.87156">
        <ele>5</ele>
        <time>2018-03-21T11:07:05Z</time>
      </trkpt>
      <trkpt lat="46.77673" lon="-1.87067">
        <ele>5</ele>
        <time>2018-03-21T11:08:05Z</time>
      </trkpt>
      <trkpt lat="46.7766" lon="-1.86961">
        <ele>6</ele>
        <time>2018-03-21T11:09:05Z</time>
      </trkpt>
      <trkpt lat="46.7765" lon="-1.86891">
        <ele>7</ele>
        <time>2018-03-21T11:10:05Z</time>
      </trkpt>
      <trkpt lat="46.77641" lon="-1.86822">
        <ele>7</ele>
        <time>2018-03-21T11:11:05Z</time>
      </trkpt>
      <trkpt lat="46.77632" lon="-1.86756">
        <ele>7</ele>
        <time>2018-03-21T11:12:05Z</time>
      </trkpt>
      <trkpt lat="46.77628" lon="-1.86731">
        <ele>7</ele>
        <time>2018-03-21T11:13:05Z</time>
      </trkpt>
      <trkpt lat="46.77625" lon="-1.86715">
        <ele>7</ele>
        <time>2018-03-21T11:14:05Z</time>
      </trkpt>
      <trkpt lat="46.77622" lon="-1.86702">
        <ele>7</ele>
        <time>2018-03-21T11:15:05Z</time>
      </trkpt>
      <trkpt lat="46.77618" lon="-1.86688">
        <ele>7</ele>
        <time>2018-03-21T11:16:05Z</time>
      </trkpt>
      <trkpt lat="46.77614" lon="-1.86675">
        <ele>7</ele>
        <time>2018-03-21T11:17:05Z</time>
      </trkpt>
      <trkpt lat="46.77609" lon="-1.8666">
        <ele>7</ele>
        <time>2018-03-21T11:18:05Z</time>
      </trkpt>
      <trkpt lat="46.77604" lon="-1.86646">
        <ele>7</ele>
        <time>2018-03-21T11:19:05Z</time>
      </trkpt>
      <trkpt lat="46.77599" lon="-1.86633">
        <ele>7</ele>
        <time>2018-03-21T11:20:05Z</time>
      </trkpt>
      <trkpt lat="46.77594" lon="-1.86622">
        <ele>7</ele>
        <time>2018-03-21T11:21:05Z</time>
      </trkpt>
      <trkpt lat="46.77587" lon="-1.86608">
        <ele>7</ele>
        <time>2018-03-21T11:22:05Z</time>
      </trkpt>
      <trkpt lat="46.77578" lon="-1.86596">
        <ele>7</ele>
        <time>2018-03-21T11:23:05Z</time>
      </trkpt>
      <trkpt lat="46.77568" lon="-1.86583">
        <ele>7</ele>
        <time>2018-03-21T11:24:05Z</time>
      </trkpt>
      <trkpt lat="46.77537" lon="-1.86549">
        <ele>7</ele>
        <time>2018-03-21T11:25:05Z</time>
      </trkpt>
      <trkpt lat="46.77481" lon="-1.86487">
        <ele>7</ele>
        <time>2018-03-21T11:26:05Z</time>
      </trkpt>
      <trkpt lat="46.7742" lon="-1.86419">
        <ele>8</ele>
        <time>2018-03-21T11:27:05Z</time>
      </trkpt>
      <trkpt lat="46.77327" lon="-1.86318">
        <ele>8</ele>
        <time>2018-03-21T11:28:05Z</time>
      </trkpt>
      <trkpt lat="46.77318" lon="-1.86308">
        <ele>8</ele>
        <time>2018-03-21T11:29:05Z</time>
      </trkpt>
      <trkpt lat="46.77314" lon="-1.86303">
        <ele>8</ele>
        <time>2018-03-21T11:30:05Z</time>
      </trkpt>
      <trkpt lat="46.77305" lon="-1.86293">
        <ele>8</ele>
        <time>2018-03-21T11:31:05Z</time>
      </trkpt>
      <trkpt lat="46.77298" lon="-1.86284">
        <ele>9</ele>
        <time>2018-03-21T11:32:05Z</time>
      </trkpt>
      <trkpt lat="46.7729" lon="-1.86274">
        <ele>9</ele>
        <time>2018-03-21T11:33:05Z</time>
      </trkpt>
      <trkpt lat="46.77284" lon="-1.86265">
        <ele>9</ele>
        <time>2018-03-21T11:34:05Z</time>
      </trkpt>
      <trkpt lat="46.77277" lon="-1.86254">
        <ele>9</ele>
        <time>2018-03-21T11:35:05Z</time>
      </trkpt>
      <trkpt lat="46.7727" lon="-1.86244">
        <ele>9</ele>
        <time>2018-03-21T11:36:05Z</time>
      </trkpt>
      <trkpt lat="46.77263" lon="-1.86232">
        <ele>9</ele>
        <time>2018-03-21T11:37:05Z</time>
      </trkpt>
      <trkpt lat="46.77255" lon="-1.86217">
        <ele>9</ele>
        <time>2018-03-21T11:38:05Z</time>
      </trkpt>
      <trkpt lat="46.77248" lon="-1.86204">
        <ele>9</ele>
        <time>2018-03-21T11:39:05Z</time>
      </trkpt>
      <trkpt lat="46.77242" lon="-1.86193">
        <ele>9</ele>
        <time>2018-03-21T11:40:05Z</time>
      </trkpt>
      <trkpt lat="46.77215" lon="-1.8614">
        <ele>9</ele>
        <time>2018-03-21T11:41:05Z</time>
      </trkpt>
      <trkpt lat="46.77179" lon="-1.86071">
        <ele>9</ele>
        <time>2018-03-21T11:42:05Z</time>
      </trkpt>
      <trkpt lat="46.77146" lon="-1.86007">
        <ele>9</ele>
        <time>2018-03-21T11:43:05Z</time>
      </trkpt>
      <trkpt lat="46.77097" lon="-1.85912">
        <ele>12</ele>
        <time>2018-03-21T11:44:05Z</time>
      </trkpt>
      <trkpt lat="46.77069" lon="-1.85859">
        <ele>12</ele>
        <time>2018-03-21T11:45:05Z</time>
      </trkpt>
      <trkpt lat="46.77037" lon="-1.85796">
        <ele>12</ele>
        <time>2018-03-21T11:46:05Z</time>
      </trkpt>
      <trkpt lat="46.77025" lon="-1.85775">
        <ele>12</ele>
        <time>2018-03-21T11:47:05Z</time>
      </trkpt>
      <trkpt lat="46.7702" lon="-1.85765">
        <ele>13</ele>
        <time>2018-03-21T11:48:05Z</time>
      </trkpt>
      <trkpt lat="46.7701" lon="-1.85744">
        <ele>13</ele>
        <time>2018-03-21T11:49:05Z</time>
      </trkpt>
      <trkpt lat="46.77" lon="-1.85725">
        <ele>12</ele>
        <time>2018-03-21T11:50:05Z</time>
      </trkpt>
      <trkpt lat="46.76981" lon="-1.8569">
        <ele>12</ele>
        <time>2018-03-21T11:51:05Z</time>
      </trkpt>
      <trkpt lat="46.76963" lon="-1.85656">
        <ele>12</ele>
        <time>2018-03-21T11:52:05Z</time>
      </trkpt>
      <trkpt lat="46.76961" lon="-1.85652">
        <ele>12</ele>
        <time>2018-03-21T11:53:05Z</time>
      </trkpt>
      <trkpt lat="46.76936" lon="-1.856">
        <ele>12</ele>
        <time>2018-03-21T11:54:05Z</time>
      </trkpt>
      <trkpt lat="46.76932" lon="-1.85591">
        <ele>13</ele>
        <time>2018-03-21T11:55:05Z</time>
      </trkpt>
      <trkpt lat="46.76928" lon="-1.85584">
        <ele>13</ele>
        <time>2018-03-21T11:56:05Z</time>
      </trkpt>
      <trkpt lat="46.76922" lon="-1.8557">
        <ele>13</ele>
        <time>2018-03-21T11:57:05Z</time>
      </trkpt>
      <trkpt lat="46.76915" lon="-1.85553">
        <ele>13</ele>
        <time>2018-03-21T11:58:05Z</time>
      </trkpt>
      <trkpt lat="46.76909" lon="-1.85537">
        <ele>14</ele>
        <time>2018-03-21T11:59:05Z</time>
      </trkpt>
      <trkpt lat="46.76902" lon="-1.85518">
        <ele>14</ele>
        <time>2018-03-21T12:00:05Z</time>
      </trkpt>
      <trkpt lat="46.76894" lon="-1.85495">
        <ele>14</ele>
        <time>2018-03-21T12:01:05Z</time>
      </trkpt>
      <trkpt lat="46.76874" lon="-1.85433">
        <ele>14</ele>
        <time>2018-03-21T12:02:05Z</time>
      </trkpt>
      <trkpt lat="46.76866" lon="-1.85412">
        <ele>14</ele>
        <time>2018-03-21T12:03:05Z</time>
      </trkpt>
      <trkpt lat="46.76857" lon="-1.85383">
        <ele>13</ele>
        <time>2018-03-21T12:04:05Z</time>
      </trkpt>
      <trkpt lat="46.76851" lon="-1.85366">
        <ele>13</ele>
        <time>2018-03-21T12:05:05Z</time>
      </trkpt>
      <trkpt lat="46.76835" lon="-1.85316">
        <ele>13</ele>
        <time>2018-03-21T12:06:05Z</time>
      </trkpt>
      <trkpt lat="46.76828" lon="-1.85291">
        <ele>13</ele>
        <time>2018-03-21T12:07:05Z</time>
      </trkpt>
      <trkpt lat="46.76822" lon="-1.85266">
        <ele>13</ele>
        <time>2018-03-21T12:08:05Z</time>
      </trkpt>
      <trkpt lat="46.76818" lon="-1.85242">
        <ele>13</ele>
        <time>2018-03-21T12:09:05Z</time>
      </trkpt>
      <trkpt lat="46.76818" lon="-1.85241">
        <ele>13</ele>
        <time>2018-03-21T12:10:05Z</time>
      </trkpt>
      <trkpt lat="46.76816" lon="-1.85221">
        <ele>13</ele>
        <time>2018-03-21T12:11:05Z</time>
      </trkpt>
      <trkpt lat="46.76815" lon="-1.85199">
        <ele>13</ele>
        <time>2018-03-21T12:12:05Z</time>
      </trkpt>
      <trkpt lat="46.76815" lon="-1.85176">
        <ele>13</ele>
        <time>2018-03-21T12:13:05Z</time>
      </trkpt>
      <trkpt lat="46.76815" lon="-1.85142">
        <ele>14</ele>
        <time>2018-03-21T12:14:05Z</time>
      </trkpt>
      <trkpt lat="46.76817" lon="-1.8509">
        <ele>15</ele>
        <time>2018-03-21T12:15:05Z</time>
      </trkpt>
      <trkpt lat="46.76817" lon="-1.85053">
        <ele>15</ele>
        <time>2018-03-21T12:16:05Z</time>
      </trkpt>
      <trkpt lat="46.76816" lon="-1.85032">
        <ele>15</ele>
        <time>2018-03-21T12:17:05Z</time>
      </trkpt>
      <trkpt lat="46.76815" lon="-1.85012">
        <ele>15</ele>
        <time>2018-03-21T12:18:05Z</time>
      </trkpt>
      <trkpt lat="46.76814" lon="-1.84994">
        <ele>15</ele>
        <time>2018-03-21T12:19:05Z</time>
      </trkpt>
      <trkpt lat="46.76812" lon="-1.84973">
        <ele>15</ele>
        <time>2018-03-21T12:20:05Z</time>
      </trkpt>
      <trkpt lat="46.76809" lon="-1.8495">
        <ele>15</ele>
        <time>2018-03-21T12:21:05Z</time>
      </trkpt>
      <trkpt lat="46.76802" lon="-1.84914">
        <ele>15</ele>
        <time>2018-03-21T12:22:05Z</time>
      </trkpt>
      <trkpt lat="46.76799" lon="-1.84895">
        <ele>15</ele>
        <time>2018-03-21T12:23:05Z</time>
      </trkpt>
      <trkpt lat="46.7679" lon="-1.84848">
        <ele>15</ele>
        <time>2018-03-21T12:24:05Z</time>
      </trkpt>
      <trkpt lat="46.76777" lon="-1.84769">
        <ele>16</ele>
        <time>2018-03-21T12:25:05Z</time>
      </trkpt>
      <trkpt lat="46.76765" lon="-1.84703">
        <ele>17</ele>
        <time>2018-03-21T12:26:05Z</time>
      </trkpt>
      <trkpt lat="46.76751" lon="-1.84624">
        <ele>17</ele>
        <time>2018-03-21T12:27:05Z</time>
      </trkpt>
      <trkpt lat="46.76749" lon="-1.84613">
        <ele>18</ele>
        <time>2018-03-21T12:28:05Z</time>
      </trkpt>
      <trkpt lat="46.7674" lon="-1.84558">
        <ele>18</ele>
        <time>2018-03-21T12:29:05Z</time>
      </trkpt>
      <trkpt lat="46.76737" lon="-1.84537">
        <ele>18</ele>
        <time>2018-03-21T12:30:05Z</time>
      </trkpt>
      <trkpt lat="46.7673" lon="-1.84503">
        <ele>18</ele>
        <time>2018-03-21T12:31:05Z</time>
      </trkpt>
      <trkpt lat="46.76724" lon="-1.84468">
        <ele>18</ele>
        <time>2018-03-21T12:32:05Z</time>
      </trkpt>
      <trkpt lat="46.7672" lon="-1.84438">
        <ele>18</ele>
        <time>2018-03-21T12:33:05Z</time>
      </trkpt>
      <trkpt lat="46.76718" lon="-1.84424">
        <ele>18</ele>
        <time>2018-03-21T12:34:05Z</time>
      </trkpt>
      <trkpt lat="46.76716" lon="-1.84404">
        <ele>18</ele>
        <time>2018-03-21T12:35:05Z</time>
      </trkpt>
      <trkpt lat="46.76714" lon="-1.84385">
        <ele>19</ele>
        <time>2018-03-21T12:36:05Z</time>
      </trkpt>
      <trkpt lat="46.76714" lon="-1.84368">
        <ele>19</ele>
        <time>2018-03-21T12:37:05Z</time>
      </trkpt>
      <trkpt lat="46.76714" lon="-1.84361">
        <ele>19</ele>
        <time>2018-03-21T12:38:05Z</time>
      </trkpt>
      <trkpt lat="46.76714" lon="-1.84317">
        <ele>19</ele>
        <time>2018-03-21T12:39:05Z</time>
      </trkpt>
      <trkpt lat="46.76713" lon="-1.84291">
        <ele>19</ele>
        <time>2018-03-21T12:40:05Z</time>
      </trkpt>
      <trkpt lat="46.76712" lon="-1.84267">
        <ele>19</ele>
        <time>2018-03-21T12:41:05Z</time>
      </trkpt>
      <trkpt lat="46.7671" lon="-1.84253">
        <ele>19</ele>
        <time>2018-03-21T12:42:05Z</time>
      </trkpt>
      <trkpt lat="46.76707" lon="-1.84237">
        <ele>20</ele>
        <time>2018-03-21T12:43:05Z</time>
      </trkpt>
      <trkpt lat="46.76705" lon="-1.84226">
        <ele>20</ele>
        <time>2018-03-21T12:44:05Z</time>
      </trkpt>
      <trkpt lat="46.76702" lon="-1.84212">
        <ele>20</ele>
        <time>2018-03-21T12:45:05Z</time>
      </trkpt>
      <trkpt lat="46.76698" lon="-1.84199">
        <ele>20</ele>
        <time>2018-03-21T12:46:05Z</time>
      </trkpt>
      <trkpt lat="46.76693" lon="-1.84184">
        <ele>20</ele>
        <time>2018-03-21T12:47:05Z</time>
      </trkpt>
      <trkpt lat="46.76687" lon="-1.84167">
        <ele>20</ele>
        <time>2018-03-21T12:48:05Z</time>
      </trkpt>
      <trkpt lat="46.76682" lon="-1.84155">
        <ele>20</ele>
        <time>2018-03-21T12:49:05Z</time>
      </trkpt>
      <trkpt lat="46.7666" lon="-1.841">
        <ele>20</ele>
        <time>2018-03-21T12:50:05Z</time>
      </trkpt>
      <trkpt lat="46.7665" lon="-1.84074">
        <ele>20</ele>
        <time>2018-03-21T12:51:05Z</time>
      </trkpt>
      <trkpt lat="46.76649" lon="-1.84071">
        <ele>20</ele>
        <time>2018-03-21T12:52:05Z</time>
      </trkpt>
      <trkpt lat="46.76613" lon="-1.8398">
        <ele>21</ele>
        <time>2018-03-21T12:53:05Z</time>
      </trkpt>
      <trkpt lat="46.76591" lon="-1.83927">
        <ele>21</ele>
        <time>2018-03-21T12:54:05Z</time>
      </trkpt>
      <trkpt lat="46.76588" lon="-1.8392">
        <ele>21</ele>
        <time>2018-03-21T12:55:05Z</time>
      </trkpt>
      <trkpt lat="46.76584" lon="-1.83912">
        <ele>21</ele>
        <time>2018-03-21T12:56:05Z</time>
      </trkpt>
      <trkpt lat="46.7658" lon="-1.83907">
        <ele>21</ele>
        <time>2018-03-21T12:57:05Z</time>
      </trkpt>
      <trkpt lat="46.76577" lon="-1.83903">
        <ele>21</ele>
        <time>2018-03-21T12:58:05Z</time>
      </trkpt>
      <trkpt lat="46.76573" lon="-1.83897">
        <ele>21</ele>
        <time>2018-03-21T12:59:05Z</time>
      </trkpt>
      <trkpt lat="46.76566" lon="-1.8389">
        <ele>20</ele>
        <time>2018-03-21T13:00:05Z</time>
      </trkpt>
      <trkpt lat="46.76562" lon="-1.83888">
        <ele>20</ele>
        <time>2018-03-21T13:01:05Z</time>
      </trkpt>
      <trkpt lat="46.76551" lon="-1.83884">
        <ele>20</ele>
        <time>2018-03-21T13:02:05Z</time>
      </trkpt>
      <trkpt lat="46.76545" lon="-1.83882">
        <ele>20</ele>
        <time>2018-03-21T13:03:05Z</time>
      </trkpt>
      <trkpt lat="46.76541" lon="-1.8388">
        <ele>20</ele>
        <time>2018-03-21T13:04:05Z</time>
      </trkpt>
      <trkpt lat="46.76534" lon="-1.83878">
        <ele>20</ele>
        <time>2018-03-21T13:05:05Z</time>
      </trkpt>
      <trkpt lat="46.76529" lon="-1.83876">
        <ele>20</ele>
        <time>2018-03-21T13:06:05Z</time>
      </trkpt>
      <trkpt lat="46.76523" lon="-1.83874">
        <ele>20</ele>
        <time>2018-03-21T13:07:05Z</time>
      </trkpt>
      <trkpt lat="46.76517" lon="-1.83872">
        <ele>20</ele>
        <time>2018-03-21T13:08:05Z</time>
      </trkpt>
      <trkpt lat="46.76503" lon="-1.83869">
        <ele>20</ele>
        <time>2018-03-21T13:09:05Z</time>
      </trkpt>
      <trkpt lat="46.76485" lon="-1.83866">
        <ele>19</ele>
        <time>2018-03-21T13:10:05Z</time>
      </trkpt>
      <trkpt lat="46.76463" lon="-1.83864">
        <ele>19</ele>
        <time>2018-03-21T13:11:05Z</time>
      </trkpt>
      <trkpt lat="46.76446" lon="-1.83862">
        <ele>19</ele>
        <time>2018-03-21T13:12:05Z</time>
      </trkpt>
      <trkpt lat="46.76442" lon="-1.83862">
        <ele>19</ele>
        <time>2018-03-21T13:13:05Z</time>
      </trkpt>
      <trkpt lat="46.76437" lon="-1.83861">
        <ele>19</ele>
        <time>2018-03-21T13:14:05Z</time>
      </trkpt>
      <trkpt lat="46.76429" lon="-1.8386">
        <ele>19</ele>
        <time>2018-03-21T13:15:05Z</time>
      </trkpt>
      <trkpt lat="46.76426" lon="-1.83862">
        <ele>19</ele>
        <time>2018-03-21T13:16:05Z</time>
      </trkpt>
      <trkpt lat="46.76419" lon="-1.83861">
        <ele>19</ele>
        <time>2018-03-21T13:17:05Z</time>
      </trkpt>
      <trkpt lat="46.76399" lon="-1.8386">
        <ele>18</ele>
        <time>2018-03-21T13:18:05Z</time>
      </trkpt>
      <trkpt lat="46.76387" lon="-1.83859">
        <ele>18</ele>
        <time>2018-03-21T13:19:05Z</time>
      </trkpt>
      <trkpt lat="46.76381" lon="-1.83858">
        <ele>18</ele>
        <time>2018-03-21T13:20:05Z</time>
      </trkpt>
      <trkpt lat="46.76376" lon="-1.83855">
        <ele>18</ele>
        <time>2018-03-21T13:21:05Z</time>
      </trkpt>
      <trkpt lat="46.76371" lon="-1.83854">
        <ele>18</ele>
        <time>2018-03-21T13:22:05Z</time>
      </trkpt>
      <trkpt lat="46.76361" lon="-1.83852">
        <ele>18</ele>
        <time>2018-03-21T13:23:05Z</time>
      </trkpt>
      <trkpt lat="46.76352" lon="-1.83849">
        <ele>18</ele>
        <time>2018-03-21T13:24:05Z</time>
      </trkpt>
      <trkpt lat="46.76339" lon="-1.83843">
        <ele>18</ele>
        <time>2018-03-21T13:25:05Z</time>
      </trkpt>
      <trkpt lat="46.76308" lon="-1.8383">
        <ele>18</ele>
        <time>2018-03-21T13:26:05Z</time>
      </trkpt>
      <trkpt lat="46.76284" lon="-1.83821">
        <ele>19</ele>
        <time>2018-03-21T13:27:05Z</time>
      </trkpt>
      <trkpt lat="46.7626" lon="-1.83813">
        <ele>19</ele>
        <time>2018-03-21T13:28:05Z</time>
      </trkpt>
      <trkpt lat="46.7625" lon="-1.83809">
        <ele>19</ele>
        <time>2018-03-21T13:29:05Z</time>
      </trkpt>
      <trkpt lat="46.7625" lon="-1.83809">
        <ele>19</ele>
        <time>2018-03-21T13:30:05Z</time>
      </trkpt>
      <trkpt lat="46.76252" lon="-1.83797">
        <ele>19</ele>
        <time>2018-03-21T13:31:05Z</time>
      </trkpt>
      <trkpt lat="46.76253" lon="-1.83782">
        <ele>19</ele>
        <time>2018-03-21T13:32:05Z</time>
      </trkpt>
      <trkpt lat="46.76256" lon="-1.83756">
        <ele>19</ele>
        <time>2018-03-21T13:33:05Z</time>
      </trkpt>
      <trkpt lat="46.76258" lon="-1.83732">
        <ele>19</ele>
        <time>2018-03-21T13:34:05Z</time>
      </trkpt>
      <trkpt lat="46.76262" lon="-1.837">
        <ele>19</ele>
        <time>2018-03-21T13:35:05Z</time>
      </trkpt>
      <trkpt lat="46.76263" lon="-1.83684">
        <ele>19</ele>
        <time>2018-03-21T13:36:05Z</time>
      </trkpt>
      <trkpt lat="46.76263" lon="-1.83671">
        <ele>19</ele>
        <time>2018-03-21T13:37:05Z</time>
      </trkpt>
      <trkpt lat="46.76263" lon="-1.83671">
        <ele>19</ele>
        <time>2018-03-21T13:38:05Z</time>
      </trkpt>
      <trkpt lat="46.7626" lon="-1.83671">
        <ele>19</ele>
        <time>2018-03-21T13:39:05Z</time>
      </trkpt>
      <trkpt lat="46.76251" lon="-1.83668">
        <ele>19</ele>
        <time>2018-03-21T13:40:05Z</time>
      </trkpt>
      <trkpt lat="46.76247" lon="-1.83667">
        <ele>19</ele>
        <time>2018-03-21T13:41:05Z</time>
      </trkpt>
      <trkpt lat="46.76247" lon="-1.83667">
        <ele>19</ele>
        <time>2018-03-21T13:42:05Z</time>
      </trkpt>
      <trkpt lat="46.76245" lon="-1.83656">
        <ele>19</ele>
        <time>2018-03-21T13:43:05Z</time>
      </trkpt>
      <trkpt lat="46.76244" lon="-1.83645">
        <ele>18</ele>
        <time>2018-03-21T13:44:05Z</time>
      </trkpt>
      <trkpt lat="46.76242" lon="-1.83635">
        <ele>18</ele>
        <time>2018-03-21T13:45:05Z</time>
      </trkpt>
      <trkpt lat="46.76241" lon="-1.83628">
        <ele>18</ele>
        <time>2018-03-21T13:46:05Z</time>
      </trkpt>
      <trkpt lat="46.76236" lon="-1.83607">
        <ele>18</ele>
        <time>2018-03-21T13:47:05Z</time>
      </trkpt>
      <trkpt lat="46.76235" lon="-1.83602">
        <ele>18</ele>
        <time>2018-03-21T13:48:05Z</time>
      </trkpt>
      <trkpt lat="46.76232" lon="-1.83593">
        <ele>17</ele>
        <time>2018-03-21T13:49:05Z</time>
      </trkpt>
      <trkpt lat="46.76229" lon="-1.83581">
        <ele>17</ele>
        <time>2018-03-21T13:50:05Z</time>
      </trkpt>
      <trkpt lat="46.76223" lon="-1.83558">
        <ele>17</ele>
        <time>2018-03-21T13:51:05Z</time>
      </trkpt>
      <trkpt lat="46.76221" lon="-1.83549">
        <ele>17</ele>
        <time>2018-03-21T13:52:05Z</time>
      </trkpt>
      <trkpt lat="46.76211" lon="-1.8351">
        <ele>17</ele>
        <time>2018-03-21T13:53:05Z</time>
      </trkpt>
      <trkpt lat="46.76199" lon="-1.83463">
        <ele>17</ele>
        <time>2018-03-21T13:54:05Z</time>
      </trkpt>
      <trkpt lat="46.76187" lon="-1.83416">
        <ele>17</ele>
        <time>2018-03-21T13:55:05Z</time>
      </trkpt>
      <trkpt lat="46.76182" lon="-1.834">
        <ele>17</ele>
        <time>2018-03-21T13:56:05Z</time>
      </trkpt>
      <trkpt lat="46.76165" lon="-1.83332">
        <ele>16</ele>
        <time>2018-03-21T13:57:05Z</time>
      </trkpt>
      <trkpt lat="46.76155" lon="-1.83296">
        <ele>15</ele>
        <time>2018-03-21T13:58:05Z</time>
      </trkpt>
      <trkpt lat="46.76147" lon="-1.83267">
        <ele>15</ele>
        <time>2018-03-21T13:59:05Z</time>
      </trkpt>
      <trkpt lat="46.76137" lon="-1.83226">
        <ele>14</ele>
        <time>2018-03-21T14:00:05Z</time>
      </trkpt>
      <trkpt lat="46.76134" lon="-1.83214">
        <ele>14</ele>
        <time>2018-03-21T14:01:05Z</time>
      </trkpt>
      <trkpt lat="46.76126" lon="-1.83183">
        <ele>13</ele>
        <time>2018-03-21T14:02:05Z</time>
      </trkpt>
      <trkpt lat="46.76113" lon="-1.83134">
        <ele>13</ele>
        <time>2018-03-21T14:03:05Z</time>
      </trkpt>
      <trkpt lat="46.76103" lon="-1.83097">
        <ele>13</ele>
        <time>2018-03-21T14:04:05Z</time>
      </trkpt>
      <trkpt lat="46.76093" lon="-1.83059">
        <ele>12</ele>
        <time>2018-03-21T14:05:05Z</time>
      </trkpt>
      <trkpt lat="46.76083" lon="-1.8302">
        <ele>11</ele>
        <time>2018-03-21T14:06:05Z</time>
      </trkpt>
      <trkpt lat="46.76069" lon="-1.82964">
        <ele>9</ele>
        <time>2018-03-21T14:07:05Z</time>
      </trkpt>
      <trkpt lat="46.76062" lon="-1.82937">
        <ele>8</ele>
        <time>2018-03-21T14:08:05Z</time>
      </trkpt>
      <trkpt lat="46.76055" lon="-1.82908">
        <ele>7</ele>
        <time>2018-03-21T14:09:05Z</time>
      </trkpt>
      <trkpt lat="46.76041" lon="-1.82855">
        <ele>8</ele>
        <time>2018-03-21T14:10:05Z</time>
      </trkpt>
      <trkpt lat="46.76032" lon="-1.82816">
        <ele>8</ele>
        <time>2018-03-21T14:11:05Z</time>
      </trkpt>
      <trkpt lat="46.76023" lon="-1.82781">
        <ele>8</ele>
        <time>2018-03-21T14:12:05Z</time>
      </trkpt>
      <trkpt lat="46.76021" lon="-1.82775">
        <ele>8</ele>
        <time>2018-03-21T14:13:05Z</time>
      </trkpt>
      <trkpt lat="46.7601" lon="-1.82731">
        <ele>8</ele>
        <time>2018-03-21T14:14:05Z</time>
      </trkpt>
      <trkpt lat="46.76007" lon="-1.8272">
        <ele>8</ele>
        <time>2018-03-21T14:15:05Z</time>
      </trkpt>
      <trkpt lat="46.75996" lon="-1.82677">
        <ele>8</ele>
        <time>2018-03-21T14:16:05Z</time>
      </trkpt>
      <trkpt lat="46.7598" lon="-1.82616">
        <ele>8</ele>
        <time>2018-03-21T14:17:05Z</time>
      </trkpt>
      <trkpt lat="46.75964" lon="-1.82552">
        <ele>8</ele>
        <time>2018-03-21T14:18:05Z</time>
      </trkpt>
      <trkpt lat="46.75946" lon="-1.82477">
        <ele>7</ele>
        <time>2018-03-21T14:19:05Z</time>
      </trkpt>
      <trkpt lat="46.75923" lon="-1.82387">
        <ele>7</ele>
        <time>2018-03-21T14:20:05Z</time>
      </trkpt>
      <trkpt lat="46.75913" lon="-1.82347">
        <ele>7</ele>
        <time>2018-03-21T14:21:05Z</time>
      </trkpt>
      <trkpt lat="46.75908" lon="-1.82329">
        <ele>7</ele>
        <time>2018-03-21T14:22:05Z</time>
      </trkpt>
      <trkpt lat="46.75905" lon="-1.82318">
        <ele>7</ele>
        <time>2018-03-21T14:23:05Z</time>
      </trkpt>
      <trkpt lat="46.759" lon="-1.82298">
        <ele>7</ele>
        <time>2018-03-21T14:24:05Z</time>
      </trkpt>
      <trkpt lat="46.75897" lon="-1.82285">
        <ele>7</ele>
        <time>2018-03-21T14:25:05Z</time>
      </trkpt>
      <trkpt lat="46.75893" lon="-1.82273">
        <ele>7</ele>
        <time>2018-03-21T14:26:05Z</time>
      </trkpt>
      <trkpt lat="46.75889" lon="-1.82262">
        <ele>7</ele>
        <time>2018-03-21T14:27:05Z</time>
      </trkpt>
      <trkpt lat="46.75886" lon="-1.82253">
        <ele>7</ele>
        <time>2018-03-21T14:28:05Z</time>
      </trkpt>
      <trkpt lat="46.75884" lon="-1.82249">
        <ele>7</ele>
        <time>2018-03-21T14:29:05Z</time>
      </trkpt>
      <trkpt lat="46.75883" lon="-1.82246">
        <ele>7</ele>
        <time>2018-03-21T14:30:05Z</time>
      </trkpt>
      <trkpt lat="46.75877" lon="-1.8223">
        <ele>7</ele>
        <time>2018-03-21T14:31:05Z</time>
      </trkpt>
      <trkpt lat="46.75867" lon="-1.82208">
        <ele>7</ele>
        <time>2018-03-21T14:32:05Z</time>
      </trkpt>
      <trkpt lat="46.75858" lon="-1.82191">
        <ele>7</ele>
        <time>2018-03-21T14:33:05Z</time>
      </trkpt>
      <trkpt lat="46.7585" lon="-1.82177">
        <ele>7</ele>
        <time>2018-03-21T14:34:05Z</time>
      </trkpt>
      <trkpt lat="46.7584" lon="-1.82159">
        <ele>7</ele>
        <time>2018-03-21T14:35:05Z</time>
      </trkpt>
      <trkpt lat="46.7583" lon="-1.82144">
        <ele>7</ele>
        <time>2018-03-21T14:36:05Z</time>
      </trkpt>
      <trkpt lat="46.75824" lon="-1.82136">
        <ele>7</ele>
        <time>2018-03-21T14:37:05Z</time>
      </trkpt>
      <trkpt lat="46.75815" lon="-1.82124">
        <ele>7</ele>
        <time>2018-03-21T14:38:05Z</time>
      </trkpt>
      <trkpt lat="46.75806" lon="-1.82114">
        <ele>7</ele>
        <time>2018-03-21T14:39:05Z</time>
      </trkpt>
      <trkpt lat="46.75796" lon="-1.82103">
        <ele>7</ele>
        <time>2018-03-21T14:40:05Z</time>
      </trkpt>
      <trkpt lat="46.75783" lon="-1.8209">
        <ele>7</ele>
        <time>2018-03-21T14:41:05Z</time>
      </trkpt>
      <trkpt lat="46.75767" lon="-1.82077">
        <ele>7</ele>
        <time>2018-03-21T14:42:05Z</time>
      </trkpt>
      <trkpt lat="46.75739" lon="-1.82054">
        <ele>7</ele>
        <time>2018-03-21T14:43:05Z</time>
      </trkpt>
      <trkpt lat="46.75704" lon="-1.82024">
        <ele>6</ele>
        <time>2018-03-21T14:44:05Z</time>
      </trkpt>
      <trkpt lat="46.75644" lon="-1.81975">
        <ele>6</ele>
        <time>2018-03-21T14:45:05Z</time>
      </trkpt>
      <trkpt lat="46.75614" lon="-1.81951">
        <ele>6</ele>
        <time>2018-03-21T14:46:05Z</time>
      </trkpt>
      <trkpt lat="46.75582" lon="-1.81925">
        <ele>7</ele>
        <time>2018-03-21T14:47:05Z</time>
      </trkpt>
      <trkpt lat="46.7555" lon="-1.81896">
        <ele>8</ele>
        <time>2018-03-21T14:48:05Z</time>
      </trkpt>
      <trkpt lat="46.75541" lon="-1.81887">
        <ele>8</ele>
        <time>2018-03-21T14:49:05Z</time>
      </trkpt>
      <trkpt lat="46.75533" lon="-1.81879">
        <ele>8</ele>
        <time>2018-03-21T14:50:05Z</time>
      </trkpt>
      <trkpt lat="46.75525" lon="-1.81869">
        <ele>8</ele>
        <time>2018-03-21T14:51:05Z</time>
      </trkpt>
      <trkpt lat="46.75516" lon="-1.81858">
        <ele>9</ele>
        <time>2018-03-21T14:52:05Z</time>
      </trkpt>
      <trkpt lat="46.75509" lon="-1.8185">
        <ele>9</ele>
        <time>2018-03-21T14:53:05Z</time>
      </trkpt>
      <trkpt lat="46.75502" lon="-1.8184">
        <ele>9</ele>
        <time>2018-03-21T14:54:05Z</time>
      </trkpt>
      <trkpt lat="46.75493" lon="-1.81829">
        <ele>9</ele>
        <time>2018-03-21T14:55:05Z</time>
      </trkpt>
      <trkpt lat="46.75484" lon="-1.81816">
        <ele>9</ele>
        <time>2018-03-21T14:56:05Z</time>
      </trkpt>
      <trkpt lat="46.75474" lon="-1.81802">
        <ele>9</ele>
        <time>2018-03-21T14:57:05Z</time>
      </trkpt>
      <trkpt lat="46.75467" lon="-1.8179">
        <ele>9</ele>
        <time>2018-03-21T14:58:05Z</time>
      </trkpt>
      <trkpt lat="46.7546" lon="-1.81778">
        <ele>9</ele>
        <time>2018-03-21T14:59:05Z</time>
      </trkpt>
      <trkpt lat="46.75456" lon="-1.81772">
        <ele>9</ele>
        <time>2018-03-21T15:00:05Z</time>
      </trkpt>
      <trkpt lat="46.75447" lon="-1.81754">
        <ele>9</ele>
        <time>2018-03-21T15:01:05Z</time>
      </trkpt>
      <trkpt lat="46.75429" lon="-1.81716">
        <ele>9</ele>
        <time>2018-03-21T15:02:05Z</time>
      </trkpt>
      <trkpt lat="46.75399" lon="-1.81648">
        <ele>9</ele>
        <time>2018-03-21T15:03:05Z</time>
      </trkpt>
      <trkpt lat="46.75378" lon="-1.81599">
        <ele>9</ele>
        <time>2018-03-21T15:04:05Z</time>
      </trkpt>
      <trkpt lat="46.75354" lon="-1.81545">
        <ele>8</ele>
        <time>2018-03-21T15:05:05Z</time>
      </trkpt>
      <trkpt lat="46.7533" lon="-1.81491">
        <ele>9</ele>
        <time>2018-03-21T15:06:05Z</time>
      </trkpt>
      <trkpt lat="46.75311" lon="-1.81446">
        <ele>9</ele>
        <time>2018-03-21T15:07:05Z</time>
      </trkpt>
      <trkpt lat="46.75278" lon="-1.81373">
        <ele>10</ele>
        <time>2018-03-21T15:08:05Z</time>
      </trkpt>
      <trkpt lat="46.75272" lon="-1.81358">
        <ele>10</ele>
        <time>2018-03-21T15:09:05Z</time>
      </trkpt>
      <trkpt lat="46.75256" lon="-1.81322">
        <ele>10</ele>
        <time>2018-03-21T15:10:05Z</time>
      </trkpt>
      <trkpt lat="46.75244" lon="-1.81293">
        <ele>10</ele>
        <time>2018-03-21T15:11:05Z</time>
      </trkpt>
      <trkpt lat="46.75226" lon="-1.81242">
        <ele>10</ele>
        <time>2018-03-21T15:12:05Z</time>
      </trkpt>
      <trkpt lat="46.7522" lon="-1.81224">
        <ele>10</ele>
        <time>2018-03-21T15:13:05Z</time>
      </trkpt>
      <trkpt lat="46.75215" lon="-1.81201">
        <ele>10</ele>
        <time>2018-03-21T15:14:05Z</time>
      </trkpt>
      <trkpt lat="46.7521" lon="-1.81184">
        <ele>10</ele>
        <time>2018-03-21T15:15:05Z</time>
      </trkpt>
      <trkpt lat="46.75207" lon="-1.81169">
        <ele>10</ele>
        <time>2018-03-21T15:16:05Z</time>
      </trkpt>
      <trkpt lat="46.75204" lon="-1.81152">
        <ele>10</ele>
        <time>2018-03-21T15:17:05Z</time>
      </trkpt>
      <trkpt lat="46.752" lon="-1.81132">
        <ele>10</ele>
        <time>2018-03-21T15:18:05Z</time>
      </trkpt>
      <trkpt lat="46.75195" lon="-1.81098">
        <ele>10</ele>
        <time>2018-03-21T15:19:05Z</time>
      </trkpt>
      <trkpt lat="46.75185" lon="-1.81037">
        <ele>10</ele>
        <time>2018-03-21T15:20:05Z</time>
      </trkpt>
      <trkpt lat="46.75169" lon="-1.80939">
        <ele>11</ele>
        <time>2018-03-21T15:21:05Z</time>
      </trkpt>
      <trkpt lat="46.75157" lon="-1.80862">
        <ele>11</ele>
        <time>2018-03-21T15:22:05Z</time>
      </trkpt>
      <trkpt lat="46.75144" lon="-1.80784">
        <ele>11</ele>
        <time>2018-03-21T15:23:05Z</time>
      </trkpt>
      <trkpt lat="46.75135" lon="-1.8073">
        <ele>11</ele>
        <time>2018-03-21T15:24:05Z</time>
      </trkpt>
      <trkpt lat="46.7513" lon="-1.80699">
        <ele>11</ele>
        <time>2018-03-21T15:25:05Z</time>
      </trkpt>
      <trkpt lat="46.75127" lon="-1.80676">
        <ele>11</ele>
        <time>2018-03-21T15:26:05Z</time>
      </trkpt>
      <trkpt lat="46.75115" lon="-1.80604">
        <ele>13</ele>
        <time>2018-03-21T15:27:05Z</time>
      </trkpt>
      <trkpt lat="46.75113" lon="-1.80589">
        <ele>14</ele>
        <time>2018-03-21T15:28:05Z</time>
      </trkpt>
      <trkpt lat="46.75102" lon="-1.80526">
        <ele>14</ele>
        <time>2018-03-21T15:29:05Z</time>
      </trkpt>
      <trkpt lat="46.75097" lon="-1.80489">
        <ele>15</ele>
        <time>2018-03-21T15:30:05Z</time>
      </trkpt>
      <trkpt lat="46.75088" lon="-1.80437">
        <ele>14</ele>
        <time>2018-03-21T15:31:05Z</time>
      </trkpt>
      <trkpt lat="46.75079" lon="-1.8038">
        <ele>15</ele>
        <time>2018-03-21T15:32:05Z</time>
      </trkpt>
      <trkpt lat="46.75066" lon="-1.803">
        <ele>16</ele>
        <time>2018-03-21T15:33:05Z</time>
      </trkpt>
      <trkpt lat="46.75066" lon="-1.80298">
        <ele>16</ele>
        <time>2018-03-21T15:34:05Z</time>
      </trkpt>
      <trkpt lat="46.75059" lon="-1.80247">
        <ele>16</ele>
        <time>2018-03-21T15:35:05Z</time>
      </trkpt>
      <trkpt lat="46.75055" lon="-1.80218">
        <ele>15</ele>
        <time>2018-03-21T15:36:05Z</time>
      </trkpt>
      <trkpt lat="46.75048" lon="-1.8018">
        <ele>13</ele>
        <time>2018-03-21T15:37:05Z</time>
      </trkpt>
      <trkpt lat="46.75039" lon="-1.80127">
        <ele>12</ele>
        <time>2018-03-21T15:38:05Z</time>
      </trkpt>
      <trkpt lat="46.75039" lon="-1.80125">
        <ele>12</ele>
        <time>2018-03-21T15:39:05Z</time>
      </trkpt>
      <trkpt lat="46.75034" lon="-1.80092">
        <ele>12</ele>
        <time>2018-03-21T15:40:05Z</time>
      </trkpt>
      <trkpt lat="46.75026" lon="-1.80044">
        <ele>13</ele>
        <time>2018-03-21T15:41:05Z</time>
      </trkpt>
      <trkpt lat="46.75021" lon="-1.80014">
        <ele>13</ele>
        <time>2018-03-21T15:42:05Z</time>
      </trkpt>
      <trkpt lat="46.75017" lon="-1.79991">
        <ele>13</ele>
        <time>2018-03-21T15:43:05Z</time>
      </trkpt>
      <trkpt lat="46.75011" lon="-1.79963">
        <ele>12</ele>
        <time>2018-03-21T15:44:05Z</time>
      </trkpt>
      <trkpt lat="46.75004" lon="-1.79943">
        <ele>12</ele>
        <time>2018-03-21T15:45:05Z</time>
      </trkpt>
      <trkpt lat="46.74997" lon="-1.79926">
        <ele>11</ele>
        <time>2018-03-21T15:46:05Z</time>
      </trkpt>
      <trkpt lat="46.74988" lon="-1.79908">
        <ele>10</ele>
        <time>2018-03-21T15:47:05Z</time>
      </trkpt>
      <trkpt lat="46.74981" lon="-1.79895">
        <ele>10</ele>
        <time>2018-03-21T15:48:05Z</time>
      </trkpt>
      <trkpt lat="46.74974" lon="-1.79884">
        <ele>9</ele>
        <time>2018-03-21T15:49:05Z</time>
      </trkpt>
      <trkpt lat="46.74954" lon="-1.79854">
        <ele>7</ele>
        <time>2018-03-21T15:50:05Z</time>
      </trkpt>
      <trkpt lat="46.74927" lon="-1.79817">
        <ele>6</ele>
        <time>2018-03-21T15:51:05Z</time>
      </trkpt>
      <trkpt lat="46.74895" lon="-1.79771">
        <ele>6</ele>
        <time>2018-03-21T15:52:05Z</time>
      </trkpt>
      <trkpt lat="46.74887" lon="-1.79761">
        <ele>6</ele>
        <time>2018-03-21T15:53:05Z</time>
      </trkpt>
      <trkpt lat="46.7488" lon="-1.79751">
        <ele>6</ele>
        <time>2018-03-21T15:54:05Z</time>
      </trkpt>
      <trkpt lat="46.74873" lon="-1.79744">
        <ele>6</ele>
        <time>2018-03-21T15:55:05Z</time>
      </trkpt>
      <trkpt lat="46.74866" lon="-1.79737">
        <ele>6</ele>
        <time>2018-03-21T15:56:05Z</time>
      </trkpt>
      <trkpt lat="46.74857" lon="-1.79731">
        <ele>6</ele>
        <time>2018-03-21T15:57:05Z</time>
      </trkpt>
      <trkpt lat="46.74849" lon="-1.79726">
        <ele>6</ele>
        <time>2018-03-21T15:58:05Z</time>
      </trkpt>
      <trkpt lat="46.74838" lon="-1.79723">
        <ele>6</ele>
        <time>2018-03-21T15:59:05Z</time>
      </trkpt>
      <trkpt lat="46.74836" lon="-1.79722">
        <ele>6</ele>
        <time>2018-03-21T16:00:05Z</time>
      </trkpt>
      <trkpt lat="46.74831" lon="-1.7972">
        <ele>6</ele>
        <time>2018-03-21T16:01:05Z</time>
      </trkpt>
      <trkpt lat="46.74825" lon="-1.79719">
        <ele>7</ele>
        <time>2018-03-21T16:02:05Z</time>
      </trkpt>
      <trkpt lat="46.74816" lon="-1.79716">
        <ele>7</ele>
        <time>2018-03-21T16:03:05Z</time>
      </trkpt>
      <trkpt lat="46.74807" lon="-1.79714">
        <ele>7</ele>
        <time>2018-03-21T16:04:05Z</time>
      </trkpt>
      <trkpt lat="46.74801" lon="-1.79712">
        <ele>7</ele>
        <time>2018-03-21T16:05:05Z</time>
      </trkpt>
      <trkpt lat="46.74785" lon="-1.79706">
        <ele>8</ele>
        <time>2018-03-21T16:06:05Z</time>
      </trkpt>
      <trkpt lat="46.74784" lon="-1.79705">
        <ele>8</ele>
        <time>2018-03-21T16:07:05Z</time>
      </trkpt>
      <trkpt lat="46.74774" lon="-1.79701">
        <ele>8</ele>
        <time>2018-03-21T16:08:05Z</time>
      </trkpt>
      <trkpt lat="46.74766" lon="-1.79697">
        <ele>9</ele>
        <time>2018-03-21T16:09:05Z</time>
      </trkpt>
      <trkpt lat="46.74757" lon="-1.79692">
        <ele>9</ele>
        <time>2018-03-21T16:10:05Z</time>
      </trkpt>
      <trkpt lat="46.74751" lon="-1.79688">
        <ele>9</ele>
        <time>2018-03-21T16:11:05Z</time>
      </trkpt>
      <trkpt lat="46.74738" lon="-1.79679">
        <ele>10</ele>
        <time>2018-03-21T16:12:05Z</time>
      </trkpt>
      <trkpt lat="46.74714" lon="-1.79662">
        <ele>12</ele>
        <time>2018-03-21T16:13:05Z</time>
      </trkpt>
      <trkpt lat="46.74687" lon="-1.79641">
        <ele>13</ele>
        <time>2018-03-21T16:14:05Z</time>
      </trkpt>
      <trkpt lat="46.74682" lon="-1.79636">
        <ele>13</ele>
        <time>2018-03-21T16:15:05Z</time>
      </trkpt>
      <trkpt lat="46.74653" lon="-1.79613">
        <ele>14</ele>
        <time>2018-03-21T16:16:05Z</time>
      </trkpt>
      <trkpt lat="46.74636" lon="-1.79599">
        <ele>14</ele>
        <time>2018-03-21T16:17:05Z</time>
      </trkpt>
      <trkpt lat="46.74626" lon="-1.7959">
        <ele>15</ele>
        <time>2018-03-21T16:18:05Z</time>
      </trkpt>
      <trkpt lat="46.7461" lon="-1.79577">
        <ele>15</ele>
        <time>2018-03-21T16:19:05Z</time>
      </trkpt>
      <trkpt lat="46.74594" lon="-1.79561">
        <ele>15</ele>
        <time>2018-03-21T16:20:05Z</time>
      </trkpt>
      <trkpt lat="46.74592" lon="-1.79558">
        <ele>15</ele>
        <time>2018-03-21T16:21:05Z</time>
      </trkpt>
      <trkpt lat="46.74581" lon="-1.79547">
        <ele>15</ele>
        <time>2018-03-21T16:22:05Z</time>
      </trkpt>
      <trkpt lat="46.7458" lon="-1.79546">
        <ele>15</ele>
        <time>2018-03-21T16:23:05Z</time>
      </trkpt>
      <trkpt lat="46.74575" lon="-1.7954">
        <ele>15</ele>
        <time>2018-03-21T16:24:05Z</time>
      </trkpt>
      <trkpt lat="46.7457" lon="-1.79535">
        <ele>15</ele>
        <time>2018-03-21T16:25:05Z</time>
      </trkpt>
      <trkpt lat="46.74562" lon="-1.79524">
        <ele>15</ele>
        <time>2018-03-21T16:26:05Z</time>
      </trkpt>
      <trkpt lat="46.74557" lon="-1.79518">
        <ele>15</ele>
        <time>2018-03-21T16:27:05Z</time>
      </trkpt>
      <trkpt lat="46.74552" lon="-1.7951">
        <ele>15</ele>
        <time>2018-03-21T16:28:05Z</time>
      </trkpt>
      <trkpt lat="46.74548" lon="-1.79503">
        <ele>15</ele>
        <time>2018-03-21T16:29:05Z</time>
      </trkpt>
      <trkpt lat="46.74528" lon="-1.79473">
        <ele>16</ele>
        <time>2018-03-21T16:30:05Z</time>
      </trkpt>
      <trkpt lat="46.7449" lon="-1.79409">
        <ele>17</ele>
        <time>2018-03-21T16:31:05Z</time>
      </trkpt>
      <trkpt lat="46.74469" lon="-1.79377">
        <ele>17</ele>
        <time>2018-03-21T16:32:05Z</time>
      </trkpt>
      <trkpt lat="46.74452" lon="-1.79353">
        <ele>18</ele>
        <time>2018-03-21T16:33:05Z</time>
      </trkpt>
      <trkpt lat="46.74439" lon="-1.79337">
        <ele>18</ele>
        <time>2018-03-21T16:34:05Z</time>
      </trkpt>
      <trkpt lat="46.74426" lon="-1.79323">
        <ele>18</ele>
        <time>2018-03-21T16:35:05Z</time>
      </trkpt>
      <trkpt lat="46.74423" lon="-1.7932">
        <ele>18</ele>
        <time>2018-03-21T16:36:05Z</time>
      </trkpt>
      <trkpt lat="46.7442" lon="-1.79317">
        <ele>19</ele>
        <time>2018-03-21T16:37:05Z</time>
      </trkpt>
      <trkpt lat="46.74416" lon="-1.79313">
        <ele>19</ele>
        <time>2018-03-21T16:38:05Z</time>
      </trkpt>
      <trkpt lat="46.74405" lon="-1.79304">
        <ele>19</ele>
        <time>2018-03-21T16:39:05Z</time>
      </trkpt>
      <trkpt lat="46.74396" lon="-1.79299">
        <ele>19</ele>
        <time>2018-03-21T16:40:05Z</time>
      </trkpt>
      <trkpt lat="46.74387" lon="-1.79294">
        <ele>19</ele>
        <time>2018-03-21T16:41:05Z</time>
      </trkpt>
      <trkpt lat="46.74378" lon="-1.79289">
        <ele>19</ele>
        <time>2018-03-21T16:42:05Z</time>
      </trkpt>
      <trkpt lat="46.74367" lon="-1.79285">
        <ele>20</ele>
        <time>2018-03-21T16:43:05Z</time>
      </trkpt>
      <trkpt lat="46.74356" lon="-1.79281">
        <ele>20</ele>
        <time>2018-03-21T16:44:05Z</time>
      </trkpt>
      <trkpt lat="46.7434" lon="-1.79276">
        <ele>21</ele>
        <time>2018-03-21T16:45:05Z</time>
      </trkpt>
      <trkpt lat="46.74283" lon="-1.79259">
        <ele>22</ele>
        <time>2018-03-21T16:46:05Z</time>
      </trkpt>
      <trkpt lat="46.74255" lon="-1.79251">
        <ele>23</ele>
        <time>2018-03-21T16:47:05Z</time>
      </trkpt>
      <trkpt lat="46.74221" lon="-1.79241">
        <ele>24</ele>
        <time>2018-03-21T16:48:05Z</time>
      </trkpt>
      <trkpt lat="46.74168" lon="-1.79223">
        <ele>24</ele>
        <time>2018-03-21T16:49:05Z</time>
      </trkpt>
      <trkpt lat="46.74136" lon="-1.79214">
        <ele>24</ele>
        <time>2018-03-21T16:50:05Z</time>
      </trkpt>
      <trkpt lat="46.74113" lon="-1.79206">
        <ele>24</ele>
        <time>2018-03-21T16:51:05Z</time>
      </trkpt>
      <trkpt lat="46.74063" lon="-1.7919">
        <ele>23</ele>
        <time>2018-03-21T16:52:05Z</time>
      </trkpt>
      <trkpt lat="46.74042" lon="-1.79183">
        <ele>23</ele>
        <time>2018-03-21T16:53:05Z</time>
      </trkpt>
      <trkpt lat="46.74035" lon="-1.79181">
        <ele>23</ele>
        <time>2018-03-21T16:54:05Z</time>
      </trkpt>
      <trkpt lat="46.74025" lon="-1.79178">
        <ele>23</ele>
        <time>2018-03-21T16:55:05Z</time>
      </trkpt>
      <trkpt lat="46.74023" lon="-1.79177">
        <ele>23</ele>
        <time>2018-03-21T16:56:05Z</time>
      </trkpt>
      <trkpt lat="46.74021" lon="-1.79176">
        <ele>23</ele>
        <time>2018-03-21T16:57:05Z</time>
      </trkpt>
      <trkpt lat="46.74021" lon="-1.79176">
        <ele>23</ele>
        <time>2018-03-21T16:58:05Z</time>
      </trkpt>
      <trkpt lat="46.74022" lon="-1.79166">
        <ele>23</ele>
        <time>2018-03-21T16:59:05Z</time>
      </trkpt>
      <trkpt lat="46.74023" lon="-1.79161">
        <ele>23</ele>
        <time>2018-03-21T17:00:05Z</time>
      </trkpt>
      <trkpt lat="46.74024" lon="-1.79156">
        <ele>23</ele>
        <time>2018-03-21T17:01:05Z</time>
      </trkpt>
      <trkpt lat="46.74026" lon="-1.79136">
        <ele>23</ele>
        <time>2018-03-21T17:02:05Z</time>
      </trkpt>
      <trkpt lat="46.74026" lon="-1.79105">
        <ele>23</ele>
        <time>2018-03-21T17:03:05Z</time>
      </trkpt>
      <trkpt lat="46.74029" lon="-1.7905">
        <ele>23</ele>
        <time>2018-03-21T17:04:05Z</time>
      </trkpt>
      <trkpt lat="46.74029" lon="-1.79017">
        <ele>22</ele>
        <time>2018-03-21T17:05:05Z</time>
      </trkpt>
      <trkpt lat="46.7403" lon="-1.78986">
        <ele>22</ele>
        <time>2018-03-21T17:06:05Z</time>
      </trkpt>
      <trkpt lat="46.74029" lon="-1.78974">
        <ele>22</ele>
        <time>2018-03-21T17:07:05Z</time>
      </trkpt>
      <trkpt lat="46.74029" lon="-1.78959">
        <ele>22</ele>
        <time>2018-03-21T17:08:05Z</time>
      </trkpt>
      <trkpt lat="46.74027" lon="-1.78946">
        <ele>21</ele>
        <time>2018-03-21T17:09:05Z</time>
      </trkpt>
      <trkpt lat="46.74022" lon="-1.78919">
        <ele>21</ele>
        <time>2018-03-21T17:10:05Z</time>
      </trkpt>
      <trkpt lat="46.7401" lon="-1.78872">
        <ele>19</ele>
        <time>2018-03-21T17:11:05Z</time>
      </trkpt>
      <trkpt lat="46.73998" lon="-1.78838">
        <ele>18</ele>
        <time>2018-03-21T17:12:05Z</time>
      </trkpt>
      <trkpt lat="46.73986" lon="-1.78812">
        <ele>17</ele>
        <time>2018-03-21T17:13:05Z</time>
      </trkpt>
      <trkpt lat="46.73985" lon="-1.78809">
        <ele>17</ele>
        <time>2018-03-21T17:14:05Z</time>
      </trkpt>
      <trkpt lat="46.7397" lon="-1.78781">
        <ele>16</ele>
        <time>2018-03-21T17:15:05Z</time>
      </trkpt>
      <trkpt lat="46.73965" lon="-1.7877">
        <ele>16</ele>
        <time>2018-03-21T17:16:05Z</time>
      </trkpt>
      <trkpt lat="46.73959" lon="-1.78761">
        <ele>16</ele>
        <time>2018-03-21T17:17:05Z</time>
      </trkpt>
      <trkpt lat="46.73955" lon="-1.78753">
        <ele>15</ele>
        <time>2018-03-21T17:18:05Z</time>
      </trkpt>
      <trkpt lat="46.73951" lon="-1.78746">
        <ele>15</ele>
        <time>2018-03-21T17:19:05Z</time>
      </trkpt>
      <trkpt lat="46.73949" lon="-1.78739">
        <ele>15</ele>
        <time>2018-03-21T17:20:05Z</time>
      </trkpt>
      <trkpt lat="46.73946" lon="-1.78733">
        <ele>15</ele>
        <time>2018-03-21T17:21:05Z</time>
      </trkpt>
      <trkpt lat="46.73944" lon="-1.78725">
        <ele>15</ele>
        <time>2018-03-21T17:22:05Z</time>
      </trkpt>
      <trkpt lat="46.73943" lon="-1.78717">
        <ele>15</ele>
        <time>2018-03-21T17:23:05Z</time>
      </trkpt>
      <trkpt lat="46.73942" lon="-1.78713">
        <ele>15</ele>
        <time>2018-03-21T17:24:05Z</time>
      </trkpt>
      <trkpt lat="46.73941" lon="-1.78708">
        <ele>15</ele>
        <time>2018-03-21T17:25:05Z</time>
      </trkpt>
      <trkpt lat="46.7394" lon="-1.787">
        <ele>15</ele>
        <time>2018-03-21T17:26:05Z</time>
      </trkpt>
      <trkpt lat="46.73937" lon="-1.7869">
        <ele>15</ele>
        <time>2018-03-21T17:27:05Z</time>
      </trkpt>
      <trkpt lat="46.73933" lon="-1.78681">
        <ele>15</ele>
        <time>2018-03-21T17:28:05Z</time>
      </trkpt>
      <trkpt lat="46.73922" lon="-1.78659">
        <ele>15</ele>
        <time>2018-03-21T17:29:05Z</time>
      </trkpt>
      <trkpt lat="46.73911" lon="-1.78638">
        <ele>15</ele>
        <time>2018-03-21T17:30:05Z</time>
      </trkpt>
      <trkpt lat="46.73901" lon="-1.78617">
        <ele>15</ele>
        <time>2018-03-21T17:31:05Z</time>
      </trkpt>
      <trkpt lat="46.73899" lon="-1.78613">
        <ele>15</ele>
        <time>2018-03-21T17:32:05Z</time>
      </trkpt>
      <trkpt lat="46.73899" lon="-1.78613">
        <ele>15</ele>
        <time>2018-03-21T17:33:05Z</time>
      </trkpt>
      <trkpt lat="46.73898" lon="-1.7861">
        <ele>15</ele>
        <time>2018-03-21T17:34:05Z</time>
      </trkpt>
      <trkpt lat="46.73895" lon="-1.78603">
        <ele>15</ele>
        <time>2018-03-21T17:35:05Z</time>
      </trkpt>
      <trkpt lat="46.7389" lon="-1.78591">
        <ele>15</ele>
        <time>2018-03-21T17:36:05Z</time>
      </trkpt>
      <trkpt lat="46.73886" lon="-1.78579">
        <ele>15</ele>
        <time>2018-03-21T17:37:05Z</time>
      </trkpt>
      <trkpt lat="46.73884" lon="-1.78572">
        <ele>15</ele>
        <time>2018-03-21T17:38:05Z</time>
      </trkpt>
      <trkpt lat="46.73879" lon="-1.78557">
        <ele>15</ele>
        <time>2018-03-21T17:39:05Z</time>
      </trkpt>
      <trkpt lat="46.73875" lon="-1.7854">
        <ele>15</ele>
        <time>2018-03-21T17:40:05Z</time>
      </trkpt>
      <trkpt lat="46.73872" lon="-1.78526">
        <ele>15</ele>
        <time>2018-03-21T17:41:05Z</time>
      </trkpt>
      <trkpt lat="46.7387" lon="-1.78512">
        <ele>14</ele>
        <time>2018-03-21T17:42:05Z</time>
      </trkpt>
      <trkpt lat="46.73868" lon="-1.78503">
        <ele>14</ele>
        <time>2018-03-21T17:43:05Z</time>
      </trkpt>
      <trkpt lat="46.73868" lon="-1.78495">
        <ele>14</ele>
        <time>2018-03-21T17:44:05Z</time>
      </trkpt>
      <trkpt lat="46.73866" lon="-1.78483">
        <ele>15</ele>
        <time>2018-03-21T17:45:05Z</time>
      </trkpt>
      <trkpt lat="46.73866" lon="-1.7848">
        <ele>15</ele>
        <time>2018-03-21T17:46:05Z</time>
      </trkpt>
      <trkpt lat="46.73866" lon="-1.78465">
        <ele>15</ele>
        <time>2018-03-21T17:47:05Z</time>
      </trkpt>
      <trkpt lat="46.73866" lon="-1.7845">
        <ele>16</ele>
        <time>2018-03-21T17:48:05Z</time>
      </trkpt>
      <trkpt lat="46.73867" lon="-1.78435">
        <ele>16</ele>
        <time>2018-03-21T17:49:05Z</time>
      </trkpt>
      <trkpt lat="46.73868" lon="-1.78423">
        <ele>16</ele>
        <time>2018-03-21T17:50:05Z</time>
      </trkpt>
      <trkpt lat="46.73869" lon="-1.78415">
        <ele>17</ele>
        <time>2018-03-21T17:51:05Z</time>
      </trkpt>
      <trkpt lat="46.73871" lon="-1.78402">
        <ele>17</ele>
        <time>2018-03-21T17:52:05Z</time>
      </trkpt>
      <trkpt lat="46.73877" lon="-1.78375">
        <ele>19</ele>
        <time>2018-03-21T17:53:05Z</time>
      </trkpt>
      <trkpt lat="46.73884" lon="-1.78341">
        <ele>20</ele>
        <time>2018-03-21T17:54:05Z</time>
      </trkpt>
      <trkpt lat="46.73892" lon="-1.78308">
        <ele>20</ele>
        <time>2018-03-21T17:55:05Z</time>
      </trkpt>
      <trkpt lat="46.73893" lon="-1.78302">
        <ele>20</ele>
        <time>2018-03-21T17:56:05Z</time>
      </trkpt>
      <trkpt lat="46.73895" lon="-1.78298">
        <ele>20</ele>
        <time>2018-03-21T17:57:05Z</time>
      </trkpt>
      <trkpt lat="46.73905" lon="-1.78253">
        <ele>20</ele>
        <time>2018-03-21T17:58:05Z</time>
      </trkpt>
      <trkpt lat="46.73921" lon="-1.78185">
        <ele>20</ele>
        <time>2018-03-21T17:59:05Z</time>
      </trkpt>
      <trkpt lat="46.73925" lon="-1.78164">
        <ele>20</ele>
        <time>2018-03-21T18:00:05Z</time>
      </trkpt>
      <trkpt lat="46.73928" lon="-1.78144">
        <ele>20</ele>
        <time>2018-03-21T18:01:05Z</time>
      </trkpt>
      <trkpt lat="46.73932" lon="-1.78123">
        <ele>20</ele>
        <time>2018-03-21T18:02:05Z</time>
      </trkpt>
      <trkpt lat="46.73933" lon="-1.78105">
        <ele>20</ele>
        <time>2018-03-21T18:03:05Z</time>
      </trkpt>
      <trkpt lat="46.73934" lon="-1.78092">
        <ele>20</ele>
        <time>2018-03-21T18:04:05Z</time>
      </trkpt>
      <trkpt lat="46.73938" lon="-1.78043">
        <ele>20</ele>
        <time>2018-03-21T18:05:05Z</time>
      </trkpt>
      <trkpt lat="46.73939" lon="-1.78038">
        <ele>20</ele>
        <time>2018-03-21T18:06:05Z</time>
      </trkpt>
      <trkpt lat="46.73944" lon="-1.77959">
        <ele>20</ele>
        <time>2018-03-21T18:07:05Z</time>
      </trkpt>
      <trkpt lat="46.7395" lon="-1.77883">
        <ele>19</ele>
        <time>2018-03-21T18:08:05Z</time>
      </trkpt>
      <trkpt lat="46.73954" lon="-1.77822">
        <ele>17</ele>
        <time>2018-03-21T18:09:05Z</time>
      </trkpt>
      <trkpt lat="46.73959" lon="-1.77764">
        <ele>16</ele>
        <time>2018-03-21T18:10:05Z</time>
      </trkpt>
      <trkpt lat="46.73961" lon="-1.77735">
        <ele>16</ele>
        <time>2018-03-21T18:11:05Z</time>
      </trkpt>
      <trkpt lat="46.73965" lon="-1.77681">
        <ele>16</ele>
        <time>2018-03-21T18:12:05Z</time>
      </trkpt>
      <trkpt lat="46.73967" lon="-1.77662">
        <ele>16</ele>
        <time>2018-03-21T18:13:05Z</time>
      </trkpt>
      <trkpt lat="46.73975" lon="-1.77559">
        <ele>16</ele>
        <time>2018-03-21T18:14:05Z</time>
      </trkpt>
      <trkpt lat="46.73977" lon="-1.77528">
        <ele>17</ele>
        <time>2018-03-21T18:15:05Z</time>
      </trkpt>
      <trkpt lat="46.7398" lon="-1.77497">
        <ele>17</ele>
        <time>2018-03-21T18:16:05Z</time>
      </trkpt>
      <trkpt lat="46.73982" lon="-1.7748">
        <ele>17</ele>
        <time>2018-03-21T18:17:05Z</time>
      </trkpt>
      <trkpt lat="46.73986" lon="-1.77462">
        <ele>16</ele>
        <time>2018-03-21T18:18:05Z</time>
      </trkpt>
      <trkpt lat="46.7399" lon="-1.77443">
        <ele>16</ele>
        <time>2018-03-21T18:19:05Z</time>
      </trkpt>
      <trkpt lat="46.73998" lon="-1.77414">
        <ele>16</ele>
        <time>2018-03-21T18:20:05Z</time>
      </trkpt>
      <trkpt lat="46.74017" lon="-1.77356">
        <ele>16</ele>
        <time>2018-03-21T18:21:05Z</time>
      </trkpt>
      <trkpt lat="46.74042" lon="-1.77279">
        <ele>16</ele>
        <time>2018-03-21T18:22:05Z</time>
      </trkpt>
      <trkpt lat="46.74058" lon="-1.77229">
        <ele>16</ele>
        <time>2018-03-21T18:23:05Z</time>
      </trkpt>
      <trkpt lat="46.74079" lon="-1.77166">
        <ele>15</ele>
        <time>2018-03-21T18:24:05Z</time>
      </trkpt>
      <trkpt lat="46.74097" lon="-1.77112">
        <ele>14</ele>
        <time>2018-03-21T18:25:05Z</time>
      </trkpt>
      <trkpt lat="46.74112" lon="-1.77067">
        <ele>12</ele>
        <time>2018-03-21T18:26:05Z</time>
      </trkpt>
      <trkpt lat="46.74122" lon="-1.77035">
        <ele>11</ele>
        <time>2018-03-21T18:27:05Z</time>
      </trkpt>
      <trkpt lat="46.74129" lon="-1.77007">
        <ele>10</ele>
        <time>2018-03-21T18:28:05Z</time>
      </trkpt>
      <trkpt lat="46.74132" lon="-1.76994">
        <ele>10</ele>
        <time>2018-03-21T18:29:05Z</time>
      </trkpt>
      <trkpt lat="46.74135" lon="-1.76981">
        <ele>10</ele>
        <time>2018-03-21T18:30:05Z</time>
      </trkpt>
      <trkpt lat="46.74136" lon="-1.76968">
        <ele>10</ele>
        <time>2018-03-21T18:31:05Z</time>
      </trkpt>
      <trkpt lat="46.74138" lon="-1.76955">
        <ele>10</ele>
        <time>2018-03-21T18:32:05Z</time>
      </trkpt>
      <trkpt lat="46.74139" lon="-1.76937">
        <ele>11</ele>
        <time>2018-03-21T18:33:05Z</time>
      </trkpt>
      <trkpt lat="46.7414" lon="-1.76915">
        <ele>11</ele>
        <time>2018-03-21T18:34:05Z</time>
      </trkpt>
      <trkpt lat="46.7414" lon="-1.76889">
        <ele>11</ele>
        <time>2018-03-21T18:35:05Z</time>
      </trkpt>
      <trkpt lat="46.74139" lon="-1.76781">
        <ele>11</ele>
        <time>2018-03-21T18:36:05Z</time>
      </trkpt>
      <trkpt lat="46.74139" lon="-1.76776">
        <ele>11</ele>
        <time>2018-03-21T18:37:05Z</time>
      </trkpt>
      <trkpt lat="46.74139" lon="-1.76768">
        <ele>10</ele>
        <time>2018-03-21T18:38:05Z</time>
      </trkpt>
      <trkpt lat="46.74139" lon="-1.76723">
        <ele>11</ele>
        <time>2018-03-21T18:39:05Z</time>
      </trkpt>
      <trkpt lat="46.74139" lon="-1.76638">
        <ele>14</ele>
        <time>2018-03-21T18:40:05Z</time>
      </trkpt>
      <trkpt lat="46.74138" lon="-1.76554">
        <ele>16</ele>
        <time>2018-03-21T18:41:05Z</time>
      </trkpt>
      <trkpt lat="46.74139" lon="-1.76446">
        <ele>19</ele>
        <time>2018-03-21T18:42:05Z</time>
      </trkpt>
      <trkpt lat="46.7414" lon="-1.76389">
        <ele>20</ele>
        <time>2018-03-21T18:43:05Z</time>
      </trkpt>
      <trkpt lat="46.74141" lon="-1.7637">
        <ele>21</ele>
        <time>2018-03-21T18:44:05Z</time>
      </trkpt>
      <trkpt lat="46.74141" lon="-1.76353">
        <ele>21</ele>
        <time>2018-03-21T18:45:05Z</time>
      </trkpt>
      <trkpt lat="46.74143" lon="-1.76338">
        <ele>21</ele>
        <time>2018-03-21T18:46:05Z</time>
      </trkpt>
      <trkpt lat="46.74145" lon="-1.76325">
        <ele>22</ele>
        <time>2018-03-21T18:47:05Z</time>
      </trkpt>
      <trkpt lat="46.74146" lon="-1.7631">
        <ele>22</ele>
        <time>2018-03-21T18:48:05Z</time>
      </trkpt>
      <trkpt lat="46.74149" lon="-1.76298">
        <ele>23</ele>
        <time>2018-03-21T18:49:05Z</time>
      </trkpt>
      <trkpt lat="46.74152" lon="-1.76284">
        <ele>23</ele>
        <time>2018-03-21T18:50:05Z</time>
      </trkpt>
      <trkpt lat="46.74156" lon="-1.76271">
        <ele>23</ele>
        <time>2018-03-21T18:51:05Z</time>
      </trkpt>
      <trkpt lat="46.7416" lon="-1.76258">
        <ele>24</ele>
        <time>2018-03-21T18:52:05Z</time>
      </trkpt>
      <trkpt lat="46.74165" lon="-1.76245">
        <ele>24</ele>
        <time>2018-03-21T18:53:05Z</time>
      </trkpt>
      <trkpt lat="46.74169" lon="-1.76234">
        <ele>24</ele>
        <time>2018-03-21T18:54:05Z</time>
      </trkpt>
      <trkpt lat="46.7418" lon="-1.76211">
        <ele>23</ele>
        <time>2018-03-21T18:55:05Z</time>
      </trkpt>
      <trkpt lat="46.74198" lon="-1.76178">
        <ele>22</ele>
        <time>2018-03-21T18:56:05Z</time>
      </trkpt>
      <trkpt lat="46.74218" lon="-1.76144">
        <ele>21</ele>
        <time>2018-03-21T18:57:05Z</time>
      </trkpt>
      <trkpt lat="46.74237" lon="-1.7611">
        <ele>21</ele>
        <time>2018-03-21T18:58:05Z</time>
      </trkpt>
      <trkpt lat="46.7425" lon="-1.76087">
        <ele>21</ele>
        <time>2018-03-21T18:59:05Z</time>
      </trkpt>
      <trkpt lat="46.74262" lon="-1.76064">
        <ele>21</ele>
        <time>2018-03-21T19:00:05Z</time>
      </trkpt>
      <trkpt lat="46.74273" lon="-1.7604">
        <ele>20</ele>
        <time>2018-03-21T19:01:05Z</time>
      </trkpt>
      <trkpt lat="46.74284" lon="-1.76017">
        <ele>20</ele>
        <time>2018-03-21T19:02:05Z</time>
      </trkpt>
      <trkpt lat="46.74294" lon="-1.75991">
        <ele>21</ele>
        <time>2018-03-21T19:03:05Z</time>
      </trkpt>
      <trkpt lat="46.74316" lon="-1.7594">
        <ele>20</ele>
        <time>2018-03-21T19:04:05Z</time>
      </trkpt>
      <trkpt lat="46.74359" lon="-1.75834">
        <ele>20</ele>
        <time>2018-03-21T19:05:05Z</time>
      </trkpt>
      <trkpt lat="46.74383" lon="-1.75777">
        <ele>20</ele>
        <time>2018-03-21T19:06:05Z</time>
      </trkpt>
      <trkpt lat="46.74404" lon="-1.75728">
        <ele>20</ele>
        <time>2018-03-21T19:07:05Z</time>
      </trkpt>
      <trkpt lat="46.74421" lon="-1.75687">
        <ele>20</ele>
        <time>2018-03-21T19:08:05Z</time>
      </trkpt>
      <trkpt lat="46.74438" lon="-1.75646">
        <ele>21</ele>
        <time>2018-03-21T19:09:05Z</time>
      </trkpt>
      <trkpt lat="46.74458" lon="-1.756">
        <ele>20</ele>
        <time>2018-03-21T19:10:05Z</time>
      </trkpt>
      <trkpt lat="46.74503" lon="-1.75493">
        <ele>23</ele>
        <time>2018-03-21T19:11:05Z</time>
      </trkpt>
      <trkpt lat="46.74531" lon="-1.75427">
        <ele>23</ele>
        <time>2018-03-21T19:12:05Z</time>
      </trkpt>
      <trkpt lat="46.74557" lon="-1.75364">
        <ele>24</ele>
        <time>2018-03-21T19:13:05Z</time>
      </trkpt>
      <trkpt lat="46.74569" lon="-1.75336">
        <ele>24</ele>
        <time>2018-03-21T19:14:05Z</time>
      </trkpt>
      <trkpt lat="46.74578" lon="-1.75313">
        <ele>24</ele>
        <time>2018-03-21T19:15:05Z</time>
      </trkpt>
      <trkpt lat="46.74585" lon="-1.75294">
        <ele>24</ele>
        <time>2018-03-21T19:16:05Z</time>
      </trkpt>
      <trkpt lat="46.7459" lon="-1.75279">
        <ele>24</ele>
        <time>2018-03-21T19:17:05Z</time>
      </trkpt>
      <trkpt lat="46.74594" lon="-1.75262">
        <ele>24</ele>
        <time>2018-03-21T19:18:05Z</time>
      </trkpt>
      <trkpt lat="46.74601" lon="-1.75236">
        <ele>24</ele>
        <time>2018-03-21T19:19:05Z</time>
      </trkpt>
      <trkpt lat="46.74608" lon="-1.75205">
        <ele>25</ele>
        <time>2018-03-21T19:20:05Z</time>
      </trkpt>
      <trkpt lat="46.74618" lon="-1.75155">
        <ele>26</ele>
        <time>2018-03-21T19:21:05Z</time>
      </trkpt>
      <trkpt lat="46.74628" lon="-1.751">
        <ele>26</ele>
        <time>2018-03-21T19:22:05Z</time>
      </trkpt>
      <trkpt lat="46.74635" lon="-1.75056">
        <ele>25</ele>
        <time>2018-03-21T19:23:05Z</time>
      </trkpt>
      <trkpt lat="46.7464" lon="-1.75028">
        <ele>24</ele>
        <time>2018-03-21T19:24:05Z</time>
      </trkpt>
      <trkpt lat="46.74643" lon="-1.75013">
        <ele>23</ele>
        <time>2018-03-21T19:25:05Z</time>
      </trkpt>
      <trkpt lat="46.74645" lon="-1.74999">
        <ele>23</ele>
        <time>2018-03-21T19:26:05Z</time>
      </trkpt>
      <trkpt lat="46.74647" lon="-1.74984">
        <ele>23</ele>
        <time>2018-03-21T19:27:05Z</time>
      </trkpt>
      <trkpt lat="46.74648" lon="-1.7497">
        <ele>23</ele>
        <time>2018-03-21T19:28:05Z</time>
      </trkpt>
      <trkpt lat="46.74649" lon="-1.74956">
        <ele>23</ele>
        <time>2018-03-21T19:29:05Z</time>
      </trkpt>
      <trkpt lat="46.7465" lon="-1.74942">
        <ele>22</ele>
        <time>2018-03-21T19:30:05Z</time>
      </trkpt>
      <trkpt lat="46.74651" lon="-1.74928">
        <ele>22</ele>
        <time>2018-03-21T19:31:05Z</time>
      </trkpt>
      <trkpt lat="46.74651" lon="-1.74914">
        <ele>22</ele>
        <time>2018-03-21T19:32:05Z</time>
      </trkpt>
      <trkpt lat="46.7465" lon="-1.749">
        <ele>23</ele>
        <time>2018-03-21T19:33:05Z</time>
      </trkpt>
      <trkpt lat="46.7465" lon="-1.74887">
        <ele>23</ele>
        <time>2018-03-21T19:34:05Z</time>
      </trkpt>
      <trkpt lat="46.74649" lon="-1.74874">
        <ele>23</ele>
        <time>2018-03-21T19:35:05Z</time>
      </trkpt>
      <trkpt lat="46.74647" lon="-1.74852">
        <ele>24</ele>
        <time>2018-03-21T19:36:05Z</time>
      </trkpt>
      <trkpt lat="46.74642" lon="-1.74826">
        <ele>25</ele>
        <time>2018-03-21T19:37:05Z</time>
      </trkpt>
      <trkpt lat="46.74637" lon="-1.74797">
        <ele>25</ele>
        <time>2018-03-21T19:38:05Z</time>
      </trkpt>
      <trkpt lat="46.74631" lon="-1.74766">
        <ele>25</ele>
        <time>2018-03-21T19:39:05Z</time>
      </trkpt>
      <trkpt lat="46.74622" lon="-1.74719">
        <ele>25</ele>
        <time>2018-03-21T19:40:05Z</time>
      </trkpt>
      <trkpt lat="46.74617" lon="-1.74692">
        <ele>25</ele>
        <time>2018-03-21T19:41:05Z</time>
      </trkpt>
      <trkpt lat="46.74611" lon="-1.74666">
        <ele>25</ele>
        <time>2018-03-21T19:42:05Z</time>
      </trkpt>
      <trkpt lat="46.74607" lon="-1.74642">
        <ele>25</ele>
        <time>2018-03-21T19:43:05Z</time>
      </trkpt>
      <trkpt lat="46.74603" lon="-1.74617">
        <ele>24</ele>
        <time>2018-03-21T19:44:05Z</time>
      </trkpt>
      <trkpt lat="46.746" lon="-1.74603">
        <ele>24</ele>
        <time>2018-03-21T19:45:05Z</time>
      </trkpt>
      <trkpt lat="46.74599" lon="-1.74596">
        <ele>24</ele>
        <time>2018-03-21T19:46:05Z</time>
      </trkpt>
      <trkpt lat="46.74597" lon="-1.74586">
        <ele>24</ele>
        <time>2018-03-21T19:47:05Z</time>
      </trkpt>
      <trkpt lat="46.74597" lon="-1.74586">
        <ele>24</ele>
        <time>2018-03-21T19:48:05Z</time>
      </trkpt>
      <trkpt lat="46.74603" lon="-1.74581">
        <ele>24</ele>
        <time>2018-03-21T19:49:05Z</time>
      </trkpt>
      <trkpt lat="46.74606" lon="-1.74576">
        <ele>23</ele>
        <time>2018-03-21T19:50:05Z</time>
      </trkpt>
      <trkpt lat="46.74617" lon="-1.74563">
        <ele>22</ele>
        <time>2018-03-21T19:51:05Z</time>
      </trkpt>
      <trkpt lat="46.74631" lon="-1.74544">
        <ele>21</ele>
        <time>2018-03-21T19:52:05Z</time>
      </trkpt>
      <trkpt lat="46.74667" lon="-1.74493">
        <ele>20</ele>
        <time>2018-03-21T19:53:05Z</time>
      </trkpt>
      <trkpt lat="46.74688" lon="-1.74462">
        <ele>19</ele>
        <time>2018-03-21T19:54:05Z</time>
      </trkpt>
      <trkpt lat="46.74699" lon="-1.74442">
        <ele>18</ele>
        <time>2018-03-21T19:55:05Z</time>
      </trkpt>
      <trkpt lat="46.74707" lon="-1.74428">
        <ele>18</ele>
        <time>2018-03-21T19:56:05Z</time>
      </trkpt>
      <trkpt lat="46.74715" lon="-1.74412">
        <ele>17</ele>
        <time>2018-03-21T19:57:05Z</time>
      </trkpt>
      <trkpt lat="46.74719" lon="-1.74402">
        <ele>17</ele>
        <time>2018-03-21T19:58:05Z</time>
      </trkpt>
      <trkpt lat="46.74724" lon="-1.74388">
        <ele>17</ele>
        <time>2018-03-21T19:59:05Z</time>
      </trkpt>
      <trkpt lat="46.74729" lon="-1.74372">
        <ele>16</ele>
        <time>2018-03-21T20:00:05Z</time>
      </trkpt>
      <trkpt lat="46.74732" lon="-1.74359">
        <ele>16</ele>
        <time>2018-03-21T20:01:05Z</time>
      </trkpt>
      <trkpt lat="46.74735" lon="-1.74347">
        <ele>15</ele>
        <time>2018-03-21T20:02:05Z</time>
      </trkpt>
      <trkpt lat="46.74738" lon="-1.74327">
        <ele>14</ele>
        <time>2018-03-21T20:03:05Z</time>
      </trkpt>
      <trkpt lat="46.74739" lon="-1.74314">
        <ele>14</ele>
        <time>2018-03-21T20:04:05Z</time>
      </trkpt>
      <trkpt lat="46.7474" lon="-1.743">
        <ele>14</ele>
        <time>2018-03-21T20:05:05Z</time>
      </trkpt>
      <trkpt lat="46.74741" lon="-1.74282">
        <ele>14</ele>
        <time>2018-03-21T20:06:05Z</time>
      </trkpt>
      <trkpt lat="46.74742" lon="-1.74239">
        <ele>14</ele>
        <time>2018-03-21T20:07:05Z</time>
      </trkpt>
      <trkpt lat="46.74741" lon="-1.74229">
        <ele>14</ele>
        <time>2018-03-21T20:08:05Z</time>
      </trkpt>
      <trkpt lat="46.7474" lon="-1.74216">
        <ele>13</ele>
        <time>2018-03-21T20:09:05Z</time>
      </trkpt>
      <trkpt lat="46.74738" lon="-1.74205">
        <ele>13</ele>
        <time>2018-03-21T20:10:05Z</time>
      </trkpt>
      <trkpt lat="46.74736" lon="-1.74196">
        <ele>13</ele>
        <time>2018-03-21T20:11:05Z</time>
      </trkpt>
      <trkpt lat="46.74734" lon="-1.74192">
        <ele>13</ele>
        <time>2018-03-21T20:12:05Z</time>
      </trkpt>
      <trkpt lat="46.74732" lon="-1.74188">
        <ele>13</ele>
        <time>2018-03-21T20:13:05Z</time>
      </trkpt>
      <trkpt lat="46.74729" lon="-1.74181">
        <ele>13</ele>
        <time>2018-03-21T20:14:05Z</time>
      </trkpt>
      <trkpt lat="46.74733" lon="-1.74169">
        <ele>13</ele>
        <time>2018-03-21T20:15:05Z</time>
      </trkpt>
      <trkpt lat="46.74735" lon="-1.74165">
        <ele>12</ele>
        <time>2018-03-21T20:16:05Z</time>
      </trkpt>
      <trkpt lat="46.74736" lon="-1.74163">
        <ele>12</ele>
        <time>2018-03-21T20:17:05Z</time>
      </trkpt>
      <trkpt lat="46.74756" lon="-1.74143">
        <ele>11</ele>
        <time>2018-03-21T20:18:05Z</time>
      </trkpt>
      <trkpt lat="46.74762" lon="-1.74138">
        <ele>12</ele>
        <time>2018-03-21T20:19:05Z</time>
      </trkpt>
      <trkpt lat="46.7477" lon="-1.74131">
        <ele>12</ele>
        <time>2018-03-21T20:20:05Z</time>
      </trkpt>
      <trkpt lat="46.74778" lon="-1.74124">
        <ele>13</ele>
        <time>2018-03-21T20:21:05Z</time>
      </trkpt>
      <trkpt lat="46.74787" lon="-1.74117">
        <ele>13</ele>
        <time>2018-03-21T20:22:05Z</time>
      </trkpt>
      <trkpt lat="46.748" lon="-1.74108">
        <ele>14</ele>
        <time>2018-03-21T20:23:05Z</time>
      </trkpt>
      <trkpt lat="46.74805" lon="-1.74105">
        <ele>14</ele>
        <time>2018-03-21T20:24:05Z</time>
      </trkpt>
      <trkpt lat="46.74807" lon="-1.74104">
        <ele>15</ele>
        <time>2018-03-21T20:25:05Z</time>
      </trkpt>
      <trkpt lat="46.7481" lon="-1.74103">
        <ele>15</ele>
        <time>2018-03-21T20:26:05Z</time>
      </trkpt>
      <trkpt lat="46.74816" lon="-1.741">
        <ele>15</ele>
        <time>2018-03-21T20:27:05Z</time>
      </trkpt>
      <trkpt lat="46.74838" lon="-1.7409">
        <ele>17</ele>
        <time>2018-03-21T20:28:05Z</time>
      </trkpt>
      <trkpt lat="46.74839" lon="-1.74089">
        <ele>17</ele>
        <time>2018-03-21T20:29:05Z</time>
      </trkpt>
      <trkpt lat="46.74841" lon="-1.74088">
        <ele>17</ele>
        <time>2018-03-21T20:30:05Z</time>
      </trkpt>
      <trkpt lat="46.74851" lon="-1.74084">
        <ele>18</ele>
        <time>2018-03-21T20:31:05Z</time>
      </trkpt>
      <trkpt lat="46.74855" lon="-1.74083">
        <ele>19</ele>
        <time>2018-03-21T20:32:05Z</time>
      </trkpt>
      <trkpt lat="46.74862" lon="-1.7408">
        <ele>19</ele>
        <time>2018-03-21T20:33:05Z</time>
      </trkpt>
      <trkpt lat="46.74934" lon="-1.74049">
        <ele>25</ele>
        <time>2018-03-21T20:34:05Z</time>
      </trkpt>
      <trkpt lat="46.74938" lon="-1.74047">
        <ele>25</ele>
        <time>2018-03-21T20:35:05Z</time>
      </trkpt>
      <trkpt lat="46.74942" lon="-1.74045">
        <ele>25</ele>
        <time>2018-03-21T20:36:05Z</time>
      </trkpt>
      <trkpt lat="46.74963" lon="-1.74029">
        <ele>27</ele>
        <time>2018-03-21T20:37:05Z</time>
      </trkpt>
      <trkpt lat="46.74966" lon="-1.74027">
        <ele>27</ele>
        <time>2018-03-21T20:38:05Z</time>
      </trkpt>
      <trkpt lat="46.74973" lon="-1.7402">
        <ele>27</ele>
        <time>2018-03-21T20:39:05Z</time>
      </trkpt>
      <trkpt lat="46.74973" lon="-1.7402">
        <ele>27</ele>
        <time>2018-03-21T20:40:05Z</time>
      </trkpt>
      <trkpt lat="46.74944" lon="-1.73979">
        <ele>28</ele>
        <time>2018-03-21T20:41:05Z</time>
      </trkpt>
      <trkpt lat="46.74941" lon="-1.73975">
        <ele>28</ele>
        <time>2018-03-21T20:42:05Z</time>
      </trkpt>
      <trkpt lat="46.74937" lon="-1.73972">
        <ele>28</ele>
        <time>2018-03-21T20:43:05Z</time>
      </trkpt>
      <trkpt lat="46.74933" lon="-1.7397">
        <ele>28</ele>
        <time>2018-03-21T20:44:05Z</time>
      </trkpt>
      <trkpt lat="46.7493" lon="-1.73969">
        <ele>27</ele>
        <time>2018-03-21T20:45:05Z</time>
      </trkpt>
      <trkpt lat="46.74925" lon="-1.73968">
        <ele>27</ele>
        <time>2018-03-21T20:46:05Z</time>
      </trkpt>
      <trkpt lat="46.74921" lon="-1.73967">
        <ele>27</ele>
        <time>2018-03-21T20:47:05Z</time>
      </trkpt>
      <trkpt lat="46.74917" lon="-1.73966">
        <ele>27</ele>
        <time>2018-03-21T20:48:05Z</time>
      </trkpt>
      <trkpt lat="46.74912" lon="-1.73965">
        <ele>27</ele>
        <time>2018-03-21T20:49:05Z</time>
      </trkpt>
      <trkpt lat="46.74908" lon="-1.73962">
        <ele>27</ele>
        <time>2018-03-21T20:50:05Z</time>
      </trkpt>
      <trkpt lat="46.74904" lon="-1.73959">
        <ele>27</ele>
        <time>2018-03-21T20:51:05Z</time>
      </trkpt>
      <trkpt lat="46.74897" lon="-1.73949">
        <ele>28</ele>
        <time>2018-03-21T20:52:05Z</time>
      </trkpt>
      <trkpt lat="46.7489" lon="-1.73938">
        <ele>28</ele>
        <time>2018-03-21T20:53:05Z</time>
      </trkpt>
      <trkpt lat="46.74885" lon="-1.73926">
        <ele>29</ele>
        <time>2018-03-21T20:54:05Z</time>
      </trkpt>
      <trkpt lat="46.74882" lon="-1.7392">
        <ele>29</ele>
        <time>2018-03-21T20:55:05Z</time>
      </trkpt>
      <trkpt lat="46.74876" lon="-1.73908">
        <ele>29</ele>
        <time>2018-03-21T20:56:05Z</time>
      </trkpt>
      <trkpt lat="46.74875" lon="-1.73905">
        <ele>29</ele>
        <time>2018-03-21T20:57:05Z</time>
      </trkpt>
      <trkpt lat="46.74872" lon="-1.73903">
        <ele>29</ele>
        <time>2018-03-21T20:58:05Z</time>
      </trkpt>
      <trkpt lat="46.74871" lon="-1.73902">
        <ele>29</ele>
        <time>2018-03-21T20:59:05Z</time>
      </trkpt>
      <trkpt lat="46.74864" lon="-1.73883">
        <ele>30</ele>
        <time>2018-03-21T21:00:05Z</time>
      </trkpt>
      <trkpt lat="46.74864" lon="-1.73883">
        <ele>30</ele>
        <time>2018-03-21T21:01:05Z</time>
      </trkpt>
      <trkpt lat="46.74863" lon="-1.73883">
        <ele>30</ele>
        <time>2018-03-21T21:02:05Z</time>
      </trkpt>
      <trkpt lat="46.74863" lon="-1.73882">
        <ele>30</ele>
        <time>2018-03-21T21:03:05Z</time>
      </trkpt>
      <trkpt lat="46.74862" lon="-1.73882">
        <ele>30</ele>
        <time>2018-03-21T21:04:05Z</time>
      </trkpt>
      <trkpt lat="46.74861" lon="-1.73881">
        <ele>30</ele>
        <time>2018-03-21T21:05:05Z</time>
      </trkpt>
      <trkpt lat="46.7486" lon="-1.73881">
        <ele>30</ele>
        <time>2018-03-21T21:06:05Z</time>
      </trkpt>
      <trkpt lat="46.7486" lon="-1.7388">
        <ele>30</ele>
        <time>2018-03-21T21:07:05Z</time>
      </trkpt>
      <trkpt lat="46.74859" lon="-1.73879">
        <ele>30</ele>
        <time>2018-03-21T21:08:05Z</time>
      </trkpt>
      <trkpt lat="46.74859" lon="-1.73878">
        <ele>30</ele>
        <time>2018-03-21T21:09:05Z</time>
      </trkpt>
      <trkpt lat="46.74858" lon="-1.73878">
        <ele>30</ele>
        <time>2018-03-21T21:10:05Z</time>
      </trkpt>
      <trkpt lat="46.74858" lon="-1.73877">
        <ele>30</ele>
        <time>2018-03-21T21:11:05Z</time>
      </trkpt>
      <trkpt lat="46.74858" lon="-1.73876">
        <ele>30</ele>
        <time>2018-03-21T21:12:05Z</time>
      </trkpt>
      <trkpt lat="46.74858" lon="-1.73875">
        <ele>30</ele>
        <time>2018-03-21T21:13:05Z</time>
      </trkpt>
      <trkpt lat="46.74857" lon="-1.73875">
        <ele>30</ele>
        <time>2018-03-21T21:14:05Z</time>
      </trkpt>
      <trkpt lat="46.74857" lon="-1.73874">
        <ele>30</ele>
        <time>2018-03-21T21:15:05Z</time>
      </trkpt>
      <trkpt lat="46.74857" lon="-1.73873">
        <ele>30</ele>
        <time>2018-03-21T21:16:05Z</time>
      </trkpt>
      <trkpt lat="46.74857" lon="-1.73872">
        <ele>30</ele>
        <time>2018-03-21T21:17:05Z</time>
      </trkpt>
      <trkpt lat="46.74857" lon="-1.73871">
        <ele>30</ele>
        <time>2018-03-21T21:18:05Z</time>
      </trkpt>
      <trkpt lat="46.74857" lon="-1.7387">
        <ele>30</ele>
        <time>2018-03-21T21:19:05Z</time>
      </trkpt>
      <trkpt lat="46.74858" lon="-1.7387">
        <ele>30</ele>
        <time>2018-03-21T21:20:05Z</time>
      </trkpt>
      <trkpt lat="46.74858" lon="-1.73869">
        <ele>30</ele>
        <time>2018-03-21T21:21:05Z</time>
      </trkpt>
      <trkpt lat="46.74858" lon="-1.73868">
        <ele>30</ele>
        <time>2018-03-21T21:22:05Z</time>
      </trkpt>
      <trkpt lat="46.74858" lon="-1.73867">
        <ele>30</ele>
        <time>2018-03-21T21:23:05Z</time>
      </trkpt>
      <trkpt lat="46.74859" lon="-1.73867">
        <ele>30</ele>
        <time>2018-03-21T21:24:05Z</time>
      </trkpt>
      <trkpt lat="46.74859" lon="-1.73866">
        <ele>30</ele>
        <time>2018-03-21T21:25:05Z</time>
      </trkpt>
      <trkpt lat="46.7486" lon="-1.73865">
        <ele>30</ele>
        <time>2018-03-21T21:26:05Z</time>
      </trkpt>
      <trkpt lat="46.74861" lon="-1.73864">
        <ele>30</ele>
        <time>2018-03-21T21:27:05Z</time>
      </trkpt>
      <trkpt lat="46.74862" lon="-1.73864">
        <ele>30</ele>
        <time>2018-03-21T21:28:05Z</time>
      </trkpt>
      <trkpt lat="46.74862" lon="-1.73863">
        <ele>30</ele>
        <time>2018-03-21T21:29:05Z</time>
      </trkpt>
      <trkpt lat="46.74863" lon="-1.73863">
        <ele>30</ele>
        <time>2018-03-21T21:30:05Z</time>
      </trkpt>
      <trkpt lat="46.74864" lon="-1.73863">
        <ele>30</ele>
        <time>2018-03-21T21:31:05Z</time>
      </trkpt>
      <trkpt lat="46.74865" lon="-1.73863">
        <ele>31</ele>
        <time>2018-03-21T21:32:05Z</time>
      </trkpt>
      <trkpt lat="46.74866" lon="-1.73863">
        <ele>31</ele>
        <time>2018-03-21T21:33:05Z</time>
      </trkpt>
      <trkpt lat="46.74867" lon="-1.73863">
        <ele>31</ele>
        <time>2018-03-21T21:34:05Z</time>
      </trkpt>
      <trkpt lat="46.74868" lon="-1.73863">
        <ele>31</ele>
        <time>2018-03-21T21:35:05Z</time>
      </trkpt>
      <trkpt lat="46.74873" lon="-1.7386">
        <ele>31</ele>
        <time>2018-03-21T21:36:05Z</time>
      </trkpt>
      <trkpt lat="46.74877" lon="-1.73856">
        <ele>31</ele>
        <time>2018-03-21T21:37:05Z</time>
      </trkpt>
      <trkpt lat="46.74883" lon="-1.73854">
        <ele>32</ele>
        <time>2018-03-21T21:38:05Z</time>
      </trkpt>
      <trkpt lat="46.74908" lon="-1.73846">
        <ele>33</ele>
        <time>2018-03-21T21:39:05Z</time>
      </trkpt>
      <trkpt lat="46.74991" lon="-1.73849">
        <ele>38</ele>
        <time>2018-03-21T21:40:05Z</time>
      </trkpt>
      <trkpt lat="46.75012" lon="-1.73852">
        <ele>38</ele>
        <time>2018-03-21T21:41:05Z</time>
      </trkpt>
      <trkpt lat="46.75026" lon="-1.73853">
        <ele>39</ele>
        <time>2018-03-21T21:42:05Z</time>
      </trkpt>
      <trkpt lat="46.75035" lon="-1.73853">
        <ele>39</ele>
        <time>2018-03-21T21:43:05Z</time>
      </trkpt>
      <trkpt lat="46.75041" lon="-1.73853">
        <ele>40</ele>
        <time>2018-03-21T21:44:05Z</time>
      </trkpt>
      <trkpt lat="46.75118" lon="-1.73846">
        <ele>43</ele>
        <time>2018-03-21T21:45:05Z</time>
      </trkpt>
      <trkpt lat="46.75133" lon="-1.73845">
        <ele>44</ele>
        <time>2018-03-21T21:46:05Z</time>
      </trkpt>
      <trkpt lat="46.75153" lon="-1.73848">
        <ele>45</ele>
        <time>2018-03-21T21:47:05Z</time>
      </trkpt>
      <trkpt lat="46.75169" lon="-1.73854">
        <ele>46</ele>
        <time>2018-03-21T21:48:05Z</time>
      </trkpt>
      <trkpt lat="46.75183" lon="-1.73862">
        <ele>46</ele>
        <time>2018-03-21T21:49:05Z</time>
      </trkpt>
      <trkpt lat="46.75201" lon="-1.73873">
        <ele>46</ele>
        <time>2018-03-21T21:50:05Z</time>
      </trkpt>
      <trkpt lat="46.75211" lon="-1.73882">
        <ele>46</ele>
        <time>2018-03-21T21:51:05Z</time>
      </trkpt>
      <trkpt lat="46.75224" lon="-1.73894">
        <ele>47</ele>
        <time>2018-03-21T21:52:05Z</time>
      </trkpt>
      <trkpt lat="46.75235" lon="-1.73904">
        <ele>47</ele>
        <time>2018-03-21T21:53:05Z</time>
      </trkpt>
      <trkpt lat="46.75244" lon="-1.73911">
        <ele>47</ele>
        <time>2018-03-21T21:54:05Z</time>
      </trkpt>
      <trkpt lat="46.75248" lon="-1.73913">
        <ele>47</ele>
        <time>2018-03-21T21:55:05Z</time>
      </trkpt>
      <trkpt lat="46.75253" lon="-1.73914">
        <ele>47</ele>
        <time>2018-03-21T21:56:05Z</time>
      </trkpt>
      <trkpt lat="46.75258" lon="-1.73915">
        <ele>47</ele>
        <time>2018-03-21T21:57:05Z</time>
      </trkpt>
      <trkpt lat="46.75263" lon="-1.73915">
        <ele>47</ele>
        <time>2018-03-21T21:58:05Z</time>
      </trkpt>
      <trkpt lat="46.75274" lon="-1.73913">
        <ele>48</ele>
        <time>2018-03-21T21:59:05Z</time>
      </trkpt>
      <trkpt lat="46.75299" lon="-1.73904">
        <ele>49</ele>
        <time>2018-03-21T22:00:05Z</time>
      </trkpt>
      <trkpt lat="46.75331" lon="-1.73893">
        <ele>50</ele>
        <time>2018-03-21T22:01:05Z</time>
      </trkpt>
      <trkpt lat="46.75363" lon="-1.73882">
        <ele>51</ele>
        <time>2018-03-21T22:02:05Z</time>
      </trkpt>
      <trkpt lat="46.75372" lon="-1.73879">
        <ele>51</ele>
        <time>2018-03-21T22:03:05Z</time>
      </trkpt>
      <trkpt lat="46.7539" lon="-1.73874">
        <ele>51</ele>
        <time>2018-03-21T22:04:05Z</time>
      </trkpt>
      <trkpt lat="46.75403" lon="-1.73874">
        <ele>51</ele>
        <time>2018-03-21T22:05:05Z</time>
      </trkpt>
      <trkpt lat="46.75412" lon="-1.73876">
        <ele>51</ele>
        <time>2018-03-21T22:06:05Z</time>
      </trkpt>
      <trkpt lat="46.75412" lon="-1.73876">
        <ele>51</ele>
        <time>2018-03-21T22:07:05Z</time>
      </trkpt>
      <trkpt lat="46.75418" lon="-1.73868">
        <ele>52</ele>
        <time>2018-03-21T22:08:05Z</time>
      </trkpt>
      <trkpt lat="46.75426" lon="-1.73863">
        <ele>52</ele>
        <time>2018-03-21T22:09:05Z</time>
      </trkpt>
      <trkpt lat="46.75429" lon="-1.73861">
        <ele>52</ele>
        <time>2018-03-21T22:10:05Z</time>
      </trkpt>
      <trkpt lat="46.7544" lon="-1.73856">
        <ele>52</ele>
        <time>2018-03-21T22:11:05Z</time>
      </trkpt>
      <trkpt lat="46.75474" lon="-1.73845">
        <ele>53</ele>
        <time>2018-03-21T22:12:05Z</time>
      </trkpt>
      <trkpt lat="46.75474" lon="-1.73845">
        <ele>53</ele>
        <time>2018-03-21T22:13:05Z</time>
      </trkpt>
      <trkpt lat="46.7549" lon="-1.73838">
        <ele>54</ele>
        <time>2018-03-21T22:14:05Z</time>
      </trkpt>
      <trkpt lat="46.75496" lon="-1.73835">
        <ele>54</ele>
        <time>2018-03-21T22:15:05Z</time>
      </trkpt>
      <trkpt lat="46.75523" lon="-1.73822">
        <ele>54</ele>
        <time>2018-03-21T22:16:05Z</time>
      </trkpt>
      <trkpt lat="46.75544" lon="-1.73808">
        <ele>55</ele>
        <time>2018-03-21T22:17:05Z</time>
      </trkpt>
      <trkpt lat="46.75565" lon="-1.73794">
        <ele>55</ele>
        <time>2018-03-21T22:18:05Z</time>
      </trkpt>
      <trkpt lat="46.75585" lon="-1.73781">
        <ele>55</ele>
        <time>2018-03-21T22:19:05Z</time>
      </trkpt>
      <trkpt lat="46.75614" lon="-1.73765">
        <ele>56</ele>
        <time>2018-03-21T22:20:05Z</time>
      </trkpt>
      <trkpt lat="46.75626" lon="-1.73758">
        <ele>56</ele>
        <time>2018-03-21T22:21:05Z</time>
      </trkpt>
      <trkpt lat="46.75632" lon="-1.73754">
        <ele>56</ele>
        <time>2018-03-21T22:22:05Z</time>
      </trkpt>
      <trkpt lat="46.75642" lon="-1.73748">
        <ele>56</ele>
        <time>2018-03-21T22:23:05Z</time>
      </trkpt>
      <trkpt lat="46.75649" lon="-1.73742">
        <ele>56</ele>
        <time>2018-03-21T22:24:05Z</time>
      </trkpt>
      <trkpt lat="46.75656" lon="-1.73737">
        <ele>56</ele>
        <time>2018-03-21T22:25:05Z</time>
      </trkpt>
      <trkpt lat="46.7567" lon="-1.73726">
        <ele>56</ele>
        <time>2018-03-21T22:26:05Z</time>
      </trkpt>
      <trkpt lat="46.75677" lon="-1.7372">
        <ele>56</ele>
        <time>2018-03-21T22:27:05Z</time>
      </trkpt>
      <trkpt lat="46.75684" lon="-1.73714">
        <ele>56</ele>
        <time>2018-03-21T22:28:05Z</time>
      </trkpt>
      <trkpt lat="46.75691" lon="-1.73708">
        <ele>56</ele>
        <time>2018-03-21T22:29:05Z</time>
      </trkpt>
      <trkpt lat="46.75697" lon="-1.73702">
        <ele>55</ele>
        <time>2018-03-21T22:30:05Z</time>
      </trkpt>
      <trkpt lat="46.75703" lon="-1.73696">
        <ele>55</ele>
        <time>2018-03-21T22:31:05Z</time>
      </trkpt>
      <trkpt lat="46.75721" lon="-1.73678">
        <ele>55</ele>
        <time>2018-03-21T22:32:05Z</time>
      </trkpt>
      <trkpt lat="46.75733" lon="-1.73668">
        <ele>54</ele>
        <time>2018-03-21T22:33:05Z</time>
      </trkpt>
      <trkpt lat="46.75738" lon="-1.73663">
        <ele>54</ele>
        <time>2018-03-21T22:34:05Z</time>
      </trkpt>
      <trkpt lat="46.75744" lon="-1.73659">
        <ele>54</ele>
        <time>2018-03-21T22:35:05Z</time>
      </trkpt>
      <trkpt lat="46.7575" lon="-1.73655">
        <ele>54</ele>
        <time>2018-03-21T22:36:05Z</time>
      </trkpt>
      <trkpt lat="46.75754" lon="-1.73653">
        <ele>54</ele>
        <time>2018-03-21T22:37:05Z</time>
      </trkpt>
      <trkpt lat="46.75761" lon="-1.7365">
        <ele>53</ele>
        <time>2018-03-21T22:38:05Z</time>
      </trkpt>
      <trkpt lat="46.75764" lon="-1.73649">
        <ele>53</ele>
        <time>2018-03-21T22:39:05Z</time>
      </trkpt>
      <trkpt lat="46.75775" lon="-1.73646">
        <ele>52</ele>
        <time>2018-03-21T22:40:05Z</time>
      </trkpt>
      <trkpt lat="46.75788" lon="-1.73642">
        <ele>52</ele>
        <time>2018-03-21T22:41:05Z</time>
      </trkpt>
      <trkpt lat="46.75801" lon="-1.73637">
        <ele>51</ele>
        <time>2018-03-21T22:42:05Z</time>
      </trkpt>
      <trkpt lat="46.75813" lon="-1.7363">
        <ele>50</ele>
        <time>2018-03-21T22:43:05Z</time>
      </trkpt>
      <trkpt lat="46.75825" lon="-1.73624">
        <ele>49</ele>
        <time>2018-03-21T22:44:05Z</time>
      </trkpt>
      <trkpt lat="46.75832" lon="-1.73622">
        <ele>49</ele>
        <time>2018-03-21T22:45:05Z</time>
      </trkpt>
      <trkpt lat="46.75838" lon="-1.7362">
        <ele>48</ele>
        <time>2018-03-21T22:46:05Z</time>
      </trkpt>
      <trkpt lat="46.75845" lon="-1.73618">
        <ele>48</ele>
        <time>2018-03-21T22:47:05Z</time>
      </trkpt>
      <trkpt lat="46.75852" lon="-1.73617">
        <ele>48</ele>
        <time>2018-03-21T22:48:05Z</time>
      </trkpt>
      <trkpt lat="46.75859" lon="-1.73615">
        <ele>47</ele>
        <time>2018-03-21T22:49:05Z</time>
      </trkpt>
      <trkpt lat="46.75866" lon="-1.73615">
        <ele>47</ele>
        <time>2018-03-21T22:50:05Z</time>
      </trkpt>
      <trkpt lat="46.75879" lon="-1.73615">
        <ele>46</ele>
        <time>2018-03-21T22:51:05Z</time>
      </trkpt>
      <trkpt lat="46.75886" lon="-1.73616">
        <ele>46</ele>
        <time>2018-03-21T22:52:05Z</time>
      </trkpt>
      <trkpt lat="46.75893" lon="-1.73617">
        <ele>46</ele>
        <time>2018-03-21T22:53:05Z</time>
      </trkpt>
      <trkpt lat="46.75914" lon="-1.73621">
        <ele>45</ele>
        <time>2018-03-21T22:54:05Z</time>
      </trkpt>
      <trkpt lat="46.75935" lon="-1.73625">
        <ele>43</ele>
        <time>2018-03-21T22:55:05Z</time>
      </trkpt>
      <trkpt lat="46.7595" lon="-1.73629">
        <ele>42</ele>
        <time>2018-03-21T22:56:05Z</time>
      </trkpt>
      <trkpt lat="46.75963" lon="-1.73635">
        <ele>41</ele>
        <time>2018-03-21T22:57:05Z</time>
      </trkpt>
      <trkpt lat="46.75978" lon="-1.73642">
        <ele>40</ele>
        <time>2018-03-21T22:58:05Z</time>
      </trkpt>
      <trkpt lat="46.75989" lon="-1.7365">
        <ele>38</ele>
        <time>2018-03-21T22:59:05Z</time>
      </trkpt>
      <trkpt lat="46.75999" lon="-1.73656">
        <ele>37</ele>
        <time>2018-03-21T23:00:05Z</time>
      </trkpt>
      <trkpt lat="46.76009" lon="-1.73665">
        <ele>36</ele>
        <time>2018-03-21T23:01:05Z</time>
      </trkpt>
      <trkpt lat="46.76018" lon="-1.73674">
        <ele>36</ele>
        <time>2018-03-21T23:02:05Z</time>
      </trkpt>
      <trkpt lat="46.76025" lon="-1.73681">
        <ele>35</ele>
        <time>2018-03-21T23:03:05Z</time>
      </trkpt>
      <trkpt lat="46.76031" lon="-1.73688">
        <ele>34</ele>
        <time>2018-03-21T23:04:05Z</time>
      </trkpt>
      <trkpt lat="46.76037" lon="-1.73696">
        <ele>34</ele>
        <time>2018-03-21T23:05:05Z</time>
      </trkpt>
      <trkpt lat="46.76042" lon="-1.73705">
        <ele>33</ele>
        <time>2018-03-21T23:06:05Z</time>
      </trkpt>
      <trkpt lat="46.76047" lon="-1.73714">
        <ele>33</ele>
        <time>2018-03-21T23:07:05Z</time>
      </trkpt>
      <trkpt lat="46.76052" lon="-1.73723">
        <ele>32</ele>
        <time>2018-03-21T23:08:05Z</time>
      </trkpt>
      <trkpt lat="46.76067" lon="-1.73754">
        <ele>31</ele>
        <time>2018-03-21T23:09:05Z</time>
      </trkpt>
      <trkpt lat="46.76082" lon="-1.73787">
        <ele>29</ele>
        <time>2018-03-21T23:10:05Z</time>
      </trkpt>
      <trkpt lat="46.76097" lon="-1.73818">
        <ele>29</ele>
        <time>2018-03-21T23:11:05Z</time>
      </trkpt>
      <trkpt lat="46.76104" lon="-1.73834">
        <ele>29</ele>
        <time>2018-03-21T23:12:05Z</time>
      </trkpt>
      <trkpt lat="46.76133" lon="-1.73895">
        <ele>31</ele>
        <time>2018-03-21T23:13:05Z</time>
      </trkpt>
      <trkpt lat="46.76147" lon="-1.7392">
        <ele>31</ele>
        <time>2018-03-21T23:14:05Z</time>
      </trkpt>
      <trkpt lat="46.76157" lon="-1.73935">
        <ele>31</ele>
        <time>2018-03-21T23:15:05Z</time>
      </trkpt>
      <trkpt lat="46.76166" lon="-1.73948">
        <ele>31</ele>
        <time>2018-03-21T23:16:05Z</time>
      </trkpt>
      <trkpt lat="46.76177" lon="-1.73962">
        <ele>31</ele>
        <time>2018-03-21T23:17:05Z</time>
      </trkpt>
      <trkpt lat="46.76199" lon="-1.73989">
        <ele>32</ele>
        <time>2018-03-21T23:18:05Z</time>
      </trkpt>
      <trkpt lat="46.76221" lon="-1.74015">
        <ele>33</ele>
        <time>2018-03-21T23:19:05Z</time>
      </trkpt>
      <trkpt lat="46.76232" lon="-1.74027">
        <ele>34</ele>
        <time>2018-03-21T23:20:05Z</time>
      </trkpt>
      <trkpt lat="46.76236" lon="-1.74032">
        <ele>34</ele>
        <time>2018-03-21T23:21:05Z</time>
      </trkpt>
      <trkpt lat="46.76241" lon="-1.74036">
        <ele>35</ele>
        <time>2018-03-21T23:22:05Z</time>
      </trkpt>
      <trkpt lat="46.76247" lon="-1.74039">
        <ele>35</ele>
        <time>2018-03-21T23:23:05Z</time>
      </trkpt>
      <trkpt lat="46.76251" lon="-1.7404">
        <ele>36</ele>
        <time>2018-03-21T23:24:05Z</time>
      </trkpt>
      <trkpt lat="46.76257" lon="-1.74041">
        <ele>36</ele>
        <time>2018-03-21T23:25:05Z</time>
      </trkpt>
      <trkpt lat="46.76262" lon="-1.74041">
        <ele>37</ele>
        <time>2018-03-21T23:26:05Z</time>
      </trkpt>
      <trkpt lat="46.76272" lon="-1.74039">
        <ele>38</ele>
        <time>2018-03-21T23:27:05Z</time>
      </trkpt>
      <trkpt lat="46.76301" lon="-1.74025">
        <ele>41</ele>
        <time>2018-03-21T23:28:05Z</time>
      </trkpt>
      <trkpt lat="46.76322" lon="-1.74016">
        <ele>43</ele>
        <time>2018-03-21T23:29:05Z</time>
      </trkpt>
      <trkpt lat="46.76336" lon="-1.7401">
        <ele>44</ele>
        <time>2018-03-21T23:30:05Z</time>
      </trkpt>
      <trkpt lat="46.7635" lon="-1.74006">
        <ele>45</ele>
        <time>2018-03-21T23:31:05Z</time>
      </trkpt>
      <trkpt lat="46.76364" lon="-1.74003">
        <ele>45</ele>
        <time>2018-03-21T23:32:05Z</time>
      </trkpt>
      <trkpt lat="46.76378" lon="-1.74">
        <ele>46</ele>
        <time>2018-03-21T23:33:05Z</time>
      </trkpt>
      <trkpt lat="46.76393" lon="-1.73998">
        <ele>47</ele>
        <time>2018-03-21T23:34:05Z</time>
      </trkpt>
      <trkpt lat="46.76415" lon="-1.73996">
        <ele>48</ele>
        <time>2018-03-21T23:35:05Z</time>
      </trkpt>
      <trkpt lat="46.76429" lon="-1.73994">
        <ele>48</ele>
        <time>2018-03-21T23:36:05Z</time>
      </trkpt>
      <trkpt lat="46.76443" lon="-1.7399">
        <ele>48</ele>
        <time>2018-03-21T23:37:05Z</time>
      </trkpt>
      <trkpt lat="46.7646" lon="-1.73986">
        <ele>48</ele>
        <time>2018-03-21T23:38:05Z</time>
      </trkpt>
      <trkpt lat="46.76461" lon="-1.73985">
        <ele>48</ele>
        <time>2018-03-21T23:39:05Z</time>
      </trkpt>
      <trkpt lat="46.76469" lon="-1.73981">
        <ele>48</ele>
        <time>2018-03-21T23:40:05Z</time>
      </trkpt>
      <trkpt lat="46.76476" lon="-1.73978">
        <ele>48</ele>
        <time>2018-03-21T23:41:05Z</time>
      </trkpt>
      <trkpt lat="46.76486" lon="-1.73971">
        <ele>48</ele>
        <time>2018-03-21T23:42:05Z</time>
      </trkpt>
      <trkpt lat="46.76495" lon="-1.73966">
        <ele>48</ele>
        <time>2018-03-21T23:43:05Z</time>
      </trkpt>
      <trkpt lat="46.76495" lon="-1.73966">
        <ele>48</ele>
        <time>2018-03-21T23:44:05Z</time>
      </trkpt>
      <trkpt lat="46.76519" lon="-1.73951">
        <ele>48</ele>
        <time>2018-03-21T23:45:05Z</time>
      </trkpt>
      <trkpt lat="46.76531" lon="-1.73945">
        <ele>48</ele>
        <time>2018-03-21T23:46:05Z</time>
      </trkpt>
      <trkpt lat="46.76536" lon="-1.73943">
        <ele>48</ele>
        <time>2018-03-21T23:47:05Z</time>
      </trkpt>
      <trkpt lat="46.76545" lon="-1.7394">
        <ele>48</ele>
        <time>2018-03-21T23:48:05Z</time>
      </trkpt>
      <trkpt lat="46.76547" lon="-1.7394">
        <ele>49</ele>
        <time>2018-03-21T23:49:05Z</time>
      </trkpt>
      <trkpt lat="46.76553" lon="-1.73938">
        <ele>49</ele>
        <time>2018-03-21T23:50:05Z</time>
      </trkpt>
      <trkpt lat="46.76559" lon="-1.73938">
        <ele>49</ele>
        <time>2018-03-21T23:51:05Z</time>
      </trkpt>
      <trkpt lat="46.76565" lon="-1.73938">
        <ele>49</ele>
        <time>2018-03-21T23:52:05Z</time>
      </trkpt>
      <trkpt lat="46.76572" lon="-1.73938">
        <ele>49</ele>
        <time>2018-03-21T23:53:05Z</time>
      </trkpt>
      <trkpt lat="46.76587" lon="-1.7394">
        <ele>49</ele>
        <time>2018-03-21T23:54:05Z</time>
      </trkpt>
      <trkpt lat="46.76595" lon="-1.73942">
        <ele>50</ele>
        <time>2018-03-21T23:55:05Z</time>
      </trkpt>
      <trkpt lat="46.76603" lon="-1.73943">
        <ele>50</ele>
        <time>2018-03-21T23:56:05Z</time>
      </trkpt>
      <trkpt lat="46.76611" lon="-1.73943">
        <ele>50</ele>
        <time>2018-03-21T23:57:05Z</time>
      </trkpt>
      <trkpt lat="46.76619" lon="-1.73943">
        <ele>50</ele>
        <time>2018-03-21T23:58:05Z</time>
      </trkpt>
      <trkpt lat="46.76626" lon="-1.73942">
        <ele>51</ele>
        <time>2018-03-21T23:59:05Z</time>
      </trkpt>
      <trkpt lat="46.76634" lon="-1.73939">
        <ele>51</ele>
        <time>2018-03-22T00:00:05Z</time>
      </trkpt>
      <trkpt lat="46.76651" lon="-1.73933">
        <ele>51</ele>
        <time>2018-03-22T00:01:05Z</time>
      </trkpt>
      <trkpt lat="46.76671" lon="-1.73926">
        <ele>52</ele>
        <time>2018-03-22T00:02:05Z</time>
      </trkpt>
      <trkpt lat="46.76707" lon="-1.7391">
        <ele>53</ele>
        <time>2018-03-22T00:03:05Z</time>
      </trkpt>
      <trkpt lat="46.76707" lon="-1.7391">
        <ele>53</ele>
        <time>2018-03-22T00:04:05Z</time>
      </trkpt>
      <trkpt lat="46.76725" lon="-1.73903">
        <ele>54</ele>
        <time>2018-03-22T00:05:05Z</time>
      </trkpt>
      <trkpt lat="46.7674" lon="-1.73896">
        <ele>54</ele>
        <time>2018-03-22T00:06:05Z</time>
      </trkpt>
      <trkpt lat="46.76765" lon="-1.73882">
        <ele>54</ele>
        <time>2018-03-22T00:07:05Z</time>
      </trkpt>
      <trkpt lat="46.76773" lon="-1.73877">
        <ele>54</ele>
        <time>2018-03-22T00:08:05Z</time>
      </trkpt>
      <trkpt lat="46.76788" lon="-1.73866">
        <ele>54</ele>
        <time>2018-03-22T00:09:05Z</time>
      </trkpt>
      <trkpt lat="46.76803" lon="-1.73853">
        <ele>54</ele>
        <time>2018-03-22T00:10:05Z</time>
      </trkpt>
      <trkpt lat="46.7681" lon="-1.73846">
        <ele>54</ele>
        <time>2018-03-22T00:11:05Z</time>
      </trkpt>
      <trkpt lat="46.76825" lon="-1.73832">
        <ele>54</ele>
        <time>2018-03-22T00:12:05Z</time>
      </trkpt>
      <trkpt lat="46.76853" lon="-1.73802">
        <ele>54</ele>
        <time>2018-03-22T00:13:05Z</time>
      </trkpt>
      <trkpt lat="46.76861" lon="-1.73795">
        <ele>54</ele>
        <time>2018-03-22T00:14:05Z</time>
      </trkpt>
      <trkpt lat="46.76868" lon="-1.73788">
        <ele>54</ele>
        <time>2018-03-22T00:15:05Z</time>
      </trkpt>
      <trkpt lat="46.76876" lon="-1.73783">
        <ele>55</ele>
        <time>2018-03-22T00:16:05Z</time>
      </trkpt>
      <trkpt lat="46.76885" lon="-1.73777">
        <ele>55</ele>
        <time>2018-03-22T00:17:05Z</time>
      </trkpt>
      <trkpt lat="46.76892" lon="-1.73772">
        <ele>55</ele>
        <time>2018-03-22T00:18:05Z</time>
      </trkpt>
      <trkpt lat="46.76901" lon="-1.73768">
        <ele>55</ele>
        <time>2018-03-22T00:19:05Z</time>
      </trkpt>
      <trkpt lat="46.76909" lon="-1.73763">
        <ele>55</ele>
        <time>2018-03-22T00:20:05Z</time>
      </trkpt>
      <trkpt lat="46.76934" lon="-1.73746">
        <ele>55</ele>
        <time>2018-03-22T00:21:05Z</time>
      </trkpt>
      <trkpt lat="46.76958" lon="-1.73727">
        <ele>55</ele>
        <time>2018-03-22T00:22:05Z</time>
      </trkpt>
      <trkpt lat="46.76975" lon="-1.73714">
        <ele>55</ele>
        <time>2018-03-22T00:23:05Z</time>
      </trkpt>
      <trkpt lat="46.76991" lon="-1.73702">
        <ele>56</ele>
        <time>2018-03-22T00:24:05Z</time>
      </trkpt>
      <trkpt lat="46.77008" lon="-1.73693">
        <ele>56</ele>
        <time>2018-03-22T00:25:05Z</time>
      </trkpt>
      <trkpt lat="46.77016" lon="-1.73689">
        <ele>55</ele>
        <time>2018-03-22T00:26:05Z</time>
      </trkpt>
      <trkpt lat="46.77034" lon="-1.73682">
        <ele>55</ele>
        <time>2018-03-22T00:27:05Z</time>
      </trkpt>
      <trkpt lat="46.77042" lon="-1.73679">
        <ele>55</ele>
        <time>2018-03-22T00:28:05Z</time>
      </trkpt>
      <trkpt lat="46.77052" lon="-1.73676">
        <ele>55</ele>
        <time>2018-03-22T00:29:05Z</time>
      </trkpt>
      <trkpt lat="46.77061" lon="-1.73674">
        <ele>55</ele>
        <time>2018-03-22T00:30:05Z</time>
      </trkpt>
      <trkpt lat="46.77071" lon="-1.73673">
        <ele>54</ele>
        <time>2018-03-22T00:31:05Z</time>
      </trkpt>
      <trkpt lat="46.77085" lon="-1.73672">
        <ele>54</ele>
        <time>2018-03-22T00:32:05Z</time>
      </trkpt>
      <trkpt lat="46.77125" lon="-1.73671">
        <ele>54</ele>
        <time>2018-03-22T00:33:05Z</time>
      </trkpt>
      <trkpt lat="46.77153" lon="-1.7367">
        <ele>55</ele>
        <time>2018-03-22T00:34:05Z</time>
      </trkpt>
      <trkpt lat="46.77179" lon="-1.73666">
        <ele>55</ele>
        <time>2018-03-22T00:35:05Z</time>
      </trkpt>
      <trkpt lat="46.77187" lon="-1.73664">
        <ele>55</ele>
        <time>2018-03-22T00:36:05Z</time>
      </trkpt>
      <trkpt lat="46.77199" lon="-1.73661">
        <ele>55</ele>
        <time>2018-03-22T00:37:05Z</time>
      </trkpt>
      <trkpt lat="46.77253" lon="-1.73637">
        <ele>54</ele>
        <time>2018-03-22T00:38:05Z</time>
      </trkpt>
      <trkpt lat="46.77306" lon="-1.73616">
        <ele>54</ele>
        <time>2018-03-22T00:39:05Z</time>
      </trkpt>
      <trkpt lat="46.77372" lon="-1.73589">
        <ele>53</ele>
        <time>2018-03-22T00:40:05Z</time>
      </trkpt>
      <trkpt lat="46.77379" lon="-1.73585">
        <ele>53</ele>
        <time>2018-03-22T00:41:05Z</time>
      </trkpt>
      <trkpt lat="46.77389" lon="-1.73579">
        <ele>53</ele>
        <time>2018-03-22T00:42:05Z</time>
      </trkpt>
      <trkpt lat="46.77403" lon="-1.7357">
        <ele>53</ele>
        <time>2018-03-22T00:43:05Z</time>
      </trkpt>
      <trkpt lat="46.77416" lon="-1.73557">
        <ele>53</ele>
        <time>2018-03-22T00:44:05Z</time>
      </trkpt>
      <trkpt lat="46.77479" lon="-1.73499">
        <ele>52</ele>
        <time>2018-03-22T00:45:05Z</time>
      </trkpt>
      <trkpt lat="46.77542" lon="-1.73442">
        <ele>53</ele>
        <time>2018-03-22T00:46:05Z</time>
      </trkpt>
      <trkpt lat="46.77549" lon="-1.73436">
        <ele>53</ele>
        <time>2018-03-22T00:47:05Z</time>
      </trkpt>
      <trkpt lat="46.77556" lon="-1.73432">
        <ele>53</ele>
        <time>2018-03-22T00:48:05Z</time>
      </trkpt>
      <trkpt lat="46.77562" lon="-1.73428">
        <ele>53</ele>
        <time>2018-03-22T00:49:05Z</time>
      </trkpt>
      <trkpt lat="46.77569" lon="-1.73425">
        <ele>53</ele>
        <time>2018-03-22T00:50:05Z</time>
      </trkpt>
      <trkpt lat="46.77576" lon="-1.73423">
        <ele>53</ele>
        <time>2018-03-22T00:51:05Z</time>
      </trkpt>
      <trkpt lat="46.77583" lon="-1.73422">
        <ele>53</ele>
        <time>2018-03-22T00:52:05Z</time>
      </trkpt>
      <trkpt lat="46.77592" lon="-1.73421">
        <ele>53</ele>
        <time>2018-03-22T00:53:05Z</time>
      </trkpt>
      <trkpt lat="46.77599" lon="-1.73421">
        <ele>53</ele>
        <time>2018-03-22T00:54:05Z</time>
      </trkpt>
      <trkpt lat="46.77636" lon="-1.73423">
        <ele>54</ele>
        <time>2018-03-22T00:55:05Z</time>
      </trkpt>
      <trkpt lat="46.77687" lon="-1.73425">
        <ele>54</ele>
        <time>2018-03-22T00:56:05Z</time>
      </trkpt>
      <trkpt lat="46.77707" lon="-1.73424">
        <ele>53</ele>
        <time>2018-03-22T00:57:05Z</time>
      </trkpt>
      <trkpt lat="46.77736" lon="-1.7342">
        <ele>53</ele>
        <time>2018-03-22T00:58:05Z</time>
      </trkpt>
      <trkpt lat="46.77757" lon="-1.73415">
        <ele>53</ele>
        <time>2018-03-22T00:59:05Z</time>
      </trkpt>
      <trkpt lat="46.77798" lon="-1.73407">
        <ele>53</ele>
        <time>2018-03-22T01:00:05Z</time>
      </trkpt>
      <trkpt lat="46.77831" lon="-1.73402">
        <ele>53</ele>
        <time>2018-03-22T01:01:05Z</time>
      </trkpt>
      <trkpt lat="46.77844" lon="-1.734">
        <ele>53</ele>
        <time>2018-03-22T01:02:05Z</time>
      </trkpt>
      <trkpt lat="46.77858" lon="-1.73399">
        <ele>53</ele>
        <time>2018-03-22T01:03:05Z</time>
      </trkpt>
      <trkpt lat="46.77914" lon="-1.73398">
        <ele>54</ele>
        <time>2018-03-22T01:04:05Z</time>
      </trkpt>
      <trkpt lat="46.77934" lon="-1.73397">
        <ele>53</ele>
        <time>2018-03-22T01:05:05Z</time>
      </trkpt>
      <trkpt lat="46.77945" lon="-1.73396">
        <ele>53</ele>
        <time>2018-03-22T01:06:05Z</time>
      </trkpt>
      <trkpt lat="46.77955" lon="-1.73394">
        <ele>53</ele>
        <time>2018-03-22T01:07:05Z</time>
      </trkpt>
      <trkpt lat="46.77963" lon="-1.73392">
        <ele>53</ele>
        <time>2018-03-22T01:08:05Z</time>
      </trkpt>
      <trkpt lat="46.77963" lon="-1.73392">
        <ele>53</ele>
        <time>2018-03-22T01:09:05Z</time>
      </trkpt>
      <trkpt lat="46.77979" lon="-1.73386">
        <ele>53</ele>
        <time>2018-03-22T01:10:05Z</time>
      </trkpt>
      <trkpt lat="46.78065" lon="-1.73352">
        <ele>53</ele>
        <time>2018-03-22T01:11:05Z</time>
      </trkpt>
      <trkpt lat="46.78093" lon="-1.73343">
        <ele>53</ele>
        <time>2018-03-22T01:12:05Z</time>
      </trkpt>
      <trkpt lat="46.78113" lon="-1.73337">
        <ele>53</ele>
        <time>2018-03-22T01:13:05Z</time>
      </trkpt>
      <trkpt lat="46.78131" lon="-1.73331">
        <ele>52</ele>
        <time>2018-03-22T01:14:05Z</time>
      </trkpt>
      <trkpt lat="46.78159" lon="-1.73326">
        <ele>52</ele>
        <time>2018-03-22T01:15:05Z</time>
      </trkpt>
      <trkpt lat="46.7822" lon="-1.73315">
        <ele>53</ele>
        <time>2018-03-22T01:16:05Z</time>
      </trkpt>
      <trkpt lat="46.78238" lon="-1.73313">
        <ele>53</ele>
        <time>2018-03-22T01:17:05Z</time>
      </trkpt>
      <trkpt lat="46.78264" lon="-1.73309">
        <ele>53</ele>
        <time>2018-03-22T01:18:05Z</time>
      </trkpt>
      <trkpt lat="46.78276" lon="-1.73307">
        <ele>53</ele>
        <time>2018-03-22T01:19:05Z</time>
      </trkpt>
      <trkpt lat="46.78293" lon="-1.73305">
        <ele>53</ele>
        <time>2018-03-22T01:20:05Z</time>
      </trkpt>
      <trkpt lat="46.78307" lon="-1.73304">
        <ele>53</ele>
        <time>2018-03-22T01:21:05Z</time>
      </trkpt>
      <trkpt lat="46.78333" lon="-1.73303">
        <ele>54</ele>
        <time>2018-03-22T01:22:05Z</time>
      </trkpt>
      <trkpt lat="46.78385" lon="-1.73303">
        <ele>53</ele>
        <time>2018-03-22T01:23:05Z</time>
      </trkpt>
      <trkpt lat="46.78412" lon="-1.73304">
        <ele>53</ele>
        <time>2018-03-22T01:24:05Z</time>
      </trkpt>
      <trkpt lat="46.78418" lon="-1.73303">
        <ele>53</ele>
        <time>2018-03-22T01:25:05Z</time>
      </trkpt>
      <trkpt lat="46.78473" lon="-1.73305">
        <ele>51</ele>
        <time>2018-03-22T01:26:05Z</time>
      </trkpt>
      <trkpt lat="46.78481" lon="-1.73304">
        <ele>51</ele>
        <time>2018-03-22T01:27:05Z</time>
      </trkpt>
      <trkpt lat="46.78481" lon="-1.73304">
        <ele>51</ele>
        <time>2018-03-22T01:28:05Z</time>
      </trkpt>
      <trkpt lat="46.78482" lon="-1.73291">
        <ele>51</ele>
        <time>2018-03-22T01:29:05Z</time>
      </trkpt>
      <trkpt lat="46.78482" lon="-1.73279">
        <ele>51</ele>
        <time>2018-03-22T01:30:05Z</time>
      </trkpt>
      <trkpt lat="46.78484" lon="-1.73268">
        <ele>51</ele>
        <time>2018-03-22T01:31:05Z</time>
      </trkpt>
      <trkpt lat="46.78485" lon="-1.73259">
        <ele>50</ele>
        <time>2018-03-22T01:32:05Z</time>
      </trkpt>
      <trkpt lat="46.78488" lon="-1.73237">
        <ele>50</ele>
        <time>2018-03-22T01:33:05Z</time>
      </trkpt>
      <trkpt lat="46.78498" lon="-1.73169">
        <ele>51</ele>
        <time>2018-03-22T01:34:05Z</time>
      </trkpt>
      <trkpt lat="46.78509" lon="-1.73095">
        <ele>51</ele>
        <time>2018-03-22T01:35:05Z</time>
      </trkpt>
      <trkpt lat="46.78526" lon="-1.7299">
        <ele>51</ele>
        <time>2018-03-22T01:36:05Z</time>
      </trkpt>
      <trkpt lat="46.78545" lon="-1.72862">
        <ele>50</ele>
        <time>2018-03-22T01:37:05Z</time>
      </trkpt>
      <trkpt lat="46.78548" lon="-1.72842">
        <ele>49</ele>
        <time>2018-03-22T01:38:05Z</time>
      </trkpt>
      <trkpt lat="46.78551" lon="-1.72824">
        <ele>49</ele>
        <time>2018-03-22T01:39:05Z</time>
      </trkpt>
      <trkpt lat="46.78556" lon="-1.72797">
        <ele>49</ele>
        <time>2018-03-22T01:40:05Z</time>
      </trkpt>
      <trkpt lat="46.78559" lon="-1.72776">
        <ele>49</ele>
        <time>2018-03-22T01:41:05Z</time>
      </trkpt>
      <trkpt lat="46.78561" lon="-1.72761">
        <ele>49</ele>
        <time>2018-03-22T01:42:05Z</time>
      </trkpt>
      <trkpt lat="46.78563" lon="-1.72748">
        <ele>49</ele>
        <time>2018-03-22T01:43:05Z</time>
      </trkpt>
      <trkpt lat="46.78564" lon="-1.72735">
        <ele>49</ele>
        <time>2018-03-22T01:44:05Z</time>
      </trkpt>
      <trkpt lat="46.78566" lon="-1.72721">
        <ele>49</ele>
        <time>2018-03-22T01:45:05Z</time>
      </trkpt>
      <trkpt lat="46.78567" lon="-1.72701">
        <ele>49</ele>
        <time>2018-03-22T01:46:05Z</time>
      </trkpt>
      <trkpt lat="46.78569" lon="-1.7268">
        <ele>49</ele>
        <time>2018-03-22T01:47:05Z</time>
      </trkpt>
      <trkpt lat="46.78569" lon="-1.72677">
        <ele>49</ele>
        <time>2018-03-22T01:48:05Z</time>
      </trkpt>
      <trkpt lat="46.7857" lon="-1.72658">
        <ele>49</ele>
        <time>2018-03-22T01:49:05Z</time>
      </trkpt>
      <trkpt lat="46.78571" lon="-1.72641">
        <ele>49</ele>
        <time>2018-03-22T01:50:05Z</time>
      </trkpt>
      <trkpt lat="46.78576" lon="-1.72562">
        <ele>49</ele>
        <time>2018-03-22T01:51:05Z</time>
      </trkpt>
      <trkpt lat="46.7858" lon="-1.72481">
        <ele>49</ele>
        <time>2018-03-22T01:52:05Z</time>
      </trkpt>
      <trkpt lat="46.78586" lon="-1.72381">
        <ele>49</ele>
        <time>2018-03-22T01:53:05Z</time>
      </trkpt>
      <trkpt lat="46.78591" lon="-1.72291">
        <ele>49</ele>
        <time>2018-03-22T01:54:05Z</time>
      </trkpt>
      <trkpt lat="46.78597" lon="-1.72175">
        <ele>49</ele>
        <time>2018-03-22T01:55:05Z</time>
      </trkpt>
      <trkpt lat="46.78599" lon="-1.72138">
        <ele>49</ele>
        <time>2018-03-22T01:56:05Z</time>
      </trkpt>
      <trkpt lat="46.78603" lon="-1.72087">
        <ele>50</ele>
        <time>2018-03-22T01:57:05Z</time>
      </trkpt>
      <trkpt lat="46.78605" lon="-1.72056">
        <ele>49</ele>
        <time>2018-03-22T01:58:05Z</time>
      </trkpt>
      <trkpt lat="46.78608" lon="-1.7203">
        <ele>49</ele>
        <time>2018-03-22T01:59:05Z</time>
      </trkpt>
      <trkpt lat="46.78613" lon="-1.71983">
        <ele>49</ele>
        <time>2018-03-22T02:00:05Z</time>
      </trkpt>
      <trkpt lat="46.78631" lon="-1.71864">
        <ele>48</ele>
        <time>2018-03-22T02:01:05Z</time>
      </trkpt>
      <trkpt lat="46.78646" lon="-1.71762">
        <ele>47</ele>
        <time>2018-03-22T02:02:05Z</time>
      </trkpt>
      <trkpt lat="46.78665" lon="-1.71618">
        <ele>48</ele>
        <time>2018-03-22T02:03:05Z</time>
      </trkpt>
      <trkpt lat="46.78672" lon="-1.71568">
        <ele>48</ele>
        <time>2018-03-22T02:04:05Z</time>
      </trkpt>
      <trkpt lat="46.78686" lon="-1.71469">
        <ele>47</ele>
        <time>2018-03-22T02:05:05Z</time>
      </trkpt>
      <trkpt lat="46.78693" lon="-1.71413">
        <ele>46</ele>
        <time>2018-03-22T02:06:05Z</time>
      </trkpt>
      <trkpt lat="46.78702" lon="-1.71355">
        <ele>45</ele>
        <time>2018-03-22T02:07:05Z</time>
      </trkpt>
      <trkpt lat="46.78705" lon="-1.71332">
        <ele>45</ele>
        <time>2018-03-22T02:08:05Z</time>
      </trkpt>
      <trkpt lat="46.78714" lon="-1.71265">
        <ele>44</ele>
        <time>2018-03-22T02:09:05Z</time>
      </trkpt>
      <trkpt lat="46.78721" lon="-1.71229">
        <ele>44</ele>
        <time>2018-03-22T02:10:05Z</time>
      </trkpt>
      <trkpt lat="46.78729" lon="-1.7119">
        <ele>43</ele>
        <time>2018-03-22T02:11:05Z</time>
      </trkpt>
      <trkpt lat="46.78785" lon="-1.70972">
        <ele>41</ele>
        <time>2018-03-22T02:12:05Z</time>
      </trkpt>
      <trkpt lat="46.78837" lon="-1.70762">
        <ele>42</ele>
        <time>2018-03-22T02:13:05Z</time>
      </trkpt>
      <trkpt lat="46.78852" lon="-1.70705">
        <ele>43</ele>
        <time>2018-03-22T02:14:05Z</time>
      </trkpt>
      <trkpt lat="46.78876" lon="-1.70617">
        <ele>43</ele>
        <time>2018-03-22T02:15:05Z</time>
      </trkpt>
      <trkpt lat="46.78878" lon="-1.70608">
        <ele>43</ele>
        <time>2018-03-22T02:16:05Z</time>
      </trkpt>
      <trkpt lat="46.78881" lon="-1.70594">
        <ele>43</ele>
        <time>2018-03-22T02:17:05Z</time>
      </trkpt>
      <trkpt lat="46.78883" lon="-1.70579">
        <ele>43</ele>
        <time>2018-03-22T02:18:05Z</time>
      </trkpt>
      <trkpt lat="46.78885" lon="-1.7056">
        <ele>43</ele>
        <time>2018-03-22T02:19:05Z</time>
      </trkpt>
      <trkpt lat="46.78888" lon="-1.70539">
        <ele>44</ele>
        <time>2018-03-22T02:20:05Z</time>
      </trkpt>
      <trkpt lat="46.78888" lon="-1.70523">
        <ele>44</ele>
        <time>2018-03-22T02:21:05Z</time>
      </trkpt>
      <trkpt lat="46.78889" lon="-1.70503">
        <ele>44</ele>
        <time>2018-03-22T02:22:05Z</time>
      </trkpt>
      <trkpt lat="46.78889" lon="-1.70484">
        <ele>45</ele>
        <time>2018-03-22T02:23:05Z</time>
      </trkpt>
      <trkpt lat="46.78888" lon="-1.70446">
        <ele>46</ele>
        <time>2018-03-22T02:24:05Z</time>
      </trkpt>
      <trkpt lat="46.78885" lon="-1.7038">
        <ele>47</ele>
        <time>2018-03-22T02:25:05Z</time>
      </trkpt>
      <trkpt lat="46.78885" lon="-1.70371">
        <ele>47</ele>
        <time>2018-03-22T02:26:05Z</time>
      </trkpt>
      <trkpt lat="46.78885" lon="-1.70366">
        <ele>47</ele>
        <time>2018-03-22T02:27:05Z</time>
      </trkpt>
      <trkpt lat="46.78886" lon="-1.70352">
        <ele>47</ele>
        <time>2018-03-22T02:28:05Z</time>
      </trkpt>
      <trkpt lat="46.78887" lon="-1.70349">
        <ele>47</ele>
        <time>2018-03-22T02:29:05Z</time>
      </trkpt>
      <trkpt lat="46.78888" lon="-1.70346">
        <ele>48</ele>
        <time>2018-03-22T02:30:05Z</time>
      </trkpt>
      <trkpt lat="46.78892" lon="-1.70336">
        <ele>48</ele>
        <time>2018-03-22T02:31:05Z</time>
      </trkpt>
      <trkpt lat="46.78892" lon="-1.70336">
        <ele>48</ele>
        <time>2018-03-22T02:32:05Z</time>
      </trkpt>
      <trkpt lat="46.78886" lon="-1.70324">
        <ele>48</ele>
        <time>2018-03-22T02:33:05Z</time>
      </trkpt>
      <trkpt lat="46.7888" lon="-1.70312">
        <ele>48</ele>
        <time>2018-03-22T02:34:05Z</time>
      </trkpt>
      <trkpt lat="46.78875" lon="-1.70301">
        <ele>48</ele>
        <time>2018-03-22T02:35:05Z</time>
      </trkpt>
      <trkpt lat="46.78875" lon="-1.70301">
        <ele>48</ele>
        <time>2018-03-22T02:36:05Z</time>
      </trkpt>
      <trkpt lat="46.78867" lon="-1.70286">
        <ele>48</ele>
        <time>2018-03-22T02:37:05Z</time>
      </trkpt>
      <trkpt lat="46.78871" lon="-1.7028">
        <ele>48</ele>
        <time>2018-03-22T02:38:05Z</time>
      </trkpt>
      <trkpt lat="46.78872" lon="-1.70268">
        <ele>48</ele>
        <time>2018-03-22T02:39:05Z</time>
      </trkpt>
      <trkpt lat="46.78875" lon="-1.70254">
        <ele>48</ele>
        <time>2018-03-22T02:40:05Z</time>
      </trkpt>
      <trkpt lat="46.78878" lon="-1.70239">
        <ele>48</ele>
        <time>2018-03-22T02:41:05Z</time>
      </trkpt>
      <trkpt lat="46.78879" lon="-1.7023">
        <ele>48</ele>
        <time>2018-03-22T02:42:05Z</time>
      </trkpt>
      <trkpt lat="46.78881" lon="-1.70226">
        <ele>48</ele>
        <time>2018-03-22T02:43:05Z</time>
      </trkpt>
      <trkpt lat="46.78881" lon="-1.70216">
        <ele>48</ele>
        <time>2018-03-22T02:44:05Z</time>
      </trkpt>
      <trkpt lat="46.7888" lon="-1.70187">
        <ele>48</ele>
        <time>2018-03-22T02:45:05Z</time>
      </trkpt>
      <trkpt lat="46.7888" lon="-1.7017">
        <ele>48</ele>
        <time>2018-03-22T02:46:05Z</time>
      </trkpt>
      <trkpt lat="46.7888" lon="-1.70161">
        <ele>48</ele>
        <time>2018-03-22T02:47:05Z</time>
      </trkpt>
      <trkpt lat="46.7888" lon="-1.70155">
        <ele>48</ele>
        <time>2018-03-22T02:48:05Z</time>
      </trkpt>
      <trkpt lat="46.7888" lon="-1.70153">
        <ele>48</ele>
        <time>2018-03-22T02:49:05Z</time>
      </trkpt>
      <trkpt lat="46.78882" lon="-1.70135">
        <ele>48</ele>
        <time>2018-03-22T02:50:05Z</time>
      </trkpt>
      <trkpt lat="46.78887" lon="-1.70108">
        <ele>48</ele>
        <time>2018-03-22T02:51:05Z</time>
      </trkpt>
      <trkpt lat="46.78898" lon="-1.70064">
        <ele>48</ele>
        <time>2018-03-22T02:52:05Z</time>
      </trkpt>
      <trkpt lat="46.78925" lon="-1.69968">
        <ele>48</ele>
        <time>2018-03-22T02:53:05Z</time>
      </trkpt>
      <trkpt lat="46.78934" lon="-1.69938">
        <ele>48</ele>
        <time>2018-03-22T02:54:05Z</time>
      </trkpt>
      <trkpt lat="46.78939" lon="-1.69916">
        <ele>48</ele>
        <time>2018-03-22T02:55:05Z</time>
      </trkpt>
      <trkpt lat="46.78944" lon="-1.69893">
        <ele>48</ele>
        <time>2018-03-22T02:56:05Z</time>
      </trkpt>
      <trkpt lat="46.78949" lon="-1.69867">
        <ele>47</ele>
        <time>2018-03-22T02:57:05Z</time>
      </trkpt>
      <trkpt lat="46.78953" lon="-1.69842">
        <ele>47</ele>
        <time>2018-03-22T02:58:05Z</time>
      </trkpt>
      <trkpt lat="46.78954" lon="-1.69832">
        <ele>46</ele>
        <time>2018-03-22T02:59:05Z</time>
      </trkpt>
      <trkpt lat="46.78961" lon="-1.6977">
        <ele>46</ele>
        <time>2018-03-22T03:00:05Z</time>
      </trkpt>
      <trkpt lat="46.78963" lon="-1.69748">
        <ele>46</ele>
        <time>2018-03-22T03:01:05Z</time>
      </trkpt>
      <trkpt lat="46.78971" lon="-1.6968">
        <ele>47</ele>
        <time>2018-03-22T03:02:05Z</time>
      </trkpt>
      <trkpt lat="46.78983" lon="-1.69568">
        <ele>46</ele>
        <time>2018-03-22T03:03:05Z</time>
      </trkpt>
      <trkpt lat="46.78989" lon="-1.6952">
        <ele>46</ele>
        <time>2018-03-22T03:04:05Z</time>
      </trkpt>
      <trkpt lat="46.78992" lon="-1.69501">
        <ele>46</ele>
        <time>2018-03-22T03:05:05Z</time>
      </trkpt>
      <trkpt lat="46.78994" lon="-1.69486">
        <ele>46</ele>
        <time>2018-03-22T03:06:05Z</time>
      </trkpt>
      <trkpt lat="46.78996" lon="-1.69474">
        <ele>46</ele>
        <time>2018-03-22T03:07:05Z</time>
      </trkpt>
      <trkpt lat="46.78998" lon="-1.69461">
        <ele>46</ele>
        <time>2018-03-22T03:08:05Z</time>
      </trkpt>
      <trkpt lat="46.79" lon="-1.6945">
        <ele>45</ele>
        <time>2018-03-22T03:09:05Z</time>
      </trkpt>
      <trkpt lat="46.79" lon="-1.69448">
        <ele>45</ele>
        <time>2018-03-22T03:10:05Z</time>
      </trkpt>
      <trkpt lat="46.79003" lon="-1.69434">
        <ele>45</ele>
        <time>2018-03-22T03:11:05Z</time>
      </trkpt>
      <trkpt lat="46.79006" lon="-1.69421">
        <ele>45</ele>
        <time>2018-03-22T03:12:05Z</time>
      </trkpt>
      <trkpt lat="46.79013" lon="-1.69392">
        <ele>45</ele>
        <time>2018-03-22T03:13:05Z</time>
      </trkpt>
      <trkpt lat="46.7902" lon="-1.69366">
        <ele>45</ele>
        <time>2018-03-22T03:14:05Z</time>
      </trkpt>
      <trkpt lat="46.79033" lon="-1.69324">
        <ele>45</ele>
        <time>2018-03-22T03:15:05Z</time>
      </trkpt>
      <trkpt lat="46.79048" lon="-1.69268">
        <ele>45</ele>
        <time>2018-03-22T03:16:05Z</time>
      </trkpt>
      <trkpt lat="46.79051" lon="-1.69259">
        <ele>45</ele>
        <time>2018-03-22T03:17:05Z</time>
      </trkpt>
      <trkpt lat="46.79073" lon="-1.69182">
        <ele>44</ele>
        <time>2018-03-22T03:18:05Z</time>
      </trkpt>
      <trkpt lat="46.7909" lon="-1.69121">
        <ele>44</ele>
        <time>2018-03-22T03:19:05Z</time>
      </trkpt>
      <trkpt lat="46.79106" lon="-1.69064">
        <ele>45</ele>
        <time>2018-03-22T03:20:05Z</time>
      </trkpt>
      <trkpt lat="46.79125" lon="-1.68996">
        <ele>45</ele>
        <time>2018-03-22T03:21:05Z</time>
      </trkpt>
      <trkpt lat="46.79139" lon="-1.68949">
        <ele>45</ele>
        <time>2018-03-22T03:22:05Z</time>
      </trkpt>
      <trkpt lat="46.7917" lon="-1.68838">
        <ele>44</ele>
        <time>2018-03-22T03:23:05Z</time>
      </trkpt>
      <trkpt lat="46.79195" lon="-1.68751">
        <ele>44</ele>
        <time>2018-03-22T03:24:05Z</time>
      </trkpt>
      <trkpt lat="46.79222" lon="-1.68656">
        <ele>44</ele>
        <time>2018-03-22T03:25:05Z</time>
      </trkpt>
      <trkpt lat="46.79242" lon="-1.68587">
        <ele>46</ele>
        <time>2018-03-22T03:26:05Z</time>
      </trkpt>
      <trkpt lat="46.79258" lon="-1.68526">
        <ele>46</ele>
        <time>2018-03-22T03:27:05Z</time>
      </trkpt>
      <trkpt lat="46.79258" lon="-1.68524">
        <ele>46</ele>
        <time>2018-03-22T03:28:05Z</time>
      </trkpt>
      <trkpt lat="46.79284" lon="-1.68431">
        <ele>44</ele>
        <time>2018-03-22T03:29:05Z</time>
      </trkpt>
      <trkpt lat="46.793" lon="-1.6837">
        <ele>44</ele>
        <time>2018-03-22T03:30:05Z</time>
      </trkpt>
      <trkpt lat="46.79321" lon="-1.68293">
        <ele>44</ele>
        <time>2018-03-22T03:31:05Z</time>
      </trkpt>
      <trkpt lat="46.79333" lon="-1.68246">
        <ele>44</ele>
        <time>2018-03-22T03:32:05Z</time>
      </trkpt>
      <trkpt lat="46.79345" lon="-1.68197">
        <ele>45</ele>
        <time>2018-03-22T03:33:05Z</time>
      </trkpt>
      <trkpt lat="46.79354" lon="-1.68151">
        <ele>46</ele>
        <time>2018-03-22T03:34:05Z</time>
      </trkpt>
      <trkpt lat="46.79359" lon="-1.68131">
        <ele>46</ele>
        <time>2018-03-22T03:35:05Z</time>
      </trkpt>
      <trkpt lat="46.79362" lon="-1.6811">
        <ele>47</ele>
        <time>2018-03-22T03:36:05Z</time>
      </trkpt>
      <trkpt lat="46.79366" lon="-1.68087">
        <ele>47</ele>
        <time>2018-03-22T03:37:05Z</time>
      </trkpt>
      <trkpt lat="46.79368" lon="-1.68065">
        <ele>47</ele>
        <time>2018-03-22T03:38:05Z</time>
      </trkpt>
      <trkpt lat="46.79372" lon="-1.68026">
        <ele>46</ele>
        <time>2018-03-22T03:39:05Z</time>
      </trkpt>
      <trkpt lat="46.79374" lon="-1.68002">
        <ele>46</ele>
        <time>2018-03-22T03:40:05Z</time>
      </trkpt>
      <trkpt lat="46.79379" lon="-1.67933">
        <ele>46</ele>
        <time>2018-03-22T03:41:05Z</time>
      </trkpt>
      <trkpt lat="46.7939" lon="-1.67805">
        <ele>47</ele>
        <time>2018-03-22T03:42:05Z</time>
      </trkpt>
      <trkpt lat="46.79396" lon="-1.67743">
        <ele>49</ele>
        <time>2018-03-22T03:43:05Z</time>
      </trkpt>
      <trkpt lat="46.79401" lon="-1.67686">
        <ele>49</ele>
        <time>2018-03-22T03:44:05Z</time>
      </trkpt>
      <trkpt lat="46.79406" lon="-1.67617">
        <ele>50</ele>
        <time>2018-03-22T03:45:05Z</time>
      </trkpt>
      <trkpt lat="46.7941" lon="-1.67568">
        <ele>51</ele>
        <time>2018-03-22T03:46:05Z</time>
      </trkpt>
      <trkpt lat="46.79413" lon="-1.6753">
        <ele>52</ele>
        <time>2018-03-22T03:47:05Z</time>
      </trkpt>
      <trkpt lat="46.79416" lon="-1.675">
        <ele>52</ele>
        <time>2018-03-22T03:48:05Z</time>
      </trkpt>
      <trkpt lat="46.79418" lon="-1.67489">
        <ele>52</ele>
        <time>2018-03-22T03:49:05Z</time>
      </trkpt>
      <trkpt lat="46.79419" lon="-1.67476">
        <ele>52</ele>
        <time>2018-03-22T03:50:05Z</time>
      </trkpt>
      <trkpt lat="46.79421" lon="-1.67464">
        <ele>52</ele>
        <time>2018-03-22T03:51:05Z</time>
      </trkpt>
      <trkpt lat="46.79423" lon="-1.67455">
        <ele>51</ele>
        <time>2018-03-22T03:52:05Z</time>
      </trkpt>
      <trkpt lat="46.79425" lon="-1.67446">
        <ele>51</ele>
        <time>2018-03-22T03:53:05Z</time>
      </trkpt>
      <trkpt lat="46.79429" lon="-1.67429">
        <ele>51</ele>
        <time>2018-03-22T03:54:05Z</time>
      </trkpt>
      <trkpt lat="46.79438" lon="-1.67395">
        <ele>52</ele>
        <time>2018-03-22T03:55:05Z</time>
      </trkpt>
      <trkpt lat="46.79447" lon="-1.6736">
        <ele>52</ele>
        <time>2018-03-22T03:56:05Z</time>
      </trkpt>
      <trkpt lat="46.79466" lon="-1.67286">
        <ele>53</ele>
        <time>2018-03-22T03:57:05Z</time>
      </trkpt>
      <trkpt lat="46.79495" lon="-1.67175">
        <ele>52</ele>
        <time>2018-03-22T03:58:05Z</time>
      </trkpt>
      <trkpt lat="46.79515" lon="-1.67096">
        <ele>51</ele>
        <time>2018-03-22T03:59:05Z</time>
      </trkpt>
      <trkpt lat="46.79533" lon="-1.67027">
        <ele>50</ele>
        <time>2018-03-22T04:00:05Z</time>
      </trkpt>
      <trkpt lat="46.79552" lon="-1.66953">
        <ele>49</ele>
        <time>2018-03-22T04:01:05Z</time>
      </trkpt>
      <trkpt lat="46.79566" lon="-1.66906">
        <ele>48</ele>
        <time>2018-03-22T04:02:05Z</time>
      </trkpt>
      <trkpt lat="46.79575" lon="-1.66884">
        <ele>48</ele>
        <time>2018-03-22T04:03:05Z</time>
      </trkpt>
      <trkpt lat="46.79583" lon="-1.66865">
        <ele>48</ele>
        <time>2018-03-22T04:04:05Z</time>
      </trkpt>
      <trkpt lat="46.79612" lon="-1.66798">
        <ele>46</ele>
        <time>2018-03-22T04:05:05Z</time>
      </trkpt>
      <trkpt lat="46.7964" lon="-1.6674">
        <ele>44</ele>
        <time>2018-03-22T04:06:05Z</time>
      </trkpt>
      <trkpt lat="46.7965" lon="-1.66717">
        <ele>44</ele>
        <time>2018-03-22T04:07:05Z</time>
      </trkpt>
      <trkpt lat="46.79655" lon="-1.66706">
        <ele>43</ele>
        <time>2018-03-22T04:08:05Z</time>
      </trkpt>
      <trkpt lat="46.79657" lon="-1.66699">
        <ele>43</ele>
        <time>2018-03-22T04:09:05Z</time>
      </trkpt>
      <trkpt lat="46.79659" lon="-1.66691">
        <ele>43</ele>
        <time>2018-03-22T04:10:05Z</time>
      </trkpt>
      <trkpt lat="46.79662" lon="-1.66681">
        <ele>43</ele>
        <time>2018-03-22T04:11:05Z</time>
      </trkpt>
      <trkpt lat="46.79663" lon="-1.66671">
        <ele>43</ele>
        <time>2018-03-22T04:12:05Z</time>
      </trkpt>
      <trkpt lat="46.79666" lon="-1.66657">
        <ele>43</ele>
        <time>2018-03-22T04:13:05Z</time>
      </trkpt>
      <trkpt lat="46.79666" lon="-1.66653">
        <ele>43</ele>
        <time>2018-03-22T04:14:05Z</time>
      </trkpt>
      <trkpt lat="46.79669" lon="-1.66633">
        <ele>42</ele>
        <time>2018-03-22T04:15:05Z</time>
      </trkpt>
      <trkpt lat="46.79673" lon="-1.66608">
        <ele>41</ele>
        <time>2018-03-22T04:16:05Z</time>
      </trkpt>
      <trkpt lat="46.79679" lon="-1.66573">
        <ele>41</ele>
        <time>2018-03-22T04:17:05Z</time>
      </trkpt>
      <trkpt lat="46.79686" lon="-1.66531">
        <ele>41</ele>
        <time>2018-03-22T04:18:05Z</time>
      </trkpt>
      <trkpt lat="46.79687" lon="-1.66526">
        <ele>41</ele>
        <time>2018-03-22T04:19:05Z</time>
      </trkpt>
      <trkpt lat="46.79688" lon="-1.6652">
        <ele>41</ele>
        <time>2018-03-22T04:20:05Z</time>
      </trkpt>
      <trkpt lat="46.7969" lon="-1.66513">
        <ele>41</ele>
        <time>2018-03-22T04:21:05Z</time>
      </trkpt>
      <trkpt lat="46.79691" lon="-1.6651">
        <ele>41</ele>
        <time>2018-03-22T04:22:05Z</time>
      </trkpt>
      <trkpt lat="46.79692" lon="-1.66507">
        <ele>41</ele>
        <time>2018-03-22T04:23:05Z</time>
      </trkpt>
      <trkpt lat="46.79693" lon="-1.66505">
        <ele>41</ele>
        <time>2018-03-22T04:24:05Z</time>
      </trkpt>
      <trkpt lat="46.79699" lon="-1.66494">
        <ele>41</ele>
        <time>2018-03-22T04:25:05Z</time>
      </trkpt>
      <trkpt lat="46.79707" lon="-1.66481">
        <ele>41</ele>
        <time>2018-03-22T04:26:05Z</time>
      </trkpt>
      <trkpt lat="46.79718" lon="-1.66464">
        <ele>41</ele>
        <time>2018-03-22T04:27:05Z</time>
      </trkpt>
      <trkpt lat="46.79732" lon="-1.66441">
        <ele>42</ele>
        <time>2018-03-22T04:28:05Z</time>
      </trkpt>
      <trkpt lat="46.79734" lon="-1.66438">
        <ele>42</ele>
        <time>2018-03-22T04:29:05Z</time>
      </trkpt>
      <trkpt lat="46.79735" lon="-1.66435">
        <ele>42</ele>
        <time>2018-03-22T04:30:05Z</time>
      </trkpt>
      <trkpt lat="46.79737" lon="-1.66431">
        <ele>42</ele>
        <time>2018-03-22T04:31:05Z</time>
      </trkpt>
      <trkpt lat="46.79738" lon="-1.66429">
        <ele>42</ele>
        <time>2018-03-22T04:32:05Z</time>
      </trkpt>
      <trkpt lat="46.79739" lon="-1.66426">
        <ele>42</ele>
        <time>2018-03-22T04:33:05Z</time>
      </trkpt>
      <trkpt lat="46.79741" lon="-1.6642">
        <ele>42</ele>
        <time>2018-03-22T04:34:05Z</time>
      </trkpt>
      <trkpt lat="46.79745" lon="-1.66405">
        <ele>42</ele>
        <time>2018-03-22T04:35:05Z</time>
      </trkpt>
      <trkpt lat="46.79748" lon="-1.66394">
        <ele>42</ele>
        <time>2018-03-22T04:36:05Z</time>
      </trkpt>
      <trkpt lat="46.79751" lon="-1.66382">
        <ele>42</ele>
        <time>2018-03-22T04:37:05Z</time>
      </trkpt>
      <trkpt lat="46.79752" lon="-1.66377">
        <ele>42</ele>
        <time>2018-03-22T04:38:05Z</time>
      </trkpt>
      <trkpt lat="46.79752" lon="-1.66374">
        <ele>42</ele>
        <time>2018-03-22T04:39:05Z</time>
      </trkpt>
      <trkpt lat="46.79753" lon="-1.66371">
        <ele>42</ele>
        <time>2018-03-22T04:40:05Z</time>
      </trkpt>
      <trkpt lat="46.79753" lon="-1.66367">
        <ele>42</ele>
        <time>2018-03-22T04:41:05Z</time>
      </trkpt>
      <trkpt lat="46.79754" lon="-1.66359">
        <ele>42</ele>
        <time>2018-03-22T04:42:05Z</time>
      </trkpt>
      <trkpt lat="46.79755" lon="-1.66348">
        <ele>42</ele>
        <time>2018-03-22T04:43:05Z</time>
      </trkpt>
      <trkpt lat="46.79755" lon="-1.66338">
        <ele>42</ele>
        <time>2018-03-22T04:44:05Z</time>
      </trkpt>
      <trkpt lat="46.79756" lon="-1.66313">
        <ele>41</ele>
        <time>2018-03-22T04:45:05Z</time>
      </trkpt>
      <trkpt lat="46.79756" lon="-1.66307">
        <ele>41</ele>
        <time>2018-03-22T04:46:05Z</time>
      </trkpt>
      <trkpt lat="46.79756" lon="-1.66303">
        <ele>41</ele>
        <time>2018-03-22T04:47:05Z</time>
      </trkpt>
      <trkpt lat="46.79756" lon="-1.66299">
        <ele>41</ele>
        <time>2018-03-22T04:48:05Z</time>
      </trkpt>
      <trkpt lat="46.79756" lon="-1.66296">
        <ele>41</ele>
        <time>2018-03-22T04:49:05Z</time>
      </trkpt>
      <trkpt lat="46.79755" lon="-1.66291">
        <ele>41</ele>
        <time>2018-03-22T04:50:05Z</time>
      </trkpt>
      <trkpt lat="46.79754" lon="-1.66281">
        <ele>41</ele>
        <time>2018-03-22T04:51:05Z</time>
      </trkpt>
      <trkpt lat="46.79754" lon="-1.66276">
        <ele>41</ele>
        <time>2018-03-22T04:52:05Z</time>
      </trkpt>
      <trkpt lat="46.79752" lon="-1.66268">
        <ele>40</ele>
        <time>2018-03-22T04:53:05Z</time>
      </trkpt>
      <trkpt lat="46.7975" lon="-1.66258">
        <ele>40</ele>
        <time>2018-03-22T04:54:05Z</time>
      </trkpt>
      <trkpt lat="46.79747" lon="-1.66243">
        <ele>40</ele>
        <time>2018-03-22T04:55:05Z</time>
      </trkpt>
      <trkpt lat="46.79745" lon="-1.66238">
        <ele>40</ele>
        <time>2018-03-22T04:56:05Z</time>
      </trkpt>
      <trkpt lat="46.7974" lon="-1.66213">
        <ele>40</ele>
        <time>2018-03-22T04:57:05Z</time>
      </trkpt>
      <trkpt lat="46.79739" lon="-1.66208">
        <ele>40</ele>
        <time>2018-03-22T04:58:05Z</time>
      </trkpt>
      <trkpt lat="46.79739" lon="-1.66203">
        <ele>39</ele>
        <time>2018-03-22T04:59:05Z</time>
      </trkpt>
      <trkpt lat="46.79736" lon="-1.66178">
        <ele>39</ele>
        <time>2018-03-22T05:00:05Z</time>
      </trkpt>
      <trkpt lat="46.79734" lon="-1.66153">
        <ele>39</ele>
        <time>2018-03-22T05:01:05Z</time>
      </trkpt>
      <trkpt lat="46.79732" lon="-1.66133">
        <ele>38</ele>
        <time>2018-03-22T05:02:05Z</time>
      </trkpt>
      <trkpt lat="46.79731" lon="-1.66113">
        <ele>38</ele>
        <time>2018-03-22T05:03:05Z</time>
      </trkpt>
      <trkpt lat="46.79731" lon="-1.66113">
        <ele>38</ele>
        <time>2018-03-22T05:04:05Z</time>
      </trkpt>
      <trkpt lat="46.79728" lon="-1.66114">
        <ele>38</ele>
        <time>2018-03-22T05:05:05Z</time>
      </trkpt>
      <trkpt lat="46.79725" lon="-1.66113">
        <ele>38</ele>
        <time>2018-03-22T05:06:05Z</time>
      </trkpt>
      <trkpt lat="46.79722" lon="-1.6611">
        <ele>38</ele>
        <time>2018-03-22T05:07:05Z</time>
      </trkpt>
      <trkpt lat="46.7972" lon="-1.66106">
        <ele>38</ele>
        <time>2018-03-22T05:08:05Z</time>
      </trkpt>
      <trkpt lat="46.7972" lon="-1.66102">
        <ele>37</ele>
        <time>2018-03-22T05:09:05Z</time>
      </trkpt>
      <trkpt lat="46.7972" lon="-1.66097">
        <ele>37</ele>
        <time>2018-03-22T05:10:05Z</time>
      </trkpt>
      <trkpt lat="46.79722" lon="-1.66093">
        <ele>37</ele>
        <time>2018-03-22T05:11:05Z</time>
      </trkpt>
      <trkpt lat="46.79725" lon="-1.6609">
        <ele>37</ele>
        <time>2018-03-22T05:12:05Z</time>
      </trkpt>
      <trkpt lat="46.79729" lon="-1.66089">
        <ele>37</ele>
        <time>2018-03-22T05:13:05Z</time>
      </trkpt>
      <trkpt lat="46.79732" lon="-1.6609">
        <ele>37</ele>
        <time>2018-03-22T05:14:05Z</time>
      </trkpt>
      <trkpt lat="46.79735" lon="-1.66093">
        <ele>37</ele>
        <time>2018-03-22T05:15:05Z</time>
      </trkpt>
      <trkpt lat="46.79744" lon="-1.66085">
        <ele>37</ele>
        <time>2018-03-22T05:16:05Z</time>
      </trkpt>
      <trkpt lat="46.79778" lon="-1.66072">
        <ele>37</ele>
        <time>2018-03-22T05:17:05Z</time>
      </trkpt>
      <trkpt lat="46.79778" lon="-1.66072">
        <ele>37</ele>
        <time>2018-03-22T05:18:05Z</time>
      </trkpt>
      <trkpt lat="46.79778" lon="-1.66059">
        <ele>37</ele>
        <time>2018-03-22T05:19:05Z</time>
      </trkpt>
      <trkpt lat="46.79777" lon="-1.66044">
        <ele>37</ele>
        <time>2018-03-22T05:20:05Z</time>
      </trkpt>
      <trkpt lat="46.79775" lon="-1.66016">
        <ele>36</ele>
        <time>2018-03-22T05:21:05Z</time>
      </trkpt>
      <trkpt lat="46.79766" lon="-1.65981">
        <ele>36</ele>
        <time>2018-03-22T05:22:05Z</time>
      </trkpt>
      <trkpt lat="46.79762" lon="-1.65967">
        <ele>36</ele>
        <time>2018-03-22T05:23:05Z</time>
      </trkpt>
      <trkpt lat="46.79755" lon="-1.65937">
        <ele>35</ele>
        <time>2018-03-22T05:24:05Z</time>
      </trkpt>
      <trkpt lat="46.79744" lon="-1.65898">
        <ele>34</ele>
        <time>2018-03-22T05:25:05Z</time>
      </trkpt>
      <trkpt lat="46.7974" lon="-1.65876">
        <ele>34</ele>
        <time>2018-03-22T05:26:05Z</time>
      </trkpt>
      <trkpt lat="46.7974" lon="-1.65853">
        <ele>33</ele>
        <time>2018-03-22T05:27:05Z</time>
      </trkpt>
      <trkpt lat="46.7974" lon="-1.65848">
        <ele>33</ele>
        <time>2018-03-22T05:28:05Z</time>
      </trkpt>
      <trkpt lat="46.79743" lon="-1.65821">
        <ele>32</ele>
        <time>2018-03-22T05:29:05Z</time>
      </trkpt>
      <trkpt lat="46.79751" lon="-1.65751">
        <ele>30</ele>
        <time>2018-03-22T05:30:05Z</time>
      </trkpt>
      <trkpt lat="46.79757" lon="-1.65686">
        <ele>27</ele>
        <time>2018-03-22T05:31:05Z</time>
      </trkpt>
      <trkpt lat="46.79767" lon="-1.65599">
        <ele>24</ele>
        <time>2018-03-22T05:32:05Z</time>
      </trkpt>
      <trkpt lat="46.79773" lon="-1.65537">
        <ele>23</ele>
        <time>2018-03-22T05:33:05Z</time>
      </trkpt>
      <trkpt lat="46.79778" lon="-1.65495">
        <ele>23</ele>
        <time>2018-03-22T05:34:05Z</time>
      </trkpt>
      <trkpt lat="46.79784" lon="-1.65446">
        <ele>22</ele>
        <time>2018-03-22T05:35:05Z</time>
      </trkpt>
      <trkpt lat="46.79789" lon="-1.65403">
        <ele>22</ele>
        <time>2018-03-22T05:36:05Z</time>
      </trkpt>
      <trkpt lat="46.79799" lon="-1.65356">
        <ele>23</ele>
        <time>2018-03-22T05:37:05Z</time>
      </trkpt>
      <trkpt lat="46.79807" lon="-1.65313">
        <ele>23</ele>
        <time>2018-03-22T05:38:05Z</time>
      </trkpt>
      <trkpt lat="46.79813" lon="-1.65282">
        <ele>23</ele>
        <time>2018-03-22T05:39:05Z</time>
      </trkpt>
      <trkpt lat="46.79818" lon="-1.65253">
        <ele>22</ele>
        <time>2018-03-22T05:40:05Z</time>
      </trkpt>
      <trkpt lat="46.7982" lon="-1.65217">
        <ele>22</ele>
        <time>2018-03-22T05:41:05Z</time>
      </trkpt>
      <trkpt lat="46.7982" lon="-1.65174">
        <ele>21</ele>
        <time>2018-03-22T05:42:05Z</time>
      </trkpt>
      <trkpt lat="46.7982" lon="-1.65131">
        <ele>20</ele>
        <time>2018-03-22T05:43:05Z</time>
      </trkpt>
      <trkpt lat="46.7982" lon="-1.65124">
        <ele>20</ele>
        <time>2018-03-22T05:44:05Z</time>
      </trkpt>
      <trkpt lat="46.7982" lon="-1.65121">
        <ele>20</ele>
        <time>2018-03-22T05:45:05Z</time>
      </trkpt>
      <trkpt lat="46.7982" lon="-1.65118">
        <ele>20</ele>
        <time>2018-03-22T05:46:05Z</time>
      </trkpt>
      <trkpt lat="46.79822" lon="-1.65101">
        <ele>20</ele>
        <time>2018-03-22T05:47:05Z</time>
      </trkpt>
      <trkpt lat="46.7983" lon="-1.6507">
        <ele>20</ele>
        <time>2018-03-22T05:48:05Z</time>
      </trkpt>
      <trkpt lat="46.7983" lon="-1.65068">
        <ele>20</ele>
        <time>2018-03-22T05:49:05Z</time>
      </trkpt>
      <trkpt lat="46.79844" lon="-1.65033">
        <ele>21</ele>
        <time>2018-03-22T05:50:05Z</time>
      </trkpt>
      <trkpt lat="46.79863" lon="-1.64992">
        <ele>23</ele>
        <time>2018-03-22T05:51:05Z</time>
      </trkpt>
      <trkpt lat="46.79889" lon="-1.64937">
        <ele>25</ele>
        <time>2018-03-22T05:52:05Z</time>
      </trkpt>
      <trkpt lat="46.79899" lon="-1.64912">
        <ele>25</ele>
        <time>2018-03-22T05:53:05Z</time>
      </trkpt>
      <trkpt lat="46.79915" lon="-1.64877">
        <ele>25</ele>
        <time>2018-03-22T05:54:05Z</time>
      </trkpt>
      <trkpt lat="46.79917" lon="-1.64873">
        <ele>25</ele>
        <time>2018-03-22T05:55:05Z</time>
      </trkpt>
      <trkpt lat="46.79949" lon="-1.64804">
        <ele>25</ele>
        <time>2018-03-22T05:56:05Z</time>
      </trkpt>
      <trkpt lat="46.79978" lon="-1.64742">
        <ele>27</ele>
        <time>2018-03-22T05:57:05Z</time>
      </trkpt>
      <trkpt lat="46.79992" lon="-1.64709">
        <ele>28</ele>
        <time>2018-03-22T05:58:05Z</time>
      </trkpt>
      <trkpt lat="46.80012" lon="-1.64669">
        <ele>29</ele>
        <time>2018-03-22T05:59:05Z</time>
      </trkpt>
      <trkpt lat="46.80037" lon="-1.64615">
        <ele>28</ele>
        <time>2018-03-22T06:00:05Z</time>
      </trkpt>
      <trkpt lat="46.80065" lon="-1.64555">
        <ele>26</ele>
        <time>2018-03-22T06:01:05Z</time>
      </trkpt>
      <trkpt lat="46.80086" lon="-1.64508">
        <ele>25</ele>
        <time>2018-03-22T06:02:05Z</time>
      </trkpt>
      <trkpt lat="46.80097" lon="-1.64484">
        <ele>24</ele>
        <time>2018-03-22T06:03:05Z</time>
      </trkpt>
      <trkpt lat="46.8014" lon="-1.64392">
        <ele>23</ele>
        <time>2018-03-22T06:04:05Z</time>
      </trkpt>
      <trkpt lat="46.80164" lon="-1.6434">
        <ele>23</ele>
        <time>2018-03-22T06:05:05Z</time>
      </trkpt>
      <trkpt lat="46.80188" lon="-1.64287">
        <ele>24</ele>
        <time>2018-03-22T06:06:05Z</time>
      </trkpt>
      <trkpt lat="46.80209" lon="-1.64242">
        <ele>25</ele>
        <time>2018-03-22T06:07:05Z</time>
      </trkpt>
      <trkpt lat="46.80225" lon="-1.64204">
        <ele>24</ele>
        <time>2018-03-22T06:08:05Z</time>
      </trkpt>
      <trkpt lat="46.80234" lon="-1.64179">
        <ele>24</ele>
        <time>2018-03-22T06:09:05Z</time>
      </trkpt>
      <trkpt lat="46.80243" lon="-1.64151">
        <ele>23</ele>
        <time>2018-03-22T06:10:05Z</time>
      </trkpt>
      <trkpt lat="46.8026" lon="-1.64092">
        <ele>21</ele>
        <time>2018-03-22T06:11:05Z</time>
      </trkpt>
      <trkpt lat="46.80279" lon="-1.64022">
        <ele>20</ele>
        <time>2018-03-22T06:12:05Z</time>
      </trkpt>
      <trkpt lat="46.80296" lon="-1.63969">
        <ele>19</ele>
        <time>2018-03-22T06:13:05Z</time>
      </trkpt>
      <trkpt lat="46.80316" lon="-1.63927">
        <ele>18</ele>
        <time>2018-03-22T06:14:05Z</time>
      </trkpt>
      <trkpt lat="46.80345" lon="-1.6387">
        <ele>18</ele>
        <time>2018-03-22T06:15:05Z</time>
      </trkpt>
      <trkpt lat="46.8037" lon="-1.63822">
        <ele>18</ele>
        <time>2018-03-22T06:16:05Z</time>
      </trkpt>
      <trkpt lat="46.80385" lon="-1.63791">
        <ele>19</ele>
        <time>2018-03-22T06:17:05Z</time>
      </trkpt>
      <trkpt lat="46.80404" lon="-1.6376">
        <ele>20</ele>
        <time>2018-03-22T06:18:05Z</time>
      </trkpt>
      <trkpt lat="46.80435" lon="-1.63716">
        <ele>22</ele>
        <time>2018-03-22T06:19:05Z</time>
      </trkpt>
      <trkpt lat="46.8047" lon="-1.63668">
        <ele>25</ele>
        <time>2018-03-22T06:20:05Z</time>
      </trkpt>
      <trkpt lat="46.80505" lon="-1.63623">
        <ele>26</ele>
        <time>2018-03-22T06:21:05Z</time>
      </trkpt>
      <trkpt lat="46.80529" lon="-1.6359">
        <ele>26</ele>
        <time>2018-03-22T06:22:05Z</time>
      </trkpt>
      <trkpt lat="46.80561" lon="-1.63547">
        <ele>26</ele>
        <time>2018-03-22T06:23:05Z</time>
      </trkpt>
      <trkpt lat="46.8058" lon="-1.63526">
        <ele>26</ele>
        <time>2018-03-22T06:24:05Z</time>
      </trkpt>
      <trkpt lat="46.80601" lon="-1.63506">
        <ele>26</ele>
        <time>2018-03-22T06:25:05Z</time>
      </trkpt>
      <trkpt lat="46.80614" lon="-1.63494">
        <ele>26</ele>
        <time>2018-03-22T06:26:05Z</time>
      </trkpt>
      <trkpt lat="46.80614" lon="-1.63494">
        <ele>26</ele>
        <time>2018-03-22T06:27:05Z</time>
      </trkpt>
      <trkpt lat="46.8061" lon="-1.6343">
        <ele>24</ele>
        <time>2018-03-22T06:28:05Z</time>
      </trkpt>
      <trkpt lat="46.8061" lon="-1.63423">
        <ele>24</ele>
        <time>2018-03-22T06:29:05Z</time>
      </trkpt>
      <trkpt lat="46.80609" lon="-1.63409">
        <ele>24</ele>
        <time>2018-03-22T06:30:05Z</time>
      </trkpt>
      <trkpt lat="46.80609" lon="-1.63405">
        <ele>24</ele>
        <time>2018-03-22T06:31:05Z</time>
      </trkpt>
      <trkpt lat="46.80609" lon="-1.63397">
        <ele>24</ele>
        <time>2018-03-22T06:32:05Z</time>
      </trkpt>
      <trkpt lat="46.80606" lon="-1.63339">
        <ele>23</ele>
        <time>2018-03-22T06:33:05Z</time>
      </trkpt>
      <trkpt lat="46.80604" lon="-1.63296">
        <ele>22</ele>
        <time>2018-03-22T06:34:05Z</time>
      </trkpt>
      <trkpt lat="46.80602" lon="-1.63272">
        <ele>22</ele>
        <time>2018-03-22T06:35:05Z</time>
      </trkpt>
      <trkpt lat="46.806" lon="-1.63258">
        <ele>22</ele>
        <time>2018-03-22T06:36:05Z</time>
      </trkpt>
      <trkpt lat="46.80594" lon="-1.6324">
        <ele>22</ele>
        <time>2018-03-22T06:37:05Z</time>
      </trkpt>
      <trkpt lat="46.80582" lon="-1.63212">
        <ele>21</ele>
        <time>2018-03-22T06:38:05Z</time>
      </trkpt>
      <trkpt lat="46.80574" lon="-1.63196">
        <ele>21</ele>
        <time>2018-03-22T06:39:05Z</time>
      </trkpt>
      <trkpt lat="46.80496" lon="-1.6307">
        <ele>20</ele>
        <time>2018-03-22T06:40:05Z</time>
      </trkpt>
      <trkpt lat="46.80488" lon="-1.63056">
        <ele>20</ele>
        <time>2018-03-22T06:41:05Z</time>
      </trkpt>
      <trkpt lat="46.80483" lon="-1.63044">
        <ele>20</ele>
        <time>2018-03-22T06:42:05Z</time>
      </trkpt>
      <trkpt lat="46.80466" lon="-1.63007">
        <ele>20</ele>
        <time>2018-03-22T06:43:05Z</time>
      </trkpt>
      <trkpt lat="46.80465" lon="-1.63004">
        <ele>20</ele>
        <time>2018-03-22T06:44:05Z</time>
      </trkpt>
      <trkpt lat="46.80461" lon="-1.62995">
        <ele>20</ele>
        <time>2018-03-22T06:45:05Z</time>
      </trkpt>
      <trkpt lat="46.80461" lon="-1.62994">
        <ele>20</ele>
        <time>2018-03-22T06:46:05Z</time>
      </trkpt>
      <trkpt lat="46.80459" lon="-1.62988">
        <ele>20</ele>
        <time>2018-03-22T06:47:05Z</time>
      </trkpt>
      <trkpt lat="46.80457" lon="-1.62983">
        <ele>20</ele>
        <time>2018-03-22T06:48:05Z</time>
      </trkpt>
      <trkpt lat="46.80435" lon="-1.62917">
        <ele>21</ele>
        <time>2018-03-22T06:49:05Z</time>
      </trkpt>
      <trkpt lat="46.80429" lon="-1.62899">
        <ele>21</ele>
        <time>2018-03-22T06:50:05Z</time>
      </trkpt>
      <trkpt lat="46.80428" lon="-1.62897">
        <ele>21</ele>
        <time>2018-03-22T06:51:05Z</time>
      </trkpt>
      <trkpt lat="46.80417" lon="-1.62861">
        <ele>22</ele>
        <time>2018-03-22T06:52:05Z</time>
      </trkpt>
      <trkpt lat="46.80402" lon="-1.62814">
        <ele>23</ele>
        <time>2018-03-22T06:53:05Z</time>
      </trkpt>
      <trkpt lat="46.80382" lon="-1.62748">
        <ele>23</ele>
        <time>2018-03-22T06:54:05Z</time>
      </trkpt>
      <trkpt lat="46.80372" lon="-1.62718">
        <ele>24</ele>
        <time>2018-03-22T06:55:05Z</time>
      </trkpt>
      <trkpt lat="46.80368" lon="-1.62704">
        <ele>24</ele>
        <time>2018-03-22T06:56:05Z</time>
      </trkpt>
      <trkpt lat="46.80357" lon="-1.62668">
        <ele>24</ele>
        <time>2018-03-22T06:57:05Z</time>
      </trkpt>
      <trkpt lat="46.80348" lon="-1.62637">
        <ele>25</ele>
        <time>2018-03-22T06:58:05Z</time>
      </trkpt>
      <trkpt lat="46.80334" lon="-1.62591">
        <ele>27</ele>
        <time>2018-03-22T06:59:05Z</time>
      </trkpt>
      <trkpt lat="46.80327" lon="-1.62572">
        <ele>27</ele>
        <time>2018-03-22T07:00:05Z</time>
      </trkpt>
      <trkpt lat="46.80316" lon="-1.62543">
        <ele>27</ele>
        <time>2018-03-22T07:01:05Z</time>
      </trkpt>
      <trkpt lat="46.80305" lon="-1.62515">
        <ele>26</ele>
        <time>2018-03-22T07:02:05Z</time>
      </trkpt>
      <trkpt lat="46.80299" lon="-1.62499">
        <ele>26</ele>
        <time>2018-03-22T07:03:05Z</time>
      </trkpt>
      <trkpt lat="46.80298" lon="-1.62491">
        <ele>26</ele>
        <time>2018-03-22T07:04:05Z</time>
      </trkpt>
      <trkpt lat="46.80302" lon="-1.62478">
        <ele>26</ele>
        <time>2018-03-22T07:05:05Z</time>
      </trkpt>
      <trkpt lat="46.80309" lon="-1.62459">
        <ele>25</ele>
        <time>2018-03-22T07:06:05Z</time>
      </trkpt>
      <trkpt lat="46.80315" lon="-1.62447">
        <ele>25</ele>
        <time>2018-03-22T07:07:05Z</time>
      </trkpt>
      <trkpt lat="46.80315" lon="-1.62447">
        <ele>25</ele>
        <time>2018-03-22T07:08:05Z</time>
      </trkpt>
      <trkpt lat="46.80309" lon="-1.62446">
        <ele>25</ele>
        <time>2018-03-22T07:09:05Z</time>
      </trkpt>
      <trkpt lat="46.80289" lon="-1.62444">
        <ele>25</ele>
        <time>2018-03-22T07:10:05Z</time>
      </trkpt>
      <trkpt lat="46.80271" lon="-1.62441">
        <ele>26</ele>
        <time>2018-03-22T07:11:05Z</time>
      </trkpt>
      <trkpt lat="46.80258" lon="-1.62437">
        <ele>26</ele>
        <time>2018-03-22T07:12:05Z</time>
      </trkpt>
      <trkpt lat="46.80251" lon="-1.62432">
        <ele>26</ele>
        <time>2018-03-22T07:13:05Z</time>
      </trkpt>
      <trkpt lat="46.80244" lon="-1.62424">
        <ele>26</ele>
        <time>2018-03-22T07:14:05Z</time>
      </trkpt>
      <trkpt lat="46.80238" lon="-1.62416">
        <ele>26</ele>
        <time>2018-03-22T07:15:05Z</time>
      </trkpt>
      <trkpt lat="46.80231" lon="-1.62409">
        <ele>26</ele>
        <time>2018-03-22T07:16:05Z</time>
      </trkpt>
      <trkpt lat="46.80224" lon="-1.62406">
        <ele>26</ele>
        <time>2018-03-22T07:17:05Z</time>
      </trkpt>
      <trkpt lat="46.80213" lon="-1.62405">
        <ele>26</ele>
        <time>2018-03-22T07:18:05Z</time>
      </trkpt>
      <trkpt lat="46.802" lon="-1.62407">
        <ele>26</ele>
        <time>2018-03-22T07:19:05Z</time>
      </trkpt>
      <trkpt lat="46.80192" lon="-1.62409">
        <ele>26</ele>
        <time>2018-03-22T07:20:05Z</time>
      </trkpt>
      <trkpt lat="46.80166" lon="-1.62418">
        <ele>26</ele>
        <time>2018-03-22T07:21:05Z</time>
      </trkpt>
      <trkpt lat="46.80133" lon="-1.6243">
        <ele>26</ele>
        <time>2018-03-22T07:22:05Z</time>
      </trkpt>
      <trkpt lat="46.8004" lon="-1.62459">
        <ele>27</ele>
        <time>2018-03-22T07:23:05Z</time>
      </trkpt>
      <trkpt lat="46.80009" lon="-1.62468">
        <ele>27</ele>
        <time>2018-03-22T07:24:05Z</time>
      </trkpt>
      <trkpt lat="46.79968" lon="-1.62475">
        <ele>29</ele>
        <time>2018-03-22T07:25:05Z</time>
      </trkpt>
      <trkpt lat="46.79946" lon="-1.62474">
        <ele>30</ele>
        <time>2018-03-22T07:26:05Z</time>
      </trkpt>
      <trkpt lat="46.79908" lon="-1.6247">
        <ele>31</ele>
        <time>2018-03-22T07:27:05Z</time>
      </trkpt>
      <trkpt lat="46.79883" lon="-1.62468">
        <ele>33</ele>
        <time>2018-03-22T07:28:05Z</time>
      </trkpt>
      <trkpt lat="46.79836" lon="-1.62462">
        <ele>35</ele>
        <time>2018-03-22T07:29:05Z</time>
      </trkpt>
      <trkpt lat="46.79792" lon="-1.62458">
        <ele>37</ele>
        <time>2018-03-22T07:30:05Z</time>
      </trkpt>
      <trkpt lat="46.79742" lon="-1.62451">
        <ele>38</ele>
        <time>2018-03-22T07:31:05Z</time>
      </trkpt>
      <trkpt lat="46.79683" lon="-1.62444">
        <ele>39</ele>
        <time>2018-03-22T07:32:05Z</time>
      </trkpt>
      <trkpt lat="46.79621" lon="-1.62437">
        <ele>39</ele>
        <time>2018-03-22T07:33:05Z</time>
      </trkpt>
      <trkpt lat="46.79567" lon="-1.6243">
        <ele>38</ele>
        <time>2018-03-22T07:34:05Z</time>
      </trkpt>
      <trkpt lat="46.795" lon="-1.62421">
        <ele>38</ele>
        <time>2018-03-22T07:35:05Z</time>
      </trkpt>
      <trkpt lat="46.79451" lon="-1.62417">
        <ele>38</ele>
        <time>2018-03-22T07:36:05Z</time>
      </trkpt>
      <trkpt lat="46.79435" lon="-1.62414">
        <ele>38</ele>
        <time>2018-03-22T07:37:05Z</time>
      </trkpt>
      <trkpt lat="46.79427" lon="-1.62413">
        <ele>38</ele>
        <time>2018-03-22T07:38:05Z</time>
      </trkpt>
      <trkpt lat="46.79398" lon="-1.62409">
        <ele>38</ele>
        <time>2018-03-22T07:39:05Z</time>
      </trkpt>
      <trkpt lat="46.79373" lon="-1.62405">
        <ele>39</ele>
        <time>2018-03-22T07:40:05Z</time>
      </trkpt>
      <trkpt lat="46.79338" lon="-1.62401">
        <ele>39</ele>
        <time>2018-03-22T07:41:05Z</time>
      </trkpt>
      <trkpt lat="46.79287" lon="-1.62394">
        <ele>40</ele>
        <time>2018-03-22T07:42:05Z</time>
      </trkpt>
      <trkpt lat="46.79269" lon="-1.62392">
        <ele>41</ele>
        <time>2018-03-22T07:43:05Z</time>
      </trkpt>
      <trkpt lat="46.79252" lon="-1.6239">
        <ele>41</ele>
        <time>2018-03-22T07:44:05Z</time>
      </trkpt>
      <trkpt lat="46.79235" lon="-1.62388">
        <ele>41</ele>
        <time>2018-03-22T07:45:05Z</time>
      </trkpt>
      <trkpt lat="46.79178" lon="-1.62384">
        <ele>41</ele>
        <time>2018-03-22T07:46:05Z</time>
      </trkpt>
      <trkpt lat="46.79161" lon="-1.62381">
        <ele>41</ele>
        <time>2018-03-22T07:47:05Z</time>
      </trkpt>
      <trkpt lat="46.79135" lon="-1.62376">
        <ele>42</ele>
        <time>2018-03-22T07:48:05Z</time>
      </trkpt>
      <trkpt lat="46.79115" lon="-1.62375">
        <ele>43</ele>
        <time>2018-03-22T07:49:05Z</time>
      </trkpt>
      <trkpt lat="46.79099" lon="-1.62372">
        <ele>43</ele>
        <time>2018-03-22T07:50:05Z</time>
      </trkpt>
      <trkpt lat="46.78981" lon="-1.62359">
        <ele>47</ele>
        <time>2018-03-22T07:51:05Z</time>
      </trkpt>
      <trkpt lat="46.78953" lon="-1.62355">
        <ele>47</ele>
        <time>2018-03-22T07:52:05Z</time>
      </trkpt>
      <trkpt lat="46.78932" lon="-1.62351">
        <ele>48</ele>
        <time>2018-03-22T07:53:05Z</time>
      </trkpt>
      <trkpt lat="46.78906" lon="-1.62347">
        <ele>48</ele>
        <time>2018-03-22T07:54:05Z</time>
      </trkpt>
      <trkpt lat="46.78866" lon="-1.62342">
        <ele>47</ele>
        <time>2018-03-22T07:55:05Z</time>
      </trkpt>
      <trkpt lat="46.78854" lon="-1.6234">
        <ele>47</ele>
        <time>2018-03-22T07:56:05Z</time>
      </trkpt>
      <trkpt lat="46.78836" lon="-1.62337">
        <ele>46</ele>
        <time>2018-03-22T07:57:05Z</time>
      </trkpt>
      <trkpt lat="46.78797" lon="-1.62333">
        <ele>46</ele>
        <time>2018-03-22T07:58:05Z</time>
      </trkpt>
      <trkpt lat="46.78793" lon="-1.62333">
        <ele>46</ele>
        <time>2018-03-22T07:59:05Z</time>
      </trkpt>
      <trkpt lat="46.78736" lon="-1.62325">
        <ele>45</ele>
        <time>2018-03-22T08:00:05Z</time>
      </trkpt>
      <trkpt lat="46.78712" lon="-1.62322">
        <ele>45</ele>
        <time>2018-03-22T08:01:05Z</time>
      </trkpt>
      <trkpt lat="46.78694" lon="-1.6232">
        <ele>45</ele>
        <time>2018-03-22T08:02:05Z</time>
      </trkpt>
      <trkpt lat="46.7868" lon="-1.62319">
        <ele>45</ele>
        <time>2018-03-22T08:03:05Z</time>
      </trkpt>
      <trkpt lat="46.78651" lon="-1.62315">
        <ele>46</ele>
        <time>2018-03-22T08:04:05Z</time>
      </trkpt>
      <trkpt lat="46.78614" lon="-1.62311">
        <ele>46</ele>
        <time>2018-03-22T08:05:05Z</time>
      </trkpt>
      <trkpt lat="46.78559" lon="-1.62304">
        <ele>47</ele>
        <time>2018-03-22T08:06:05Z</time>
      </trkpt>
      <trkpt lat="46.78508" lon="-1.62298">
        <ele>49</ele>
        <time>2018-03-22T08:07:05Z</time>
      </trkpt>
      <trkpt lat="46.78477" lon="-1.62293">
        <ele>49</ele>
        <time>2018-03-22T08:08:05Z</time>
      </trkpt>
      <trkpt lat="46.78444" lon="-1.62289">
        <ele>49</ele>
        <time>2018-03-22T08:09:05Z</time>
      </trkpt>
      <trkpt lat="46.78417" lon="-1.62287">
        <ele>48</ele>
        <time>2018-03-22T08:10:05Z</time>
      </trkpt>
      <trkpt lat="46.78401" lon="-1.62287">
        <ele>48</ele>
        <time>2018-03-22T08:11:05Z</time>
      </trkpt>
      <trkpt lat="46.78395" lon="-1.62286">
        <ele>48</ele>
        <time>2018-03-22T08:12:05Z</time>
      </trkpt>
      <trkpt lat="46.78393" lon="-1.62286">
        <ele>48</ele>
        <time>2018-03-22T08:13:05Z</time>
      </trkpt>
      <trkpt lat="46.78392" lon="-1.62285">
        <ele>48</ele>
        <time>2018-03-22T08:14:05Z</time>
      </trkpt>
      <trkpt lat="46.78391" lon="-1.62285">
        <ele>48</ele>
        <time>2018-03-22T08:15:05Z</time>
      </trkpt>
      <trkpt lat="46.7839" lon="-1.62283">
        <ele>48</ele>
        <time>2018-03-22T08:16:05Z</time>
      </trkpt>
      <trkpt lat="46.78389" lon="-1.62281">
        <ele>48</ele>
        <time>2018-03-22T08:17:05Z</time>
      </trkpt>
      <trkpt lat="46.78389" lon="-1.62281">
        <ele>48</ele>
        <time>2018-03-22T08:18:05Z</time>
      </trkpt>
      <trkpt lat="46.78377" lon="-1.62291">
        <ele>47</ele>
        <time>2018-03-22T08:19:05Z</time>
      </trkpt>
      <trkpt lat="46.78367" lon="-1.62297">
        <ele>47</ele>
        <time>2018-03-22T08:20:05Z</time>
      </trkpt>
      <trkpt lat="46.78357" lon="-1.62306">
        <ele>47</ele>
        <time>2018-03-22T08:21:05Z</time>
      </trkpt>
      <trkpt lat="46.7835" lon="-1.62314">
        <ele>47</ele>
        <time>2018-03-22T08:22:05Z</time>
      </trkpt>
      <trkpt lat="46.78345" lon="-1.62326">
        <ele>46</ele>
        <time>2018-03-22T08:23:05Z</time>
      </trkpt>
      <trkpt lat="46.78339" lon="-1.62341">
        <ele>46</ele>
        <time>2018-03-22T08:24:05Z</time>
      </trkpt>
      <trkpt lat="46.78336" lon="-1.62349">
        <ele>46</ele>
        <time>2018-03-22T08:25:05Z</time>
      </trkpt>
      <trkpt lat="46.78334" lon="-1.62363">
        <ele>46</ele>
        <time>2018-03-22T08:26:05Z</time>
      </trkpt>
      <trkpt lat="46.78333" lon="-1.62376">
        <ele>45</ele>
        <time>2018-03-22T08:27:05Z</time>
      </trkpt>
      <trkpt lat="46.78333" lon="-1.62392">
        <ele>45</ele>
        <time>2018-03-22T08:28:05Z</time>
      </trkpt>
      <trkpt lat="46.78333" lon="-1.62415">
        <ele>45</ele>
        <time>2018-03-22T08:29:05Z</time>
      </trkpt>
      <trkpt lat="46.78333" lon="-1.62429">
        <ele>45</ele>
        <time>2018-03-22T08:30:05Z</time>
      </trkpt>
      <trkpt lat="46.78332" lon="-1.62494">
        <ele>44</ele>
        <time>2018-03-22T08:31:05Z</time>
      </trkpt>
      <trkpt lat="46.7833" lon="-1.62593">
        <ele>45</ele>
        <time>2018-03-22T08:32:05Z</time>
      </trkpt>
      <trkpt lat="46.78329" lon="-1.6264">
        <ele>47</ele>
        <time>2018-03-22T08:33:05Z</time>
      </trkpt>
      <trkpt lat="46.78329" lon="-1.62656">
        <ele>48</ele>
        <time>2018-03-22T08:34:05Z</time>
      </trkpt>
      <trkpt lat="46.7833" lon="-1.62675">
        <ele>49</ele>
        <time>2018-03-22T08:35:05Z</time>
      </trkpt>
      <trkpt lat="46.78332" lon="-1.62695">
        <ele>49</ele>
        <time>2018-03-22T08:36:05Z</time>
      </trkpt>
      <trkpt lat="46.78338" lon="-1.6274">
        <ele>48</ele>
        <time>2018-03-22T08:37:05Z</time>
      </trkpt>
      <trkpt lat="46.78344" lon="-1.62776">
        <ele>47</ele>
        <time>2018-03-22T08:38:05Z</time>
      </trkpt>
      <trkpt lat="46.7835" lon="-1.62802">
        <ele>46</ele>
        <time>2018-03-22T08:39:05Z</time>
      </trkpt>
      <trkpt lat="46.78365" lon="-1.62859">
        <ele>44</ele>
        <time>2018-03-22T08:40:05Z</time>
      </trkpt>
      <trkpt lat="46.78372" lon="-1.6288">
        <ele>43</ele>
        <time>2018-03-22T08:41:05Z</time>
      </trkpt>
      <trkpt lat="46.78379" lon="-1.62902">
        <ele>43</ele>
        <time>2018-03-22T08:42:05Z</time>
      </trkpt>
      <trkpt lat="46.7838" lon="-1.62906">
        <ele>43</ele>
        <time>2018-03-22T08:43:05Z</time>
      </trkpt>
      <trkpt lat="46.78391" lon="-1.62932">
        <ele>42</ele>
        <time>2018-03-22T08:44:05Z</time>
      </trkpt>
      <trkpt lat="46.78423" lon="-1.62999">
        <ele>40</ele>
        <time>2018-03-22T08:45:05Z</time>
      </trkpt>
      <trkpt lat="46.78443" lon="-1.63041">
        <ele>38</ele>
        <time>2018-03-22T08:46:05Z</time>
      </trkpt>
      <trkpt lat="46.78452" lon="-1.63066">
        <ele>37</ele>
        <time>2018-03-22T08:47:05Z</time>
      </trkpt>
      <trkpt lat="46.78453" lon="-1.63072">
        <ele>37</ele>
        <time>2018-03-22T08:48:05Z</time>
      </trkpt>
      <trkpt lat="46.78454" lon="-1.63085">
        <ele>36</ele>
        <time>2018-03-22T08:49:05Z</time>
      </trkpt>
      <trkpt lat="46.78455" lon="-1.63106">
        <ele>36</ele>
        <time>2018-03-22T08:50:05Z</time>
      </trkpt>
      <trkpt lat="46.78455" lon="-1.63166">
        <ele>33</ele>
        <time>2018-03-22T08:51:05Z</time>
      </trkpt>
      <trkpt lat="46.78456" lon="-1.63203">
        <ele>33</ele>
        <time>2018-03-22T08:52:05Z</time>
      </trkpt>
      <trkpt lat="46.78458" lon="-1.63252">
        <ele>32</ele>
        <time>2018-03-22T08:53:05Z</time>
      </trkpt>
      <trkpt lat="46.78459" lon="-1.63287">
        <ele>33</ele>
        <time>2018-03-22T08:54:05Z</time>
      </trkpt>
      <trkpt lat="46.78464" lon="-1.6333">
        <ele>33</ele>
        <time>2018-03-22T08:55:05Z</time>
      </trkpt>
      <trkpt lat="46.78469" lon="-1.63374">
        <ele>33</ele>
        <time>2018-03-22T08:56:05Z</time>
      </trkpt>
      <trkpt lat="46.78473" lon="-1.63399">
        <ele>32</ele>
        <time>2018-03-22T08:57:05Z</time>
      </trkpt>
      <trkpt lat="46.78477" lon="-1.63418">
        <ele>32</ele>
        <time>2018-03-22T08:58:05Z</time>
      </trkpt>
      <trkpt lat="46.78483" lon="-1.63441">
        <ele>33</ele>
        <time>2018-03-22T08:59:05Z</time>
      </trkpt>
      <trkpt lat="46.78494" lon="-1.63476">
        <ele>33</ele>
        <time>2018-03-22T09:00:05Z</time>
      </trkpt>
      <trkpt lat="46.78499" lon="-1.63492">
        <ele>33</ele>
        <time>2018-03-22T09:01:05Z</time>
      </trkpt>
      <trkpt lat="46.78504" lon="-1.63511">
        <ele>33</ele>
        <time>2018-03-22T09:02:05Z</time>
      </trkpt>
      <trkpt lat="46.78507" lon="-1.63528">
        <ele>33</ele>
        <time>2018-03-22T09:03:05Z</time>
      </trkpt>
      <trkpt lat="46.7851" lon="-1.63552">
        <ele>33</ele>
        <time>2018-03-22T09:04:05Z</time>
      </trkpt>
      <trkpt lat="46.7851" lon="-1.63558">
        <ele>33</ele>
        <time>2018-03-22T09:05:05Z</time>
      </trkpt>
      <trkpt lat="46.78511" lon="-1.6357">
        <ele>33</ele>
        <time>2018-03-22T09:06:05Z</time>
      </trkpt>
      <trkpt lat="46.7851" lon="-1.63581">
        <ele>33</ele>
        <time>2018-03-22T09:07:05Z</time>
      </trkpt>
      <trkpt lat="46.7851" lon="-1.63597">
        <ele>33</ele>
        <time>2018-03-22T09:08:05Z</time>
      </trkpt>
      <trkpt lat="46.78507" lon="-1.63623">
        <ele>32</ele>
        <time>2018-03-22T09:09:05Z</time>
      </trkpt>
      <trkpt lat="46.78503" lon="-1.63659">
        <ele>31</ele>
        <time>2018-03-22T09:10:05Z</time>
      </trkpt>
      <trkpt lat="46.78502" lon="-1.63675">
        <ele>31</ele>
        <time>2018-03-22T09:11:05Z</time>
      </trkpt>
      <trkpt lat="46.78502" lon="-1.63688">
        <ele>31</ele>
        <time>2018-03-22T09:12:05Z</time>
      </trkpt>
      <trkpt lat="46.78502" lon="-1.63704">
        <ele>31</ele>
        <time>2018-03-22T09:13:05Z</time>
      </trkpt>
      <trkpt lat="46.78503" lon="-1.63718">
        <ele>30</ele>
        <time>2018-03-22T09:14:05Z</time>
      </trkpt>
      <trkpt lat="46.78503" lon="-1.63719">
        <ele>30</ele>
        <time>2018-03-22T09:15:05Z</time>
      </trkpt>
      <trkpt lat="46.78507" lon="-1.63742">
        <ele>30</ele>
        <time>2018-03-22T09:16:05Z</time>
      </trkpt>
      <trkpt lat="46.78513" lon="-1.63778">
        <ele>30</ele>
        <time>2018-03-22T09:17:05Z</time>
      </trkpt>
      <trkpt lat="46.78515" lon="-1.63794">
        <ele>30</ele>
        <time>2018-03-22T09:18:05Z</time>
      </trkpt>
      <trkpt lat="46.78517" lon="-1.63809">
        <ele>30</ele>
        <time>2018-03-22T09:19:05Z</time>
      </trkpt>
      <trkpt lat="46.78517" lon="-1.63822">
        <ele>30</ele>
        <time>2018-03-22T09:20:05Z</time>
      </trkpt>
      <trkpt lat="46.78517" lon="-1.63835">
        <ele>30</ele>
        <time>2018-03-22T09:21:05Z</time>
      </trkpt>
      <trkpt lat="46.78517" lon="-1.63852">
        <ele>30</ele>
        <time>2018-03-22T09:22:05Z</time>
      </trkpt>
      <trkpt lat="46.78517" lon="-1.63863">
        <ele>30</ele>
        <time>2018-03-22T09:23:05Z</time>
      </trkpt>
      <trkpt lat="46.78515" lon="-1.63883">
        <ele>31</ele>
        <time>2018-03-22T09:24:05Z</time>
      </trkpt>
      <trkpt lat="46.78512" lon="-1.63916">
        <ele>31</ele>
        <time>2018-03-22T09:25:05Z</time>
      </trkpt>
      <trkpt lat="46.7851" lon="-1.63928">
        <ele>31</ele>
        <time>2018-03-22T09:26:05Z</time>
      </trkpt>
      <trkpt lat="46.78509" lon="-1.63938">
        <ele>31</ele>
        <time>2018-03-22T09:27:05Z</time>
      </trkpt>
      <trkpt lat="46.78506" lon="-1.6395">
        <ele>31</ele>
        <time>2018-03-22T09:28:05Z</time>
      </trkpt>
      <trkpt lat="46.78503" lon="-1.63962">
        <ele>31</ele>
        <time>2018-03-22T09:29:05Z</time>
      </trkpt>
      <trkpt lat="46.78499" lon="-1.63973">
        <ele>31</ele>
        <time>2018-03-22T09:30:05Z</time>
      </trkpt>
      <trkpt lat="46.78494" lon="-1.6399">
        <ele>31</ele>
        <time>2018-03-22T09:31:05Z</time>
      </trkpt>
      <trkpt lat="46.78484" lon="-1.64019">
        <ele>31</ele>
        <time>2018-03-22T09:32:05Z</time>
      </trkpt>
      <trkpt lat="46.78465" lon="-1.64079">
        <ele>30</ele>
        <time>2018-03-22T09:33:05Z</time>
      </trkpt>
      <trkpt lat="46.78455" lon="-1.6411">
        <ele>31</ele>
        <time>2018-03-22T09:34:05Z</time>
      </trkpt>
      <trkpt lat="46.7845" lon="-1.64128">
        <ele>31</ele>
        <time>2018-03-22T09:35:05Z</time>
      </trkpt>
      <trkpt lat="46.78428" lon="-1.64197">
        <ele>32</ele>
        <time>2018-03-22T09:36:05Z</time>
      </trkpt>
      <trkpt lat="46.78405" lon="-1.64266">
        <ele>33</ele>
        <time>2018-03-22T09:37:05Z</time>
      </trkpt>
      <trkpt lat="46.78402" lon="-1.64276">
        <ele>32</ele>
        <time>2018-03-22T09:38:05Z</time>
      </trkpt>
      <trkpt lat="46.78394" lon="-1.64296">
        <ele>32</ele>
        <time>2018-03-22T09:39:05Z</time>
      </trkpt>
      <trkpt lat="46.78385" lon="-1.64317">
        <ele>32</ele>
        <time>2018-03-22T09:40:05Z</time>
      </trkpt>
      <trkpt lat="46.78375" lon="-1.64346">
        <ele>32</ele>
        <time>2018-03-22T09:41:05Z</time>
      </trkpt>
      <trkpt lat="46.7836" lon="-1.64383">
        <ele>32</ele>
        <time>2018-03-22T09:42:05Z</time>
      </trkpt>
      <trkpt lat="46.78339" lon="-1.64434">
        <ele>32</ele>
        <time>2018-03-22T09:43:05Z</time>
      </trkpt>
      <trkpt lat="46.7833" lon="-1.64458">
        <ele>31</ele>
        <time>2018-03-22T09:44:05Z</time>
      </trkpt>
      <trkpt lat="46.78324" lon="-1.64472">
        <ele>31</ele>
        <time>2018-03-22T09:45:05Z</time>
      </trkpt>
      <trkpt lat="46.78319" lon="-1.64485">
        <ele>31</ele>
        <time>2018-03-22T09:46:05Z</time>
      </trkpt>
      <trkpt lat="46.78313" lon="-1.64498">
        <ele>31</ele>
        <time>2018-03-22T09:47:05Z</time>
      </trkpt>
      <trkpt lat="46.78307" lon="-1.64511">
        <ele>31</ele>
        <time>2018-03-22T09:48:05Z</time>
      </trkpt>
      <trkpt lat="46.78301" lon="-1.64524">
        <ele>31</ele>
        <time>2018-03-22T09:49:05Z</time>
      </trkpt>
      <trkpt lat="46.78291" lon="-1.64545">
        <ele>31</ele>
        <time>2018-03-22T09:50:05Z</time>
      </trkpt>
      <trkpt lat="46.7828" lon="-1.64567">
        <ele>31</ele>
        <time>2018-03-22T09:51:05Z</time>
      </trkpt>
      <trkpt lat="46.7826" lon="-1.64603">
        <ele>32</ele>
        <time>2018-03-22T09:52:05Z</time>
      </trkpt>
      <trkpt lat="46.78239" lon="-1.64643">
        <ele>31</ele>
        <time>2018-03-22T09:53:05Z</time>
      </trkpt>
      <trkpt lat="46.78214" lon="-1.64697">
        <ele>30</ele>
        <time>2018-03-22T09:54:05Z</time>
      </trkpt>
      <trkpt lat="46.78196" lon="-1.64736">
        <ele>29</ele>
        <time>2018-03-22T09:55:05Z</time>
      </trkpt>
      <trkpt lat="46.78175" lon="-1.64781">
        <ele>27</ele>
        <time>2018-03-22T09:56:05Z</time>
      </trkpt>
      <trkpt lat="46.7815" lon="-1.64832">
        <ele>26</ele>
        <time>2018-03-22T09:57:05Z</time>
      </trkpt>
      <trkpt lat="46.78124" lon="-1.64882">
        <ele>27</ele>
        <time>2018-03-22T09:58:05Z</time>
      </trkpt>
      <trkpt lat="46.78102" lon="-1.64927">
        <ele>27</ele>
        <time>2018-03-22T09:59:05Z</time>
      </trkpt>
      <trkpt lat="46.78082" lon="-1.64973">
        <ele>27</ele>
        <time>2018-03-22T10:00:05Z</time>
      </trkpt>
      <trkpt lat="46.78066" lon="-1.65008">
        <ele>27</ele>
        <time>2018-03-22T10:01:05Z</time>
      </trkpt>
      <trkpt lat="46.78054" lon="-1.65035">
        <ele>26</ele>
        <time>2018-03-22T10:02:05Z</time>
      </trkpt>
      <trkpt lat="46.78041" lon="-1.65064">
        <ele>26</ele>
        <time>2018-03-22T10:03:05Z</time>
      </trkpt>
      <trkpt lat="46.78027" lon="-1.65099">
        <ele>26</ele>
        <time>2018-03-22T10:04:05Z</time>
      </trkpt>
      <trkpt lat="46.78014" lon="-1.65132">
        <ele>26</ele>
        <time>2018-03-22T10:05:05Z</time>
      </trkpt>
      <trkpt lat="46.7801" lon="-1.65141">
        <ele>26</ele>
        <time>2018-03-22T10:06:05Z</time>
      </trkpt>
      <trkpt lat="46.78005" lon="-1.65155">
        <ele>26</ele>
        <time>2018-03-22T10:07:05Z</time>
      </trkpt>
      <trkpt lat="46.77985" lon="-1.65207">
        <ele>25</ele>
        <time>2018-03-22T10:08:05Z</time>
      </trkpt>
      <trkpt lat="46.7797" lon="-1.6525">
        <ele>25</ele>
        <time>2018-03-22T10:09:05Z</time>
      </trkpt>
      <trkpt lat="46.77956" lon="-1.65291">
        <ele>25</ele>
        <time>2018-03-22T10:10:05Z</time>
      </trkpt>
      <trkpt lat="46.77945" lon="-1.65323">
        <ele>26</ele>
        <time>2018-03-22T10:11:05Z</time>
      </trkpt>
      <trkpt lat="46.77931" lon="-1.6536">
        <ele>26</ele>
        <time>2018-03-22T10:12:05Z</time>
      </trkpt>
      <trkpt lat="46.77909" lon="-1.65419">
        <ele>26</ele>
        <time>2018-03-22T10:13:05Z</time>
      </trkpt>
      <trkpt lat="46.77863" lon="-1.65543">
        <ele>27</ele>
        <time>2018-03-22T10:14:05Z</time>
      </trkpt>
      <trkpt lat="46.7784" lon="-1.65604">
        <ele>26</ele>
        <time>2018-03-22T10:15:05Z</time>
      </trkpt>
      <trkpt lat="46.77838" lon="-1.65608">
        <ele>26</ele>
        <time>2018-03-22T10:16:05Z</time>
      </trkpt>
      <trkpt lat="46.77837" lon="-1.65612">
        <ele>26</ele>
        <time>2018-03-22T10:17:05Z</time>
      </trkpt>
      <trkpt lat="46.77836" lon="-1.65616">
        <ele>26</ele>
        <time>2018-03-22T10:18:05Z</time>
      </trkpt>
      <trkpt lat="46.77834" lon="-1.65627">
        <ele>25</ele>
        <time>2018-03-22T10:19:05Z</time>
      </trkpt>
      <trkpt lat="46.7783" lon="-1.65632">
        <ele>25</ele>
        <time>2018-03-22T10:20:05Z</time>
      </trkpt>
      <trkpt lat="46.77823" lon="-1.65641">
        <ele>25</ele>
        <time>2018-03-22T10:21:05Z</time>
      </trkpt>
      <trkpt lat="46.77816" lon="-1.65648">
        <ele>25</ele>
        <time>2018-03-22T10:22:05Z</time>
      </trkpt>
      <trkpt lat="46.77808" lon="-1.65661">
        <ele>25</ele>
        <time>2018-03-22T10:23:05Z</time>
      </trkpt>
      <trkpt lat="46.77794" lon="-1.65683">
        <ele>24</ele>
        <time>2018-03-22T10:24:05Z</time>
      </trkpt>
      <trkpt lat="46.77777" lon="-1.65712">
        <ele>24</ele>
        <time>2018-03-22T10:25:05Z</time>
      </trkpt>
      <trkpt lat="46.77755" lon="-1.65746">
        <ele>24</ele>
        <time>2018-03-22T10:26:05Z</time>
      </trkpt>
      <trkpt lat="46.77727" lon="-1.65788">
        <ele>24</ele>
        <time>2018-03-22T10:27:05Z</time>
      </trkpt>
      <trkpt lat="46.77705" lon="-1.65823">
        <ele>24</ele>
        <time>2018-03-22T10:28:05Z</time>
      </trkpt>
      <trkpt lat="46.77676" lon="-1.65869">
        <ele>24</ele>
        <time>2018-03-22T10:29:05Z</time>
      </trkpt>
      <trkpt lat="46.77651" lon="-1.6591">
        <ele>24</ele>
        <time>2018-03-22T10:30:05Z</time>
      </trkpt>
      <trkpt lat="46.77629" lon="-1.65941">
        <ele>23</ele>
        <time>2018-03-22T10:31:05Z</time>
      </trkpt>
      <trkpt lat="46.77616" lon="-1.65958">
        <ele>23</ele>
        <time>2018-03-22T10:32:05Z</time>
      </trkpt>
      <trkpt lat="46.77606" lon="-1.65972">
        <ele>22</ele>
        <time>2018-03-22T10:33:05Z</time>
      </trkpt>
      <trkpt lat="46.77591" lon="-1.6599">
        <ele>21</ele>
        <time>2018-03-22T10:34:05Z</time>
      </trkpt>
      <trkpt lat="46.77563" lon="-1.66018">
        <ele>21</ele>
        <time>2018-03-22T10:35:05Z</time>
      </trkpt>
      <trkpt lat="46.77562" lon="-1.66019">
        <ele>21</ele>
        <time>2018-03-22T10:36:05Z</time>
      </trkpt>
      <trkpt lat="46.77533" lon="-1.66055">
        <ele>21</ele>
        <time>2018-03-22T10:37:05Z</time>
      </trkpt>
      <trkpt lat="46.77532" lon="-1.66056">
        <ele>21</ele>
        <time>2018-03-22T10:38:05Z</time>
      </trkpt>
      <trkpt lat="46.77507" lon="-1.66087">
        <ele>21</ele>
        <time>2018-03-22T10:39:05Z</time>
      </trkpt>
      <trkpt lat="46.77486" lon="-1.66112">
        <ele>20</ele>
        <time>2018-03-22T10:40:05Z</time>
      </trkpt>
      <trkpt lat="46.7748" lon="-1.66124">
        <ele>20</ele>
        <time>2018-03-22T10:41:05Z</time>
      </trkpt>
      <trkpt lat="46.77469" lon="-1.66142">
        <ele>19</ele>
        <time>2018-03-22T10:42:05Z</time>
      </trkpt>
      <trkpt lat="46.77463" lon="-1.66159">
        <ele>19</ele>
        <time>2018-03-22T10:43:05Z</time>
      </trkpt>
      <trkpt lat="46.77459" lon="-1.66172">
        <ele>18</ele>
        <time>2018-03-22T10:44:05Z</time>
      </trkpt>
      <trkpt lat="46.77457" lon="-1.66178">
        <ele>18</ele>
        <time>2018-03-22T10:45:05Z</time>
      </trkpt>
      <trkpt lat="46.77454" lon="-1.6619">
        <ele>18</ele>
        <time>2018-03-22T10:46:05Z</time>
      </trkpt>
      <trkpt lat="46.77452" lon="-1.66207">
        <ele>18</ele>
        <time>2018-03-22T10:47:05Z</time>
      </trkpt>
      <trkpt lat="46.7745" lon="-1.66226">
        <ele>17</ele>
        <time>2018-03-22T10:48:05Z</time>
      </trkpt>
      <trkpt lat="46.77449" lon="-1.66245">
        <ele>17</ele>
        <time>2018-03-22T10:49:05Z</time>
      </trkpt>
      <trkpt lat="46.77448" lon="-1.66253">
        <ele>17</ele>
        <time>2018-03-22T10:50:05Z</time>
      </trkpt>
      <trkpt lat="46.77447" lon="-1.66278">
        <ele>16</ele>
        <time>2018-03-22T10:51:05Z</time>
      </trkpt>
      <trkpt lat="46.77446" lon="-1.6628">
        <ele>16</ele>
        <time>2018-03-22T10:52:05Z</time>
      </trkpt>
      <trkpt lat="46.77446" lon="-1.66283">
        <ele>16</ele>
        <time>2018-03-22T10:53:05Z</time>
      </trkpt>
      <trkpt lat="46.77446" lon="-1.66288">
        <ele>16</ele>
        <time>2018-03-22T10:54:05Z</time>
      </trkpt>
      <trkpt lat="46.77446" lon="-1.66289">
        <ele>16</ele>
        <time>2018-03-22T10:55:05Z</time>
      </trkpt>
      <trkpt lat="46.77444" lon="-1.66317">
        <ele>15</ele>
        <time>2018-03-22T10:56:05Z</time>
      </trkpt>
      <trkpt lat="46.77444" lon="-1.6632">
        <ele>15</ele>
        <time>2018-03-22T10:57:05Z</time>
      </trkpt>
      <trkpt lat="46.77442" lon="-1.66348">
        <ele>15</ele>
        <time>2018-03-22T10:58:05Z</time>
      </trkpt>
      <trkpt lat="46.77439" lon="-1.66385">
        <ele>15</ele>
        <time>2018-03-22T10:59:05Z</time>
      </trkpt>
      <trkpt lat="46.77435" lon="-1.66437">
        <ele>16</ele>
        <time>2018-03-22T11:00:05Z</time>
      </trkpt>
      <trkpt lat="46.77432" lon="-1.66478">
        <ele>18</ele>
        <time>2018-03-22T11:01:05Z</time>
      </trkpt>
      <trkpt lat="46.7743" lon="-1.66493">
        <ele>19</ele>
        <time>2018-03-22T11:02:05Z</time>
      </trkpt>
      <trkpt lat="46.77429" lon="-1.66511">
        <ele>20</ele>
        <time>2018-03-22T11:03:05Z</time>
      </trkpt>
      <trkpt lat="46.77426" lon="-1.66556">
        <ele>21</ele>
        <time>2018-03-22T11:04:05Z</time>
      </trkpt>
      <trkpt lat="46.77422" lon="-1.66598">
        <ele>23</ele>
        <time>2018-03-22T11:05:05Z</time>
      </trkpt>
      <trkpt lat="46.77422" lon="-1.66602">
        <ele>23</ele>
        <time>2018-03-22T11:06:05Z</time>
      </trkpt>
      <trkpt lat="46.77419" lon="-1.66643">
        <ele>24</ele>
        <time>2018-03-22T11:07:05Z</time>
      </trkpt>
      <trkpt lat="46.77418" lon="-1.6668">
        <ele>25</ele>
        <time>2018-03-22T11:08:05Z</time>
      </trkpt>
      <trkpt lat="46.77415" lon="-1.66714">
        <ele>25</ele>
        <time>2018-03-22T11:09:05Z</time>
      </trkpt>
      <trkpt lat="46.77412" lon="-1.66734">
        <ele>25</ele>
        <time>2018-03-22T11:10:05Z</time>
      </trkpt>
      <trkpt lat="46.7741" lon="-1.66746">
        <ele>24</ele>
        <time>2018-03-22T11:11:05Z</time>
      </trkpt>
      <trkpt lat="46.77403" lon="-1.6677">
        <ele>24</ele>
        <time>2018-03-22T11:12:05Z</time>
      </trkpt>
      <trkpt lat="46.77399" lon="-1.66786">
        <ele>25</ele>
        <time>2018-03-22T11:13:05Z</time>
      </trkpt>
      <trkpt lat="46.77397" lon="-1.66794">
        <ele>25</ele>
        <time>2018-03-22T11:14:05Z</time>
      </trkpt>
      <trkpt lat="46.77395" lon="-1.66802">
        <ele>25</ele>
        <time>2018-03-22T11:15:05Z</time>
      </trkpt>
      <trkpt lat="46.77392" lon="-1.66812">
        <ele>25</ele>
        <time>2018-03-22T11:16:05Z</time>
      </trkpt>
      <trkpt lat="46.77389" lon="-1.66827">
        <ele>26</ele>
        <time>2018-03-22T11:17:05Z</time>
      </trkpt>
      <trkpt lat="46.77385" lon="-1.66842">
        <ele>26</ele>
        <time>2018-03-22T11:18:05Z</time>
      </trkpt>
      <trkpt lat="46.7738" lon="-1.66856">
        <ele>26</ele>
        <time>2018-03-22T11:19:05Z</time>
      </trkpt>
      <trkpt lat="46.77376" lon="-1.66869">
        <ele>26</ele>
        <time>2018-03-22T11:20:05Z</time>
      </trkpt>
      <trkpt lat="46.77372" lon="-1.66881">
        <ele>27</ele>
        <time>2018-03-22T11:21:05Z</time>
      </trkpt>
      <trkpt lat="46.77367" lon="-1.66893">
        <ele>27</ele>
        <time>2018-03-22T11:22:05Z</time>
      </trkpt>
      <trkpt lat="46.77362" lon="-1.66904">
        <ele>27</ele>
        <time>2018-03-22T11:23:05Z</time>
      </trkpt>
      <trkpt lat="46.77356" lon="-1.66916">
        <ele>27</ele>
        <time>2018-03-22T11:24:05Z</time>
      </trkpt>
      <trkpt lat="46.7735" lon="-1.66928">
        <ele>27</ele>
        <time>2018-03-22T11:25:05Z</time>
      </trkpt>
      <trkpt lat="46.77343" lon="-1.66939">
        <ele>27</ele>
        <time>2018-03-22T11:26:05Z</time>
      </trkpt>
      <trkpt lat="46.77337" lon="-1.6695">
        <ele>27</ele>
        <time>2018-03-22T11:27:05Z</time>
      </trkpt>
      <trkpt lat="46.7733" lon="-1.66961">
        <ele>28</ele>
        <time>2018-03-22T11:28:05Z</time>
      </trkpt>
      <trkpt lat="46.77322" lon="-1.66972">
        <ele>28</ele>
        <time>2018-03-22T11:29:05Z</time>
      </trkpt>
      <trkpt lat="46.77302" lon="-1.66996">
        <ele>28</ele>
        <time>2018-03-22T11:30:05Z</time>
      </trkpt>
      <trkpt lat="46.77297" lon="-1.67">
        <ele>29</ele>
        <time>2018-03-22T11:31:05Z</time>
      </trkpt>
      <trkpt lat="46.77295" lon="-1.67002">
        <ele>29</ele>
        <time>2018-03-22T11:32:05Z</time>
      </trkpt>
      <trkpt lat="46.77288" lon="-1.6701">
        <ele>29</ele>
        <time>2018-03-22T11:33:05Z</time>
      </trkpt>
      <trkpt lat="46.77279" lon="-1.6702">
        <ele>29</ele>
        <time>2018-03-22T11:34:05Z</time>
      </trkpt>
      <trkpt lat="46.7727" lon="-1.6703">
        <ele>29</ele>
        <time>2018-03-22T11:35:05Z</time>
      </trkpt>
      <trkpt lat="46.7726" lon="-1.67041">
        <ele>29</ele>
        <time>2018-03-22T11:36:05Z</time>
      </trkpt>
      <trkpt lat="46.77251" lon="-1.67051">
        <ele>29</ele>
        <time>2018-03-22T11:37:05Z</time>
      </trkpt>
      <trkpt lat="46.77245" lon="-1.67058">
        <ele>30</ele>
        <time>2018-03-22T11:38:05Z</time>
      </trkpt>
      <trkpt lat="46.77242" lon="-1.67061">
        <ele>30</ele>
        <time>2018-03-22T11:39:05Z</time>
      </trkpt>
      <trkpt lat="46.77236" lon="-1.67067">
        <ele>30</ele>
        <time>2018-03-22T11:40:05Z</time>
      </trkpt>
      <trkpt lat="46.77233" lon="-1.67071">
        <ele>30</ele>
        <time>2018-03-22T11:41:05Z</time>
      </trkpt>
      <trkpt lat="46.77216" lon="-1.6709">
        <ele>31</ele>
        <time>2018-03-22T11:42:05Z</time>
      </trkpt>
      <trkpt lat="46.77205" lon="-1.67102">
        <ele>32</ele>
        <time>2018-03-22T11:43:05Z</time>
      </trkpt>
      <trkpt lat="46.77201" lon="-1.67108">
        <ele>32</ele>
        <time>2018-03-22T11:44:05Z</time>
      </trkpt>
      <trkpt lat="46.77194" lon="-1.67122">
        <ele>32</ele>
        <time>2018-03-22T11:45:05Z</time>
      </trkpt>
      <trkpt lat="46.77189" lon="-1.6713">
        <ele>32</ele>
        <time>2018-03-22T11:46:05Z</time>
      </trkpt>
      <trkpt lat="46.77189" lon="-1.6713">
        <ele>32</ele>
        <time>2018-03-22T11:47:05Z</time>
      </trkpt>
      <trkpt lat="46.77189" lon="-1.67131">
        <ele>32</ele>
        <time>2018-03-22T11:48:05Z</time>
      </trkpt>
      <trkpt lat="46.7719" lon="-1.67132">
        <ele>32</ele>
        <time>2018-03-22T11:49:05Z</time>
      </trkpt>
      <trkpt lat="46.7719" lon="-1.67133">
        <ele>32</ele>
        <time>2018-03-22T11:50:05Z</time>
      </trkpt>
      <trkpt lat="46.7719" lon="-1.67135">
        <ele>32</ele>
        <time>2018-03-22T11:51:05Z</time>
      </trkpt>
      <trkpt lat="46.7719" lon="-1.67136">
        <ele>32</ele>
        <time>2018-03-22T11:52:05Z</time>
      </trkpt>
      <trkpt lat="46.7719" lon="-1.67137">
        <ele>32</ele>
        <time>2018-03-22T11:53:05Z</time>
      </trkpt>
      <trkpt lat="46.7719" lon="-1.67138">
        <ele>32</ele>
        <time>2018-03-22T11:54:05Z</time>
      </trkpt>
      <trkpt lat="46.77191" lon="-1.67139">
        <ele>32</ele>
        <time>2018-03-22T11:55:05Z</time>
      </trkpt>
      <trkpt lat="46.77191" lon="-1.67142">
        <ele>32</ele>
        <time>2018-03-22T11:56:05Z</time>
      </trkpt>
      <trkpt lat="46.7719" lon="-1.67145">
        <ele>32</ele>
        <time>2018-03-22T11:57:05Z</time>
      </trkpt>
      <trkpt lat="46.7719" lon="-1.67147">
        <ele>32</ele>
        <time>2018-03-22T11:58:05Z</time>
      </trkpt>
      <trkpt lat="46.7719" lon="-1.6715">
        <ele>32</ele>
        <time>2018-03-22T11:59:05Z</time>
      </trkpt>
      <trkpt lat="46.77189" lon="-1.67152">
        <ele>32</ele>
        <time>2018-03-22T12:00:05Z</time>
      </trkpt>
      <trkpt lat="46.77188" lon="-1.67155">
        <ele>32</ele>
        <time>2018-03-22T12:01:05Z</time>
      </trkpt>
      <trkpt lat="46.77187" lon="-1.67157">
        <ele>32</ele>
        <time>2018-03-22T12:02:05Z</time>
      </trkpt>
      <trkpt lat="46.77185" lon="-1.67161">
        <ele>32</ele>
        <time>2018-03-22T12:03:05Z</time>
      </trkpt>
      <trkpt lat="46.77184" lon="-1.67163">
        <ele>32</ele>
        <time>2018-03-22T12:04:05Z</time>
      </trkpt>
      <trkpt lat="46.77183" lon="-1.67165">
        <ele>32</ele>
        <time>2018-03-22T12:05:05Z</time>
      </trkpt>
      <trkpt lat="46.77181" lon="-1.67166">
        <ele>32</ele>
        <time>2018-03-22T12:06:05Z</time>
      </trkpt>
      <trkpt lat="46.77179" lon="-1.67167">
        <ele>32</ele>
        <time>2018-03-22T12:07:05Z</time>
      </trkpt>
      <trkpt lat="46.77178" lon="-1.67169">
        <ele>32</ele>
        <time>2018-03-22T12:08:05Z</time>
      </trkpt>
      <trkpt lat="46.77176" lon="-1.6717">
        <ele>32</ele>
        <time>2018-03-22T12:09:05Z</time>
      </trkpt>
      <trkpt lat="46.77174" lon="-1.6717">
        <ele>32</ele>
        <time>2018-03-22T12:10:05Z</time>
      </trkpt>
      <trkpt lat="46.77172" lon="-1.67171">
        <ele>32</ele>
        <time>2018-03-22T12:11:05Z</time>
      </trkpt>
      <trkpt lat="46.7717" lon="-1.67171">
        <ele>32</ele>
        <time>2018-03-22T12:12:05Z</time>
      </trkpt>
      <trkpt lat="46.77169" lon="-1.67171">
        <ele>32</ele>
        <time>2018-03-22T12:13:05Z</time>
      </trkpt>
      <trkpt lat="46.77167" lon="-1.6717">
        <ele>32</ele>
        <time>2018-03-22T12:14:05Z</time>
      </trkpt>
      <trkpt lat="46.77165" lon="-1.6717">
        <ele>32</ele>
        <time>2018-03-22T12:15:05Z</time>
      </trkpt>
      <trkpt lat="46.77163" lon="-1.67169">
        <ele>32</ele>
        <time>2018-03-22T12:16:05Z</time>
      </trkpt>
      <trkpt lat="46.77161" lon="-1.67168">
        <ele>32</ele>
        <time>2018-03-22T12:17:05Z</time>
      </trkpt>
      <trkpt lat="46.7716" lon="-1.67167">
        <ele>32</ele>
        <time>2018-03-22T12:18:05Z</time>
      </trkpt>
      <trkpt lat="46.77158" lon="-1.67165">
        <ele>32</ele>
        <time>2018-03-22T12:19:05Z</time>
      </trkpt>
      <trkpt lat="46.77156" lon="-1.67163">
        <ele>32</ele>
        <time>2018-03-22T12:20:05Z</time>
      </trkpt>
      <trkpt lat="46.77155" lon="-1.67161">
        <ele>32</ele>
        <time>2018-03-22T12:21:05Z</time>
      </trkpt>
      <trkpt lat="46.77154" lon="-1.67159">
        <ele>32</ele>
        <time>2018-03-22T12:22:05Z</time>
      </trkpt>
      <trkpt lat="46.77153" lon="-1.67157">
        <ele>32</ele>
        <time>2018-03-22T12:23:05Z</time>
      </trkpt>
      <trkpt lat="46.77152" lon="-1.67155">
        <ele>32</ele>
        <time>2018-03-22T12:24:05Z</time>
      </trkpt>
      <trkpt lat="46.77151" lon="-1.67152">
        <ele>32</ele>
        <time>2018-03-22T12:25:05Z</time>
      </trkpt>
      <trkpt lat="46.7715" lon="-1.67149">
        <ele>32</ele>
        <time>2018-03-22T12:26:05Z</time>
      </trkpt>
      <trkpt lat="46.7715" lon="-1.67147">
        <ele>32</ele>
        <time>2018-03-22T12:27:05Z</time>
      </trkpt>
      <trkpt lat="46.77149" lon="-1.67143">
        <ele>32</ele>
        <time>2018-03-22T12:28:05Z</time>
      </trkpt>
      <trkpt lat="46.77143" lon="-1.67138">
        <ele>32</ele>
        <time>2018-03-22T12:29:05Z</time>
      </trkpt>
      <trkpt lat="46.77135" lon="-1.67132">
        <ele>32</ele>
        <time>2018-03-22T12:30:05Z</time>
      </trkpt>
      <trkpt lat="46.77127" lon="-1.67126">
        <ele>32</ele>
        <time>2018-03-22T12:31:05Z</time>
      </trkpt>
      <trkpt lat="46.77121" lon="-1.67122">
        <ele>32</ele>
        <time>2018-03-22T12:32:05Z</time>
      </trkpt>
      <trkpt lat="46.77118" lon="-1.67121">
        <ele>32</ele>
        <time>2018-03-22T12:33:05Z</time>
      </trkpt>
      <trkpt lat="46.77074" lon="-1.67105">
        <ele>32</ele>
        <time>2018-03-22T12:34:05Z</time>
      </trkpt>
      <trkpt lat="46.77063" lon="-1.67101">
        <ele>31</ele>
        <time>2018-03-22T12:35:05Z</time>
      </trkpt>
      <trkpt lat="46.77051" lon="-1.67101">
        <ele>31</ele>
        <time>2018-03-22T12:36:05Z</time>
      </trkpt>
      <trkpt lat="46.77039" lon="-1.67097">
        <ele>30</ele>
        <time>2018-03-22T12:37:05Z</time>
      </trkpt>
      <trkpt lat="46.76986" lon="-1.67079">
        <ele>28</ele>
        <time>2018-03-22T12:38:05Z</time>
      </trkpt>
      <trkpt lat="46.76975" lon="-1.67075">
        <ele>28</ele>
        <time>2018-03-22T12:39:05Z</time>
      </trkpt>
      <trkpt lat="46.76966" lon="-1.67071">
        <ele>28</ele>
        <time>2018-03-22T12:40:05Z</time>
      </trkpt>
      <trkpt lat="46.76954" lon="-1.67066">
        <ele>27</ele>
        <time>2018-03-22T12:41:05Z</time>
      </trkpt>
      <trkpt lat="46.76944" lon="-1.67065">
        <ele>26</ele>
        <time>2018-03-22T12:42:05Z</time>
      </trkpt>
      <trkpt lat="46.76929" lon="-1.67063">
        <ele>26</ele>
        <time>2018-03-22T12:43:05Z</time>
      </trkpt>
      <trkpt lat="46.76921" lon="-1.67062">
        <ele>25</ele>
        <time>2018-03-22T12:44:05Z</time>
      </trkpt>
      <trkpt lat="46.76912" lon="-1.6706">
        <ele>25</ele>
        <time>2018-03-22T12:45:05Z</time>
      </trkpt>
      <trkpt lat="46.76893" lon="-1.67068">
        <ele>24</ele>
        <time>2018-03-22T12:46:05Z</time>
      </trkpt>
      <trkpt lat="46.76862" lon="-1.67082">
        <ele>22</ele>
        <time>2018-03-22T12:47:05Z</time>
      </trkpt>
      <trkpt lat="46.76838" lon="-1.67094">
        <ele>20</ele>
        <time>2018-03-22T12:48:05Z</time>
      </trkpt>
      <trkpt lat="46.76804" lon="-1.67108">
        <ele>19</ele>
        <time>2018-03-22T12:49:05Z</time>
      </trkpt>
      <trkpt lat="46.76774" lon="-1.67123">
        <ele>17</ele>
        <time>2018-03-22T12:50:05Z</time>
      </trkpt>
      <trkpt lat="46.76735" lon="-1.67141">
        <ele>15</ele>
        <time>2018-03-22T12:51:05Z</time>
      </trkpt>
      <trkpt lat="46.76729" lon="-1.67144">
        <ele>15</ele>
        <time>2018-03-22T12:52:05Z</time>
      </trkpt>
      <trkpt lat="46.76726" lon="-1.67146">
        <ele>15</ele>
        <time>2018-03-22T12:53:05Z</time>
      </trkpt>
      <trkpt lat="46.76718" lon="-1.67149">
        <ele>15</ele>
        <time>2018-03-22T12:54:05Z</time>
      </trkpt>
      <trkpt lat="46.7671" lon="-1.67153">
        <ele>15</ele>
        <time>2018-03-22T12:55:05Z</time>
      </trkpt>
      <trkpt lat="46.76666" lon="-1.67172">
        <ele>15</ele>
        <time>2018-03-22T12:56:05Z</time>
      </trkpt>
      <trkpt lat="46.76637" lon="-1.67186">
        <ele>14</ele>
        <time>2018-03-22T12:57:05Z</time>
      </trkpt>
      <trkpt lat="46.76608" lon="-1.672">
        <ele>14</ele>
        <time>2018-03-22T12:58:05Z</time>
      </trkpt>
      <trkpt lat="46.76568" lon="-1.67217">
        <ele>13</ele>
        <time>2018-03-22T12:59:05Z</time>
      </trkpt>
      <trkpt lat="46.76544" lon="-1.67228">
        <ele>13</ele>
        <time>2018-03-22T13:00:05Z</time>
      </trkpt>
      <trkpt lat="46.76538" lon="-1.67231">
        <ele>13</ele>
        <time>2018-03-22T13:01:05Z</time>
      </trkpt>
      <trkpt lat="46.76509" lon="-1.67245">
        <ele>13</ele>
        <time>2018-03-22T13:02:05Z</time>
      </trkpt>
      <trkpt lat="46.76481" lon="-1.67259">
        <ele>13</ele>
        <time>2018-03-22T13:03:05Z</time>
      </trkpt>
      <trkpt lat="46.76458" lon="-1.67273">
        <ele>13</ele>
        <time>2018-03-22T13:04:05Z</time>
      </trkpt>
      <trkpt lat="46.76441" lon="-1.67283">
        <ele>13</ele>
        <time>2018-03-22T13:05:05Z</time>
      </trkpt>
      <trkpt lat="46.76434" lon="-1.67288">
        <ele>13</ele>
        <time>2018-03-22T13:06:05Z</time>
      </trkpt>
      <trkpt lat="46.76423" lon="-1.67296">
        <ele>12</ele>
        <time>2018-03-22T13:07:05Z</time>
      </trkpt>
      <trkpt lat="46.76413" lon="-1.67305">
        <ele>12</ele>
        <time>2018-03-22T13:08:05Z</time>
      </trkpt>
      <trkpt lat="46.76391" lon="-1.67324">
        <ele>12</ele>
        <time>2018-03-22T13:09:05Z</time>
      </trkpt>
      <trkpt lat="46.76363" lon="-1.67353">
        <ele>13</ele>
        <time>2018-03-22T13:10:05Z</time>
      </trkpt>
      <trkpt lat="46.76353" lon="-1.67363">
        <ele>13</ele>
        <time>2018-03-22T13:11:05Z</time>
      </trkpt>
      <trkpt lat="46.76329" lon="-1.67392">
        <ele>13</ele>
        <time>2018-03-22T13:12:05Z</time>
      </trkpt>
      <trkpt lat="46.76317" lon="-1.67408">
        <ele>13</ele>
        <time>2018-03-22T13:13:05Z</time>
      </trkpt>
      <trkpt lat="46.763" lon="-1.6743">
        <ele>13</ele>
        <time>2018-03-22T13:14:05Z</time>
      </trkpt>
      <trkpt lat="46.76285" lon="-1.67453">
        <ele>13</ele>
        <time>2018-03-22T13:15:05Z</time>
      </trkpt>
      <trkpt lat="46.76256" lon="-1.67498">
        <ele>14</ele>
        <time>2018-03-22T13:16:05Z</time>
      </trkpt>
      <trkpt lat="46.76246" lon="-1.67516">
        <ele>14</ele>
        <time>2018-03-22T13:17:05Z</time>
      </trkpt>
      <trkpt lat="46.76234" lon="-1.67539">
        <ele>15</ele>
        <time>2018-03-22T13:18:05Z</time>
      </trkpt>
      <trkpt lat="46.76072" lon="-1.6789">
        <ele>18</ele>
        <time>2018-03-22T13:19:05Z</time>
      </trkpt>
      <trkpt lat="46.76069" lon="-1.67896">
        <ele>18</ele>
        <time>2018-03-22T13:20:05Z</time>
      </trkpt>
      <trkpt lat="46.76055" lon="-1.67926">
        <ele>19</ele>
        <time>2018-03-22T13:21:05Z</time>
      </trkpt>
      <trkpt lat="46.7604" lon="-1.67954">
        <ele>21</ele>
        <time>2018-03-22T13:22:05Z</time>
      </trkpt>
      <trkpt lat="46.76024" lon="-1.67986">
        <ele>23</ele>
        <time>2018-03-22T13:23:05Z</time>
      </trkpt>
      <trkpt lat="46.76009" lon="-1.68009">
        <ele>24</ele>
        <time>2018-03-22T13:24:05Z</time>
      </trkpt>
      <trkpt lat="46.75998" lon="-1.68023">
        <ele>24</ele>
        <time>2018-03-22T13:25:05Z</time>
      </trkpt>
      <trkpt lat="46.75983" lon="-1.68035">
        <ele>24</ele>
        <time>2018-03-22T13:26:05Z</time>
      </trkpt>
      <trkpt lat="46.75967" lon="-1.68047">
        <ele>24</ele>
        <time>2018-03-22T13:27:05Z</time>
      </trkpt>
      <trkpt lat="46.75959" lon="-1.68052">
        <ele>24</ele>
        <time>2018-03-22T13:28:05Z</time>
      </trkpt>
      <trkpt lat="46.75945" lon="-1.68062">
        <ele>24</ele>
        <time>2018-03-22T13:29:05Z</time>
      </trkpt>
      <trkpt lat="46.75931" lon="-1.68069">
        <ele>25</ele>
        <time>2018-03-22T13:30:05Z</time>
      </trkpt>
      <trkpt lat="46.75923" lon="-1.68075">
        <ele>25</ele>
        <time>2018-03-22T13:31:05Z</time>
      </trkpt>
      <trkpt lat="46.759" lon="-1.681">
        <ele>26</ele>
        <time>2018-03-22T13:32:05Z</time>
      </trkpt>
      <trkpt lat="46.75872" lon="-1.68133">
        <ele>27</ele>
        <time>2018-03-22T13:33:05Z</time>
      </trkpt>
      <trkpt lat="46.75854" lon="-1.68156">
        <ele>27</ele>
        <time>2018-03-22T13:34:05Z</time>
      </trkpt>
      <trkpt lat="46.75829" lon="-1.68185">
        <ele>27</ele>
        <time>2018-03-22T13:35:05Z</time>
      </trkpt>
      <trkpt lat="46.75799" lon="-1.68221">
        <ele>28</ele>
        <time>2018-03-22T13:36:05Z</time>
      </trkpt>
      <trkpt lat="46.75777" lon="-1.68247">
        <ele>28</ele>
        <time>2018-03-22T13:37:05Z</time>
      </trkpt>
      <trkpt lat="46.75772" lon="-1.68252">
        <ele>28</ele>
        <time>2018-03-22T13:38:05Z</time>
      </trkpt>
      <trkpt lat="46.75759" lon="-1.68268">
        <ele>29</ele>
        <time>2018-03-22T13:39:05Z</time>
      </trkpt>
      <trkpt lat="46.75741" lon="-1.68289">
        <ele>29</ele>
        <time>2018-03-22T13:40:05Z</time>
      </trkpt>
      <trkpt lat="46.75727" lon="-1.68306">
        <ele>30</ele>
        <time>2018-03-22T13:41:05Z</time>
      </trkpt>
      <trkpt lat="46.75727" lon="-1.68306">
        <ele>30</ele>
        <time>2018-03-22T13:42:05Z</time>
      </trkpt>
      <trkpt lat="46.75731" lon="-1.68314">
        <ele>30</ele>
        <time>2018-03-22T13:43:05Z</time>
      </trkpt>
      <trkpt lat="46.75734" lon="-1.68323">
        <ele>30</ele>
        <time>2018-03-22T13:44:05Z</time>
      </trkpt>
      <trkpt lat="46.75735" lon="-1.68332">
        <ele>30</ele>
        <time>2018-03-22T13:45:05Z</time>
      </trkpt>
      <trkpt lat="46.75735" lon="-1.68345">
        <ele>31</ele>
        <time>2018-03-22T13:46:05Z</time>
      </trkpt>
      <trkpt lat="46.75732" lon="-1.68412">
        <ele>32</ele>
        <time>2018-03-22T13:47:05Z</time>
      </trkpt>
      <trkpt lat="46.75728" lon="-1.68473">
        <ele>33</ele>
        <time>2018-03-22T13:48:05Z</time>
      </trkpt>
      <trkpt lat="46.75728" lon="-1.68484">
        <ele>33</ele>
        <time>2018-03-22T13:49:05Z</time>
      </trkpt>
      <trkpt lat="46.75725" lon="-1.68539">
        <ele>34</ele>
        <time>2018-03-22T13:50:05Z</time>
      </trkpt>
      <trkpt lat="46.75725" lon="-1.68545">
        <ele>34</ele>
        <time>2018-03-22T13:51:05Z</time>
      </trkpt>
      <trkpt lat="46.75721" lon="-1.68606">
        <ele>36</ele>
        <time>2018-03-22T13:52:05Z</time>
      </trkpt>
      <trkpt lat="46.75719" lon="-1.68654">
        <ele>38</ele>
        <time>2018-03-22T13:53:05Z</time>
      </trkpt>
      <trkpt lat="46.75717" lon="-1.68689">
        <ele>39</ele>
        <time>2018-03-22T13:54:05Z</time>
      </trkpt>
      <trkpt lat="46.75715" lon="-1.68708">
        <ele>40</ele>
        <time>2018-03-22T13:55:05Z</time>
      </trkpt>
      <trkpt lat="46.75711" lon="-1.68733">
        <ele>40</ele>
        <time>2018-03-22T13:56:05Z</time>
      </trkpt>
      <trkpt lat="46.75708" lon="-1.68745">
        <ele>40</ele>
        <time>2018-03-22T13:57:05Z</time>
      </trkpt>
      <trkpt lat="46.75705" lon="-1.68761">
        <ele>41</ele>
        <time>2018-03-22T13:58:05Z</time>
      </trkpt>
      <trkpt lat="46.757" lon="-1.68775">
        <ele>41</ele>
        <time>2018-03-22T13:59:05Z</time>
      </trkpt>
      <trkpt lat="46.75695" lon="-1.68783">
        <ele>42</ele>
        <time>2018-03-22T14:00:05Z</time>
      </trkpt>
      <trkpt lat="46.75687" lon="-1.68797">
        <ele>42</ele>
        <time>2018-03-22T14:01:05Z</time>
      </trkpt>
      <trkpt lat="46.7568" lon="-1.6881">
        <ele>43</ele>
        <time>2018-03-22T14:02:05Z</time>
      </trkpt>
      <trkpt lat="46.75676" lon="-1.68817">
        <ele>43</ele>
        <time>2018-03-22T14:03:05Z</time>
      </trkpt>
      <trkpt lat="46.75668" lon="-1.6883">
        <ele>44</ele>
        <time>2018-03-22T14:04:05Z</time>
      </trkpt>
      <trkpt lat="46.75661" lon="-1.6884">
        <ele>44</ele>
        <time>2018-03-22T14:05:05Z</time>
      </trkpt>
      <trkpt lat="46.7565" lon="-1.68856">
        <ele>45</ele>
        <time>2018-03-22T14:06:05Z</time>
      </trkpt>
      <trkpt lat="46.7564" lon="-1.68878">
        <ele>45</ele>
        <time>2018-03-22T14:07:05Z</time>
      </trkpt>
      <trkpt lat="46.75628" lon="-1.68907">
        <ele>46</ele>
        <time>2018-03-22T14:08:05Z</time>
      </trkpt>
      <trkpt lat="46.75622" lon="-1.68925">
        <ele>47</ele>
        <time>2018-03-22T14:09:05Z</time>
      </trkpt>
      <trkpt lat="46.75618" lon="-1.68942">
        <ele>47</ele>
        <time>2018-03-22T14:10:05Z</time>
      </trkpt>
      <trkpt lat="46.75616" lon="-1.68954">
        <ele>48</ele>
        <time>2018-03-22T14:11:05Z</time>
      </trkpt>
      <trkpt lat="46.75614" lon="-1.68975">
        <ele>48</ele>
        <time>2018-03-22T14:12:05Z</time>
      </trkpt>
      <trkpt lat="46.75613" lon="-1.68991">
        <ele>49</ele>
        <time>2018-03-22T14:13:05Z</time>
      </trkpt>
      <trkpt lat="46.75613" lon="-1.69008">
        <ele>49</ele>
        <time>2018-03-22T14:14:05Z</time>
      </trkpt>
      <trkpt lat="46.75613" lon="-1.69035">
        <ele>50</ele>
        <time>2018-03-22T14:15:05Z</time>
      </trkpt>
      <trkpt lat="46.75613" lon="-1.6907">
        <ele>50</ele>
        <time>2018-03-22T14:16:05Z</time>
      </trkpt>
      <trkpt lat="46.75612" lon="-1.69102">
        <ele>50</ele>
        <time>2018-03-22T14:17:05Z</time>
      </trkpt>
      <trkpt lat="46.75612" lon="-1.69125">
        <ele>50</ele>
        <time>2018-03-22T14:18:05Z</time>
      </trkpt>
      <trkpt lat="46.75611" lon="-1.69143">
        <ele>51</ele>
        <time>2018-03-22T14:19:05Z</time>
      </trkpt>
      <trkpt lat="46.75609" lon="-1.6916">
        <ele>51</ele>
        <time>2018-03-22T14:20:05Z</time>
      </trkpt>
      <trkpt lat="46.75606" lon="-1.69184">
        <ele>51</ele>
        <time>2018-03-22T14:21:05Z</time>
      </trkpt>
      <trkpt lat="46.75602" lon="-1.69206">
        <ele>51</ele>
        <time>2018-03-22T14:22:05Z</time>
      </trkpt>
      <trkpt lat="46.75579" lon="-1.69309">
        <ele>54</ele>
        <time>2018-03-22T14:23:05Z</time>
      </trkpt>
      <trkpt lat="46.75565" lon="-1.69371">
        <ele>55</ele>
        <time>2018-03-22T14:24:05Z</time>
      </trkpt>
      <trkpt lat="46.75554" lon="-1.69422">
        <ele>55</ele>
        <time>2018-03-22T14:25:05Z</time>
      </trkpt>
      <trkpt lat="46.75548" lon="-1.69452">
        <ele>56</ele>
        <time>2018-03-22T14:26:05Z</time>
      </trkpt>
      <trkpt lat="46.75546" lon="-1.69464">
        <ele>56</ele>
        <time>2018-03-22T14:27:05Z</time>
      </trkpt>
      <trkpt lat="46.75544" lon="-1.69469">
        <ele>56</ele>
        <time>2018-03-22T14:28:05Z</time>
      </trkpt>
      <trkpt lat="46.75542" lon="-1.69475">
        <ele>56</ele>
        <time>2018-03-22T14:29:05Z</time>
      </trkpt>
      <trkpt lat="46.75542" lon="-1.69475">
        <ele>56</ele>
        <time>2018-03-22T14:30:05Z</time>
      </trkpt>
      <trkpt lat="46.75552" lon="-1.69509">
        <ele>57</ele>
        <time>2018-03-22T14:31:05Z</time>
      </trkpt>
      <trkpt lat="46.75556" lon="-1.69526">
        <ele>57</ele>
        <time>2018-03-22T14:32:05Z</time>
      </trkpt>
      <trkpt lat="46.7556" lon="-1.69542">
        <ele>57</ele>
        <time>2018-03-22T14:33:05Z</time>
      </trkpt>
      <trkpt lat="46.75565" lon="-1.69562">
        <ele>58</ele>
        <time>2018-03-22T14:34:05Z</time>
      </trkpt>
      <trkpt lat="46.75568" lon="-1.69577">
        <ele>58</ele>
        <time>2018-03-22T14:35:05Z</time>
      </trkpt>
      <trkpt lat="46.75572" lon="-1.69595">
        <ele>58</ele>
        <time>2018-03-22T14:36:05Z</time>
      </trkpt>
      <trkpt lat="46.75575" lon="-1.69614">
        <ele>58</ele>
        <time>2018-03-22T14:37:05Z</time>
      </trkpt>
      <trkpt lat="46.75579" lon="-1.69642">
        <ele>58</ele>
        <time>2018-03-22T14:38:05Z</time>
      </trkpt>
      <trkpt lat="46.7559" lon="-1.69707">
        <ele>59</ele>
        <time>2018-03-22T14:39:05Z</time>
      </trkpt>
      <trkpt lat="46.75596" lon="-1.69742">
        <ele>59</ele>
        <time>2018-03-22T14:40:05Z</time>
      </trkpt>
      <trkpt lat="46.75596" lon="-1.69746">
        <ele>59</ele>
        <time>2018-03-22T14:41:05Z</time>
      </trkpt>
      <trkpt lat="46.75602" lon="-1.69782">
        <ele>59</ele>
        <time>2018-03-22T14:42:05Z</time>
      </trkpt>
      <trkpt lat="46.75607" lon="-1.69819">
        <ele>59</ele>
        <time>2018-03-22T14:43:05Z</time>
      </trkpt>
      <trkpt lat="46.75611" lon="-1.69841">
        <ele>59</ele>
        <time>2018-03-22T14:44:05Z</time>
      </trkpt>
      <trkpt lat="46.75618" lon="-1.69878">
        <ele>60</ele>
        <time>2018-03-22T14:45:05Z</time>
      </trkpt>
      <trkpt lat="46.75622" lon="-1.69903">
        <ele>60</ele>
        <time>2018-03-22T14:46:05Z</time>
      </trkpt>
      <trkpt lat="46.75627" lon="-1.6992">
        <ele>61</ele>
        <time>2018-03-22T14:47:05Z</time>
      </trkpt>
      <trkpt lat="46.75632" lon="-1.69934">
        <ele>61</ele>
        <time>2018-03-22T14:48:05Z</time>
      </trkpt>
      <trkpt lat="46.75641" lon="-1.69956">
        <ele>61</ele>
        <time>2018-03-22T14:49:05Z</time>
      </trkpt>
      <trkpt lat="46.75645" lon="-1.69967">
        <ele>61</ele>
        <time>2018-03-22T14:50:05Z</time>
      </trkpt>
      <trkpt lat="46.75648" lon="-1.69979">
        <ele>61</ele>
        <time>2018-03-22T14:51:05Z</time>
      </trkpt>
      <trkpt lat="46.75651" lon="-1.69993">
        <ele>62</ele>
        <time>2018-03-22T14:52:05Z</time>
      </trkpt>
      <trkpt lat="46.75653" lon="-1.70008">
        <ele>62</ele>
        <time>2018-03-22T14:53:05Z</time>
      </trkpt>
      <trkpt lat="46.75654" lon="-1.70015">
        <ele>62</ele>
        <time>2018-03-22T14:54:05Z</time>
      </trkpt>
      <trkpt lat="46.75656" lon="-1.70046">
        <ele>61</ele>
        <time>2018-03-22T14:55:05Z</time>
      </trkpt>
      <trkpt lat="46.7566" lon="-1.70095">
        <ele>61</ele>
        <time>2018-03-22T14:56:05Z</time>
      </trkpt>
      <trkpt lat="46.75666" lon="-1.70153">
        <ele>62</ele>
        <time>2018-03-22T14:57:05Z</time>
      </trkpt>
      <trkpt lat="46.7567" lon="-1.70205">
        <ele>61</ele>
        <time>2018-03-22T14:58:05Z</time>
      </trkpt>
      <trkpt lat="46.75671" lon="-1.70227">
        <ele>61</ele>
        <time>2018-03-22T14:59:05Z</time>
      </trkpt>
      <trkpt lat="46.75672" lon="-1.70246">
        <ele>61</ele>
        <time>2018-03-22T15:00:05Z</time>
      </trkpt>
      <trkpt lat="46.75673" lon="-1.70266">
        <ele>61</ele>
        <time>2018-03-22T15:01:05Z</time>
      </trkpt>
      <trkpt lat="46.75673" lon="-1.70286">
        <ele>61</ele>
        <time>2018-03-22T15:02:05Z</time>
      </trkpt>
      <trkpt lat="46.75673" lon="-1.70304">
        <ele>61</ele>
        <time>2018-03-22T15:03:05Z</time>
      </trkpt>
      <trkpt lat="46.75672" lon="-1.70323">
        <ele>61</ele>
        <time>2018-03-22T15:04:05Z</time>
      </trkpt>
      <trkpt lat="46.7567" lon="-1.70352">
        <ele>61</ele>
        <time>2018-03-22T15:05:05Z</time>
      </trkpt>
      <trkpt lat="46.75666" lon="-1.70422">
        <ele>61</ele>
        <time>2018-03-22T15:06:05Z</time>
      </trkpt>
      <trkpt lat="46.75662" lon="-1.70498">
        <ele>60</ele>
        <time>2018-03-22T15:07:05Z</time>
      </trkpt>
      <trkpt lat="46.7566" lon="-1.70572">
        <ele>59</ele>
        <time>2018-03-22T15:08:05Z</time>
      </trkpt>
      <trkpt lat="46.75656" lon="-1.70671">
        <ele>59</ele>
        <time>2018-03-22T15:09:05Z</time>
      </trkpt>
      <trkpt lat="46.75655" lon="-1.70726">
        <ele>60</ele>
        <time>2018-03-22T15:10:05Z</time>
      </trkpt>
      <trkpt lat="46.75654" lon="-1.70751">
        <ele>61</ele>
        <time>2018-03-22T15:11:05Z</time>
      </trkpt>
      <trkpt lat="46.75654" lon="-1.70772">
        <ele>61</ele>
        <time>2018-03-22T15:12:05Z</time>
      </trkpt>
      <trkpt lat="46.75654" lon="-1.7079">
        <ele>61</ele>
        <time>2018-03-22T15:13:05Z</time>
      </trkpt>
      <trkpt lat="46.75655" lon="-1.70806">
        <ele>62</ele>
        <time>2018-03-22T15:14:05Z</time>
      </trkpt>
      <trkpt lat="46.75655" lon="-1.70823">
        <ele>62</ele>
        <time>2018-03-22T15:15:05Z</time>
      </trkpt>
      <trkpt lat="46.75657" lon="-1.70877">
        <ele>61</ele>
        <time>2018-03-22T15:16:05Z</time>
      </trkpt>
      <trkpt lat="46.7566" lon="-1.70953">
        <ele>60</ele>
        <time>2018-03-22T15:17:05Z</time>
      </trkpt>
      <trkpt lat="46.7566" lon="-1.7096">
        <ele>60</ele>
        <time>2018-03-22T15:18:05Z</time>
      </trkpt>
      <trkpt lat="46.75661" lon="-1.71002">
        <ele>59</ele>
        <time>2018-03-22T15:19:05Z</time>
      </trkpt>
      <trkpt lat="46.75662" lon="-1.71047">
        <ele>59</ele>
        <time>2018-03-22T15:20:05Z</time>
      </trkpt>
      <trkpt lat="46.75662" lon="-1.71091">
        <ele>59</ele>
        <time>2018-03-22T15:21:05Z</time>
      </trkpt>
      <trkpt lat="46.75662" lon="-1.71111">
        <ele>59</ele>
        <time>2018-03-22T15:22:05Z</time>
      </trkpt>
      <trkpt lat="46.75662" lon="-1.71132">
        <ele>60</ele>
        <time>2018-03-22T15:23:05Z</time>
      </trkpt>
      <trkpt lat="46.75662" lon="-1.71157">
        <ele>60</ele>
        <time>2018-03-22T15:24:05Z</time>
      </trkpt>
      <trkpt lat="46.75661" lon="-1.7118">
        <ele>60</ele>
        <time>2018-03-22T15:25:05Z</time>
      </trkpt>
      <trkpt lat="46.7566" lon="-1.71199">
        <ele>60</ele>
        <time>2018-03-22T15:26:05Z</time>
      </trkpt>
      <trkpt lat="46.7566" lon="-1.71217">
        <ele>60</ele>
        <time>2018-03-22T15:27:05Z</time>
      </trkpt>
      <trkpt lat="46.75659" lon="-1.71235">
        <ele>60</ele>
        <time>2018-03-22T15:28:05Z</time>
      </trkpt>
      <trkpt lat="46.75659" lon="-1.7126">
        <ele>60</ele>
        <time>2018-03-22T15:29:05Z</time>
      </trkpt>
      <trkpt lat="46.75658" lon="-1.71296">
        <ele>60</ele>
        <time>2018-03-22T15:30:05Z</time>
      </trkpt>
      <trkpt lat="46.75656" lon="-1.71346">
        <ele>60</ele>
        <time>2018-03-22T15:31:05Z</time>
      </trkpt>
      <trkpt lat="46.75649" lon="-1.71449">
        <ele>59</ele>
        <time>2018-03-22T15:32:05Z</time>
      </trkpt>
      <trkpt lat="46.75645" lon="-1.71503">
        <ele>58</ele>
        <time>2018-03-22T15:33:05Z</time>
      </trkpt>
      <trkpt lat="46.75645" lon="-1.71506">
        <ele>58</ele>
        <time>2018-03-22T15:34:05Z</time>
      </trkpt>
      <trkpt lat="46.75639" lon="-1.71584">
        <ele>57</ele>
        <time>2018-03-22T15:35:05Z</time>
      </trkpt>
      <trkpt lat="46.75637" lon="-1.71635">
        <ele>57</ele>
        <time>2018-03-22T15:36:05Z</time>
      </trkpt>
      <trkpt lat="46.75635" lon="-1.71651">
        <ele>57</ele>
        <time>2018-03-22T15:37:05Z</time>
      </trkpt>
      <trkpt lat="46.75634" lon="-1.7168">
        <ele>57</ele>
        <time>2018-03-22T15:38:05Z</time>
      </trkpt>
      <trkpt lat="46.75633" lon="-1.71695">
        <ele>57</ele>
        <time>2018-03-22T15:39:05Z</time>
      </trkpt>
      <trkpt lat="46.75633" lon="-1.71706">
        <ele>57</ele>
        <time>2018-03-22T15:40:05Z</time>
      </trkpt>
      <trkpt lat="46.75632" lon="-1.71721">
        <ele>57</ele>
        <time>2018-03-22T15:41:05Z</time>
      </trkpt>
      <trkpt lat="46.75632" lon="-1.71736">
        <ele>57</ele>
        <time>2018-03-22T15:42:05Z</time>
      </trkpt>
      <trkpt lat="46.75632" lon="-1.71751">
        <ele>57</ele>
        <time>2018-03-22T15:43:05Z</time>
      </trkpt>
      <trkpt lat="46.75631" lon="-1.71767">
        <ele>57</ele>
        <time>2018-03-22T15:44:05Z</time>
      </trkpt>
      <trkpt lat="46.75631" lon="-1.7178">
        <ele>57</ele>
        <time>2018-03-22T15:45:05Z</time>
      </trkpt>
      <trkpt lat="46.75631" lon="-1.71789">
        <ele>57</ele>
        <time>2018-03-22T15:46:05Z</time>
      </trkpt>
      <trkpt lat="46.75631" lon="-1.7179">
        <ele>57</ele>
        <time>2018-03-22T15:47:05Z</time>
      </trkpt>
      <trkpt lat="46.75631" lon="-1.7179">
        <ele>57</ele>
        <time>2018-03-22T15:48:05Z</time>
      </trkpt>
      <trkpt lat="46.75631" lon="-1.71802">
        <ele>56</ele>
        <time>2018-03-22T15:49:05Z</time>
      </trkpt>
      <trkpt lat="46.75631" lon="-1.71831">
        <ele>56</ele>
        <time>2018-03-22T15:50:05Z</time>
      </trkpt>
      <trkpt lat="46.75632" lon="-1.71858">
        <ele>56</ele>
        <time>2018-03-22T15:51:05Z</time>
      </trkpt>
      <trkpt lat="46.75632" lon="-1.71874">
        <ele>56</ele>
        <time>2018-03-22T15:52:05Z</time>
      </trkpt>
      <trkpt lat="46.75633" lon="-1.71883">
        <ele>56</ele>
        <time>2018-03-22T15:53:05Z</time>
      </trkpt>
      <trkpt lat="46.75633" lon="-1.71906">
        <ele>56</ele>
        <time>2018-03-22T15:54:05Z</time>
      </trkpt>
      <trkpt lat="46.75646" lon="-1.72036">
        <ele>57</ele>
        <time>2018-03-22T15:55:05Z</time>
      </trkpt>
      <trkpt lat="46.75648" lon="-1.72039">
        <ele>57</ele>
        <time>2018-03-22T15:56:05Z</time>
      </trkpt>
      <trkpt lat="46.75656" lon="-1.72125">
        <ele>58</ele>
        <time>2018-03-22T15:57:05Z</time>
      </trkpt>
      <trkpt lat="46.7566" lon="-1.72169">
        <ele>58</ele>
        <time>2018-03-22T15:58:05Z</time>
      </trkpt>
      <trkpt lat="46.75665" lon="-1.72246">
        <ele>56</ele>
        <time>2018-03-22T15:59:05Z</time>
      </trkpt>
      <trkpt lat="46.75667" lon="-1.7227">
        <ele>56</ele>
        <time>2018-03-22T16:00:05Z</time>
      </trkpt>
      <trkpt lat="46.75667" lon="-1.72335">
        <ele>56</ele>
        <time>2018-03-22T16:01:05Z</time>
      </trkpt>
      <trkpt lat="46.75665" lon="-1.72417">
        <ele>56</ele>
        <time>2018-03-22T16:02:05Z</time>
      </trkpt>
      <trkpt lat="46.75662" lon="-1.72434">
        <ele>56</ele>
        <time>2018-03-22T16:03:05Z</time>
      </trkpt>
      <trkpt lat="46.75657" lon="-1.72476">
        <ele>56</ele>
        <time>2018-03-22T16:04:05Z</time>
      </trkpt>
      <trkpt lat="46.75656" lon="-1.72493">
        <ele>56</ele>
        <time>2018-03-22T16:05:05Z</time>
      </trkpt>
      <trkpt lat="46.7565" lon="-1.72542">
        <ele>56</ele>
        <time>2018-03-22T16:06:05Z</time>
      </trkpt>
      <trkpt lat="46.75643" lon="-1.72615">
        <ele>56</ele>
        <time>2018-03-22T16:07:05Z</time>
      </trkpt>
      <trkpt lat="46.75638" lon="-1.72663">
        <ele>57</ele>
        <time>2018-03-22T16:08:05Z</time>
      </trkpt>
      <trkpt lat="46.75633" lon="-1.72721">
        <ele>58</ele>
        <time>2018-03-22T16:09:05Z</time>
      </trkpt>
      <trkpt lat="46.75628" lon="-1.72787">
        <ele>57</ele>
        <time>2018-03-22T16:10:05Z</time>
      </trkpt>
      <trkpt lat="46.75627" lon="-1.72797">
        <ele>57</ele>
        <time>2018-03-22T16:11:05Z</time>
      </trkpt>
      <trkpt lat="46.75626" lon="-1.72809">
        <ele>57</ele>
        <time>2018-03-22T16:12:05Z</time>
      </trkpt>
      <trkpt lat="46.75626" lon="-1.7282">
        <ele>57</ele>
        <time>2018-03-22T16:13:05Z</time>
      </trkpt>
      <trkpt lat="46.75625" lon="-1.72834">
        <ele>56</ele>
        <time>2018-03-22T16:14:05Z</time>
      </trkpt>
      <trkpt lat="46.75624" lon="-1.72845">
        <ele>56</ele>
        <time>2018-03-22T16:15:05Z</time>
      </trkpt>
      <trkpt lat="46.75624" lon="-1.7287">
        <ele>56</ele>
        <time>2018-03-22T16:16:05Z</time>
      </trkpt>
      <trkpt lat="46.75623" lon="-1.72887">
        <ele>55</ele>
        <time>2018-03-22T16:17:05Z</time>
      </trkpt>
      <trkpt lat="46.75623" lon="-1.72916">
        <ele>55</ele>
        <time>2018-03-22T16:18:05Z</time>
      </trkpt>
      <trkpt lat="46.75623" lon="-1.72992">
        <ele>55</ele>
        <time>2018-03-22T16:19:05Z</time>
      </trkpt>
      <trkpt lat="46.75623" lon="-1.73038">
        <ele>54</ele>
        <time>2018-03-22T16:20:05Z</time>
      </trkpt>
      <trkpt lat="46.75625" lon="-1.73049">
        <ele>54</ele>
        <time>2018-03-22T16:21:05Z</time>
      </trkpt>
      <trkpt lat="46.75625" lon="-1.73065">
        <ele>54</ele>
        <time>2018-03-22T16:22:05Z</time>
      </trkpt>
      <trkpt lat="46.75626" lon="-1.73066">
        <ele>54</ele>
        <time>2018-03-22T16:23:05Z</time>
      </trkpt>
      <trkpt lat="46.75627" lon="-1.73066">
        <ele>54</ele>
        <time>2018-03-22T16:24:05Z</time>
      </trkpt>
      <trkpt lat="46.75628" lon="-1.73067">
        <ele>54</ele>
        <time>2018-03-22T16:25:05Z</time>
      </trkpt>
      <trkpt lat="46.75629" lon="-1.73068">
        <ele>54</ele>
        <time>2018-03-22T16:26:05Z</time>
      </trkpt>
      <trkpt lat="46.75629" lon="-1.73069">
        <ele>54</ele>
        <time>2018-03-22T16:27:05Z</time>
      </trkpt>
      <trkpt lat="46.7563" lon="-1.7307">
        <ele>54</ele>
        <time>2018-03-22T16:28:05Z</time>
      </trkpt>
      <trkpt lat="46.7563" lon="-1.73071">
        <ele>54</ele>
        <time>2018-03-22T16:29:05Z</time>
      </trkpt>
      <trkpt lat="46.75631" lon="-1.73071">
        <ele>54</ele>
        <time>2018-03-22T16:30:05Z</time>
      </trkpt>
      <trkpt lat="46.75631" lon="-1.73072">
        <ele>54</ele>
        <time>2018-03-22T16:31:05Z</time>
      </trkpt>
      <trkpt lat="46.75631" lon="-1.73073">
        <ele>54</ele>
        <time>2018-03-22T16:32:05Z</time>
      </trkpt>
      <trkpt lat="46.75631" lon="-1.73074">
        <ele>54</ele>
        <time>2018-03-22T16:33:05Z</time>
      </trkpt>
      <trkpt lat="46.75631" lon="-1.73075">
        <ele>54</ele>
        <time>2018-03-22T16:34:05Z</time>
      </trkpt>
      <trkpt lat="46.75631" lon="-1.73076">
        <ele>54</ele>
        <time>2018-03-22T16:35:05Z</time>
      </trkpt>
      <trkpt lat="46.75631" lon="-1.73077">
        <ele>54</ele>
        <time>2018-03-22T16:36:05Z</time>
      </trkpt>
      <trkpt lat="46.75631" lon="-1.73078">
        <ele>54</ele>
        <time>2018-03-22T16:37:05Z</time>
      </trkpt>
      <trkpt lat="46.75631" lon="-1.73079">
        <ele>54</ele>
        <time>2018-03-22T16:38:05Z</time>
      </trkpt>
      <trkpt lat="46.75631" lon="-1.7308">
        <ele>54</ele>
        <time>2018-03-22T16:39:05Z</time>
      </trkpt>
      <trkpt lat="46.75631" lon="-1.73081">
        <ele>54</ele>
        <time>2018-03-22T16:40:05Z</time>
      </trkpt>
      <trkpt lat="46.75631" lon="-1.73082">
        <ele>54</ele>
        <time>2018-03-22T16:41:05Z</time>
      </trkpt>
      <trkpt lat="46.7563" lon="-1.73082">
        <ele>54</ele>
        <time>2018-03-22T16:42:05Z</time>
      </trkpt>
      <trkpt lat="46.7563" lon="-1.73083">
        <ele>54</ele>
        <time>2018-03-22T16:43:05Z</time>
      </trkpt>
      <trkpt lat="46.7563" lon="-1.73084">
        <ele>54</ele>
        <time>2018-03-22T16:44:05Z</time>
      </trkpt>
      <trkpt lat="46.75629" lon="-1.73085">
        <ele>54</ele>
        <time>2018-03-22T16:45:05Z</time>
      </trkpt>
      <trkpt lat="46.75629" lon="-1.73086">
        <ele>54</ele>
        <time>2018-03-22T16:46:05Z</time>
      </trkpt>
      <trkpt lat="46.75628" lon="-1.73086">
        <ele>54</ele>
        <time>2018-03-22T16:47:05Z</time>
      </trkpt>
      <trkpt lat="46.75628" lon="-1.73087">
        <ele>54</ele>
        <time>2018-03-22T16:48:05Z</time>
      </trkpt>
      <trkpt lat="46.75627" lon="-1.73088">
        <ele>54</ele>
        <time>2018-03-22T16:49:05Z</time>
      </trkpt>
      <trkpt lat="46.75626" lon="-1.73088">
        <ele>54</ele>
        <time>2018-03-22T16:50:05Z</time>
      </trkpt>
      <trkpt lat="46.75626" lon="-1.73089">
        <ele>54</ele>
        <time>2018-03-22T16:51:05Z</time>
      </trkpt>
      <trkpt lat="46.75625" lon="-1.73089">
        <ele>54</ele>
        <time>2018-03-22T16:52:05Z</time>
      </trkpt>
      <trkpt lat="46.75621" lon="-1.7312">
        <ele>54</ele>
        <time>2018-03-22T16:53:05Z</time>
      </trkpt>
      <trkpt lat="46.75617" lon="-1.73128">
        <ele>54</ele>
        <time>2018-03-22T16:54:05Z</time>
      </trkpt>
      <trkpt lat="46.75612" lon="-1.73156">
        <ele>54</ele>
        <time>2018-03-22T16:55:05Z</time>
      </trkpt>
      <trkpt lat="46.75608" lon="-1.73181">
        <ele>54</ele>
        <time>2018-03-22T16:56:05Z</time>
      </trkpt>
      <trkpt lat="46.75598" lon="-1.73226">
        <ele>55</ele>
        <time>2018-03-22T16:57:05Z</time>
      </trkpt>
      <trkpt lat="46.75589" lon="-1.73274">
        <ele>56</ele>
        <time>2018-03-22T16:58:05Z</time>
      </trkpt>
      <trkpt lat="46.75575" lon="-1.73341">
        <ele>57</ele>
        <time>2018-03-22T16:59:05Z</time>
      </trkpt>
      <trkpt lat="46.75567" lon="-1.73377">
        <ele>56</ele>
        <time>2018-03-22T17:00:05Z</time>
      </trkpt>
      <trkpt lat="46.75564" lon="-1.7339">
        <ele>56</ele>
        <time>2018-03-22T17:01:05Z</time>
      </trkpt>
      <trkpt lat="46.7556" lon="-1.73403">
        <ele>56</ele>
        <time>2018-03-22T17:02:05Z</time>
      </trkpt>
      <trkpt lat="46.75557" lon="-1.73412">
        <ele>56</ele>
        <time>2018-03-22T17:03:05Z</time>
      </trkpt>
      <trkpt lat="46.75555" lon="-1.73418">
        <ele>56</ele>
        <time>2018-03-22T17:04:05Z</time>
      </trkpt>
      <trkpt lat="46.75553" lon="-1.73423">
        <ele>56</ele>
        <time>2018-03-22T17:05:05Z</time>
      </trkpt>
      <trkpt lat="46.75544" lon="-1.73439">
        <ele>56</ele>
        <time>2018-03-22T17:06:05Z</time>
      </trkpt>
      <trkpt lat="46.75541" lon="-1.73445">
        <ele>56</ele>
        <time>2018-03-22T17:07:05Z</time>
      </trkpt>
      <trkpt lat="46.75538" lon="-1.73448">
        <ele>56</ele>
        <time>2018-03-22T17:08:05Z</time>
      </trkpt>
      <trkpt lat="46.75534" lon="-1.73455">
        <ele>56</ele>
        <time>2018-03-22T17:09:05Z</time>
      </trkpt>
      <trkpt lat="46.75529" lon="-1.73461">
        <ele>56</ele>
        <time>2018-03-22T17:10:05Z</time>
      </trkpt>
      <trkpt lat="46.75524" lon="-1.73468">
        <ele>56</ele>
        <time>2018-03-22T17:11:05Z</time>
      </trkpt>
      <trkpt lat="46.75518" lon="-1.73476">
        <ele>56</ele>
        <time>2018-03-22T17:12:05Z</time>
      </trkpt>
      <trkpt lat="46.75511" lon="-1.73485">
        <ele>56</ele>
        <time>2018-03-22T17:13:05Z</time>
      </trkpt>
      <trkpt lat="46.75488" lon="-1.73511">
        <ele>56</ele>
        <time>2018-03-22T17:14:05Z</time>
      </trkpt>
      <trkpt lat="46.75452" lon="-1.7355">
        <ele>54</ele>
        <time>2018-03-22T17:15:05Z</time>
      </trkpt>
      <trkpt lat="46.75442" lon="-1.73561">
        <ele>54</ele>
        <time>2018-03-22T17:16:05Z</time>
      </trkpt>
      <trkpt lat="46.7541" lon="-1.73592">
        <ele>53</ele>
        <time>2018-03-22T17:17:05Z</time>
      </trkpt>
      <trkpt lat="46.7539" lon="-1.73612">
        <ele>53</ele>
        <time>2018-03-22T17:18:05Z</time>
      </trkpt>
      <trkpt lat="46.75344" lon="-1.73658">
        <ele>52</ele>
        <time>2018-03-22T17:19:05Z</time>
      </trkpt>
      <trkpt lat="46.75329" lon="-1.73675">
        <ele>52</ele>
        <time>2018-03-22T17:20:05Z</time>
      </trkpt>
      <trkpt lat="46.75319" lon="-1.73686">
        <ele>52</ele>
        <time>2018-03-22T17:21:05Z</time>
      </trkpt>
      <trkpt lat="46.75309" lon="-1.73698">
        <ele>51</ele>
        <time>2018-03-22T17:22:05Z</time>
      </trkpt>
      <trkpt lat="46.75305" lon="-1.73703">
        <ele>51</ele>
        <time>2018-03-22T17:23:05Z</time>
      </trkpt>
      <trkpt lat="46.75301" lon="-1.73709">
        <ele>51</ele>
        <time>2018-03-22T17:24:05Z</time>
      </trkpt>
      <trkpt lat="46.75292" lon="-1.73721">
        <ele>51</ele>
        <time>2018-03-22T17:25:05Z</time>
      </trkpt>
      <trkpt lat="46.75285" lon="-1.73733">
        <ele>51</ele>
        <time>2018-03-22T17:26:05Z</time>
      </trkpt>
      <trkpt lat="46.75276" lon="-1.73746">
        <ele>50</ele>
        <time>2018-03-22T17:27:05Z</time>
      </trkpt>
      <trkpt lat="46.75271" lon="-1.73754">
        <ele>50</ele>
        <time>2018-03-22T17:28:05Z</time>
      </trkpt>
      <trkpt lat="46.75268" lon="-1.73759">
        <ele>50</ele>
        <time>2018-03-22T17:29:05Z</time>
      </trkpt>
      <trkpt lat="46.75259" lon="-1.73776">
        <ele>50</ele>
        <time>2018-03-22T17:30:05Z</time>
      </trkpt>
      <trkpt lat="46.75247" lon="-1.738">
        <ele>49</ele>
        <time>2018-03-22T17:31:05Z</time>
      </trkpt>
      <trkpt lat="46.75243" lon="-1.7381">
        <ele>48</ele>
        <time>2018-03-22T17:32:05Z</time>
      </trkpt>
      <trkpt lat="46.75226" lon="-1.73846">
        <ele>47</ele>
        <time>2018-03-22T17:33:05Z</time>
      </trkpt>
      <trkpt lat="46.75216" lon="-1.73867">
        <ele>47</ele>
        <time>2018-03-22T17:34:05Z</time>
      </trkpt>
      <trkpt lat="46.75211" lon="-1.73882">
        <ele>46</ele>
        <time>2018-03-22T17:35:05Z</time>
      </trkpt>
      <trkpt lat="46.75211" lon="-1.73882">
        <ele>46</ele>
        <time>2018-03-22T17:36:05Z</time>
      </trkpt>
      <trkpt lat="46.75201" lon="-1.73873">
        <ele>46</ele>
        <time>2018-03-22T17:37:05Z</time>
      </trkpt>
      <trkpt lat="46.75183" lon="-1.73862">
        <ele>46</ele>
        <time>2018-03-22T17:38:05Z</time>
      </trkpt>
      <trkpt lat="46.75169" lon="-1.73854">
        <ele>46</ele>
        <time>2018-03-22T17:39:05Z</time>
      </trkpt>
      <trkpt lat="46.75153" lon="-1.73848">
        <ele>45</ele>
        <time>2018-03-22T17:40:05Z</time>
      </trkpt>
      <trkpt lat="46.75133" lon="-1.73845">
        <ele>44</ele>
        <time>2018-03-22T17:41:05Z</time>
      </trkpt>
      <trkpt lat="46.75118" lon="-1.73846">
        <ele>43</ele>
        <time>2018-03-22T17:42:05Z</time>
      </trkpt>
      <trkpt lat="46.75041" lon="-1.73853">
        <ele>40</ele>
        <time>2018-03-22T17:43:05Z</time>
      </trkpt>
      <trkpt lat="46.75035" lon="-1.73853">
        <ele>39</ele>
        <time>2018-03-22T17:44:05Z</time>
      </trkpt>
      <trkpt lat="46.75026" lon="-1.73853">
        <ele>39</ele>
        <time>2018-03-22T17:45:05Z</time>
      </trkpt>
      <trkpt lat="46.75012" lon="-1.73852">
        <ele>38</ele>
        <time>2018-03-22T17:46:05Z</time>
      </trkpt>
      <trkpt lat="46.74991" lon="-1.73849">
        <ele>38</ele>
        <time>2018-03-22T17:47:05Z</time>
      </trkpt>
      <trkpt lat="46.74908" lon="-1.73846">
        <ele>33</ele>
        <time>2018-03-22T17:48:05Z</time>
      </trkpt>
      <trkpt lat="46.74883" lon="-1.73854">
        <ele>32</ele>
        <time>2018-03-22T17:49:05Z</time>
      </trkpt>
      <trkpt lat="46.74879" lon="-1.73861">
        <ele>31</ele>
        <time>2018-03-22T17:50:05Z</time>
      </trkpt>
      <trkpt lat="46.74875" lon="-1.73868">
        <ele>31</ele>
        <time>2018-03-22T17:51:05Z</time>
      </trkpt>
      <trkpt lat="46.74871" lon="-1.73872">
        <ele>30</ele>
        <time>2018-03-22T17:52:05Z</time>
      </trkpt>
      <trkpt lat="46.74871" lon="-1.73872">
        <ele>30</ele>
        <time>2018-03-22T17:53:05Z</time>
      </trkpt>
      <trkpt lat="46.74871" lon="-1.73873">
        <ele>30</ele>
        <time>2018-03-22T17:54:05Z</time>
      </trkpt>
      <trkpt lat="46.74871" lon="-1.73874">
        <ele>30</ele>
        <time>2018-03-22T17:55:05Z</time>
      </trkpt>
      <trkpt lat="46.74871" lon="-1.73875">
        <ele>30</ele>
        <time>2018-03-22T17:56:05Z</time>
      </trkpt>
      <trkpt lat="46.74871" lon="-1.73876">
        <ele>30</ele>
        <time>2018-03-22T17:57:05Z</time>
      </trkpt>
      <trkpt lat="46.7487" lon="-1.73877">
        <ele>30</ele>
        <time>2018-03-22T17:58:05Z</time>
      </trkpt>
      <trkpt lat="46.7487" lon="-1.73878">
        <ele>30</ele>
        <time>2018-03-22T17:59:05Z</time>
      </trkpt>
      <trkpt lat="46.7487" lon="-1.73879">
        <ele>30</ele>
        <time>2018-03-22T18:00:05Z</time>
      </trkpt>
      <trkpt lat="46.74869" lon="-1.7388">
        <ele>30</ele>
        <time>2018-03-22T18:01:05Z</time>
      </trkpt>
      <trkpt lat="46.74869" lon="-1.73881">
        <ele>30</ele>
        <time>2018-03-22T18:02:05Z</time>
      </trkpt>
      <trkpt lat="46.74874" lon="-1.739">
        <ele>30</ele>
        <time>2018-03-22T18:03:05Z</time>
      </trkpt>
      <trkpt lat="46.74875" lon="-1.73905">
        <ele>29</ele>
        <time>2018-03-22T18:04:05Z</time>
      </trkpt>
      <trkpt lat="46.74876" lon="-1.73908">
        <ele>29</ele>
        <time>2018-03-22T18:05:05Z</time>
      </trkpt>
      <trkpt lat="46.74882" lon="-1.7392">
        <ele>29</ele>
        <time>2018-03-22T18:06:05Z</time>
      </trkpt>
      <trkpt lat="46.74885" lon="-1.73926">
        <ele>29</ele>
        <time>2018-03-22T18:07:05Z</time>
      </trkpt>
      <trkpt lat="46.7489" lon="-1.73938">
        <ele>28</ele>
        <time>2018-03-22T18:08:05Z</time>
      </trkpt>
      <trkpt lat="46.74897" lon="-1.73949">
        <ele>28</ele>
        <time>2018-03-22T18:09:05Z</time>
      </trkpt>
      <trkpt lat="46.74904" lon="-1.73959">
        <ele>27</ele>
        <time>2018-03-22T18:10:05Z</time>
      </trkpt>
      <trkpt lat="46.74908" lon="-1.73962">
        <ele>27</ele>
        <time>2018-03-22T18:11:05Z</time>
      </trkpt>
      <trkpt lat="46.74912" lon="-1.73965">
        <ele>27</ele>
        <time>2018-03-22T18:12:05Z</time>
      </trkpt>
      <trkpt lat="46.74917" lon="-1.73966">
        <ele>27</ele>
        <time>2018-03-22T18:13:05Z</time>
      </trkpt>
      <trkpt lat="46.74921" lon="-1.73967">
        <ele>27</ele>
        <time>2018-03-22T18:14:05Z</time>
      </trkpt>
      <trkpt lat="46.74925" lon="-1.73968">
        <ele>27</ele>
        <time>2018-03-22T18:15:05Z</time>
      </trkpt>
      <trkpt lat="46.7493" lon="-1.73969">
        <ele>27</ele>
        <time>2018-03-22T18:16:05Z</time>
      </trkpt>
      <trkpt lat="46.74933" lon="-1.7397">
        <ele>28</ele>
        <time>2018-03-22T18:17:05Z</time>
      </trkpt>
      <trkpt lat="46.74937" lon="-1.73972">
        <ele>28</ele>
        <time>2018-03-22T18:18:05Z</time>
      </trkpt>
      <trkpt lat="46.74941" lon="-1.73975">
        <ele>28</ele>
        <time>2018-03-22T18:19:05Z</time>
      </trkpt>
      <trkpt lat="46.74944" lon="-1.73979">
        <ele>28</ele>
        <time>2018-03-22T18:20:05Z</time>
      </trkpt>
      <trkpt lat="46.74973" lon="-1.7402">
        <ele>27</ele>
        <time>2018-03-22T18:21:05Z</time>
      </trkpt>
      <trkpt lat="46.74973" lon="-1.7402">
        <ele>27</ele>
        <time>2018-03-22T18:22:05Z</time>
      </trkpt>
      <trkpt lat="46.74966" lon="-1.74027">
        <ele>27</ele>
        <time>2018-03-22T18:23:05Z</time>
      </trkpt>
      <trkpt lat="46.74963" lon="-1.74029">
        <ele>27</ele>
        <time>2018-03-22T18:24:05Z</time>
      </trkpt>
      <trkpt lat="46.74942" lon="-1.74045">
        <ele>25</ele>
        <time>2018-03-22T18:25:05Z</time>
      </trkpt>
      <trkpt lat="46.74938" lon="-1.74047">
        <ele>25</ele>
        <time>2018-03-22T18:26:05Z</time>
      </trkpt>
      <trkpt lat="46.74934" lon="-1.74049">
        <ele>25</ele>
        <time>2018-03-22T18:27:05Z</time>
      </trkpt>
      <trkpt lat="46.74862" lon="-1.7408">
        <ele>19</ele>
        <time>2018-03-22T18:28:05Z</time>
      </trkpt>
      <trkpt lat="46.74855" lon="-1.74083">
        <ele>19</ele>
        <time>2018-03-22T18:29:05Z</time>
      </trkpt>
      <trkpt lat="46.74851" lon="-1.74084">
        <ele>18</ele>
        <time>2018-03-22T18:30:05Z</time>
      </trkpt>
      <trkpt lat="46.74841" lon="-1.74088">
        <ele>17</ele>
        <time>2018-03-22T18:31:05Z</time>
      </trkpt>
      <trkpt lat="46.74839" lon="-1.74089">
        <ele>17</ele>
        <time>2018-03-22T18:32:05Z</time>
      </trkpt>
      <trkpt lat="46.74838" lon="-1.7409">
        <ele>17</ele>
        <time>2018-03-22T18:33:05Z</time>
      </trkpt>
      <trkpt lat="46.74816" lon="-1.741">
        <ele>15</ele>
        <time>2018-03-22T18:34:05Z</time>
      </trkpt>
      <trkpt lat="46.7481" lon="-1.74103">
        <ele>15</ele>
        <time>2018-03-22T18:35:05Z</time>
      </trkpt>
      <trkpt lat="46.74807" lon="-1.74104">
        <ele>15</ele>
        <time>2018-03-22T18:36:05Z</time>
      </trkpt>
      <trkpt lat="46.74805" lon="-1.74105">
        <ele>14</ele>
        <time>2018-03-22T18:37:05Z</time>
      </trkpt>
      <trkpt lat="46.748" lon="-1.74108">
        <ele>14</ele>
        <time>2018-03-22T18:38:05Z</time>
      </trkpt>
      <trkpt lat="46.74787" lon="-1.74117">
        <ele>13</ele>
        <time>2018-03-22T18:39:05Z</time>
      </trkpt>
      <trkpt lat="46.74778" lon="-1.74124">
        <ele>13</ele>
        <time>2018-03-22T18:40:05Z</time>
      </trkpt>
      <trkpt lat="46.7477" lon="-1.74131">
        <ele>12</ele>
        <time>2018-03-22T18:41:05Z</time>
      </trkpt>
      <trkpt lat="46.74762" lon="-1.74138">
        <ele>12</ele>
        <time>2018-03-22T18:42:05Z</time>
      </trkpt>
      <trkpt lat="46.74756" lon="-1.74143">
        <ele>11</ele>
        <time>2018-03-22T18:43:05Z</time>
      </trkpt>
      <trkpt lat="46.74736" lon="-1.74163">
        <ele>12</ele>
        <time>2018-03-22T18:44:05Z</time>
      </trkpt>
      <trkpt lat="46.74735" lon="-1.74165">
        <ele>12</ele>
        <time>2018-03-22T18:45:05Z</time>
      </trkpt>
      <trkpt lat="46.74733" lon="-1.74169">
        <ele>13</ele>
        <time>2018-03-22T18:46:05Z</time>
      </trkpt>
      <trkpt lat="46.74729" lon="-1.74181">
        <ele>13</ele>
        <time>2018-03-22T18:47:05Z</time>
      </trkpt>
      <trkpt lat="46.74732" lon="-1.74188">
        <ele>13</ele>
        <time>2018-03-22T18:48:05Z</time>
      </trkpt>
      <trkpt lat="46.74734" lon="-1.74192">
        <ele>13</ele>
        <time>2018-03-22T18:49:05Z</time>
      </trkpt>
      <trkpt lat="46.74736" lon="-1.74196">
        <ele>13</ele>
        <time>2018-03-22T18:50:05Z</time>
      </trkpt>
      <trkpt lat="46.74738" lon="-1.74205">
        <ele>13</ele>
        <time>2018-03-22T18:51:05Z</time>
      </trkpt>
      <trkpt lat="46.7474" lon="-1.74216">
        <ele>13</ele>
        <time>2018-03-22T18:52:05Z</time>
      </trkpt>
      <trkpt lat="46.74741" lon="-1.74229">
        <ele>14</ele>
        <time>2018-03-22T18:53:05Z</time>
      </trkpt>
      <trkpt lat="46.74742" lon="-1.74239">
        <ele>14</ele>
        <time>2018-03-22T18:54:05Z</time>
      </trkpt>
      <trkpt lat="46.74741" lon="-1.74282">
        <ele>14</ele>
        <time>2018-03-22T18:55:05Z</time>
      </trkpt>
      <trkpt lat="46.7474" lon="-1.743">
        <ele>14</ele>
        <time>2018-03-22T18:56:05Z</time>
      </trkpt>
      <trkpt lat="46.74739" lon="-1.74314">
        <ele>14</ele>
        <time>2018-03-22T18:57:05Z</time>
      </trkpt>
      <trkpt lat="46.74738" lon="-1.74327">
        <ele>14</ele>
        <time>2018-03-22T18:58:05Z</time>
      </trkpt>
      <trkpt lat="46.74735" lon="-1.74347">
        <ele>15</ele>
        <time>2018-03-22T18:59:05Z</time>
      </trkpt>
      <trkpt lat="46.74732" lon="-1.74359">
        <ele>16</ele>
        <time>2018-03-22T19:00:05Z</time>
      </trkpt>
      <trkpt lat="46.74729" lon="-1.74372">
        <ele>16</ele>
        <time>2018-03-22T19:01:05Z</time>
      </trkpt>
      <trkpt lat="46.74724" lon="-1.74388">
        <ele>17</ele>
        <time>2018-03-22T19:02:05Z</time>
      </trkpt>
      <trkpt lat="46.74719" lon="-1.74402">
        <ele>17</ele>
        <time>2018-03-22T19:03:05Z</time>
      </trkpt>
      <trkpt lat="46.74715" lon="-1.74412">
        <ele>17</ele>
        <time>2018-03-22T19:04:05Z</time>
      </trkpt>
      <trkpt lat="46.74707" lon="-1.74428">
        <ele>18</ele>
        <time>2018-03-22T19:05:05Z</time>
      </trkpt>
      <trkpt lat="46.74699" lon="-1.74442">
        <ele>18</ele>
        <time>2018-03-22T19:06:05Z</time>
      </trkpt>
      <trkpt lat="46.74688" lon="-1.74462">
        <ele>19</ele>
        <time>2018-03-22T19:07:05Z</time>
      </trkpt>
      <trkpt lat="46.74667" lon="-1.74493">
        <ele>20</ele>
        <time>2018-03-22T19:08:05Z</time>
      </trkpt>
      <trkpt lat="46.74631" lon="-1.74544">
        <ele>21</ele>
        <time>2018-03-22T19:09:05Z</time>
      </trkpt>
      <trkpt lat="46.74617" lon="-1.74563">
        <ele>22</ele>
        <time>2018-03-22T19:10:05Z</time>
      </trkpt>
      <trkpt lat="46.74606" lon="-1.74576">
        <ele>23</ele>
        <time>2018-03-22T19:11:05Z</time>
      </trkpt>
      <trkpt lat="46.74603" lon="-1.74581">
        <ele>24</ele>
        <time>2018-03-22T19:12:05Z</time>
      </trkpt>
      <trkpt lat="46.74597" lon="-1.74586">
        <ele>24</ele>
        <time>2018-03-22T19:13:05Z</time>
      </trkpt>
      <trkpt lat="46.74597" lon="-1.74586">
        <ele>24</ele>
        <time>2018-03-22T19:14:05Z</time>
      </trkpt>
      <trkpt lat="46.74599" lon="-1.74596">
        <ele>24</ele>
        <time>2018-03-22T19:15:05Z</time>
      </trkpt>
      <trkpt lat="46.746" lon="-1.74603">
        <ele>24</ele>
        <time>2018-03-22T19:16:05Z</time>
      </trkpt>
      <trkpt lat="46.74603" lon="-1.74617">
        <ele>24</ele>
        <time>2018-03-22T19:17:05Z</time>
      </trkpt>
      <trkpt lat="46.74607" lon="-1.74642">
        <ele>25</ele>
        <time>2018-03-22T19:18:05Z</time>
      </trkpt>
      <trkpt lat="46.74611" lon="-1.74666">
        <ele>25</ele>
        <time>2018-03-22T19:19:05Z</time>
      </trkpt>
      <trkpt lat="46.74617" lon="-1.74692">
        <ele>25</ele>
        <time>2018-03-22T19:20:05Z</time>
      </trkpt>
      <trkpt lat="46.74622" lon="-1.74719">
        <ele>25</ele>
        <time>2018-03-22T19:21:05Z</time>
      </trkpt>
      <trkpt lat="46.74631" lon="-1.74766">
        <ele>25</ele>
        <time>2018-03-22T19:22:05Z</time>
      </trkpt>
      <trkpt lat="46.74637" lon="-1.74797">
        <ele>25</ele>
        <time>2018-03-22T19:23:05Z</time>
      </trkpt>
      <trkpt lat="46.74642" lon="-1.74826">
        <ele>25</ele>
        <time>2018-03-22T19:24:05Z</time>
      </trkpt>
      <trkpt lat="46.74647" lon="-1.74852">
        <ele>24</ele>
        <time>2018-03-22T19:25:05Z</time>
      </trkpt>
      <trkpt lat="46.74649" lon="-1.74874">
        <ele>23</ele>
        <time>2018-03-22T19:26:05Z</time>
      </trkpt>
      <trkpt lat="46.7465" lon="-1.74887">
        <ele>23</ele>
        <time>2018-03-22T19:27:05Z</time>
      </trkpt>
      <trkpt lat="46.7465" lon="-1.749">
        <ele>23</ele>
        <time>2018-03-22T19:28:05Z</time>
      </trkpt>
      <trkpt lat="46.74651" lon="-1.74914">
        <ele>22</ele>
        <time>2018-03-22T19:29:05Z</time>
      </trkpt>
      <trkpt lat="46.74651" lon="-1.74928">
        <ele>22</ele>
        <time>2018-03-22T19:30:05Z</time>
      </trkpt>
      <trkpt lat="46.7465" lon="-1.74942">
        <ele>22</ele>
        <time>2018-03-22T19:31:05Z</time>
      </trkpt>
      <trkpt lat="46.74649" lon="-1.74956">
        <ele>23</ele>
        <time>2018-03-22T19:32:05Z</time>
      </trkpt>
      <trkpt lat="46.74648" lon="-1.7497">
        <ele>23</ele>
        <time>2018-03-22T19:33:05Z</time>
      </trkpt>
      <trkpt lat="46.74647" lon="-1.74984">
        <ele>23</ele>
        <time>2018-03-22T19:34:05Z</time>
      </trkpt>
      <trkpt lat="46.74645" lon="-1.74999">
        <ele>23</ele>
        <time>2018-03-22T19:35:05Z</time>
      </trkpt>
      <trkpt lat="46.74643" lon="-1.75013">
        <ele>23</ele>
        <time>2018-03-22T19:36:05Z</time>
      </trkpt>
      <trkpt lat="46.7464" lon="-1.75028">
        <ele>24</ele>
        <time>2018-03-22T19:37:05Z</time>
      </trkpt>
      <trkpt lat="46.74635" lon="-1.75056">
        <ele>25</ele>
        <time>2018-03-22T19:38:05Z</time>
      </trkpt>
      <trkpt lat="46.74628" lon="-1.751">
        <ele>26</ele>
        <time>2018-03-22T19:39:05Z</time>
      </trkpt>
      <trkpt lat="46.74618" lon="-1.75155">
        <ele>26</ele>
        <time>2018-03-22T19:40:05Z</time>
      </trkpt>
      <trkpt lat="46.74608" lon="-1.75205">
        <ele>25</ele>
        <time>2018-03-22T19:41:05Z</time>
      </trkpt>
      <trkpt lat="46.74601" lon="-1.75236">
        <ele>24</ele>
        <time>2018-03-22T19:42:05Z</time>
      </trkpt>
      <trkpt lat="46.74594" lon="-1.75262">
        <ele>24</ele>
        <time>2018-03-22T19:43:05Z</time>
      </trkpt>
      <trkpt lat="46.7459" lon="-1.75279">
        <ele>24</ele>
        <time>2018-03-22T19:44:05Z</time>
      </trkpt>
      <trkpt lat="46.74585" lon="-1.75294">
        <ele>24</ele>
        <time>2018-03-22T19:45:05Z</time>
      </trkpt>
      <trkpt lat="46.74578" lon="-1.75313">
        <ele>24</ele>
        <time>2018-03-22T19:46:05Z</time>
      </trkpt>
      <trkpt lat="46.74569" lon="-1.75336">
        <ele>24</ele>
        <time>2018-03-22T19:47:05Z</time>
      </trkpt>
      <trkpt lat="46.74557" lon="-1.75364">
        <ele>24</ele>
        <time>2018-03-22T19:48:05Z</time>
      </trkpt>
      <trkpt lat="46.74531" lon="-1.75427">
        <ele>23</ele>
        <time>2018-03-22T19:49:05Z</time>
      </trkpt>
      <trkpt lat="46.74503" lon="-1.75493">
        <ele>23</ele>
        <time>2018-03-22T19:50:05Z</time>
      </trkpt>
      <trkpt lat="46.74458" lon="-1.756">
        <ele>20</ele>
        <time>2018-03-22T19:51:05Z</time>
      </trkpt>
      <trkpt lat="46.74438" lon="-1.75646">
        <ele>21</ele>
        <time>2018-03-22T19:52:05Z</time>
      </trkpt>
      <trkpt lat="46.74421" lon="-1.75687">
        <ele>20</ele>
        <time>2018-03-22T19:53:05Z</time>
      </trkpt>
      <trkpt lat="46.74404" lon="-1.75728">
        <ele>20</ele>
        <time>2018-03-22T19:54:05Z</time>
      </trkpt>
      <trkpt lat="46.74383" lon="-1.75777">
        <ele>20</ele>
        <time>2018-03-22T19:55:05Z</time>
      </trkpt>
      <trkpt lat="46.74359" lon="-1.75834">
        <ele>20</ele>
        <time>2018-03-22T19:56:05Z</time>
      </trkpt>
      <trkpt lat="46.74316" lon="-1.7594">
        <ele>20</ele>
        <time>2018-03-22T19:57:05Z</time>
      </trkpt>
      <trkpt lat="46.74294" lon="-1.75991">
        <ele>21</ele>
        <time>2018-03-22T19:58:05Z</time>
      </trkpt>
      <trkpt lat="46.74284" lon="-1.76017">
        <ele>20</ele>
        <time>2018-03-22T19:59:05Z</time>
      </trkpt>
      <trkpt lat="46.74273" lon="-1.7604">
        <ele>20</ele>
        <time>2018-03-22T20:00:05Z</time>
      </trkpt>
      <trkpt lat="46.74262" lon="-1.76064">
        <ele>21</ele>
        <time>2018-03-22T20:01:05Z</time>
      </trkpt>
      <trkpt lat="46.7425" lon="-1.76087">
        <ele>21</ele>
        <time>2018-03-22T20:02:05Z</time>
      </trkpt>
      <trkpt lat="46.74237" lon="-1.7611">
        <ele>21</ele>
        <time>2018-03-22T20:03:05Z</time>
      </trkpt>
      <trkpt lat="46.74218" lon="-1.76144">
        <ele>21</ele>
        <time>2018-03-22T20:04:05Z</time>
      </trkpt>
      <trkpt lat="46.74198" lon="-1.76178">
        <ele>22</ele>
        <time>2018-03-22T20:05:05Z</time>
      </trkpt>
      <trkpt lat="46.7418" lon="-1.76211">
        <ele>23</ele>
        <time>2018-03-22T20:06:05Z</time>
      </trkpt>
      <trkpt lat="46.74169" lon="-1.76234">
        <ele>24</ele>
        <time>2018-03-22T20:07:05Z</time>
      </trkpt>
      <trkpt lat="46.74165" lon="-1.76245">
        <ele>24</ele>
        <time>2018-03-22T20:08:05Z</time>
      </trkpt>
      <trkpt lat="46.7416" lon="-1.76258">
        <ele>24</ele>
        <time>2018-03-22T20:09:05Z</time>
      </trkpt>
      <trkpt lat="46.74156" lon="-1.76271">
        <ele>23</ele>
        <time>2018-03-22T20:10:05Z</time>
      </trkpt>
      <trkpt lat="46.74152" lon="-1.76284">
        <ele>23</ele>
        <time>2018-03-22T20:11:05Z</time>
      </trkpt>
      <trkpt lat="46.74149" lon="-1.76298">
        <ele>23</ele>
        <time>2018-03-22T20:12:05Z</time>
      </trkpt>
      <trkpt lat="46.74146" lon="-1.7631">
        <ele>22</ele>
        <time>2018-03-22T20:13:05Z</time>
      </trkpt>
      <trkpt lat="46.74145" lon="-1.76325">
        <ele>22</ele>
        <time>2018-03-22T20:14:05Z</time>
      </trkpt>
      <trkpt lat="46.74143" lon="-1.76338">
        <ele>21</ele>
        <time>2018-03-22T20:15:05Z</time>
      </trkpt>
      <trkpt lat="46.74141" lon="-1.76353">
        <ele>21</ele>
        <time>2018-03-22T20:16:05Z</time>
      </trkpt>
      <trkpt lat="46.74141" lon="-1.7637">
        <ele>21</ele>
        <time>2018-03-22T20:17:05Z</time>
      </trkpt>
      <trkpt lat="46.7414" lon="-1.76389">
        <ele>20</ele>
        <time>2018-03-22T20:18:05Z</time>
      </trkpt>
      <trkpt lat="46.74139" lon="-1.76446">
        <ele>19</ele>
        <time>2018-03-22T20:19:05Z</time>
      </trkpt>
      <trkpt lat="46.74138" lon="-1.76554">
        <ele>16</ele>
        <time>2018-03-22T20:20:05Z</time>
      </trkpt>
      <trkpt lat="46.74139" lon="-1.76638">
        <ele>14</ele>
        <time>2018-03-22T20:21:05Z</time>
      </trkpt>
      <trkpt lat="46.74139" lon="-1.76723">
        <ele>11</ele>
        <time>2018-03-22T20:22:05Z</time>
      </trkpt>
      <trkpt lat="46.74139" lon="-1.76768">
        <ele>10</ele>
        <time>2018-03-22T20:23:05Z</time>
      </trkpt>
      <trkpt lat="46.74139" lon="-1.76776">
        <ele>11</ele>
        <time>2018-03-22T20:24:05Z</time>
      </trkpt>
      <trkpt lat="46.74139" lon="-1.76781">
        <ele>11</ele>
        <time>2018-03-22T20:25:05Z</time>
      </trkpt>
      <trkpt lat="46.7414" lon="-1.76889">
        <ele>11</ele>
        <time>2018-03-22T20:26:05Z</time>
      </trkpt>
      <trkpt lat="46.7414" lon="-1.76915">
        <ele>11</ele>
        <time>2018-03-22T20:27:05Z</time>
      </trkpt>
      <trkpt lat="46.74139" lon="-1.76937">
        <ele>11</ele>
        <time>2018-03-22T20:28:05Z</time>
      </trkpt>
      <trkpt lat="46.74138" lon="-1.76955">
        <ele>10</ele>
        <time>2018-03-22T20:29:05Z</time>
      </trkpt>
      <trkpt lat="46.74136" lon="-1.76968">
        <ele>10</ele>
        <time>2018-03-22T20:30:05Z</time>
      </trkpt>
      <trkpt lat="46.74135" lon="-1.76981">
        <ele>10</ele>
        <time>2018-03-22T20:31:05Z</time>
      </trkpt>
      <trkpt lat="46.74132" lon="-1.76994">
        <ele>10</ele>
        <time>2018-03-22T20:32:05Z</time>
      </trkpt>
      <trkpt lat="46.74129" lon="-1.77007">
        <ele>10</ele>
        <time>2018-03-22T20:33:05Z</time>
      </trkpt>
      <trkpt lat="46.74122" lon="-1.77035">
        <ele>11</ele>
        <time>2018-03-22T20:34:05Z</time>
      </trkpt>
      <trkpt lat="46.74112" lon="-1.77067">
        <ele>12</ele>
        <time>2018-03-22T20:35:05Z</time>
      </trkpt>
      <trkpt lat="46.74097" lon="-1.77112">
        <ele>14</ele>
        <time>2018-03-22T20:36:05Z</time>
      </trkpt>
      <trkpt lat="46.74079" lon="-1.77166">
        <ele>15</ele>
        <time>2018-03-22T20:37:05Z</time>
      </trkpt>
      <trkpt lat="46.74058" lon="-1.77229">
        <ele>16</ele>
        <time>2018-03-22T20:38:05Z</time>
      </trkpt>
      <trkpt lat="46.74042" lon="-1.77279">
        <ele>16</ele>
        <time>2018-03-22T20:39:05Z</time>
      </trkpt>
      <trkpt lat="46.74017" lon="-1.77356">
        <ele>16</ele>
        <time>2018-03-22T20:40:05Z</time>
      </trkpt>
      <trkpt lat="46.73998" lon="-1.77414">
        <ele>16</ele>
        <time>2018-03-22T20:41:05Z</time>
      </trkpt>
      <trkpt lat="46.7399" lon="-1.77443">
        <ele>16</ele>
        <time>2018-03-22T20:42:05Z</time>
      </trkpt>
      <trkpt lat="46.73986" lon="-1.77462">
        <ele>16</ele>
        <time>2018-03-22T20:43:05Z</time>
      </trkpt>
      <trkpt lat="46.73982" lon="-1.7748">
        <ele>17</ele>
        <time>2018-03-22T20:44:05Z</time>
      </trkpt>
      <trkpt lat="46.7398" lon="-1.77497">
        <ele>17</ele>
        <time>2018-03-22T20:45:05Z</time>
      </trkpt>
      <trkpt lat="46.73977" lon="-1.77528">
        <ele>17</ele>
        <time>2018-03-22T20:46:05Z</time>
      </trkpt>
      <trkpt lat="46.73975" lon="-1.77559">
        <ele>16</ele>
        <time>2018-03-22T20:47:05Z</time>
      </trkpt>
      <trkpt lat="46.73967" lon="-1.77662">
        <ele>16</ele>
        <time>2018-03-22T20:48:05Z</time>
      </trkpt>
      <trkpt lat="46.73965" lon="-1.77681">
        <ele>16</ele>
        <time>2018-03-22T20:49:05Z</time>
      </trkpt>
      <trkpt lat="46.73961" lon="-1.77735">
        <ele>16</ele>
        <time>2018-03-22T20:50:05Z</time>
      </trkpt>
      <trkpt lat="46.73959" lon="-1.77764">
        <ele>16</ele>
        <time>2018-03-22T20:51:05Z</time>
      </trkpt>
      <trkpt lat="46.73954" lon="-1.77822">
        <ele>17</ele>
        <time>2018-03-22T20:52:05Z</time>
      </trkpt>
      <trkpt lat="46.7395" lon="-1.77883">
        <ele>19</ele>
        <time>2018-03-22T20:53:05Z</time>
      </trkpt>
      <trkpt lat="46.73944" lon="-1.77959">
        <ele>20</ele>
        <time>2018-03-22T20:54:05Z</time>
      </trkpt>
      <trkpt lat="46.73939" lon="-1.78038">
        <ele>20</ele>
        <time>2018-03-22T20:55:05Z</time>
      </trkpt>
      <trkpt lat="46.73938" lon="-1.78043">
        <ele>20</ele>
        <time>2018-03-22T20:56:05Z</time>
      </trkpt>
      <trkpt lat="46.73934" lon="-1.78092">
        <ele>20</ele>
        <time>2018-03-22T20:57:05Z</time>
      </trkpt>
      <trkpt lat="46.73933" lon="-1.78105">
        <ele>20</ele>
        <time>2018-03-22T20:58:05Z</time>
      </trkpt>
      <trkpt lat="46.73932" lon="-1.78123">
        <ele>20</ele>
        <time>2018-03-22T20:59:05Z</time>
      </trkpt>
      <trkpt lat="46.73928" lon="-1.78144">
        <ele>20</ele>
        <time>2018-03-22T21:00:05Z</time>
      </trkpt>
      <trkpt lat="46.73925" lon="-1.78164">
        <ele>20</ele>
        <time>2018-03-22T21:01:05Z</time>
      </trkpt>
      <trkpt lat="46.73921" lon="-1.78185">
        <ele>20</ele>
        <time>2018-03-22T21:02:05Z</time>
      </trkpt>
      <trkpt lat="46.73905" lon="-1.78253">
        <ele>20</ele>
        <time>2018-03-22T21:03:05Z</time>
      </trkpt>
      <trkpt lat="46.73895" lon="-1.78298">
        <ele>20</ele>
        <time>2018-03-22T21:04:05Z</time>
      </trkpt>
      <trkpt lat="46.73893" lon="-1.78302">
        <ele>20</ele>
        <time>2018-03-22T21:05:05Z</time>
      </trkpt>
      <trkpt lat="46.73892" lon="-1.78308">
        <ele>20</ele>
        <time>2018-03-22T21:06:05Z</time>
      </trkpt>
      <trkpt lat="46.73884" lon="-1.78341">
        <ele>20</ele>
        <time>2018-03-22T21:07:05Z</time>
      </trkpt>
      <trkpt lat="46.73877" lon="-1.78375">
        <ele>19</ele>
        <time>2018-03-22T21:08:05Z</time>
      </trkpt>
      <trkpt lat="46.73871" lon="-1.78402">
        <ele>17</ele>
        <time>2018-03-22T21:09:05Z</time>
      </trkpt>
      <trkpt lat="46.73869" lon="-1.78415">
        <ele>17</ele>
        <time>2018-03-22T21:10:05Z</time>
      </trkpt>
      <trkpt lat="46.73868" lon="-1.78423">
        <ele>16</ele>
        <time>2018-03-22T21:11:05Z</time>
      </trkpt>
      <trkpt lat="46.73867" lon="-1.78435">
        <ele>16</ele>
        <time>2018-03-22T21:12:05Z</time>
      </trkpt>
      <trkpt lat="46.73866" lon="-1.7845">
        <ele>16</ele>
        <time>2018-03-22T21:13:05Z</time>
      </trkpt>
      <trkpt lat="46.73866" lon="-1.78465">
        <ele>15</ele>
        <time>2018-03-22T21:14:05Z</time>
      </trkpt>
      <trkpt lat="46.73866" lon="-1.7848">
        <ele>15</ele>
        <time>2018-03-22T21:15:05Z</time>
      </trkpt>
      <trkpt lat="46.73866" lon="-1.78483">
        <ele>15</ele>
        <time>2018-03-22T21:16:05Z</time>
      </trkpt>
      <trkpt lat="46.73868" lon="-1.78495">
        <ele>14</ele>
        <time>2018-03-22T21:17:05Z</time>
      </trkpt>
      <trkpt lat="46.73868" lon="-1.78503">
        <ele>14</ele>
        <time>2018-03-22T21:18:05Z</time>
      </trkpt>
      <trkpt lat="46.7387" lon="-1.78512">
        <ele>14</ele>
        <time>2018-03-22T21:19:05Z</time>
      </trkpt>
      <trkpt lat="46.73872" lon="-1.78526">
        <ele>15</ele>
        <time>2018-03-22T21:20:05Z</time>
      </trkpt>
      <trkpt lat="46.73875" lon="-1.7854">
        <ele>15</ele>
        <time>2018-03-22T21:21:05Z</time>
      </trkpt>
      <trkpt lat="46.73879" lon="-1.78557">
        <ele>15</ele>
        <time>2018-03-22T21:22:05Z</time>
      </trkpt>
      <trkpt lat="46.73884" lon="-1.78572">
        <ele>15</ele>
        <time>2018-03-22T21:23:05Z</time>
      </trkpt>
      <trkpt lat="46.73886" lon="-1.78579">
        <ele>15</ele>
        <time>2018-03-22T21:24:05Z</time>
      </trkpt>
      <trkpt lat="46.7389" lon="-1.78591">
        <ele>15</ele>
        <time>2018-03-22T21:25:05Z</time>
      </trkpt>
      <trkpt lat="46.73895" lon="-1.78603">
        <ele>15</ele>
        <time>2018-03-22T21:26:05Z</time>
      </trkpt>
      <trkpt lat="46.73898" lon="-1.7861">
        <ele>15</ele>
        <time>2018-03-22T21:27:05Z</time>
      </trkpt>
      <trkpt lat="46.73901" lon="-1.78617">
        <ele>15</ele>
        <time>2018-03-22T21:28:05Z</time>
      </trkpt>
      <trkpt lat="46.73911" lon="-1.78638">
        <ele>15</ele>
        <time>2018-03-22T21:29:05Z</time>
      </trkpt>
      <trkpt lat="46.73922" lon="-1.78659">
        <ele>15</ele>
        <time>2018-03-22T21:30:05Z</time>
      </trkpt>
      <trkpt lat="46.73933" lon="-1.78681">
        <ele>15</ele>
        <time>2018-03-22T21:31:05Z</time>
      </trkpt>
      <trkpt lat="46.73937" lon="-1.7869">
        <ele>15</ele>
        <time>2018-03-22T21:32:05Z</time>
      </trkpt>
      <trkpt lat="46.7394" lon="-1.787">
        <ele>15</ele>
        <time>2018-03-22T21:33:05Z</time>
      </trkpt>
      <trkpt lat="46.73941" lon="-1.78708">
        <ele>15</ele>
        <time>2018-03-22T21:34:05Z</time>
      </trkpt>
      <trkpt lat="46.73942" lon="-1.78713">
        <ele>15</ele>
        <time>2018-03-22T21:35:05Z</time>
      </trkpt>
      <trkpt lat="46.73943" lon="-1.78717">
        <ele>15</ele>
        <time>2018-03-22T21:36:05Z</time>
      </trkpt>
      <trkpt lat="46.73944" lon="-1.78725">
        <ele>15</ele>
        <time>2018-03-22T21:37:05Z</time>
      </trkpt>
      <trkpt lat="46.73946" lon="-1.78733">
        <ele>15</ele>
        <time>2018-03-22T21:38:05Z</time>
      </trkpt>
      <trkpt lat="46.73949" lon="-1.78739">
        <ele>15</ele>
        <time>2018-03-22T21:39:05Z</time>
      </trkpt>
      <trkpt lat="46.73951" lon="-1.78746">
        <ele>15</ele>
        <time>2018-03-22T21:40:05Z</time>
      </trkpt>
      <trkpt lat="46.73955" lon="-1.78753">
        <ele>15</ele>
        <time>2018-03-22T21:41:05Z</time>
      </trkpt>
      <trkpt lat="46.73959" lon="-1.78761">
        <ele>16</ele>
        <time>2018-03-22T21:42:05Z</time>
      </trkpt>
      <trkpt lat="46.73965" lon="-1.7877">
        <ele>16</ele>
        <time>2018-03-22T21:43:05Z</time>
      </trkpt>
      <trkpt lat="46.7397" lon="-1.78781">
        <ele>16</ele>
        <time>2018-03-22T21:44:05Z</time>
      </trkpt>
      <trkpt lat="46.73985" lon="-1.78809">
        <ele>17</ele>
        <time>2018-03-22T21:45:05Z</time>
      </trkpt>
      <trkpt lat="46.73986" lon="-1.78812">
        <ele>17</ele>
        <time>2018-03-22T21:46:05Z</time>
      </trkpt>
      <trkpt lat="46.73998" lon="-1.78838">
        <ele>18</ele>
        <time>2018-03-22T21:47:05Z</time>
      </trkpt>
      <trkpt lat="46.7401" lon="-1.78872">
        <ele>19</ele>
        <time>2018-03-22T21:48:05Z</time>
      </trkpt>
      <trkpt lat="46.74022" lon="-1.78919">
        <ele>21</ele>
        <time>2018-03-22T21:49:05Z</time>
      </trkpt>
      <trkpt lat="46.74027" lon="-1.78946">
        <ele>21</ele>
        <time>2018-03-22T21:50:05Z</time>
      </trkpt>
      <trkpt lat="46.74029" lon="-1.78959">
        <ele>22</ele>
        <time>2018-03-22T21:51:05Z</time>
      </trkpt>
      <trkpt lat="46.74029" lon="-1.78974">
        <ele>22</ele>
        <time>2018-03-22T21:52:05Z</time>
      </trkpt>
      <trkpt lat="46.7403" lon="-1.78986">
        <ele>22</ele>
        <time>2018-03-22T21:53:05Z</time>
      </trkpt>
      <trkpt lat="46.74029" lon="-1.79017">
        <ele>22</ele>
        <time>2018-03-22T21:54:05Z</time>
      </trkpt>
      <trkpt lat="46.74029" lon="-1.7905">
        <ele>23</ele>
        <time>2018-03-22T21:55:05Z</time>
      </trkpt>
      <trkpt lat="46.74026" lon="-1.79105">
        <ele>23</ele>
        <time>2018-03-22T21:56:05Z</time>
      </trkpt>
      <trkpt lat="46.74026" lon="-1.79136">
        <ele>23</ele>
        <time>2018-03-22T21:57:05Z</time>
      </trkpt>
      <trkpt lat="46.74024" lon="-1.79156">
        <ele>23</ele>
        <time>2018-03-22T21:58:05Z</time>
      </trkpt>
      <trkpt lat="46.74023" lon="-1.79161">
        <ele>23</ele>
        <time>2018-03-22T21:59:05Z</time>
      </trkpt>
      <trkpt lat="46.74022" lon="-1.79166">
        <ele>23</ele>
        <time>2018-03-22T22:00:05Z</time>
      </trkpt>
      <trkpt lat="46.74021" lon="-1.79176">
        <ele>23</ele>
        <time>2018-03-22T22:01:05Z</time>
      </trkpt>
      <trkpt lat="46.74021" lon="-1.79176">
        <ele>23</ele>
        <time>2018-03-22T22:02:05Z</time>
      </trkpt>
      <trkpt lat="46.74023" lon="-1.79177">
        <ele>23</ele>
        <time>2018-03-22T22:03:05Z</time>
      </trkpt>
      <trkpt lat="46.74025" lon="-1.79178">
        <ele>23</ele>
        <time>2018-03-22T22:04:05Z</time>
      </trkpt>
      <trkpt lat="46.74035" lon="-1.79181">
        <ele>23</ele>
        <time>2018-03-22T22:05:05Z</time>
      </trkpt>
      <trkpt lat="46.74042" lon="-1.79183">
        <ele>23</ele>
        <time>2018-03-22T22:06:05Z</time>
      </trkpt>
      <trkpt lat="46.74063" lon="-1.7919">
        <ele>23</ele>
        <time>2018-03-22T22:07:05Z</time>
      </trkpt>
      <trkpt lat="46.74113" lon="-1.79206">
        <ele>24</ele>
        <time>2018-03-22T22:08:05Z</time>
      </trkpt>
      <trkpt lat="46.74136" lon="-1.79214">
        <ele>24</ele>
        <time>2018-03-22T22:09:05Z</time>
      </trkpt>
      <trkpt lat="46.74168" lon="-1.79223">
        <ele>24</ele>
        <time>2018-03-22T22:10:05Z</time>
      </trkpt>
      <trkpt lat="46.74221" lon="-1.79241">
        <ele>24</ele>
        <time>2018-03-22T22:11:05Z</time>
      </trkpt>
      <trkpt lat="46.74255" lon="-1.79251">
        <ele>23</ele>
        <time>2018-03-22T22:12:05Z</time>
      </trkpt>
      <trkpt lat="46.74283" lon="-1.79259">
        <ele>22</ele>
        <time>2018-03-22T22:13:05Z</time>
      </trkpt>
      <trkpt lat="46.7434" lon="-1.79276">
        <ele>21</ele>
        <time>2018-03-22T22:14:05Z</time>
      </trkpt>
      <trkpt lat="46.74356" lon="-1.79281">
        <ele>20</ele>
        <time>2018-03-22T22:15:05Z</time>
      </trkpt>
      <trkpt lat="46.74367" lon="-1.79285">
        <ele>20</ele>
        <time>2018-03-22T22:16:05Z</time>
      </trkpt>
      <trkpt lat="46.74378" lon="-1.79289">
        <ele>19</ele>
        <time>2018-03-22T22:17:05Z</time>
      </trkpt>
      <trkpt lat="46.74387" lon="-1.79294">
        <ele>19</ele>
        <time>2018-03-22T22:18:05Z</time>
      </trkpt>
      <trkpt lat="46.74396" lon="-1.79299">
        <ele>19</ele>
        <time>2018-03-22T22:19:05Z</time>
      </trkpt>
      <trkpt lat="46.74405" lon="-1.79304">
        <ele>19</ele>
        <time>2018-03-22T22:20:05Z</time>
      </trkpt>
      <trkpt lat="46.74416" lon="-1.79313">
        <ele>19</ele>
        <time>2018-03-22T22:21:05Z</time>
      </trkpt>
      <trkpt lat="46.7442" lon="-1.79317">
        <ele>19</ele>
        <time>2018-03-22T22:22:05Z</time>
      </trkpt>
      <trkpt lat="46.74423" lon="-1.7932">
        <ele>18</ele>
        <time>2018-03-22T22:23:05Z</time>
      </trkpt>
      <trkpt lat="46.74426" lon="-1.79323">
        <ele>18</ele>
        <time>2018-03-22T22:24:05Z</time>
      </trkpt>
      <trkpt lat="46.74439" lon="-1.79337">
        <ele>18</ele>
        <time>2018-03-22T22:25:05Z</time>
      </trkpt>
      <trkpt lat="46.74452" lon="-1.79353">
        <ele>18</ele>
        <time>2018-03-22T22:26:05Z</time>
      </trkpt>
      <trkpt lat="46.74469" lon="-1.79377">
        <ele>17</ele>
        <time>2018-03-22T22:27:05Z</time>
      </trkpt>
      <trkpt lat="46.7449" lon="-1.79409">
        <ele>17</ele>
        <time>2018-03-22T22:28:05Z</time>
      </trkpt>
      <trkpt lat="46.74528" lon="-1.79473">
        <ele>16</ele>
        <time>2018-03-22T22:29:05Z</time>
      </trkpt>
      <trkpt lat="46.74548" lon="-1.79503">
        <ele>15</ele>
        <time>2018-03-22T22:30:05Z</time>
      </trkpt>
      <trkpt lat="46.74552" lon="-1.7951">
        <ele>15</ele>
        <time>2018-03-22T22:31:05Z</time>
      </trkpt>
      <trkpt lat="46.74552" lon="-1.7951">
        <ele>15</ele>
        <time>2018-03-22T22:32:05Z</time>
      </trkpt>
      <trkpt lat="46.74557" lon="-1.79518">
        <ele>15</ele>
        <time>2018-03-22T22:33:05Z</time>
      </trkpt>
      <trkpt lat="46.74562" lon="-1.79524">
        <ele>15</ele>
        <time>2018-03-22T22:34:05Z</time>
      </trkpt>
      <trkpt lat="46.74561" lon="-1.79537">
        <ele>15</ele>
        <time>2018-03-22T22:35:05Z</time>
      </trkpt>
      <trkpt lat="46.74558" lon="-1.79546">
        <ele>15</ele>
        <time>2018-03-22T22:36:05Z</time>
      </trkpt>
      <trkpt lat="46.74559" lon="-1.79553">
        <ele>15</ele>
        <time>2018-03-22T22:37:05Z</time>
      </trkpt>
      <trkpt lat="46.74561" lon="-1.7956">
        <ele>15</ele>
        <time>2018-03-22T22:38:05Z</time>
      </trkpt>
      <trkpt lat="46.74562" lon="-1.79564">
        <ele>15</ele>
        <time>2018-03-22T22:39:05Z</time>
      </trkpt>
      <trkpt lat="46.74566" lon="-1.79571">
        <ele>15</ele>
        <time>2018-03-22T22:40:05Z</time>
      </trkpt>
      <trkpt lat="46.74571" lon="-1.79584">
        <ele>15</ele>
        <time>2018-03-22T22:41:05Z</time>
      </trkpt>
      <trkpt lat="46.74574" lon="-1.79591">
        <ele>15</ele>
        <time>2018-03-22T22:42:05Z</time>
      </trkpt>
      <trkpt lat="46.74577" lon="-1.79599">
        <ele>15</ele>
        <time>2018-03-22T22:43:05Z</time>
      </trkpt>
      <trkpt lat="46.7458" lon="-1.79609">
        <ele>15</ele>
        <time>2018-03-22T22:44:05Z</time>
      </trkpt>
      <trkpt lat="46.74582" lon="-1.79617">
        <ele>15</ele>
        <time>2018-03-22T22:45:05Z</time>
      </trkpt>
      <trkpt lat="46.74587" lon="-1.79644">
        <ele>16</ele>
        <time>2018-03-22T22:46:05Z</time>
      </trkpt>
      <trkpt lat="46.74595" lon="-1.79697">
        <ele>16</ele>
        <time>2018-03-22T22:47:05Z</time>
      </trkpt>
      <trkpt lat="46.74603" lon="-1.79744">
        <ele>15</ele>
        <time>2018-03-22T22:48:05Z</time>
      </trkpt>
      <trkpt lat="46.74607" lon="-1.79767">
        <ele>15</ele>
        <time>2018-03-22T22:49:05Z</time>
      </trkpt>
      <trkpt lat="46.74612" lon="-1.79796">
        <ele>15</ele>
        <time>2018-03-22T22:50:05Z</time>
      </trkpt>
      <trkpt lat="46.74619" lon="-1.79836">
        <ele>15</ele>
        <time>2018-03-22T22:51:05Z</time>
      </trkpt>
      <trkpt lat="46.74621" lon="-1.79854">
        <ele>15</ele>
        <time>2018-03-22T22:52:05Z</time>
      </trkpt>
      <trkpt lat="46.74621" lon="-1.79856">
        <ele>15</ele>
        <time>2018-03-22T22:53:05Z</time>
      </trkpt>
      <trkpt lat="46.74621" lon="-1.79869">
        <ele>15</ele>
        <time>2018-03-22T22:54:05Z</time>
      </trkpt>
      <trkpt lat="46.74621" lon="-1.79889">
        <ele>15</ele>
        <time>2018-03-22T22:55:05Z</time>
      </trkpt>
      <trkpt lat="46.74618" lon="-1.79939">
        <ele>15</ele>
        <time>2018-03-22T22:56:05Z</time>
      </trkpt>
      <trkpt lat="46.74613" lon="-1.80001">
        <ele>16</ele>
        <time>2018-03-22T22:57:05Z</time>
      </trkpt>
      <trkpt lat="46.74608" lon="-1.80068">
        <ele>17</ele>
        <time>2018-03-22T22:58:05Z</time>
      </trkpt>
      <trkpt lat="46.74606" lon="-1.80097">
        <ele>17</ele>
        <time>2018-03-22T22:59:05Z</time>
      </trkpt>
      <trkpt lat="46.74603" lon="-1.80116">
        <ele>17</ele>
        <time>2018-03-22T23:00:05Z</time>
      </trkpt>
      <trkpt lat="46.74601" lon="-1.80134">
        <ele>17</ele>
        <time>2018-03-22T23:01:05Z</time>
      </trkpt>
      <trkpt lat="46.74599" lon="-1.80149">
        <ele>17</ele>
        <time>2018-03-22T23:02:05Z</time>
      </trkpt>
      <trkpt lat="46.74598" lon="-1.80155">
        <ele>17</ele>
        <time>2018-03-22T23:03:05Z</time>
      </trkpt>
      <trkpt lat="46.74594" lon="-1.8017">
        <ele>17</ele>
        <time>2018-03-22T23:04:05Z</time>
      </trkpt>
      <trkpt lat="46.74591" lon="-1.80184">
        <ele>17</ele>
        <time>2018-03-22T23:05:05Z</time>
      </trkpt>
      <trkpt lat="46.74587" lon="-1.80197">
        <ele>17</ele>
        <time>2018-03-22T23:06:05Z</time>
      </trkpt>
      <trkpt lat="46.74582" lon="-1.80208">
        <ele>18</ele>
        <time>2018-03-22T23:07:05Z</time>
      </trkpt>
      <trkpt lat="46.74576" lon="-1.80223">
        <ele>18</ele>
        <time>2018-03-22T23:08:05Z</time>
      </trkpt>
      <trkpt lat="46.74569" lon="-1.80237">
        <ele>18</ele>
        <time>2018-03-22T23:09:05Z</time>
      </trkpt>
      <trkpt lat="46.74557" lon="-1.80255">
        <ele>18</ele>
        <time>2018-03-22T23:10:05Z</time>
      </trkpt>
      <trkpt lat="46.7454" lon="-1.80281">
        <ele>18</ele>
        <time>2018-03-22T23:11:05Z</time>
      </trkpt>
      <trkpt lat="46.74516" lon="-1.80316">
        <ele>18</ele>
        <time>2018-03-22T23:12:05Z</time>
      </trkpt>
      <trkpt lat="46.74508" lon="-1.80327">
        <ele>18</ele>
        <time>2018-03-22T23:13:05Z</time>
      </trkpt>
      <trkpt lat="46.7448" lon="-1.80369">
        <ele>19</ele>
        <time>2018-03-22T23:14:05Z</time>
      </trkpt>
      <trkpt lat="46.7445" lon="-1.80413">
        <ele>20</ele>
        <time>2018-03-22T23:15:05Z</time>
      </trkpt>
      <trkpt lat="46.74446" lon="-1.80418">
        <ele>20</ele>
        <time>2018-03-22T23:16:05Z</time>
      </trkpt>
      <trkpt lat="46.74401" lon="-1.80483">
        <ele>20</ele>
        <time>2018-03-22T23:17:05Z</time>
      </trkpt>
      <trkpt lat="46.7435" lon="-1.80557">
        <ele>20</ele>
        <time>2018-03-22T23:18:05Z</time>
      </trkpt>
      <trkpt lat="46.74303" lon="-1.80624">
        <ele>19</ele>
        <time>2018-03-22T23:19:05Z</time>
      </trkpt>
      <trkpt lat="46.74295" lon="-1.80636">
        <ele>19</ele>
        <time>2018-03-22T23:20:05Z</time>
      </trkpt>
      <trkpt lat="46.74281" lon="-1.80656">
        <ele>19</ele>
        <time>2018-03-22T23:21:05Z</time>
      </trkpt>
      <trkpt lat="46.74254" lon="-1.80694">
        <ele>19</ele>
        <time>2018-03-22T23:22:05Z</time>
      </trkpt>
      <trkpt lat="46.74233" lon="-1.80727">
        <ele>19</ele>
        <time>2018-03-22T23:23:05Z</time>
      </trkpt>
      <trkpt lat="46.74226" lon="-1.8074">
        <ele>19</ele>
        <time>2018-03-22T23:24:05Z</time>
      </trkpt>
      <trkpt lat="46.7422" lon="-1.80751">
        <ele>19</ele>
        <time>2018-03-22T23:25:05Z</time>
      </trkpt>
      <trkpt lat="46.74215" lon="-1.80761">
        <ele>19</ele>
        <time>2018-03-22T23:26:05Z</time>
      </trkpt>
      <trkpt lat="46.7421" lon="-1.80775">
        <ele>20</ele>
        <time>2018-03-22T23:27:05Z</time>
      </trkpt>
      <trkpt lat="46.74204" lon="-1.80789">
        <ele>20</ele>
        <time>2018-03-22T23:28:05Z</time>
      </trkpt>
      <trkpt lat="46.74198" lon="-1.80806">
        <ele>20</ele>
        <time>2018-03-22T23:29:05Z</time>
      </trkpt>
      <trkpt lat="46.74191" lon="-1.80825">
        <ele>20</ele>
        <time>2018-03-22T23:30:05Z</time>
      </trkpt>
      <trkpt lat="46.74185" lon="-1.80851">
        <ele>21</ele>
        <time>2018-03-22T23:31:05Z</time>
      </trkpt>
      <trkpt lat="46.74183" lon="-1.8086">
        <ele>21</ele>
        <time>2018-03-22T23:32:05Z</time>
      </trkpt>
      <trkpt lat="46.74182" lon="-1.80866">
        <ele>21</ele>
        <time>2018-03-22T23:33:05Z</time>
      </trkpt>
      <trkpt lat="46.7417" lon="-1.80911">
        <ele>21</ele>
        <time>2018-03-22T23:34:05Z</time>
      </trkpt>
      <trkpt lat="46.74158" lon="-1.8096">
        <ele>21</ele>
        <time>2018-03-22T23:35:05Z</time>
      </trkpt>
      <trkpt lat="46.74145" lon="-1.81014">
        <ele>21</ele>
        <time>2018-03-22T23:36:05Z</time>
      </trkpt>
      <trkpt lat="46.74133" lon="-1.81068">
        <ele>22</ele>
        <time>2018-03-22T23:37:05Z</time>
      </trkpt>
      <trkpt lat="46.74123" lon="-1.8111">
        <ele>22</ele>
        <time>2018-03-22T23:38:05Z</time>
      </trkpt>
      <trkpt lat="46.74112" lon="-1.8116">
        <ele>22</ele>
        <time>2018-03-22T23:39:05Z</time>
      </trkpt>
      <trkpt lat="46.74099" lon="-1.81217">
        <ele>22</ele>
        <time>2018-03-22T23:40:05Z</time>
      </trkpt>
      <trkpt lat="46.7409" lon="-1.81255">
        <ele>23</ele>
        <time>2018-03-22T23:41:05Z</time>
      </trkpt>
      <trkpt lat="46.74084" lon="-1.8128">
        <ele>23</ele>
        <time>2018-03-22T23:42:05Z</time>
      </trkpt>
      <trkpt lat="46.74078" lon="-1.81305">
        <ele>23</ele>
        <time>2018-03-22T23:43:05Z</time>
      </trkpt>
      <trkpt lat="46.74074" lon="-1.8132">
        <ele>23</ele>
        <time>2018-03-22T23:44:05Z</time>
      </trkpt>
      <trkpt lat="46.74072" lon="-1.81333">
        <ele>23</ele>
        <time>2018-03-22T23:45:05Z</time>
      </trkpt>
      <trkpt lat="46.7407" lon="-1.81348">
        <ele>23</ele>
        <time>2018-03-22T23:46:05Z</time>
      </trkpt>
      <trkpt lat="46.74069" lon="-1.81362">
        <ele>23</ele>
        <time>2018-03-22T23:47:05Z</time>
      </trkpt>
      <trkpt lat="46.74068" lon="-1.81377">
        <ele>23</ele>
        <time>2018-03-22T23:48:05Z</time>
      </trkpt>
      <trkpt lat="46.74068" lon="-1.81396">
        <ele>22</ele>
        <time>2018-03-22T23:49:05Z</time>
      </trkpt>
      <trkpt lat="46.74069" lon="-1.81428">
        <ele>22</ele>
        <time>2018-03-22T23:50:05Z</time>
      </trkpt>
      <trkpt lat="46.74075" lon="-1.8158">
        <ele>21</ele>
        <time>2018-03-22T23:51:05Z</time>
      </trkpt>
      <trkpt lat="46.7408" lon="-1.81702">
        <ele>20</ele>
        <time>2018-03-22T23:52:05Z</time>
      </trkpt>
      <trkpt lat="46.74083" lon="-1.81811">
        <ele>18</ele>
        <time>2018-03-22T23:53:05Z</time>
      </trkpt>
      <trkpt lat="46.74083" lon="-1.81834">
        <ele>18</ele>
        <time>2018-03-22T23:54:05Z</time>
      </trkpt>
      <trkpt lat="46.74084" lon="-1.81849">
        <ele>18</ele>
        <time>2018-03-22T23:55:05Z</time>
      </trkpt>
      <trkpt lat="46.74085" lon="-1.81863">
        <ele>17</ele>
        <time>2018-03-22T23:56:05Z</time>
      </trkpt>
      <trkpt lat="46.74086" lon="-1.81876">
        <ele>17</ele>
        <time>2018-03-22T23:57:05Z</time>
      </trkpt>
      <trkpt lat="46.74089" lon="-1.81896">
        <ele>16</ele>
        <time>2018-03-22T23:58:05Z</time>
      </trkpt>
      <trkpt lat="46.74092" lon="-1.81917">
        <ele>16</ele>
        <time>2018-03-22T23:59:05Z</time>
      </trkpt>
      <trkpt lat="46.74096" lon="-1.81936">
        <ele>16</ele>
        <time>2018-03-23T00:00:05Z</time>
      </trkpt>
      <trkpt lat="46.74099" lon="-1.81956">
        <ele>16</ele>
        <time>2018-03-23T00:01:05Z</time>
      </trkpt>
      <trkpt lat="46.74109" lon="-1.8201">
        <ele>16</ele>
        <time>2018-03-23T00:02:05Z</time>
      </trkpt>
      <trkpt lat="46.74113" lon="-1.82032">
        <ele>16</ele>
        <time>2018-03-23T00:03:05Z</time>
      </trkpt>
      <trkpt lat="46.74115" lon="-1.82049">
        <ele>16</ele>
        <time>2018-03-23T00:04:05Z</time>
      </trkpt>
      <trkpt lat="46.74116" lon="-1.82065">
        <ele>16</ele>
        <time>2018-03-23T00:05:05Z</time>
      </trkpt>
      <trkpt lat="46.74115" lon="-1.82078">
        <ele>16</ele>
        <time>2018-03-23T00:06:05Z</time>
      </trkpt>
      <trkpt lat="46.74114" lon="-1.82089">
        <ele>16</ele>
        <time>2018-03-23T00:07:05Z</time>
      </trkpt>
      <trkpt lat="46.74114" lon="-1.82089">
        <ele>16</ele>
        <time>2018-03-23T00:08:05Z</time>
      </trkpt>
      <trkpt lat="46.74115" lon="-1.8209">
        <ele>16</ele>
        <time>2018-03-23T00:09:05Z</time>
      </trkpt>
      <trkpt lat="46.74116" lon="-1.82091">
        <ele>16</ele>
        <time>2018-03-23T00:10:05Z</time>
      </trkpt>
      <trkpt lat="46.74117" lon="-1.82093">
        <ele>16</ele>
        <time>2018-03-23T00:11:05Z</time>
      </trkpt>
      <trkpt lat="46.74118" lon="-1.82094">
        <ele>16</ele>
        <time>2018-03-23T00:12:05Z</time>
      </trkpt>
      <trkpt lat="46.74118" lon="-1.82096">
        <ele>16</ele>
        <time>2018-03-23T00:13:05Z</time>
      </trkpt>
      <trkpt lat="46.74118" lon="-1.82098">
        <ele>16</ele>
        <time>2018-03-23T00:14:05Z</time>
      </trkpt>
      <trkpt lat="46.74117" lon="-1.82101">
        <ele>16</ele>
        <time>2018-03-23T00:15:05Z</time>
      </trkpt>
      <trkpt lat="46.74117" lon="-1.82102">
        <ele>16</ele>
        <time>2018-03-23T00:16:05Z</time>
      </trkpt>
      <trkpt lat="46.74116" lon="-1.82104">
        <ele>16</ele>
        <time>2018-03-23T00:17:05Z</time>
      </trkpt>
      <trkpt lat="46.74115" lon="-1.82105">
        <ele>16</ele>
        <time>2018-03-23T00:18:05Z</time>
      </trkpt>
      <trkpt lat="46.74114" lon="-1.82106">
        <ele>16</ele>
        <time>2018-03-23T00:19:05Z</time>
      </trkpt>
      <trkpt lat="46.74113" lon="-1.82107">
        <ele>16</ele>
        <time>2018-03-23T00:20:05Z</time>
      </trkpt>
      <trkpt lat="46.74111" lon="-1.82107">
        <ele>16</ele>
        <time>2018-03-23T00:21:05Z</time>
      </trkpt>
      <trkpt lat="46.7411" lon="-1.82106">
        <ele>16</ele>
        <time>2018-03-23T00:22:05Z</time>
      </trkpt>
      <trkpt lat="46.74109" lon="-1.82105">
        <ele>16</ele>
        <time>2018-03-23T00:23:05Z</time>
      </trkpt>
      <trkpt lat="46.74108" lon="-1.82104">
        <ele>16</ele>
        <time>2018-03-23T00:24:05Z</time>
      </trkpt>
      <trkpt lat="46.74107" lon="-1.82102">
        <ele>16</ele>
        <time>2018-03-23T00:25:05Z</time>
      </trkpt>
      <trkpt lat="46.74104" lon="-1.82105">
        <ele>17</ele>
        <time>2018-03-23T00:26:05Z</time>
      </trkpt>
      <trkpt lat="46.74099" lon="-1.82108">
        <ele>17</ele>
        <time>2018-03-23T00:27:05Z</time>
      </trkpt>
      <trkpt lat="46.74094" lon="-1.8211">
        <ele>17</ele>
        <time>2018-03-23T00:28:05Z</time>
      </trkpt>
      <trkpt lat="46.74078" lon="-1.82118">
        <ele>17</ele>
        <time>2018-03-23T00:29:05Z</time>
      </trkpt>
      <trkpt lat="46.74074" lon="-1.82121">
        <ele>17</ele>
        <time>2018-03-23T00:30:05Z</time>
      </trkpt>
      <trkpt lat="46.74057" lon="-1.8213">
        <ele>17</ele>
        <time>2018-03-23T00:31:05Z</time>
      </trkpt>
      <trkpt lat="46.74033" lon="-1.82145">
        <ele>17</ele>
        <time>2018-03-23T00:32:05Z</time>
      </trkpt>
      <trkpt lat="46.74029" lon="-1.82148">
        <ele>17</ele>
        <time>2018-03-23T00:33:05Z</time>
      </trkpt>
      <trkpt lat="46.74019" lon="-1.82154">
        <ele>17</ele>
        <time>2018-03-23T00:34:05Z</time>
      </trkpt>
      <trkpt lat="46.74012" lon="-1.8216">
        <ele>17</ele>
        <time>2018-03-23T00:35:05Z</time>
      </trkpt>
      <trkpt lat="46.74009" lon="-1.82164">
        <ele>17</ele>
        <time>2018-03-23T00:36:05Z</time>
      </trkpt>
      <trkpt lat="46.74007" lon="-1.82171">
        <ele>17</ele>
        <time>2018-03-23T00:37:05Z</time>
      </trkpt>
      <trkpt lat="46.73997" lon="-1.82214">
        <ele>16</ele>
        <time>2018-03-23T00:38:05Z</time>
      </trkpt>
      <trkpt lat="46.73986" lon="-1.82257">
        <ele>16</ele>
        <time>2018-03-23T00:39:05Z</time>
      </trkpt>
      <trkpt lat="46.73982" lon="-1.82273">
        <ele>15</ele>
        <time>2018-03-23T00:40:05Z</time>
      </trkpt>
      <trkpt lat="46.73978" lon="-1.82285">
        <ele>15</ele>
        <time>2018-03-23T00:41:05Z</time>
      </trkpt>
      <trkpt lat="46.73974" lon="-1.82298">
        <ele>15</ele>
        <time>2018-03-23T00:42:05Z</time>
      </trkpt>
      <trkpt lat="46.73972" lon="-1.82302">
        <ele>15</ele>
        <time>2018-03-23T00:43:05Z</time>
      </trkpt>
      <trkpt lat="46.73971" lon="-1.82307">
        <ele>15</ele>
        <time>2018-03-23T00:44:05Z</time>
      </trkpt>
      <trkpt lat="46.7397" lon="-1.82309">
        <ele>15</ele>
        <time>2018-03-23T00:45:05Z</time>
      </trkpt>
      <trkpt lat="46.73968" lon="-1.82314">
        <ele>15</ele>
        <time>2018-03-23T00:46:05Z</time>
      </trkpt>
      <trkpt lat="46.73966" lon="-1.82319">
        <ele>14</ele>
        <time>2018-03-23T00:47:05Z</time>
      </trkpt>
      <trkpt lat="46.73964" lon="-1.82325">
        <ele>14</ele>
        <time>2018-03-23T00:48:05Z</time>
      </trkpt>
      <trkpt lat="46.73964" lon="-1.82325">
        <ele>14</ele>
        <time>2018-03-23T00:49:05Z</time>
      </trkpt>
      <trkpt lat="46.73964" lon="-1.82326">
        <ele>14</ele>
        <time>2018-03-23T00:50:05Z</time>
      </trkpt>
      <trkpt lat="46.73964" lon="-1.82329">
        <ele>14</ele>
        <time>2018-03-23T00:51:05Z</time>
      </trkpt>
      <trkpt lat="46.73964" lon="-1.82332">
        <ele>14</ele>
        <time>2018-03-23T00:52:05Z</time>
      </trkpt>
      <trkpt lat="46.73963" lon="-1.82335">
        <ele>14</ele>
        <time>2018-03-23T00:53:05Z</time>
      </trkpt>
      <trkpt lat="46.73962" lon="-1.82337">
        <ele>14</ele>
        <time>2018-03-23T00:54:05Z</time>
      </trkpt>
      <trkpt lat="46.73961" lon="-1.82339">
        <ele>14</ele>
        <time>2018-03-23T00:55:05Z</time>
      </trkpt>
      <trkpt lat="46.73959" lon="-1.8234">
        <ele>14</ele>
        <time>2018-03-23T00:56:05Z</time>
      </trkpt>
      <trkpt lat="46.73958" lon="-1.82342">
        <ele>14</ele>
        <time>2018-03-23T00:57:05Z</time>
      </trkpt>
      <trkpt lat="46.73955" lon="-1.82342">
        <ele>14</ele>
        <time>2018-03-23T00:58:05Z</time>
      </trkpt>
      <trkpt lat="46.73953" lon="-1.82342">
        <ele>14</ele>
        <time>2018-03-23T00:59:05Z</time>
      </trkpt>
      <trkpt lat="46.73951" lon="-1.82342">
        <ele>14</ele>
        <time>2018-03-23T01:00:05Z</time>
      </trkpt>
      <trkpt lat="46.73948" lon="-1.8234">
        <ele>14</ele>
        <time>2018-03-23T01:01:05Z</time>
      </trkpt>
      <trkpt lat="46.73947" lon="-1.82339">
        <ele>14</ele>
        <time>2018-03-23T01:02:05Z</time>
      </trkpt>
      <trkpt lat="46.73946" lon="-1.82337">
        <ele>14</ele>
        <time>2018-03-23T01:03:05Z</time>
      </trkpt>
      <trkpt lat="46.73946" lon="-1.82336">
        <ele>14</ele>
        <time>2018-03-23T01:04:05Z</time>
      </trkpt>
      <trkpt lat="46.73942" lon="-1.82337">
        <ele>14</ele>
        <time>2018-03-23T01:05:05Z</time>
      </trkpt>
      <trkpt lat="46.73939" lon="-1.82336">
        <ele>14</ele>
        <time>2018-03-23T01:06:05Z</time>
      </trkpt>
      <trkpt lat="46.73935" lon="-1.82334">
        <ele>13</ele>
        <time>2018-03-23T01:07:05Z</time>
      </trkpt>
      <trkpt lat="46.73932" lon="-1.82332">
        <ele>13</ele>
        <time>2018-03-23T01:08:05Z</time>
      </trkpt>
      <trkpt lat="46.73926" lon="-1.8233">
        <ele>13</ele>
        <time>2018-03-23T01:09:05Z</time>
      </trkpt>
      <trkpt lat="46.73887" lon="-1.8231">
        <ele>14</ele>
        <time>2018-03-23T01:10:05Z</time>
      </trkpt>
      <trkpt lat="46.73849" lon="-1.82291">
        <ele>16</ele>
        <time>2018-03-23T01:11:05Z</time>
      </trkpt>
      <trkpt lat="46.73842" lon="-1.82287">
        <ele>16</ele>
        <time>2018-03-23T01:12:05Z</time>
      </trkpt>
      <trkpt lat="46.73838" lon="-1.82285">
        <ele>16</ele>
        <time>2018-03-23T01:13:05Z</time>
      </trkpt>
      <trkpt lat="46.73833" lon="-1.82284">
        <ele>16</ele>
        <time>2018-03-23T01:14:05Z</time>
      </trkpt>
      <trkpt lat="46.73829" lon="-1.82284">
        <ele>16</ele>
        <time>2018-03-23T01:15:05Z</time>
      </trkpt>
      <trkpt lat="46.73824" lon="-1.82284">
        <ele>16</ele>
        <time>2018-03-23T01:16:05Z</time>
      </trkpt>
      <trkpt lat="46.73819" lon="-1.82285">
        <ele>16</ele>
        <time>2018-03-23T01:17:05Z</time>
      </trkpt>
      <trkpt lat="46.73812" lon="-1.82287">
        <ele>16</ele>
        <time>2018-03-23T01:18:05Z</time>
      </trkpt>
      <trkpt lat="46.73805" lon="-1.8229">
        <ele>16</ele>
        <time>2018-03-23T01:19:05Z</time>
      </trkpt>
      <trkpt lat="46.73793" lon="-1.82296">
        <ele>15</ele>
        <time>2018-03-23T01:20:05Z</time>
      </trkpt>
      <trkpt lat="46.73775" lon="-1.82309">
        <ele>15</ele>
        <time>2018-03-23T01:21:05Z</time>
      </trkpt>
      <trkpt lat="46.73744" lon="-1.8233">
        <ele>14</ele>
        <time>2018-03-23T01:22:05Z</time>
      </trkpt>
      <trkpt lat="46.73729" lon="-1.82342">
        <ele>14</ele>
        <time>2018-03-23T01:23:05Z</time>
      </trkpt>
      <trkpt lat="46.73715" lon="-1.82352">
        <ele>14</ele>
        <time>2018-03-23T01:24:05Z</time>
      </trkpt>
      <trkpt lat="46.73675" lon="-1.82382">
        <ele>13</ele>
        <time>2018-03-23T01:25:05Z</time>
      </trkpt>
      <trkpt lat="46.73667" lon="-1.82387">
        <ele>13</ele>
        <time>2018-03-23T01:26:05Z</time>
      </trkpt>
      <trkpt lat="46.73662" lon="-1.8239">
        <ele>13</ele>
        <time>2018-03-23T01:27:05Z</time>
      </trkpt>
      <trkpt lat="46.73656" lon="-1.82392">
        <ele>14</ele>
        <time>2018-03-23T01:28:05Z</time>
      </trkpt>
      <trkpt lat="46.73646" lon="-1.82394">
        <ele>14</ele>
        <time>2018-03-23T01:29:05Z</time>
      </trkpt>
      <trkpt lat="46.73629" lon="-1.82395">
        <ele>14</ele>
        <time>2018-03-23T01:30:05Z</time>
      </trkpt>
      <trkpt lat="46.73589" lon="-1.82395">
        <ele>16</ele>
        <time>2018-03-23T01:31:05Z</time>
      </trkpt>
      <trkpt lat="46.73541" lon="-1.82397">
        <ele>17</ele>
        <time>2018-03-23T01:32:05Z</time>
      </trkpt>
      <trkpt lat="46.73484" lon="-1.82399">
        <ele>19</ele>
        <time>2018-03-23T01:33:05Z</time>
      </trkpt>
      <trkpt lat="46.73434" lon="-1.82402">
        <ele>21</ele>
        <time>2018-03-23T01:34:05Z</time>
      </trkpt>
      <trkpt lat="46.73391" lon="-1.82403">
        <ele>23</ele>
        <time>2018-03-23T01:35:05Z</time>
      </trkpt>
      <trkpt lat="46.73371" lon="-1.82403">
        <ele>23</ele>
        <time>2018-03-23T01:36:05Z</time>
      </trkpt>
      <trkpt lat="46.7336" lon="-1.82405">
        <ele>23</ele>
        <time>2018-03-23T01:37:05Z</time>
      </trkpt>
      <trkpt lat="46.73345" lon="-1.82407">
        <ele>24</ele>
        <time>2018-03-23T01:38:05Z</time>
      </trkpt>
      <trkpt lat="46.73327" lon="-1.82412">
        <ele>24</ele>
        <time>2018-03-23T01:39:05Z</time>
      </trkpt>
      <trkpt lat="46.73287" lon="-1.82423">
        <ele>25</ele>
        <time>2018-03-23T01:40:05Z</time>
      </trkpt>
      <trkpt lat="46.73231" lon="-1.82441">
        <ele>25</ele>
        <time>2018-03-23T01:41:05Z</time>
      </trkpt>
      <trkpt lat="46.73197" lon="-1.82451">
        <ele>26</ele>
        <time>2018-03-23T01:42:05Z</time>
      </trkpt>
      <trkpt lat="46.73182" lon="-1.82454">
        <ele>26</ele>
        <time>2018-03-23T01:43:05Z</time>
      </trkpt>
      <trkpt lat="46.73169" lon="-1.82457">
        <ele>26</ele>
        <time>2018-03-23T01:44:05Z</time>
      </trkpt>
      <trkpt lat="46.7316" lon="-1.82458">
        <ele>27</ele>
        <time>2018-03-23T01:45:05Z</time>
      </trkpt>
      <trkpt lat="46.7315" lon="-1.8246">
        <ele>26</ele>
        <time>2018-03-23T01:46:05Z</time>
      </trkpt>
      <trkpt lat="46.73139" lon="-1.8246">
        <ele>26</ele>
        <time>2018-03-23T01:47:05Z</time>
      </trkpt>
      <trkpt lat="46.7313" lon="-1.82459">
        <ele>26</ele>
        <time>2018-03-23T01:48:05Z</time>
      </trkpt>
      <trkpt lat="46.73112" lon="-1.82458">
        <ele>26</ele>
        <time>2018-03-23T01:49:05Z</time>
      </trkpt>
      <trkpt lat="46.73093" lon="-1.82454">
        <ele>26</ele>
        <time>2018-03-23T01:50:05Z</time>
      </trkpt>
      <trkpt lat="46.73082" lon="-1.82451">
        <ele>26</ele>
        <time>2018-03-23T01:51:05Z</time>
      </trkpt>
      <trkpt lat="46.7307" lon="-1.82447">
        <ele>27</ele>
        <time>2018-03-23T01:52:05Z</time>
      </trkpt>
      <trkpt lat="46.73057" lon="-1.82442">
        <ele>27</ele>
        <time>2018-03-23T01:53:05Z</time>
      </trkpt>
      <trkpt lat="46.73038" lon="-1.82434">
        <ele>27</ele>
        <time>2018-03-23T01:54:05Z</time>
      </trkpt>
      <trkpt lat="46.7302" lon="-1.82426">
        <ele>28</ele>
        <time>2018-03-23T01:55:05Z</time>
      </trkpt>
      <trkpt lat="46.73003" lon="-1.82416">
        <ele>28</ele>
        <time>2018-03-23T01:56:05Z</time>
      </trkpt>
      <trkpt lat="46.72941" lon="-1.82385">
        <ele>27</ele>
        <time>2018-03-23T01:57:05Z</time>
      </trkpt>
      <trkpt lat="46.72911" lon="-1.82369">
        <ele>27</ele>
        <time>2018-03-23T01:58:05Z</time>
      </trkpt>
      <trkpt lat="46.72878" lon="-1.82351">
        <ele>27</ele>
        <time>2018-03-23T01:59:05Z</time>
      </trkpt>
      <trkpt lat="46.72861" lon="-1.8234">
        <ele>27</ele>
        <time>2018-03-23T02:00:05Z</time>
      </trkpt>
      <trkpt lat="46.72845" lon="-1.82329">
        <ele>27</ele>
        <time>2018-03-23T02:01:05Z</time>
      </trkpt>
      <trkpt lat="46.72836" lon="-1.82322">
        <ele>27</ele>
        <time>2018-03-23T02:02:05Z</time>
      </trkpt>
      <trkpt lat="46.72829" lon="-1.82314">
        <ele>28</ele>
        <time>2018-03-23T02:03:05Z</time>
      </trkpt>
      <trkpt lat="46.72814" lon="-1.82298">
        <ele>28</ele>
        <time>2018-03-23T02:04:05Z</time>
      </trkpt>
      <trkpt lat="46.72777" lon="-1.82257">
        <ele>28</ele>
        <time>2018-03-23T02:05:05Z</time>
      </trkpt>
      <trkpt lat="46.72735" lon="-1.82205">
        <ele>28</ele>
        <time>2018-03-23T02:06:05Z</time>
      </trkpt>
      <trkpt lat="46.72713" lon="-1.82181">
        <ele>28</ele>
        <time>2018-03-23T02:07:05Z</time>
      </trkpt>
      <trkpt lat="46.72705" lon="-1.82172">
        <ele>28</ele>
        <time>2018-03-23T02:08:05Z</time>
      </trkpt>
      <trkpt lat="46.72697" lon="-1.82165">
        <ele>29</ele>
        <time>2018-03-23T02:09:05Z</time>
      </trkpt>
      <trkpt lat="46.72682" lon="-1.82152">
        <ele>29</ele>
        <time>2018-03-23T02:10:05Z</time>
      </trkpt>
      <trkpt lat="46.72668" lon="-1.82143">
        <ele>29</ele>
        <time>2018-03-23T02:11:05Z</time>
      </trkpt>
      <trkpt lat="46.72656" lon="-1.82138">
        <ele>29</ele>
        <time>2018-03-23T02:12:05Z</time>
      </trkpt>
      <trkpt lat="46.72643" lon="-1.82133">
        <ele>30</ele>
        <time>2018-03-23T02:13:05Z</time>
      </trkpt>
      <trkpt lat="46.72623" lon="-1.82129">
        <ele>30</ele>
        <time>2018-03-23T02:14:05Z</time>
      </trkpt>
      <trkpt lat="46.72591" lon="-1.82123">
        <ele>30</ele>
        <time>2018-03-23T02:15:05Z</time>
      </trkpt>
      <trkpt lat="46.72542" lon="-1.82113">
        <ele>30</ele>
        <time>2018-03-23T02:16:05Z</time>
      </trkpt>
      <trkpt lat="46.72479" lon="-1.82102">
        <ele>31</ele>
        <time>2018-03-23T02:17:05Z</time>
      </trkpt>
      <trkpt lat="46.7241" lon="-1.82088">
        <ele>30</ele>
        <time>2018-03-23T02:18:05Z</time>
      </trkpt>
      <trkpt lat="46.72354" lon="-1.82078">
        <ele>31</ele>
        <time>2018-03-23T02:19:05Z</time>
      </trkpt>
      <trkpt lat="46.72304" lon="-1.82069">
        <ele>32</ele>
        <time>2018-03-23T02:20:05Z</time>
      </trkpt>
      <trkpt lat="46.72265" lon="-1.82062">
        <ele>32</ele>
        <time>2018-03-23T02:21:05Z</time>
      </trkpt>
      <trkpt lat="46.7223" lon="-1.82055">
        <ele>32</ele>
        <time>2018-03-23T02:22:05Z</time>
      </trkpt>
      <trkpt lat="46.72192" lon="-1.82048">
        <ele>33</ele>
        <time>2018-03-23T02:23:05Z</time>
      </trkpt>
      <trkpt lat="46.72161" lon="-1.82042">
        <ele>33</ele>
        <time>2018-03-23T02:24:05Z</time>
      </trkpt>
      <trkpt lat="46.72138" lon="-1.82038">
        <ele>32</ele>
        <time>2018-03-23T02:25:05Z</time>
      </trkpt>
      <trkpt lat="46.72133" lon="-1.82037">
        <ele>32</ele>
        <time>2018-03-23T02:26:05Z</time>
      </trkpt>
      <trkpt lat="46.72114" lon="-1.82034">
        <ele>32</ele>
        <time>2018-03-23T02:27:05Z</time>
      </trkpt>
      <trkpt lat="46.72101" lon="-1.82033">
        <ele>31</ele>
        <time>2018-03-23T02:28:05Z</time>
      </trkpt>
      <trkpt lat="46.72088" lon="-1.82033">
        <ele>31</ele>
        <time>2018-03-23T02:29:05Z</time>
      </trkpt>
      <trkpt lat="46.7204" lon="-1.82031">
        <ele>30</ele>
        <time>2018-03-23T02:30:05Z</time>
      </trkpt>
      <trkpt lat="46.72007" lon="-1.8203">
        <ele>30</ele>
        <time>2018-03-23T02:31:05Z</time>
      </trkpt>
      <trkpt lat="46.71987" lon="-1.8203">
        <ele>30</ele>
        <time>2018-03-23T02:32:05Z</time>
      </trkpt>
      <trkpt lat="46.71966" lon="-1.82029">
        <ele>30</ele>
        <time>2018-03-23T02:33:05Z</time>
      </trkpt>
      <trkpt lat="46.71944" lon="-1.82028">
        <ele>30</ele>
        <time>2018-03-23T02:34:05Z</time>
      </trkpt>
      <trkpt lat="46.71935" lon="-1.82026">
        <ele>30</ele>
        <time>2018-03-23T02:35:05Z</time>
      </trkpt>
      <trkpt lat="46.71922" lon="-1.82023">
        <ele>29</ele>
        <time>2018-03-23T02:36:05Z</time>
      </trkpt>
      <trkpt lat="46.71908" lon="-1.82017">
        <ele>30</ele>
        <time>2018-03-23T02:37:05Z</time>
      </trkpt>
      <trkpt lat="46.71896" lon="-1.82011">
        <ele>30</ele>
        <time>2018-03-23T02:38:05Z</time>
      </trkpt>
      <trkpt lat="46.71884" lon="-1.82003">
        <ele>30</ele>
        <time>2018-03-23T02:39:05Z</time>
      </trkpt>
      <trkpt lat="46.71874" lon="-1.81995">
        <ele>30</ele>
        <time>2018-03-23T02:40:05Z</time>
      </trkpt>
      <trkpt lat="46.7185" lon="-1.81976">
        <ele>30</ele>
        <time>2018-03-23T02:41:05Z</time>
      </trkpt>
      <trkpt lat="46.71824" lon="-1.81955">
        <ele>29</ele>
        <time>2018-03-23T02:42:05Z</time>
      </trkpt>
      <trkpt lat="46.71793" lon="-1.81929">
        <ele>29</ele>
        <time>2018-03-23T02:43:05Z</time>
      </trkpt>
      <trkpt lat="46.71785" lon="-1.81923">
        <ele>29</ele>
        <time>2018-03-23T02:44:05Z</time>
      </trkpt>
      <trkpt lat="46.71782" lon="-1.81921">
        <ele>29</ele>
        <time>2018-03-23T02:45:05Z</time>
      </trkpt>
      <trkpt lat="46.71771" lon="-1.81913">
        <ele>29</ele>
        <time>2018-03-23T02:46:05Z</time>
      </trkpt>
      <trkpt lat="46.71762" lon="-1.81907">
        <ele>29</ele>
        <time>2018-03-23T02:47:05Z</time>
      </trkpt>
      <trkpt lat="46.71752" lon="-1.81901">
        <ele>28</ele>
        <time>2018-03-23T02:48:05Z</time>
      </trkpt>
      <trkpt lat="46.71741" lon="-1.81895">
        <ele>28</ele>
        <time>2018-03-23T02:49:05Z</time>
      </trkpt>
      <trkpt lat="46.71727" lon="-1.8189">
        <ele>28</ele>
        <time>2018-03-23T02:50:05Z</time>
      </trkpt>
      <trkpt lat="46.71712" lon="-1.81885">
        <ele>27</ele>
        <time>2018-03-23T02:51:05Z</time>
      </trkpt>
      <trkpt lat="46.71696" lon="-1.81882">
        <ele>27</ele>
        <time>2018-03-23T02:52:05Z</time>
      </trkpt>
      <trkpt lat="46.71685" lon="-1.8188">
        <ele>27</ele>
        <time>2018-03-23T02:53:05Z</time>
      </trkpt>
      <trkpt lat="46.71665" lon="-1.81879">
        <ele>27</ele>
        <time>2018-03-23T02:54:05Z</time>
      </trkpt>
      <trkpt lat="46.71616" lon="-1.81876">
        <ele>25</ele>
        <time>2018-03-23T02:55:05Z</time>
      </trkpt>
      <trkpt lat="46.71587" lon="-1.81874">
        <ele>25</ele>
        <time>2018-03-23T02:56:05Z</time>
      </trkpt>
      <trkpt lat="46.71511" lon="-1.8187">
        <ele>21</ele>
        <time>2018-03-23T02:57:05Z</time>
      </trkpt>
      <trkpt lat="46.71461" lon="-1.81868">
        <ele>20</ele>
        <time>2018-03-23T02:58:05Z</time>
      </trkpt>
      <trkpt lat="46.7142" lon="-1.81865">
        <ele>19</ele>
        <time>2018-03-23T02:59:05Z</time>
      </trkpt>
      <trkpt lat="46.71419" lon="-1.81865">
        <ele>19</ele>
        <time>2018-03-23T03:00:05Z</time>
      </trkpt>
      <trkpt lat="46.71405" lon="-1.81863">
        <ele>19</ele>
        <time>2018-03-23T03:01:05Z</time>
      </trkpt>
      <trkpt lat="46.7139" lon="-1.81858">
        <ele>18</ele>
        <time>2018-03-23T03:02:05Z</time>
      </trkpt>
      <trkpt lat="46.71373" lon="-1.8185">
        <ele>17</ele>
        <time>2018-03-23T03:03:05Z</time>
      </trkpt>
      <trkpt lat="46.71354" lon="-1.81835">
        <ele>17</ele>
        <time>2018-03-23T03:04:05Z</time>
      </trkpt>
      <trkpt lat="46.71323" lon="-1.81811">
        <ele>16</ele>
        <time>2018-03-23T03:05:05Z</time>
      </trkpt>
      <trkpt lat="46.71295" lon="-1.8179">
        <ele>15</ele>
        <time>2018-03-23T03:06:05Z</time>
      </trkpt>
      <trkpt lat="46.71256" lon="-1.8176">
        <ele>14</ele>
        <time>2018-03-23T03:07:05Z</time>
      </trkpt>
      <trkpt lat="46.71251" lon="-1.81756">
        <ele>14</ele>
        <time>2018-03-23T03:08:05Z</time>
      </trkpt>
      <trkpt lat="46.71247" lon="-1.81752">
        <ele>14</ele>
        <time>2018-03-23T03:09:05Z</time>
      </trkpt>
      <trkpt lat="46.71224" lon="-1.81735">
        <ele>14</ele>
        <time>2018-03-23T03:10:05Z</time>
      </trkpt>
      <trkpt lat="46.71185" lon="-1.81706">
        <ele>15</ele>
        <time>2018-03-23T03:11:05Z</time>
      </trkpt>
      <trkpt lat="46.71165" lon="-1.81692">
        <ele>15</ele>
        <time>2018-03-23T03:12:05Z</time>
      </trkpt>
      <trkpt lat="46.7115" lon="-1.81687">
        <ele>16</ele>
        <time>2018-03-23T03:13:05Z</time>
      </trkpt>
      <trkpt lat="46.71142" lon="-1.81685">
        <ele>16</ele>
        <time>2018-03-23T03:14:05Z</time>
      </trkpt>
      <trkpt lat="46.71134" lon="-1.81685">
        <ele>16</ele>
        <time>2018-03-23T03:15:05Z</time>
      </trkpt>
      <trkpt lat="46.71126" lon="-1.81685">
        <ele>17</ele>
        <time>2018-03-23T03:16:05Z</time>
      </trkpt>
      <trkpt lat="46.71118" lon="-1.81687">
        <ele>17</ele>
        <time>2018-03-23T03:17:05Z</time>
      </trkpt>
      <trkpt lat="46.71103" lon="-1.81693">
        <ele>18</ele>
        <time>2018-03-23T03:18:05Z</time>
      </trkpt>
      <trkpt lat="46.71089" lon="-1.817">
        <ele>19</ele>
        <time>2018-03-23T03:19:05Z</time>
      </trkpt>
      <trkpt lat="46.71072" lon="-1.81712">
        <ele>19</ele>
        <time>2018-03-23T03:20:05Z</time>
      </trkpt>
      <trkpt lat="46.71063" lon="-1.8172">
        <ele>20</ele>
        <time>2018-03-23T03:21:05Z</time>
      </trkpt>
      <trkpt lat="46.71052" lon="-1.81731">
        <ele>20</ele>
        <time>2018-03-23T03:22:05Z</time>
      </trkpt>
      <trkpt lat="46.71046" lon="-1.81738">
        <ele>21</ele>
        <time>2018-03-23T03:23:05Z</time>
      </trkpt>
      <trkpt lat="46.71038" lon="-1.81748">
        <ele>21</ele>
        <time>2018-03-23T03:24:05Z</time>
      </trkpt>
      <trkpt lat="46.71032" lon="-1.81757">
        <ele>21</ele>
        <time>2018-03-23T03:25:05Z</time>
      </trkpt>
      <trkpt lat="46.71027" lon="-1.81764">
        <ele>21</ele>
        <time>2018-03-23T03:26:05Z</time>
      </trkpt>
      <trkpt lat="46.71017" lon="-1.81781">
        <ele>21</ele>
        <time>2018-03-23T03:27:05Z</time>
      </trkpt>
      <trkpt lat="46.71011" lon="-1.81795">
        <ele>21</ele>
        <time>2018-03-23T03:28:05Z</time>
      </trkpt>
      <trkpt lat="46.70998" lon="-1.8182">
        <ele>21</ele>
        <time>2018-03-23T03:29:05Z</time>
      </trkpt>
      <trkpt lat="46.70983" lon="-1.81862">
        <ele>22</ele>
        <time>2018-03-23T03:30:05Z</time>
      </trkpt>
      <trkpt lat="46.70968" lon="-1.81906">
        <ele>23</ele>
        <time>2018-03-23T03:31:05Z</time>
      </trkpt>
      <trkpt lat="46.70948" lon="-1.81963">
        <ele>25</ele>
        <time>2018-03-23T03:32:05Z</time>
      </trkpt>
      <trkpt lat="46.70929" lon="-1.82023">
        <ele>26</ele>
        <time>2018-03-23T03:33:05Z</time>
      </trkpt>
      <trkpt lat="46.70897" lon="-1.82116">
        <ele>26</ele>
        <time>2018-03-23T03:34:05Z</time>
      </trkpt>
      <trkpt lat="46.70876" lon="-1.82175">
        <ele>24</ele>
        <time>2018-03-23T03:35:05Z</time>
      </trkpt>
      <trkpt lat="46.70865" lon="-1.8221">
        <ele>24</ele>
        <time>2018-03-23T03:36:05Z</time>
      </trkpt>
      <trkpt lat="46.70852" lon="-1.82245">
        <ele>23</ele>
        <time>2018-03-23T03:37:05Z</time>
      </trkpt>
      <trkpt lat="46.70843" lon="-1.82268">
        <ele>23</ele>
        <time>2018-03-23T03:38:05Z</time>
      </trkpt>
      <trkpt lat="46.70833" lon="-1.8229">
        <ele>23</ele>
        <time>2018-03-23T03:39:05Z</time>
      </trkpt>
      <trkpt lat="46.70805" lon="-1.82343">
        <ele>23</ele>
        <time>2018-03-23T03:40:05Z</time>
      </trkpt>
      <trkpt lat="46.70782" lon="-1.82385">
        <ele>23</ele>
        <time>2018-03-23T03:41:05Z</time>
      </trkpt>
      <trkpt lat="46.70765" lon="-1.82415">
        <ele>23</ele>
        <time>2018-03-23T03:42:05Z</time>
      </trkpt>
      <trkpt lat="46.70754" lon="-1.82434">
        <ele>23</ele>
        <time>2018-03-23T03:43:05Z</time>
      </trkpt>
      <trkpt lat="46.70742" lon="-1.82451">
        <ele>23</ele>
        <time>2018-03-23T03:44:05Z</time>
      </trkpt>
      <trkpt lat="46.70728" lon="-1.82466">
        <ele>23</ele>
        <time>2018-03-23T03:45:05Z</time>
      </trkpt>
      <trkpt lat="46.70715" lon="-1.82477">
        <ele>22</ele>
        <time>2018-03-23T03:46:05Z</time>
      </trkpt>
      <trkpt lat="46.70692" lon="-1.82493">
        <ele>23</ele>
        <time>2018-03-23T03:47:05Z</time>
      </trkpt>
      <trkpt lat="46.70667" lon="-1.82511">
        <ele>23</ele>
        <time>2018-03-23T03:48:05Z</time>
      </trkpt>
      <trkpt lat="46.70629" lon="-1.82536">
        <ele>23</ele>
        <time>2018-03-23T03:49:05Z</time>
      </trkpt>
      <trkpt lat="46.70593" lon="-1.82559">
        <ele>23</ele>
        <time>2018-03-23T03:50:05Z</time>
      </trkpt>
      <trkpt lat="46.70581" lon="-1.82568">
        <ele>23</ele>
        <time>2018-03-23T03:51:05Z</time>
      </trkpt>
      <trkpt lat="46.70546" lon="-1.8259">
        <ele>23</ele>
        <time>2018-03-23T03:52:05Z</time>
      </trkpt>
      <trkpt lat="46.70511" lon="-1.82615">
        <ele>22</ele>
        <time>2018-03-23T03:53:05Z</time>
      </trkpt>
      <trkpt lat="46.70476" lon="-1.82638">
        <ele>23</ele>
        <time>2018-03-23T03:54:05Z</time>
      </trkpt>
      <trkpt lat="46.7043" lon="-1.8267">
        <ele>24</ele>
        <time>2018-03-23T03:55:05Z</time>
      </trkpt>
      <trkpt lat="46.70373" lon="-1.82709">
        <ele>23</ele>
        <time>2018-03-23T03:56:05Z</time>
      </trkpt>
      <trkpt lat="46.70341" lon="-1.82731">
        <ele>23</ele>
        <time>2018-03-23T03:57:05Z</time>
      </trkpt>
      <trkpt lat="46.70292" lon="-1.82765">
        <ele>22</ele>
        <time>2018-03-23T03:58:05Z</time>
      </trkpt>
      <trkpt lat="46.70246" lon="-1.82796">
        <ele>20</ele>
        <time>2018-03-23T03:59:05Z</time>
      </trkpt>
      <trkpt lat="46.70202" lon="-1.82826">
        <ele>18</ele>
        <time>2018-03-23T04:00:05Z</time>
      </trkpt>
      <trkpt lat="46.70172" lon="-1.82846">
        <ele>17</ele>
        <time>2018-03-23T04:01:05Z</time>
      </trkpt>
      <trkpt lat="46.70133" lon="-1.82873">
        <ele>17</ele>
        <time>2018-03-23T04:02:05Z</time>
      </trkpt>
      <trkpt lat="46.70117" lon="-1.82884">
        <ele>17</ele>
        <time>2018-03-23T04:03:05Z</time>
      </trkpt>
      <trkpt lat="46.70079" lon="-1.82909">
        <ele>18</ele>
        <time>2018-03-23T04:04:05Z</time>
      </trkpt>
      <trkpt lat="46.70074" lon="-1.82913">
        <ele>18</ele>
        <time>2018-03-23T04:05:05Z</time>
      </trkpt>
      <trkpt lat="46.70055" lon="-1.82926">
        <ele>18</ele>
        <time>2018-03-23T04:06:05Z</time>
      </trkpt>
      <trkpt lat="46.7002" lon="-1.8295">
        <ele>17</ele>
        <time>2018-03-23T04:07:05Z</time>
      </trkpt>
      <trkpt lat="46.69992" lon="-1.82969">
        <ele>16</ele>
        <time>2018-03-23T04:08:05Z</time>
      </trkpt>
      <trkpt lat="46.69981" lon="-1.82977">
        <ele>16</ele>
        <time>2018-03-23T04:09:05Z</time>
      </trkpt>
      <trkpt lat="46.69971" lon="-1.82984">
        <ele>15</ele>
        <time>2018-03-23T04:10:05Z</time>
      </trkpt>
      <trkpt lat="46.69963" lon="-1.82989">
        <ele>15</ele>
        <time>2018-03-23T04:11:05Z</time>
      </trkpt>
      <trkpt lat="46.69956" lon="-1.82994">
        <ele>15</ele>
        <time>2018-03-23T04:12:05Z</time>
      </trkpt>
      <trkpt lat="46.6995" lon="-1.82999">
        <ele>15</ele>
        <time>2018-03-23T04:13:05Z</time>
      </trkpt>
      <trkpt lat="46.69947" lon="-1.83001">
        <ele>15</ele>
        <time>2018-03-23T04:14:05Z</time>
      </trkpt>
      <trkpt lat="46.69942" lon="-1.83005">
        <ele>15</ele>
        <time>2018-03-23T04:15:05Z</time>
      </trkpt>
      <trkpt lat="46.69937" lon="-1.83008">
        <ele>15</ele>
        <time>2018-03-23T04:16:05Z</time>
      </trkpt>
      <trkpt lat="46.69933" lon="-1.8301">
        <ele>15</ele>
        <time>2018-03-23T04:17:05Z</time>
      </trkpt>
      <trkpt lat="46.69927" lon="-1.83011">
        <ele>15</ele>
        <time>2018-03-23T04:18:05Z</time>
      </trkpt>
      <trkpt lat="46.69927" lon="-1.83011">
        <ele>15</ele>
        <time>2018-03-23T04:19:05Z</time>
      </trkpt>
      <trkpt lat="46.69929" lon="-1.83016">
        <ele>14</ele>
        <time>2018-03-23T04:20:05Z</time>
      </trkpt>
      <trkpt lat="46.69935" lon="-1.83028">
        <ele>14</ele>
        <time>2018-03-23T04:21:05Z</time>
      </trkpt>
      <trkpt lat="46.69944" lon="-1.83041">
        <ele>14</ele>
        <time>2018-03-23T04:22:05Z</time>
      </trkpt>
      <trkpt lat="46.69952" lon="-1.83052">
        <ele>13</ele>
        <time>2018-03-23T04:23:05Z</time>
      </trkpt>
      <trkpt lat="46.69961" lon="-1.83065">
        <ele>13</ele>
        <time>2018-03-23T04:24:05Z</time>
      </trkpt>
      <trkpt lat="46.69968" lon="-1.83074">
        <ele>13</ele>
        <time>2018-03-23T04:25:05Z</time>
      </trkpt>
      <trkpt lat="46.69973" lon="-1.83081">
        <ele>12</ele>
        <time>2018-03-23T04:26:05Z</time>
      </trkpt>
      <trkpt lat="46.69977" lon="-1.83089">
        <ele>12</ele>
        <time>2018-03-23T04:27:05Z</time>
      </trkpt>
      <trkpt lat="46.69984" lon="-1.831">
        <ele>12</ele>
        <time>2018-03-23T04:28:05Z</time>
      </trkpt>
      <trkpt lat="46.69988" lon="-1.8311">
        <ele>12</ele>
        <time>2018-03-23T04:29:05Z</time>
      </trkpt>
      <trkpt lat="46.6999" lon="-1.83114">
        <ele>12</ele>
        <time>2018-03-23T04:30:05Z</time>
      </trkpt>
      <trkpt lat="46.69992" lon="-1.83119">
        <ele>12</ele>
        <time>2018-03-23T04:31:05Z</time>
      </trkpt>
      <trkpt lat="46.69995" lon="-1.83128">
        <ele>12</ele>
        <time>2018-03-23T04:32:05Z</time>
      </trkpt>
      <trkpt lat="46.7" lon="-1.83142">
        <ele>11</ele>
        <time>2018-03-23T04:33:05Z</time>
      </trkpt>
      <trkpt lat="46.70001" lon="-1.83147">
        <ele>11</ele>
        <time>2018-03-23T04:34:05Z</time>
      </trkpt>
      <trkpt lat="46.70002" lon="-1.8315">
        <ele>11</ele>
        <time>2018-03-23T04:35:05Z</time>
      </trkpt>
      <trkpt lat="46.70002" lon="-1.83152">
        <ele>11</ele>
        <time>2018-03-23T04:36:05Z</time>
      </trkpt>
      <trkpt lat="46.70003" lon="-1.83155">
        <ele>11</ele>
        <time>2018-03-23T04:37:05Z</time>
      </trkpt>
      <trkpt lat="46.70002" lon="-1.83157">
        <ele>11</ele>
        <time>2018-03-23T04:38:05Z</time>
      </trkpt>
      <trkpt lat="46.70002" lon="-1.83159">
        <ele>11</ele>
        <time>2018-03-23T04:39:05Z</time>
      </trkpt>
      <trkpt lat="46.70002" lon="-1.83162">
        <ele>11</ele>
        <time>2018-03-23T04:40:05Z</time>
      </trkpt>
      <trkpt lat="46.69998" lon="-1.83169">
        <ele>11</ele>
        <time>2018-03-23T04:41:05Z</time>
      </trkpt>
      <trkpt lat="46.69992" lon="-1.83175">
        <ele>11</ele>
        <time>2018-03-23T04:42:05Z</time>
      </trkpt>
      <trkpt lat="46.69984" lon="-1.83184">
        <ele>11</ele>
        <time>2018-03-23T04:43:05Z</time>
      </trkpt>
      <trkpt lat="46.69975" lon="-1.83195">
        <ele>11</ele>
        <time>2018-03-23T04:44:05Z</time>
      </trkpt>
      <trkpt lat="46.69972" lon="-1.83199">
        <ele>11</ele>
        <time>2018-03-23T04:45:05Z</time>
      </trkpt>
      <trkpt lat="46.6997" lon="-1.83203">
        <ele>11</ele>
        <time>2018-03-23T04:46:05Z</time>
      </trkpt>
      <trkpt lat="46.69967" lon="-1.83211">
        <ele>11</ele>
        <time>2018-03-23T04:47:05Z</time>
      </trkpt>
      <trkpt lat="46.69964" lon="-1.8322">
        <ele>11</ele>
        <time>2018-03-23T04:48:05Z</time>
      </trkpt>
      <trkpt lat="46.6996" lon="-1.83236">
        <ele>11</ele>
        <time>2018-03-23T04:49:05Z</time>
      </trkpt>
      <trkpt lat="46.69958" lon="-1.83243">
        <ele>11</ele>
        <time>2018-03-23T04:50:05Z</time>
      </trkpt>
      <trkpt lat="46.69958" lon="-1.83252">
        <ele>11</ele>
        <time>2018-03-23T04:51:05Z</time>
      </trkpt>
      <trkpt lat="46.69958" lon="-1.83258">
        <ele>11</ele>
        <time>2018-03-23T04:52:05Z</time>
      </trkpt>
      <trkpt lat="46.69959" lon="-1.83262">
        <ele>11</ele>
        <time>2018-03-23T04:53:05Z</time>
      </trkpt>
      <trkpt lat="46.6996" lon="-1.83268">
        <ele>11</ele>
        <time>2018-03-23T04:54:05Z</time>
      </trkpt>
      <trkpt lat="46.69964" lon="-1.8328">
        <ele>10</ele>
        <time>2018-03-23T04:55:05Z</time>
      </trkpt>
      <trkpt lat="46.69972" lon="-1.83295">
        <ele>10</ele>
        <time>2018-03-23T04:56:05Z</time>
      </trkpt>
      <trkpt lat="46.69975" lon="-1.83302">
        <ele>10</ele>
        <time>2018-03-23T04:57:05Z</time>
      </trkpt>
      <trkpt lat="46.69981" lon="-1.83314">
        <ele>10</ele>
        <time>2018-03-23T04:58:05Z</time>
      </trkpt>
      <trkpt lat="46.69987" lon="-1.83327">
        <ele>9</ele>
        <time>2018-03-23T04:59:05Z</time>
      </trkpt>
      <trkpt lat="46.69989" lon="-1.83337">
        <ele>9</ele>
        <time>2018-03-23T05:00:05Z</time>
      </trkpt>
      <trkpt lat="46.6999" lon="-1.83343">
        <ele>9</ele>
        <time>2018-03-23T05:01:05Z</time>
      </trkpt>
      <trkpt lat="46.6999" lon="-1.83349">
        <ele>10</ele>
        <time>2018-03-23T05:02:05Z</time>
      </trkpt>
      <trkpt lat="46.69991" lon="-1.83357">
        <ele>10</ele>
        <time>2018-03-23T05:03:05Z</time>
      </trkpt>
      <trkpt lat="46.69992" lon="-1.83364">
        <ele>10</ele>
        <time>2018-03-23T05:04:05Z</time>
      </trkpt>
      <trkpt lat="46.69993" lon="-1.8338">
        <ele>11</ele>
        <time>2018-03-23T05:05:05Z</time>
      </trkpt>
      <trkpt lat="46.69994" lon="-1.83398">
        <ele>11</ele>
        <time>2018-03-23T05:06:05Z</time>
      </trkpt>
      <trkpt lat="46.69997" lon="-1.83415">
        <ele>12</ele>
        <time>2018-03-23T05:07:05Z</time>
      </trkpt>
      <trkpt lat="46.7" lon="-1.8343">
        <ele>12</ele>
        <time>2018-03-23T05:08:05Z</time>
      </trkpt>
      <trkpt lat="46.70002" lon="-1.83442">
        <ele>13</ele>
        <time>2018-03-23T05:09:05Z</time>
      </trkpt>
      <trkpt lat="46.70006" lon="-1.83454">
        <ele>13</ele>
        <time>2018-03-23T05:10:05Z</time>
      </trkpt>
      <trkpt lat="46.70012" lon="-1.8347">
        <ele>14</ele>
        <time>2018-03-23T05:11:05Z</time>
      </trkpt>
      <trkpt lat="46.70019" lon="-1.83485">
        <ele>15</ele>
        <time>2018-03-23T05:12:05Z</time>
      </trkpt>
      <trkpt lat="46.70028" lon="-1.83503">
        <ele>15</ele>
        <time>2018-03-23T05:13:05Z</time>
      </trkpt>
      <trkpt lat="46.70035" lon="-1.83519">
        <ele>16</ele>
        <time>2018-03-23T05:14:05Z</time>
      </trkpt>
      <trkpt lat="46.70043" lon="-1.83534">
        <ele>16</ele>
        <time>2018-03-23T05:15:05Z</time>
      </trkpt>
      <trkpt lat="46.70054" lon="-1.83555">
        <ele>16</ele>
        <time>2018-03-23T05:16:05Z</time>
      </trkpt>
      <trkpt lat="46.70068" lon="-1.83582">
        <ele>17</ele>
        <time>2018-03-23T05:17:05Z</time>
      </trkpt>
      <trkpt lat="46.70087" lon="-1.83624">
        <ele>18</ele>
        <time>2018-03-23T05:18:05Z</time>
      </trkpt>
      <trkpt lat="46.70103" lon="-1.8366">
        <ele>19</ele>
        <time>2018-03-23T05:19:05Z</time>
      </trkpt>
      <trkpt lat="46.70125" lon="-1.83717">
        <ele>19</ele>
        <time>2018-03-23T05:20:05Z</time>
      </trkpt>
      <trkpt lat="46.70138" lon="-1.83749">
        <ele>20</ele>
        <time>2018-03-23T05:21:05Z</time>
      </trkpt>
      <trkpt lat="46.7015" lon="-1.83781">
        <ele>20</ele>
        <time>2018-03-23T05:22:05Z</time>
      </trkpt>
      <trkpt lat="46.70163" lon="-1.83812">
        <ele>20</ele>
        <time>2018-03-23T05:23:05Z</time>
      </trkpt>
      <trkpt lat="46.70171" lon="-1.83831">
        <ele>20</ele>
        <time>2018-03-23T05:24:05Z</time>
      </trkpt>
      <trkpt lat="46.70181" lon="-1.83852">
        <ele>20</ele>
        <time>2018-03-23T05:25:05Z</time>
      </trkpt>
      <trkpt lat="46.70193" lon="-1.83875">
        <ele>21</ele>
        <time>2018-03-23T05:26:05Z</time>
      </trkpt>
      <trkpt lat="46.70201" lon="-1.8389">
        <ele>21</ele>
        <time>2018-03-23T05:27:05Z</time>
      </trkpt>
      <trkpt lat="46.70212" lon="-1.8391">
        <ele>21</ele>
        <time>2018-03-23T05:28:05Z</time>
      </trkpt>
      <trkpt lat="46.70212" lon="-1.83911">
        <ele>21</ele>
        <time>2018-03-23T05:29:05Z</time>
      </trkpt>
      <trkpt lat="46.70222" lon="-1.83931">
        <ele>21</ele>
        <time>2018-03-23T05:30:05Z</time>
      </trkpt>
      <trkpt lat="46.70228" lon="-1.83942">
        <ele>21</ele>
        <time>2018-03-23T05:31:05Z</time>
      </trkpt>
      <trkpt lat="46.70234" lon="-1.83956">
        <ele>22</ele>
        <time>2018-03-23T05:32:05Z</time>
      </trkpt>
      <trkpt lat="46.70235" lon="-1.8396">
        <ele>22</ele>
        <time>2018-03-23T05:33:05Z</time>
      </trkpt>
      <trkpt lat="46.70237" lon="-1.83967">
        <ele>22</ele>
        <time>2018-03-23T05:34:05Z</time>
      </trkpt>
      <trkpt lat="46.70241" lon="-1.83978">
        <ele>22</ele>
        <time>2018-03-23T05:35:05Z</time>
      </trkpt>
      <trkpt lat="46.7025" lon="-1.84012">
        <ele>22</ele>
        <time>2018-03-23T05:36:05Z</time>
      </trkpt>
      <trkpt lat="46.70257" lon="-1.84037">
        <ele>22</ele>
        <time>2018-03-23T05:37:05Z</time>
      </trkpt>
      <trkpt lat="46.70261" lon="-1.84056">
        <ele>22</ele>
        <time>2018-03-23T05:38:05Z</time>
      </trkpt>
      <trkpt lat="46.7027" lon="-1.84122">
        <ele>22</ele>
        <time>2018-03-23T05:39:05Z</time>
      </trkpt>
      <trkpt lat="46.70275" lon="-1.8416">
        <ele>22</ele>
        <time>2018-03-23T05:40:05Z</time>
      </trkpt>
      <trkpt lat="46.70281" lon="-1.84202">
        <ele>21</ele>
        <time>2018-03-23T05:41:05Z</time>
      </trkpt>
      <trkpt lat="46.70285" lon="-1.84234">
        <ele>21</ele>
        <time>2018-03-23T05:42:05Z</time>
      </trkpt>
      <trkpt lat="46.7029" lon="-1.84278">
        <ele>21</ele>
        <time>2018-03-23T05:43:05Z</time>
      </trkpt>
      <trkpt lat="46.70292" lon="-1.84314">
        <ele>21</ele>
        <time>2018-03-23T05:44:05Z</time>
      </trkpt>
      <trkpt lat="46.70296" lon="-1.84357">
        <ele>20</ele>
        <time>2018-03-23T05:45:05Z</time>
      </trkpt>
      <trkpt lat="46.70298" lon="-1.84387">
        <ele>20</ele>
        <time>2018-03-23T05:46:05Z</time>
      </trkpt>
      <trkpt lat="46.70299" lon="-1.84401">
        <ele>20</ele>
        <time>2018-03-23T05:47:05Z</time>
      </trkpt>
      <trkpt lat="46.70299" lon="-1.84401">
        <ele>20</ele>
        <time>2018-03-23T05:48:05Z</time>
      </trkpt>
      <trkpt lat="46.70302" lon="-1.84417">
        <ele>19</ele>
        <time>2018-03-23T05:49:05Z</time>
      </trkpt>
      <trkpt lat="46.70305" lon="-1.84434">
        <ele>19</ele>
        <time>2018-03-23T05:50:05Z</time>
      </trkpt>
      <trkpt lat="46.7031" lon="-1.84451">
        <ele>19</ele>
        <time>2018-03-23T05:51:05Z</time>
      </trkpt>
      <trkpt lat="46.70317" lon="-1.84477">
        <ele>19</ele>
        <time>2018-03-23T05:52:05Z</time>
      </trkpt>
      <trkpt lat="46.70334" lon="-1.8453">
        <ele>19</ele>
        <time>2018-03-23T05:53:05Z</time>
      </trkpt>
      <trkpt lat="46.70344" lon="-1.84563">
        <ele>19</ele>
        <time>2018-03-23T05:54:05Z</time>
      </trkpt>
      <trkpt lat="46.7035" lon="-1.84584">
        <ele>20</ele>
        <time>2018-03-23T05:55:05Z</time>
      </trkpt>
      <trkpt lat="46.70361" lon="-1.84622">
        <ele>19</ele>
        <time>2018-03-23T05:56:05Z</time>
      </trkpt>
      <trkpt lat="46.70374" lon="-1.8466">
        <ele>19</ele>
        <time>2018-03-23T05:57:05Z</time>
      </trkpt>
      <trkpt lat="46.70386" lon="-1.8469">
        <ele>20</ele>
        <time>2018-03-23T05:58:05Z</time>
      </trkpt>
      <trkpt lat="46.70396" lon="-1.84716">
        <ele>20</ele>
        <time>2018-03-23T05:59:05Z</time>
      </trkpt>
      <trkpt lat="46.70404" lon="-1.84735">
        <ele>20</ele>
        <time>2018-03-23T06:00:05Z</time>
      </trkpt>
      <trkpt lat="46.70409" lon="-1.8475">
        <ele>20</ele>
        <time>2018-03-23T06:01:05Z</time>
      </trkpt>
      <trkpt lat="46.70412" lon="-1.84763">
        <ele>20</ele>
        <time>2018-03-23T06:02:05Z</time>
      </trkpt>
      <trkpt lat="46.70417" lon="-1.84785">
        <ele>21</ele>
        <time>2018-03-23T06:03:05Z</time>
      </trkpt>
      <trkpt lat="46.70422" lon="-1.84808">
        <ele>22</ele>
        <time>2018-03-23T06:04:05Z</time>
      </trkpt>
      <trkpt lat="46.70426" lon="-1.84829">
        <ele>22</ele>
        <time>2018-03-23T06:05:05Z</time>
      </trkpt>
      <trkpt lat="46.70432" lon="-1.84855">
        <ele>22</ele>
        <time>2018-03-23T06:06:05Z</time>
      </trkpt>
      <trkpt lat="46.70439" lon="-1.84875">
        <ele>23</ele>
        <time>2018-03-23T06:07:05Z</time>
      </trkpt>
      <trkpt lat="46.70446" lon="-1.84893">
        <ele>23</ele>
        <time>2018-03-23T06:08:05Z</time>
      </trkpt>
      <trkpt lat="46.70452" lon="-1.84911">
        <ele>23</ele>
        <time>2018-03-23T06:09:05Z</time>
      </trkpt>
      <trkpt lat="46.70458" lon="-1.84928">
        <ele>24</ele>
        <time>2018-03-23T06:10:05Z</time>
      </trkpt>
      <trkpt lat="46.70458" lon="-1.84928">
        <ele>24</ele>
        <time>2018-03-23T06:11:05Z</time>
      </trkpt>
      <trkpt lat="46.70462" lon="-1.84939">
        <ele>24</ele>
        <time>2018-03-23T06:12:05Z</time>
      </trkpt>
      <trkpt lat="46.70465" lon="-1.84952">
        <ele>24</ele>
        <time>2018-03-23T06:13:05Z</time>
      </trkpt>
      <trkpt lat="46.70466" lon="-1.84963">
        <ele>25</ele>
        <time>2018-03-23T06:14:05Z</time>
      </trkpt>
      <trkpt lat="46.70467" lon="-1.84972">
        <ele>25</ele>
        <time>2018-03-23T06:15:05Z</time>
      </trkpt>
      <trkpt lat="46.70468" lon="-1.84981">
        <ele>25</ele>
        <time>2018-03-23T06:16:05Z</time>
      </trkpt>
      <trkpt lat="46.70468" lon="-1.8499">
        <ele>25</ele>
        <time>2018-03-23T06:17:05Z</time>
      </trkpt>
      <trkpt lat="46.70467" lon="-1.8501">
        <ele>25</ele>
        <time>2018-03-23T06:18:05Z</time>
      </trkpt>
      <trkpt lat="46.70466" lon="-1.8503">
        <ele>25</ele>
        <time>2018-03-23T06:19:05Z</time>
      </trkpt>
      <trkpt lat="46.70465" lon="-1.8505">
        <ele>25</ele>
        <time>2018-03-23T06:20:05Z</time>
      </trkpt>
      <trkpt lat="46.70463" lon="-1.85071">
        <ele>25</ele>
        <time>2018-03-23T06:21:05Z</time>
      </trkpt>
      <trkpt lat="46.70461" lon="-1.85103">
        <ele>25</ele>
        <time>2018-03-23T06:22:05Z</time>
      </trkpt>
      <trkpt lat="46.70459" lon="-1.85124">
        <ele>25</ele>
        <time>2018-03-23T06:23:05Z</time>
      </trkpt>
      <trkpt lat="46.70458" lon="-1.85143">
        <ele>24</ele>
        <time>2018-03-23T06:24:05Z</time>
      </trkpt>
      <trkpt lat="46.70457" lon="-1.85156">
        <ele>24</ele>
        <time>2018-03-23T06:25:05Z</time>
      </trkpt>
      <trkpt lat="46.70457" lon="-1.85167">
        <ele>24</ele>
        <time>2018-03-23T06:26:05Z</time>
      </trkpt>
      <trkpt lat="46.70457" lon="-1.85178">
        <ele>24</ele>
        <time>2018-03-23T06:27:05Z</time>
      </trkpt>
      <trkpt lat="46.70457" lon="-1.8519">
        <ele>24</ele>
        <time>2018-03-23T06:28:05Z</time>
      </trkpt>
      <trkpt lat="46.70459" lon="-1.85201">
        <ele>24</ele>
        <time>2018-03-23T06:29:05Z</time>
      </trkpt>
      <trkpt lat="46.7046" lon="-1.85211">
        <ele>25</ele>
        <time>2018-03-23T06:30:05Z</time>
      </trkpt>
      <trkpt lat="46.70462" lon="-1.85222">
        <ele>25</ele>
        <time>2018-03-23T06:31:05Z</time>
      </trkpt>
      <trkpt lat="46.70464" lon="-1.85232">
        <ele>25</ele>
        <time>2018-03-23T06:32:05Z</time>
      </trkpt>
      <trkpt lat="46.70468" lon="-1.85254">
        <ele>25</ele>
        <time>2018-03-23T06:33:05Z</time>
      </trkpt>
      <trkpt lat="46.70473" lon="-1.85276">
        <ele>25</ele>
        <time>2018-03-23T06:34:05Z</time>
      </trkpt>
      <trkpt lat="46.70477" lon="-1.85299">
        <ele>25</ele>
        <time>2018-03-23T06:35:05Z</time>
      </trkpt>
      <trkpt lat="46.7048" lon="-1.85321">
        <ele>25</ele>
        <time>2018-03-23T06:36:05Z</time>
      </trkpt>
      <trkpt lat="46.70483" lon="-1.85346">
        <ele>25</ele>
        <time>2018-03-23T06:37:05Z</time>
      </trkpt>
      <trkpt lat="46.70487" lon="-1.8538">
        <ele>25</ele>
        <time>2018-03-23T06:38:05Z</time>
      </trkpt>
      <trkpt lat="46.70492" lon="-1.85438">
        <ele>25</ele>
        <time>2018-03-23T06:39:05Z</time>
      </trkpt>
      <trkpt lat="46.70496" lon="-1.85469">
        <ele>25</ele>
        <time>2018-03-23T06:40:05Z</time>
      </trkpt>
      <trkpt lat="46.70498" lon="-1.85494">
        <ele>25</ele>
        <time>2018-03-23T06:41:05Z</time>
      </trkpt>
      <trkpt lat="46.705" lon="-1.8552">
        <ele>25</ele>
        <time>2018-03-23T06:42:05Z</time>
      </trkpt>
      <trkpt lat="46.70503" lon="-1.85543">
        <ele>26</ele>
        <time>2018-03-23T06:43:05Z</time>
      </trkpt>
      <trkpt lat="46.70504" lon="-1.85557">
        <ele>26</ele>
        <time>2018-03-23T06:44:05Z</time>
      </trkpt>
      <trkpt lat="46.70505" lon="-1.85573">
        <ele>27</ele>
        <time>2018-03-23T06:45:05Z</time>
      </trkpt>
      <trkpt lat="46.70505" lon="-1.85587">
        <ele>27</ele>
        <time>2018-03-23T06:46:05Z</time>
      </trkpt>
      <trkpt lat="46.70505" lon="-1.85607">
        <ele>27</ele>
        <time>2018-03-23T06:47:05Z</time>
      </trkpt>
      <trkpt lat="46.70503" lon="-1.85622">
        <ele>27</ele>
        <time>2018-03-23T06:48:05Z</time>
      </trkpt>
      <trkpt lat="46.70502" lon="-1.85641">
        <ele>28</ele>
        <time>2018-03-23T06:49:05Z</time>
      </trkpt>
      <trkpt lat="46.705" lon="-1.85664">
        <ele>28</ele>
        <time>2018-03-23T06:50:05Z</time>
      </trkpt>
      <trkpt lat="46.70499" lon="-1.85674">
        <ele>28</ele>
        <time>2018-03-23T06:51:05Z</time>
      </trkpt>
      <trkpt lat="46.70498" lon="-1.85686">
        <ele>28</ele>
        <time>2018-03-23T06:52:05Z</time>
      </trkpt>
      <trkpt lat="46.70498" lon="-1.85697">
        <ele>28</ele>
        <time>2018-03-23T06:53:05Z</time>
      </trkpt>
      <trkpt lat="46.70498" lon="-1.85708">
        <ele>27</ele>
        <time>2018-03-23T06:54:05Z</time>
      </trkpt>
      <trkpt lat="46.70498" lon="-1.85719">
        <ele>27</ele>
        <time>2018-03-23T06:55:05Z</time>
      </trkpt>
      <trkpt lat="46.70499" lon="-1.8573">
        <ele>27</ele>
        <time>2018-03-23T06:56:05Z</time>
      </trkpt>
      <trkpt lat="46.705" lon="-1.85741">
        <ele>27</ele>
        <time>2018-03-23T06:57:05Z</time>
      </trkpt>
      <trkpt lat="46.70502" lon="-1.85763">
        <ele>27</ele>
        <time>2018-03-23T06:58:05Z</time>
      </trkpt>
      <trkpt lat="46.70509" lon="-1.85817">
        <ele>27</ele>
        <time>2018-03-23T06:59:05Z</time>
      </trkpt>
      <trkpt lat="46.70511" lon="-1.85837">
        <ele>27</ele>
        <time>2018-03-23T07:00:05Z</time>
      </trkpt>
      <trkpt lat="46.70513" lon="-1.85858">
        <ele>27</ele>
        <time>2018-03-23T07:01:05Z</time>
      </trkpt>
      <trkpt lat="46.70514" lon="-1.85879">
        <ele>28</ele>
        <time>2018-03-23T07:02:05Z</time>
      </trkpt>
      <trkpt lat="46.70516" lon="-1.85898">
        <ele>28</ele>
        <time>2018-03-23T07:03:05Z</time>
      </trkpt>
      <trkpt lat="46.70516" lon="-1.85918">
        <ele>28</ele>
        <time>2018-03-23T07:04:05Z</time>
      </trkpt>
      <trkpt lat="46.70517" lon="-1.85938">
        <ele>28</ele>
        <time>2018-03-23T07:05:05Z</time>
      </trkpt>
      <trkpt lat="46.70518" lon="-1.85964">
        <ele>29</ele>
        <time>2018-03-23T07:06:05Z</time>
      </trkpt>
      <trkpt lat="46.70518" lon="-1.8598">
        <ele>29</ele>
        <time>2018-03-23T07:07:05Z</time>
      </trkpt>
      <trkpt lat="46.70519" lon="-1.85999">
        <ele>29</ele>
        <time>2018-03-23T07:08:05Z</time>
      </trkpt>
      <trkpt lat="46.70519" lon="-1.86015">
        <ele>29</ele>
        <time>2018-03-23T07:09:05Z</time>
      </trkpt>
      <trkpt lat="46.7052" lon="-1.86033">
        <ele>29</ele>
        <time>2018-03-23T07:10:05Z</time>
      </trkpt>
      <trkpt lat="46.7052" lon="-1.86033">
        <ele>29</ele>
        <time>2018-03-23T07:11:05Z</time>
      </trkpt>
      <trkpt lat="46.7052" lon="-1.86063">
        <ele>29</ele>
        <time>2018-03-23T07:12:05Z</time>
      </trkpt>
      <trkpt lat="46.7052" lon="-1.86097">
        <ele>29</ele>
        <time>2018-03-23T07:13:05Z</time>
      </trkpt>
      <trkpt lat="46.70521" lon="-1.8613">
        <ele>29</ele>
        <time>2018-03-23T07:14:05Z</time>
      </trkpt>
      <trkpt lat="46.70524" lon="-1.86177">
        <ele>29</ele>
        <time>2018-03-23T07:15:05Z</time>
      </trkpt>
      <trkpt lat="46.70527" lon="-1.86226">
        <ele>29</ele>
        <time>2018-03-23T07:16:05Z</time>
      </trkpt>
      <trkpt lat="46.70532" lon="-1.86266">
        <ele>29</ele>
        <time>2018-03-23T07:17:05Z</time>
      </trkpt>
      <trkpt lat="46.70533" lon="-1.86295">
        <ele>29</ele>
        <time>2018-03-23T07:18:05Z</time>
      </trkpt>
      <trkpt lat="46.70535" lon="-1.86328">
        <ele>28</ele>
        <time>2018-03-23T07:19:05Z</time>
      </trkpt>
      <trkpt lat="46.70535" lon="-1.86356">
        <ele>29</ele>
        <time>2018-03-23T07:20:05Z</time>
      </trkpt>
      <trkpt lat="46.70535" lon="-1.8637">
        <ele>29</ele>
        <time>2018-03-23T07:21:05Z</time>
      </trkpt>
      <trkpt lat="46.70533" lon="-1.8638">
        <ele>29</ele>
        <time>2018-03-23T07:22:05Z</time>
      </trkpt>
      <trkpt lat="46.70531" lon="-1.86396">
        <ele>29</ele>
        <time>2018-03-23T07:23:05Z</time>
      </trkpt>
      <trkpt lat="46.70525" lon="-1.86434">
        <ele>30</ele>
        <time>2018-03-23T07:24:05Z</time>
      </trkpt>
      <trkpt lat="46.70519" lon="-1.86477">
        <ele>30</ele>
        <time>2018-03-23T07:25:05Z</time>
      </trkpt>
      <trkpt lat="46.70511" lon="-1.86524">
        <ele>31</ele>
        <time>2018-03-23T07:26:05Z</time>
      </trkpt>
      <trkpt lat="46.70502" lon="-1.86575">
        <ele>30</ele>
        <time>2018-03-23T07:27:05Z</time>
      </trkpt>
      <trkpt lat="46.7049" lon="-1.86648">
        <ele>30</ele>
        <time>2018-03-23T07:28:05Z</time>
      </trkpt>
      <trkpt lat="46.70478" lon="-1.86722">
        <ele>30</ele>
        <time>2018-03-23T07:29:05Z</time>
      </trkpt>
      <trkpt lat="46.7047" lon="-1.86777">
        <ele>29</ele>
        <time>2018-03-23T07:30:05Z</time>
      </trkpt>
      <trkpt lat="46.70469" lon="-1.86787">
        <ele>29</ele>
        <time>2018-03-23T07:31:05Z</time>
      </trkpt>
      <trkpt lat="46.70467" lon="-1.86803">
        <ele>29</ele>
        <time>2018-03-23T07:32:05Z</time>
      </trkpt>
      <trkpt lat="46.70468" lon="-1.86815">
        <ele>28</ele>
        <time>2018-03-23T07:33:05Z</time>
      </trkpt>
      <trkpt lat="46.7047" lon="-1.86824">
        <ele>28</ele>
        <time>2018-03-23T07:34:05Z</time>
      </trkpt>
      <trkpt lat="46.70474" lon="-1.86836">
        <ele>28</ele>
        <time>2018-03-23T07:35:05Z</time>
      </trkpt>
      <trkpt lat="46.70484" lon="-1.86853">
        <ele>28</ele>
        <time>2018-03-23T07:36:05Z</time>
      </trkpt>
      <trkpt lat="46.70506" lon="-1.86879">
        <ele>29</ele>
        <time>2018-03-23T07:37:05Z</time>
      </trkpt>
      <trkpt lat="46.70533" lon="-1.8691">
        <ele>29</ele>
        <time>2018-03-23T07:38:05Z</time>
      </trkpt>
      <trkpt lat="46.70556" lon="-1.8694">
        <ele>30</ele>
        <time>2018-03-23T07:39:05Z</time>
      </trkpt>
      <trkpt lat="46.70569" lon="-1.86957">
        <ele>30</ele>
        <time>2018-03-23T07:40:05Z</time>
      </trkpt>
      <trkpt lat="46.7058" lon="-1.86972">
        <ele>31</ele>
        <time>2018-03-23T07:41:05Z</time>
      </trkpt>
      <trkpt lat="46.70586" lon="-1.86981">
        <ele>31</ele>
        <time>2018-03-23T07:42:05Z</time>
      </trkpt>
      <trkpt lat="46.706" lon="-1.87006">
        <ele>31</ele>
        <time>2018-03-23T07:43:05Z</time>
      </trkpt>
      <trkpt lat="46.70613" lon="-1.87027">
        <ele>31</ele>
        <time>2018-03-23T07:44:05Z</time>
      </trkpt>
      <trkpt lat="46.70613" lon="-1.87027">
        <ele>31</ele>
        <time>2018-03-23T07:45:05Z</time>
      </trkpt>
      <trkpt lat="46.70623" lon="-1.87043">
        <ele>31</ele>
        <time>2018-03-23T07:46:05Z</time>
      </trkpt>
      <trkpt lat="46.70633" lon="-1.8706">
        <ele>30</ele>
        <time>2018-03-23T07:47:05Z</time>
      </trkpt>
      <trkpt lat="46.70647" lon="-1.87082">
        <ele>29</ele>
        <time>2018-03-23T07:48:05Z</time>
      </trkpt>
      <trkpt lat="46.70665" lon="-1.87107">
        <ele>29</ele>
        <time>2018-03-23T07:49:05Z</time>
      </trkpt>
      <trkpt lat="46.70675" lon="-1.87122">
        <ele>29</ele>
        <time>2018-03-23T07:50:05Z</time>
      </trkpt>
      <trkpt lat="46.7069" lon="-1.87145">
        <ele>29</ele>
        <time>2018-03-23T07:51:05Z</time>
      </trkpt>
      <trkpt lat="46.70705" lon="-1.87168">
        <ele>29</ele>
        <time>2018-03-23T07:52:05Z</time>
      </trkpt>
      <trkpt lat="46.70719" lon="-1.87197">
        <ele>29</ele>
        <time>2018-03-23T07:53:05Z</time>
      </trkpt>
      <trkpt lat="46.70739" lon="-1.8724">
        <ele>29</ele>
        <time>2018-03-23T07:54:05Z</time>
      </trkpt>
      <trkpt lat="46.70745" lon="-1.87253">
        <ele>29</ele>
        <time>2018-03-23T07:55:05Z</time>
      </trkpt>
      <trkpt lat="46.70761" lon="-1.87289">
        <ele>29</ele>
        <time>2018-03-23T07:56:05Z</time>
      </trkpt>
      <trkpt lat="46.70762" lon="-1.8729">
        <ele>29</ele>
        <time>2018-03-23T07:57:05Z</time>
      </trkpt>
      <trkpt lat="46.70785" lon="-1.87338">
        <ele>28</ele>
        <time>2018-03-23T07:58:05Z</time>
      </trkpt>
      <trkpt lat="46.70825" lon="-1.87411">
        <ele>28</ele>
        <time>2018-03-23T07:59:05Z</time>
      </trkpt>
      <trkpt lat="46.70858" lon="-1.87473">
        <ele>29</ele>
        <time>2018-03-23T08:00:05Z</time>
      </trkpt>
      <trkpt lat="46.70897" lon="-1.87545">
        <ele>30</ele>
        <time>2018-03-23T08:01:05Z</time>
      </trkpt>
      <trkpt lat="46.7091" lon="-1.87574">
        <ele>31</ele>
        <time>2018-03-23T08:02:05Z</time>
      </trkpt>
      <trkpt lat="46.70919" lon="-1.87593">
        <ele>31</ele>
        <time>2018-03-23T08:03:05Z</time>
      </trkpt>
      <trkpt lat="46.70927" lon="-1.87614">
        <ele>30</ele>
        <time>2018-03-23T08:04:05Z</time>
      </trkpt>
      <trkpt lat="46.70946" lon="-1.87665">
        <ele>29</ele>
        <time>2018-03-23T08:05:05Z</time>
      </trkpt>
      <trkpt lat="46.70963" lon="-1.87708">
        <ele>29</ele>
        <time>2018-03-23T08:06:05Z</time>
      </trkpt>
      <trkpt lat="46.70997" lon="-1.87797">
        <ele>29</ele>
        <time>2018-03-23T08:07:05Z</time>
      </trkpt>
      <trkpt lat="46.71003" lon="-1.87814">
        <ele>29</ele>
        <time>2018-03-23T08:08:05Z</time>
      </trkpt>
      <trkpt lat="46.71012" lon="-1.87837">
        <ele>29</ele>
        <time>2018-03-23T08:09:05Z</time>
      </trkpt>
      <trkpt lat="46.71022" lon="-1.87863">
        <ele>28</ele>
        <time>2018-03-23T08:10:05Z</time>
      </trkpt>
      <trkpt lat="46.71033" lon="-1.87893">
        <ele>28</ele>
        <time>2018-03-23T08:11:05Z</time>
      </trkpt>
      <trkpt lat="46.71041" lon="-1.87914">
        <ele>28</ele>
        <time>2018-03-23T08:12:05Z</time>
      </trkpt>
      <trkpt lat="46.7106" lon="-1.87965">
        <ele>28</ele>
        <time>2018-03-23T08:13:05Z</time>
      </trkpt>
      <trkpt lat="46.71081" lon="-1.88022">
        <ele>27</ele>
        <time>2018-03-23T08:14:05Z</time>
      </trkpt>
      <trkpt lat="46.71098" lon="-1.88067">
        <ele>27</ele>
        <time>2018-03-23T08:15:05Z</time>
      </trkpt>
      <trkpt lat="46.71104" lon="-1.88089">
        <ele>27</ele>
        <time>2018-03-23T08:16:05Z</time>
      </trkpt>
      <trkpt lat="46.71112" lon="-1.88118">
        <ele>26</ele>
        <time>2018-03-23T08:17:05Z</time>
      </trkpt>
      <trkpt lat="46.71121" lon="-1.88156">
        <ele>26</ele>
        <time>2018-03-23T08:18:05Z</time>
      </trkpt>
      <trkpt lat="46.71127" lon="-1.88197">
        <ele>26</ele>
        <time>2018-03-23T08:19:05Z</time>
      </trkpt>
      <trkpt lat="46.71128" lon="-1.88215">
        <ele>26</ele>
        <time>2018-03-23T08:20:05Z</time>
      </trkpt>
      <trkpt lat="46.71128" lon="-1.88269">
        <ele>26</ele>
        <time>2018-03-23T08:21:05Z</time>
      </trkpt>
      <trkpt lat="46.71127" lon="-1.88303">
        <ele>25</ele>
        <time>2018-03-23T08:22:05Z</time>
      </trkpt>
      <trkpt lat="46.71125" lon="-1.8833">
        <ele>25</ele>
        <time>2018-03-23T08:23:05Z</time>
      </trkpt>
      <trkpt lat="46.71126" lon="-1.88355">
        <ele>25</ele>
        <time>2018-03-23T08:24:05Z</time>
      </trkpt>
      <trkpt lat="46.71127" lon="-1.8838">
        <ele>24</ele>
        <time>2018-03-23T08:25:05Z</time>
      </trkpt>
      <trkpt lat="46.71132" lon="-1.88414">
        <ele>24</ele>
        <time>2018-03-23T08:26:05Z</time>
      </trkpt>
      <trkpt lat="46.71143" lon="-1.88462">
        <ele>24</ele>
        <time>2018-03-23T08:27:05Z</time>
      </trkpt>
      <trkpt lat="46.71151" lon="-1.88495">
        <ele>25</ele>
        <time>2018-03-23T08:28:05Z</time>
      </trkpt>
      <trkpt lat="46.71161" lon="-1.88541">
        <ele>24</ele>
        <time>2018-03-23T08:29:05Z</time>
      </trkpt>
      <trkpt lat="46.71168" lon="-1.88573">
        <ele>24</ele>
        <time>2018-03-23T08:30:05Z</time>
      </trkpt>
      <trkpt lat="46.71174" lon="-1.88598">
        <ele>24</ele>
        <time>2018-03-23T08:31:05Z</time>
      </trkpt>
      <trkpt lat="46.71177" lon="-1.8861">
        <ele>24</ele>
        <time>2018-03-23T08:32:05Z</time>
      </trkpt>
      <trkpt lat="46.71178" lon="-1.88612">
        <ele>24</ele>
        <time>2018-03-23T08:33:05Z</time>
      </trkpt>
      <trkpt lat="46.71187" lon="-1.88643">
        <ele>23</ele>
        <time>2018-03-23T08:34:05Z</time>
      </trkpt>
      <trkpt lat="46.71189" lon="-1.8865">
        <ele>23</ele>
        <time>2018-03-23T08:35:05Z</time>
      </trkpt>
      <trkpt lat="46.71204" lon="-1.88698">
        <ele>23</ele>
        <time>2018-03-23T08:36:05Z</time>
      </trkpt>
      <trkpt lat="46.71218" lon="-1.8874">
        <ele>23</ele>
        <time>2018-03-23T08:37:05Z</time>
      </trkpt>
      <trkpt lat="46.71233" lon="-1.88781">
        <ele>22</ele>
        <time>2018-03-23T08:38:05Z</time>
      </trkpt>
      <trkpt lat="46.71243" lon="-1.8881">
        <ele>22</ele>
        <time>2018-03-23T08:39:05Z</time>
      </trkpt>
      <trkpt lat="46.71259" lon="-1.88848">
        <ele>22</ele>
        <time>2018-03-23T08:40:05Z</time>
      </trkpt>
      <trkpt lat="46.71261" lon="-1.88853">
        <ele>21</ele>
        <time>2018-03-23T08:41:05Z</time>
      </trkpt>
      <trkpt lat="46.71272" lon="-1.88877">
        <ele>21</ele>
        <time>2018-03-23T08:42:05Z</time>
      </trkpt>
      <trkpt lat="46.71274" lon="-1.88884">
        <ele>21</ele>
        <time>2018-03-23T08:43:05Z</time>
      </trkpt>
      <trkpt lat="46.71275" lon="-1.88885">
        <ele>21</ele>
        <time>2018-03-23T08:44:05Z</time>
      </trkpt>
      <trkpt lat="46.71282" lon="-1.88901">
        <ele>21</ele>
        <time>2018-03-23T08:45:05Z</time>
      </trkpt>
      <trkpt lat="46.7129" lon="-1.88921">
        <ele>20</ele>
        <time>2018-03-23T08:46:05Z</time>
      </trkpt>
      <trkpt lat="46.71306" lon="-1.88954">
        <ele>20</ele>
        <time>2018-03-23T08:47:05Z</time>
      </trkpt>
      <trkpt lat="46.71311" lon="-1.88967">
        <ele>20</ele>
        <time>2018-03-23T08:48:05Z</time>
      </trkpt>
      <trkpt lat="46.71333" lon="-1.89015">
        <ele>20</ele>
        <time>2018-03-23T08:49:05Z</time>
      </trkpt>
      <trkpt lat="46.71346" lon="-1.89045">
        <ele>19</ele>
        <time>2018-03-23T08:50:05Z</time>
      </trkpt>
      <trkpt lat="46.71354" lon="-1.89064">
        <ele>18</ele>
        <time>2018-03-23T08:51:05Z</time>
      </trkpt>
      <trkpt lat="46.71357" lon="-1.89072">
        <ele>18</ele>
        <time>2018-03-23T08:52:05Z</time>
      </trkpt>
      <trkpt lat="46.7137" lon="-1.89101">
        <ele>18</ele>
        <time>2018-03-23T08:53:05Z</time>
      </trkpt>
      <trkpt lat="46.7139" lon="-1.89146">
        <ele>18</ele>
        <time>2018-03-23T08:54:05Z</time>
      </trkpt>
      <trkpt lat="46.71396" lon="-1.89163">
        <ele>18</ele>
        <time>2018-03-23T08:55:05Z</time>
      </trkpt>
      <trkpt lat="46.71404" lon="-1.89181">
        <ele>18</ele>
        <time>2018-03-23T08:56:05Z</time>
      </trkpt>
      <trkpt lat="46.71413" lon="-1.89205">
        <ele>17</ele>
        <time>2018-03-23T08:57:05Z</time>
      </trkpt>
      <trkpt lat="46.71417" lon="-1.89216">
        <ele>17</ele>
        <time>2018-03-23T08:58:05Z</time>
      </trkpt>
      <trkpt lat="46.71425" lon="-1.89236">
        <ele>17</ele>
        <time>2018-03-23T08:59:05Z</time>
      </trkpt>
      <trkpt lat="46.71426" lon="-1.89239">
        <ele>17</ele>
        <time>2018-03-23T09:00:05Z</time>
      </trkpt>
      <trkpt lat="46.71443" lon="-1.89287">
        <ele>17</ele>
        <time>2018-03-23T09:01:05Z</time>
      </trkpt>
      <trkpt lat="46.71452" lon="-1.89312">
        <ele>17</ele>
        <time>2018-03-23T09:02:05Z</time>
      </trkpt>
      <trkpt lat="46.71457" lon="-1.89326">
        <ele>17</ele>
        <time>2018-03-23T09:03:05Z</time>
      </trkpt>
      <trkpt lat="46.71462" lon="-1.89346">
        <ele>16</ele>
        <time>2018-03-23T09:04:05Z</time>
      </trkpt>
      <trkpt lat="46.71463" lon="-1.89348">
        <ele>16</ele>
        <time>2018-03-23T09:05:05Z</time>
      </trkpt>
      <trkpt lat="46.71474" lon="-1.89392">
        <ele>16</ele>
        <time>2018-03-23T09:06:05Z</time>
      </trkpt>
      <trkpt lat="46.71484" lon="-1.89431">
        <ele>16</ele>
        <time>2018-03-23T09:07:05Z</time>
      </trkpt>
      <trkpt lat="46.71488" lon="-1.89458">
        <ele>16</ele>
        <time>2018-03-23T09:08:05Z</time>
      </trkpt>
      <trkpt lat="46.7149" lon="-1.89463">
        <ele>15</ele>
        <time>2018-03-23T09:09:05Z</time>
      </trkpt>
      <trkpt lat="46.71495" lon="-1.89485">
        <ele>15</ele>
        <time>2018-03-23T09:10:05Z</time>
      </trkpt>
      <trkpt lat="46.71495" lon="-1.89485">
        <ele>15</ele>
        <time>2018-03-23T09:11:05Z</time>
      </trkpt>
      <trkpt lat="46.71497" lon="-1.89489">
        <ele>15</ele>
        <time>2018-03-23T09:12:05Z</time>
      </trkpt>
      <trkpt lat="46.71498" lon="-1.8949">
        <ele>15</ele>
        <time>2018-03-23T09:13:05Z</time>
      </trkpt>
      <trkpt lat="46.715" lon="-1.89496">
        <ele>15</ele>
        <time>2018-03-23T09:14:05Z</time>
      </trkpt>
      <trkpt lat="46.715" lon="-1.89503">
        <ele>15</ele>
        <time>2018-03-23T09:15:05Z</time>
      </trkpt>
      <trkpt lat="46.71497" lon="-1.89511">
        <ele>15</ele>
        <time>2018-03-23T09:16:05Z</time>
      </trkpt>
      <trkpt lat="46.71505" lon="-1.89524">
        <ele>15</ele>
        <time>2018-03-23T09:17:05Z</time>
      </trkpt>
      <trkpt lat="46.7151" lon="-1.89538">
        <ele>15</ele>
        <time>2018-03-23T09:18:05Z</time>
      </trkpt>
      <trkpt lat="46.71524" lon="-1.89558">
        <ele>15</ele>
        <time>2018-03-23T09:19:05Z</time>
      </trkpt>
      <trkpt lat="46.7154" lon="-1.89579">
        <ele>14</ele>
        <time>2018-03-23T09:20:05Z</time>
      </trkpt>
      <trkpt lat="46.71549" lon="-1.8959">
        <ele>14</ele>
        <time>2018-03-23T09:21:05Z</time>
      </trkpt>
      <trkpt lat="46.71562" lon="-1.89605">
        <ele>13</ele>
        <time>2018-03-23T09:22:05Z</time>
      </trkpt>
      <trkpt lat="46.7158" lon="-1.89626">
        <ele>13</ele>
        <time>2018-03-23T09:23:05Z</time>
      </trkpt>
      <trkpt lat="46.7161" lon="-1.8966">
        <ele>13</ele>
        <time>2018-03-23T09:24:05Z</time>
      </trkpt>
      <trkpt lat="46.71615" lon="-1.89666">
        <ele>13</ele>
        <time>2018-03-23T09:25:05Z</time>
      </trkpt>
      <trkpt lat="46.71642" lon="-1.89697">
        <ele>14</ele>
        <time>2018-03-23T09:26:05Z</time>
      </trkpt>
      <trkpt lat="46.71667" lon="-1.89725">
        <ele>13</ele>
        <time>2018-03-23T09:27:05Z</time>
      </trkpt>
      <trkpt lat="46.71677" lon="-1.89735">
        <ele>13</ele>
        <time>2018-03-23T09:28:05Z</time>
      </trkpt>
      <trkpt lat="46.71694" lon="-1.89753">
        <ele>12</ele>
        <time>2018-03-23T09:29:05Z</time>
      </trkpt>
      <trkpt lat="46.71696" lon="-1.89754">
        <ele>12</ele>
        <time>2018-03-23T09:30:05Z</time>
      </trkpt>
      <trkpt lat="46.71701" lon="-1.8976">
        <ele>12</ele>
        <time>2018-03-23T09:31:05Z</time>
      </trkpt>
      <trkpt lat="46.71724" lon="-1.89779">
        <ele>11</ele>
        <time>2018-03-23T09:32:05Z</time>
      </trkpt>
      <trkpt lat="46.7173" lon="-1.89784">
        <ele>11</ele>
        <time>2018-03-23T09:33:05Z</time>
      </trkpt>
      <trkpt lat="46.71742" lon="-1.89795">
        <ele>11</ele>
        <time>2018-03-23T09:34:05Z</time>
      </trkpt>
      <trkpt lat="46.71757" lon="-1.8981">
        <ele>10</ele>
        <time>2018-03-23T09:35:05Z</time>
      </trkpt>
      <trkpt lat="46.71769" lon="-1.89825">
        <ele>10</ele>
        <time>2018-03-23T09:36:05Z</time>
      </trkpt>
      <trkpt lat="46.71805" lon="-1.89868">
        <ele>10</ele>
        <time>2018-03-23T09:37:05Z</time>
      </trkpt>
      <trkpt lat="46.7182" lon="-1.89887">
        <ele>9</ele>
        <time>2018-03-23T09:38:05Z</time>
      </trkpt>
      <trkpt lat="46.71876" lon="-1.89957">
        <ele>7</ele>
        <time>2018-03-23T09:39:05Z</time>
      </trkpt>
      <trkpt lat="46.71915" lon="-1.90005">
        <ele>6</ele>
        <time>2018-03-23T09:40:05Z</time>
      </trkpt>
      <trkpt lat="46.7195" lon="-1.90039">
        <ele>6</ele>
        <time>2018-03-23T09:41:05Z</time>
      </trkpt>
      <trkpt lat="46.71964" lon="-1.90053">
        <ele>6</ele>
        <time>2018-03-23T09:42:05Z</time>
      </trkpt>
      <trkpt lat="46.71973" lon="-1.90062">
        <ele>6</ele>
        <time>2018-03-23T09:43:05Z</time>
      </trkpt>
      <trkpt lat="46.71973" lon="-1.90062">
        <ele>6</ele>
        <time>2018-03-23T09:44:05Z</time>
      </trkpt>
      <trkpt lat="46.71968" lon="-1.9008">
        <ele>6</ele>
        <time>2018-03-23T09:45:05Z</time>
      </trkpt>
      <trkpt lat="46.71965" lon="-1.90106">
        <ele>6</ele>
        <time>2018-03-23T09:46:05Z</time>
      </trkpt>
      <trkpt lat="46.71962" lon="-1.90125">
        <ele>6</ele>
        <time>2018-03-23T09:47:05Z</time>
      </trkpt>
      <trkpt lat="46.71959" lon="-1.90153">
        <ele>6</ele>
        <time>2018-03-23T09:48:05Z</time>
      </trkpt>
      <trkpt lat="46.71958" lon="-1.90176">
        <ele>6</ele>
        <time>2018-03-23T09:49:05Z</time>
      </trkpt>
      <trkpt lat="46.71956" lon="-1.90191">
        <ele>6</ele>
        <time>2018-03-23T09:50:05Z</time>
      </trkpt>
      <trkpt lat="46.71953" lon="-1.90201">
        <ele>6</ele>
        <time>2018-03-23T09:51:05Z</time>
      </trkpt>
      <trkpt lat="46.71953" lon="-1.90203">
        <ele>6</ele>
        <time>2018-03-23T09:52:05Z</time>
      </trkpt>
      <trkpt lat="46.71949" lon="-1.90211">
        <ele>6</ele>
        <time>2018-03-23T09:53:05Z</time>
      </trkpt>
      <trkpt lat="46.71946" lon="-1.90218">
        <ele>6</ele>
        <time>2018-03-23T09:54:05Z</time>
      </trkpt>
      <trkpt lat="46.71941" lon="-1.90227">
        <ele>6</ele>
        <time>2018-03-23T09:55:05Z</time>
      </trkpt>
      <trkpt lat="46.71934" lon="-1.90235">
        <ele>6</ele>
        <time>2018-03-23T09:56:05Z</time>
      </trkpt>
      <trkpt lat="46.71927" lon="-1.9024">
        <ele>6</ele>
        <time>2018-03-23T09:57:05Z</time>
      </trkpt>
      <trkpt lat="46.71914" lon="-1.90248">
        <ele>6</ele>
        <time>2018-03-23T09:58:05Z</time>
      </trkpt>
      <trkpt lat="46.719" lon="-1.90254">
        <ele>7</ele>
        <time>2018-03-23T09:59:05Z</time>
      </trkpt>
      <trkpt lat="46.71896" lon="-1.90256">
        <ele>7</ele>
        <time>2018-03-23T10:00:05Z</time>
      </trkpt>
      <trkpt lat="46.7189" lon="-1.9026">
        <ele>7</ele>
        <time>2018-03-23T10:01:05Z</time>
      </trkpt>
      <trkpt lat="46.71886" lon="-1.90263">
        <ele>7</ele>
        <time>2018-03-23T10:02:05Z</time>
      </trkpt>
      <trkpt lat="46.71883" lon="-1.90267">
        <ele>7</ele>
        <time>2018-03-23T10:03:05Z</time>
      </trkpt>
      <trkpt lat="46.71879" lon="-1.90274">
        <ele>7</ele>
        <time>2018-03-23T10:04:05Z</time>
      </trkpt>
      <trkpt lat="46.71876" lon="-1.90283">
        <ele>7</ele>
        <time>2018-03-23T10:05:05Z</time>
      </trkpt>
      <trkpt lat="46.71872" lon="-1.90301">
        <ele>6</ele>
        <time>2018-03-23T10:06:05Z</time>
      </trkpt>
      <trkpt lat="46.71869" lon="-1.90308">
        <ele>6</ele>
        <time>2018-03-23T10:07:05Z</time>
      </trkpt>
      <trkpt lat="46.71865" lon="-1.90316">
        <ele>6</ele>
        <time>2018-03-23T10:08:05Z</time>
      </trkpt>
      <trkpt lat="46.71839" lon="-1.90349">
        <ele>6</ele>
        <time>2018-03-23T10:09:05Z</time>
      </trkpt>
      <trkpt lat="46.7179" lon="-1.90406">
        <ele>6</ele>
        <time>2018-03-23T10:10:05Z</time>
      </trkpt>
      <trkpt lat="46.71783" lon="-1.90415">
        <ele>6</ele>
        <time>2018-03-23T10:11:05Z</time>
      </trkpt>
      <trkpt lat="46.71764" lon="-1.90437">
        <ele>7</ele>
        <time>2018-03-23T10:12:05Z</time>
      </trkpt>
      <trkpt lat="46.71729" lon="-1.90479">
        <ele>7</ele>
        <time>2018-03-23T10:13:05Z</time>
      </trkpt>
      <trkpt lat="46.71702" lon="-1.90512">
        <ele>8</ele>
        <time>2018-03-23T10:14:05Z</time>
      </trkpt>
      <trkpt lat="46.71687" lon="-1.9053">
        <ele>8</ele>
        <time>2018-03-23T10:15:05Z</time>
      </trkpt>
      <trkpt lat="46.71673" lon="-1.90547">
        <ele>8</ele>
        <time>2018-03-23T10:16:05Z</time>
      </trkpt>
      <trkpt lat="46.71651" lon="-1.90574">
        <ele>9</ele>
        <time>2018-03-23T10:17:05Z</time>
      </trkpt>
      <trkpt lat="46.71615" lon="-1.90615">
        <ele>9</ele>
        <time>2018-03-23T10:18:05Z</time>
      </trkpt>
      <trkpt lat="46.71615" lon="-1.90616">
        <ele>9</ele>
        <time>2018-03-23T10:19:05Z</time>
      </trkpt>
      <trkpt lat="46.7161" lon="-1.90622">
        <ele>9</ele>
        <time>2018-03-23T10:20:05Z</time>
      </trkpt>
      <trkpt lat="46.71589" lon="-1.90649">
        <ele>9</ele>
        <time>2018-03-23T10:21:05Z</time>
      </trkpt>
      <trkpt lat="46.71557" lon="-1.90688">
        <ele>10</ele>
        <time>2018-03-23T10:22:05Z</time>
      </trkpt>
      <trkpt lat="46.71554" lon="-1.90691">
        <ele>10</ele>
        <time>2018-03-23T10:23:05Z</time>
      </trkpt>
      <trkpt lat="46.71544" lon="-1.90706">
        <ele>10</ele>
        <time>2018-03-23T10:24:05Z</time>
      </trkpt>
      <trkpt lat="46.71545" lon="-1.90706">
        <ele>10</ele>
        <time>2018-03-23T10:25:05Z</time>
      </trkpt>
      <trkpt lat="46.71545" lon="-1.90707">
        <ele>10</ele>
        <time>2018-03-23T10:26:05Z</time>
      </trkpt>
      <trkpt lat="46.71545" lon="-1.90708">
        <ele>10</ele>
        <time>2018-03-23T10:27:05Z</time>
      </trkpt>
      <trkpt lat="46.71546" lon="-1.90708">
        <ele>10</ele>
        <time>2018-03-23T10:28:05Z</time>
      </trkpt>
      <trkpt lat="46.71546" lon="-1.90709">
        <ele>10</ele>
        <time>2018-03-23T10:29:05Z</time>
      </trkpt>
      <trkpt lat="46.71546" lon="-1.9071">
        <ele>10</ele>
        <time>2018-03-23T10:30:05Z</time>
      </trkpt>
      <trkpt lat="46.71546" lon="-1.90711">
        <ele>10</ele>
        <time>2018-03-23T10:31:05Z</time>
      </trkpt>
      <trkpt lat="46.71546" lon="-1.90712">
        <ele>10</ele>
        <time>2018-03-23T10:32:05Z</time>
      </trkpt>
      <trkpt lat="46.71546" lon="-1.90713">
        <ele>10</ele>
        <time>2018-03-23T10:33:05Z</time>
      </trkpt>
      <trkpt lat="46.71546" lon="-1.90714">
        <ele>10</ele>
        <time>2018-03-23T10:34:05Z</time>
      </trkpt>
      <trkpt lat="46.71546" lon="-1.90715">
        <ele>10</ele>
        <time>2018-03-23T10:35:05Z</time>
      </trkpt>
      <trkpt lat="46.71546" lon="-1.90716">
        <ele>10</ele>
        <time>2018-03-23T10:36:05Z</time>
      </trkpt>
      <trkpt lat="46.71546" lon="-1.90717">
        <ele>10</ele>
        <time>2018-03-23T10:37:05Z</time>
      </trkpt>
      <trkpt lat="46.71545" lon="-1.90717">
        <ele>10</ele>
        <time>2018-03-23T10:38:05Z</time>
      </trkpt>
      <trkpt lat="46.71545" lon="-1.90718">
        <ele>10</ele>
        <time>2018-03-23T10:39:05Z</time>
      </trkpt>
      <trkpt lat="46.71545" lon="-1.90719">
        <ele>10</ele>
        <time>2018-03-23T10:40:05Z</time>
      </trkpt>
      <trkpt lat="46.71544" lon="-1.90719">
        <ele>10</ele>
        <time>2018-03-23T10:41:05Z</time>
      </trkpt>
      <trkpt lat="46.71544" lon="-1.9072">
        <ele>10</ele>
        <time>2018-03-23T10:42:05Z</time>
      </trkpt>
      <trkpt lat="46.71543" lon="-1.9072">
        <ele>10</ele>
        <time>2018-03-23T10:43:05Z</time>
      </trkpt>
      <trkpt lat="46.71542" lon="-1.9072">
        <ele>10</ele>
        <time>2018-03-23T10:44:05Z</time>
      </trkpt>
      <trkpt lat="46.71541" lon="-1.9072">
        <ele>10</ele>
        <time>2018-03-23T10:45:05Z</time>
      </trkpt>
      <trkpt lat="46.71541" lon="-1.90721">
        <ele>10</ele>
        <time>2018-03-23T10:46:05Z</time>
      </trkpt>
      <trkpt lat="46.71541" lon="-1.9072">
        <ele>10</ele>
        <time>2018-03-23T10:47:05Z</time>
      </trkpt>
      <trkpt lat="46.7154" lon="-1.9072">
        <ele>10</ele>
        <time>2018-03-23T10:48:05Z</time>
      </trkpt>
      <trkpt lat="46.71539" lon="-1.9072">
        <ele>10</ele>
        <time>2018-03-23T10:49:05Z</time>
      </trkpt>
      <trkpt lat="46.71538" lon="-1.9072">
        <ele>10</ele>
        <time>2018-03-23T10:50:05Z</time>
      </trkpt>
      <trkpt lat="46.71538" lon="-1.90719">
        <ele>10</ele>
        <time>2018-03-23T10:51:05Z</time>
      </trkpt>
      <trkpt lat="46.71537" lon="-1.90719">
        <ele>10</ele>
        <time>2018-03-23T10:52:05Z</time>
      </trkpt>
      <trkpt lat="46.71537" lon="-1.90718">
        <ele>10</ele>
        <time>2018-03-23T10:53:05Z</time>
      </trkpt>
      <trkpt lat="46.71537" lon="-1.90717">
        <ele>10</ele>
        <time>2018-03-23T10:54:05Z</time>
      </trkpt>
      <trkpt lat="46.71504" lon="-1.90753">
        <ele>11</ele>
        <time>2018-03-23T10:55:05Z</time>
      </trkpt>
      <trkpt lat="46.71468" lon="-1.90796">
        <ele>11</ele>
        <time>2018-03-23T10:56:05Z</time>
      </trkpt>
      <trkpt lat="46.71449" lon="-1.90818">
        <ele>12</ele>
        <time>2018-03-23T10:57:05Z</time>
      </trkpt>
      <trkpt lat="46.71439" lon="-1.9083">
        <ele>12</ele>
        <time>2018-03-23T10:58:05Z</time>
      </trkpt>
      <trkpt lat="46.71414" lon="-1.90862">
        <ele>13</ele>
        <time>2018-03-23T10:59:05Z</time>
      </trkpt>
      <trkpt lat="46.71394" lon="-1.90886">
        <ele>13</ele>
        <time>2018-03-23T11:00:05Z</time>
      </trkpt>
      <trkpt lat="46.71377" lon="-1.90906">
        <ele>13</ele>
        <time>2018-03-23T11:01:05Z</time>
      </trkpt>
      <trkpt lat="46.71372" lon="-1.90912">
        <ele>13</ele>
        <time>2018-03-23T11:02:05Z</time>
      </trkpt>
      <trkpt lat="46.71354" lon="-1.90933">
        <ele>12</ele>
        <time>2018-03-23T11:03:05Z</time>
      </trkpt>
      <trkpt lat="46.71332" lon="-1.90962">
        <ele>12</ele>
        <time>2018-03-23T11:04:05Z</time>
      </trkpt>
      <trkpt lat="46.7131" lon="-1.90988">
        <ele>12</ele>
        <time>2018-03-23T11:05:05Z</time>
      </trkpt>
      <trkpt lat="46.713" lon="-1.91004">
        <ele>12</ele>
        <time>2018-03-23T11:06:05Z</time>
      </trkpt>
      <trkpt lat="46.71289" lon="-1.9102">
        <ele>12</ele>
        <time>2018-03-23T11:07:05Z</time>
      </trkpt>
      <trkpt lat="46.71277" lon="-1.9104">
        <ele>12</ele>
        <time>2018-03-23T11:08:05Z</time>
      </trkpt>
      <trkpt lat="46.71264" lon="-1.91064">
        <ele>12</ele>
        <time>2018-03-23T11:09:05Z</time>
      </trkpt>
      <trkpt lat="46.71255" lon="-1.91084">
        <ele>12</ele>
        <time>2018-03-23T11:10:05Z</time>
      </trkpt>
      <trkpt lat="46.71244" lon="-1.91108">
        <ele>12</ele>
        <time>2018-03-23T11:11:05Z</time>
      </trkpt>
      <trkpt lat="46.71231" lon="-1.91139">
        <ele>11</ele>
        <time>2018-03-23T11:12:05Z</time>
      </trkpt>
      <trkpt lat="46.71227" lon="-1.91147">
        <ele>11</ele>
        <time>2018-03-23T11:13:05Z</time>
      </trkpt>
      <trkpt lat="46.71216" lon="-1.91174">
        <ele>11</ele>
        <time>2018-03-23T11:14:05Z</time>
      </trkpt>
      <trkpt lat="46.712" lon="-1.9121">
        <ele>11</ele>
        <time>2018-03-23T11:15:05Z</time>
      </trkpt>
      <trkpt lat="46.71185" lon="-1.91246">
        <ele>11</ele>
        <time>2018-03-23T11:16:05Z</time>
      </trkpt>
      <trkpt lat="46.71175" lon="-1.91271">
        <ele>11</ele>
        <time>2018-03-23T11:17:05Z</time>
      </trkpt>
      <trkpt lat="46.71164" lon="-1.91298">
        <ele>11</ele>
        <time>2018-03-23T11:18:05Z</time>
      </trkpt>
      <trkpt lat="46.71152" lon="-1.91328">
        <ele>12</ele>
        <time>2018-03-23T11:19:05Z</time>
      </trkpt>
      <trkpt lat="46.7115" lon="-1.91334">
        <ele>12</ele>
        <time>2018-03-23T11:20:05Z</time>
      </trkpt>
      <trkpt lat="46.71148" lon="-1.91339">
        <ele>12</ele>
        <time>2018-03-23T11:21:05Z</time>
      </trkpt>
      <trkpt lat="46.71136" lon="-1.91372">
        <ele>12</ele>
        <time>2018-03-23T11:22:05Z</time>
      </trkpt>
      <trkpt lat="46.71122" lon="-1.91407">
        <ele>13</ele>
        <time>2018-03-23T11:23:05Z</time>
      </trkpt>
      <trkpt lat="46.71113" lon="-1.91429">
        <ele>14</ele>
        <time>2018-03-23T11:24:05Z</time>
      </trkpt>
      <trkpt lat="46.71106" lon="-1.91442">
        <ele>14</ele>
        <time>2018-03-23T11:25:05Z</time>
      </trkpt>
      <trkpt lat="46.71103" lon="-1.91449">
        <ele>14</ele>
        <time>2018-03-23T11:26:05Z</time>
      </trkpt>
      <trkpt lat="46.71102" lon="-1.91452">
        <ele>14</ele>
        <time>2018-03-23T11:27:05Z</time>
      </trkpt>
      <trkpt lat="46.71099" lon="-1.91459">
        <ele>14</ele>
        <time>2018-03-23T11:28:05Z</time>
      </trkpt>
      <trkpt lat="46.71097" lon="-1.91462">
        <ele>15</ele>
        <time>2018-03-23T11:29:05Z</time>
      </trkpt>
      <trkpt lat="46.71096" lon="-1.91463">
        <ele>15</ele>
        <time>2018-03-23T11:30:05Z</time>
      </trkpt>
      <trkpt lat="46.71095" lon="-1.91465">
        <ele>15</ele>
        <time>2018-03-23T11:31:05Z</time>
      </trkpt>
      <trkpt lat="46.71085" lon="-1.91481">
        <ele>15</ele>
        <time>2018-03-23T11:32:05Z</time>
      </trkpt>
      <trkpt lat="46.7107" lon="-1.91503">
        <ele>15</ele>
        <time>2018-03-23T11:33:05Z</time>
      </trkpt>
      <trkpt lat="46.71064" lon="-1.91509">
        <ele>15</ele>
        <time>2018-03-23T11:34:05Z</time>
      </trkpt>
      <trkpt lat="46.71054" lon="-1.91523">
        <ele>16</ele>
        <time>2018-03-23T11:35:05Z</time>
      </trkpt>
      <trkpt lat="46.71042" lon="-1.91539">
        <ele>16</ele>
        <time>2018-03-23T11:36:05Z</time>
      </trkpt>
      <trkpt lat="46.71022" lon="-1.91567">
        <ele>16</ele>
        <time>2018-03-23T11:37:05Z</time>
      </trkpt>
      <trkpt lat="46.7102" lon="-1.9157">
        <ele>17</ele>
        <time>2018-03-23T11:38:05Z</time>
      </trkpt>
      <trkpt lat="46.71018" lon="-1.91572">
        <ele>17</ele>
        <time>2018-03-23T11:39:05Z</time>
      </trkpt>
      <trkpt lat="46.70999" lon="-1.91598">
        <ele>17</ele>
        <time>2018-03-23T11:40:05Z</time>
      </trkpt>
      <trkpt lat="46.70971" lon="-1.91634">
        <ele>17</ele>
        <time>2018-03-23T11:41:05Z</time>
      </trkpt>
      <trkpt lat="46.70954" lon="-1.91659">
        <ele>18</ele>
        <time>2018-03-23T11:42:05Z</time>
      </trkpt>
      <trkpt lat="46.70951" lon="-1.91664">
        <ele>18</ele>
        <time>2018-03-23T11:43:05Z</time>
      </trkpt>
      <trkpt lat="46.70946" lon="-1.91669">
        <ele>18</ele>
        <time>2018-03-23T11:44:05Z</time>
      </trkpt>
      <trkpt lat="46.70932" lon="-1.91688">
        <ele>18</ele>
        <time>2018-03-23T11:45:05Z</time>
      </trkpt>
      <trkpt lat="46.70913" lon="-1.91714">
        <ele>18</ele>
        <time>2018-03-23T11:46:05Z</time>
      </trkpt>
      <trkpt lat="46.70894" lon="-1.91739">
        <ele>18</ele>
        <time>2018-03-23T11:47:05Z</time>
      </trkpt>
      <trkpt lat="46.70883" lon="-1.91753">
        <ele>18</ele>
        <time>2018-03-23T11:48:05Z</time>
      </trkpt>
      <trkpt lat="46.7087" lon="-1.91769">
        <ele>19</ele>
        <time>2018-03-23T11:49:05Z</time>
      </trkpt>
      <trkpt lat="46.7087" lon="-1.9177">
        <ele>19</ele>
        <time>2018-03-23T11:50:05Z</time>
      </trkpt>
      <trkpt lat="46.7087" lon="-1.91771">
        <ele>19</ele>
        <time>2018-03-23T11:51:05Z</time>
      </trkpt>
      <trkpt lat="46.70871" lon="-1.91771">
        <ele>19</ele>
        <time>2018-03-23T11:52:05Z</time>
      </trkpt>
      <trkpt lat="46.70871" lon="-1.91772">
        <ele>19</ele>
        <time>2018-03-23T11:53:05Z</time>
      </trkpt>
      <trkpt lat="46.70871" lon="-1.91773">
        <ele>19</ele>
        <time>2018-03-23T11:54:05Z</time>
      </trkpt>
      <trkpt lat="46.70871" lon="-1.91774">
        <ele>19</ele>
        <time>2018-03-23T11:55:05Z</time>
      </trkpt>
      <trkpt lat="46.70871" lon="-1.91775">
        <ele>19</ele>
        <time>2018-03-23T11:56:05Z</time>
      </trkpt>
      <trkpt lat="46.70871" lon="-1.91776">
        <ele>19</ele>
        <time>2018-03-23T11:57:05Z</time>
      </trkpt>
      <trkpt lat="46.70871" lon="-1.91777">
        <ele>19</ele>
        <time>2018-03-23T11:58:05Z</time>
      </trkpt>
      <trkpt lat="46.70871" lon="-1.91778">
        <ele>19</ele>
        <time>2018-03-23T11:59:05Z</time>
      </trkpt>
      <trkpt lat="46.70871" lon="-1.91779">
        <ele>19</ele>
        <time>2018-03-23T12:00:05Z</time>
      </trkpt>
      <trkpt lat="46.7087" lon="-1.91779">
        <ele>19</ele>
        <time>2018-03-23T12:01:05Z</time>
      </trkpt>
      <trkpt lat="46.7087" lon="-1.9178">
        <ele>19</ele>
        <time>2018-03-23T12:02:05Z</time>
      </trkpt>
      <trkpt lat="46.7087" lon="-1.91781">
        <ele>19</ele>
        <time>2018-03-23T12:03:05Z</time>
      </trkpt>
      <trkpt lat="46.7087" lon="-1.91782">
        <ele>19</ele>
        <time>2018-03-23T12:04:05Z</time>
      </trkpt>
      <trkpt lat="46.70869" lon="-1.91782">
        <ele>19</ele>
        <time>2018-03-23T12:05:05Z</time>
      </trkpt>
      <trkpt lat="46.70869" lon="-1.91783">
        <ele>19</ele>
        <time>2018-03-23T12:06:05Z</time>
      </trkpt>
      <trkpt lat="46.70868" lon="-1.91784">
        <ele>19</ele>
        <time>2018-03-23T12:07:05Z</time>
      </trkpt>
      <trkpt lat="46.70868" lon="-1.91785">
        <ele>19</ele>
        <time>2018-03-23T12:08:05Z</time>
      </trkpt>
      <trkpt lat="46.70867" lon="-1.91785">
        <ele>19</ele>
        <time>2018-03-23T12:09:05Z</time>
      </trkpt>
      <trkpt lat="46.70866" lon="-1.91786">
        <ele>19</ele>
        <time>2018-03-23T12:10:05Z</time>
      </trkpt>
      <trkpt lat="46.70865" lon="-1.91786">
        <ele>19</ele>
        <time>2018-03-23T12:11:05Z</time>
      </trkpt>
      <trkpt lat="46.70864" lon="-1.91786">
        <ele>19</ele>
        <time>2018-03-23T12:12:05Z</time>
      </trkpt>
      <trkpt lat="46.70864" lon="-1.91787">
        <ele>19</ele>
        <time>2018-03-23T12:13:05Z</time>
      </trkpt>
      <trkpt lat="46.70863" lon="-1.91787">
        <ele>19</ele>
        <time>2018-03-23T12:14:05Z</time>
      </trkpt>
      <trkpt lat="46.70862" lon="-1.91787">
        <ele>19</ele>
        <time>2018-03-23T12:15:05Z</time>
      </trkpt>
      <trkpt lat="46.70861" lon="-1.91787">
        <ele>19</ele>
        <time>2018-03-23T12:16:05Z</time>
      </trkpt>
      <trkpt lat="46.70861" lon="-1.91786">
        <ele>19</ele>
        <time>2018-03-23T12:17:05Z</time>
      </trkpt>
      <trkpt lat="46.7086" lon="-1.91786">
        <ele>19</ele>
        <time>2018-03-23T12:18:05Z</time>
      </trkpt>
      <trkpt lat="46.70859" lon="-1.91786">
        <ele>19</ele>
        <time>2018-03-23T12:19:05Z</time>
      </trkpt>
      <trkpt lat="46.70859" lon="-1.91785">
        <ele>19</ele>
        <time>2018-03-23T12:20:05Z</time>
      </trkpt>
      <trkpt lat="46.70858" lon="-1.91785">
        <ele>19</ele>
        <time>2018-03-23T12:21:05Z</time>
      </trkpt>
      <trkpt lat="46.70858" lon="-1.91784">
        <ele>19</ele>
        <time>2018-03-23T12:22:05Z</time>
      </trkpt>
      <trkpt lat="46.70836" lon="-1.9181">
        <ele>20</ele>
        <time>2018-03-23T12:23:05Z</time>
      </trkpt>
      <trkpt lat="46.70799" lon="-1.91849">
        <ele>20</ele>
        <time>2018-03-23T12:24:05Z</time>
      </trkpt>
      <trkpt lat="46.70793" lon="-1.91854">
        <ele>20</ele>
        <time>2018-03-23T12:25:05Z</time>
      </trkpt>
      <trkpt lat="46.70789" lon="-1.91861">
        <ele>19</ele>
        <time>2018-03-23T12:26:05Z</time>
      </trkpt>
      <trkpt lat="46.70758" lon="-1.91893">
        <ele>19</ele>
        <time>2018-03-23T12:27:05Z</time>
      </trkpt>
      <trkpt lat="46.7073" lon="-1.91923">
        <ele>18</ele>
        <time>2018-03-23T12:28:05Z</time>
      </trkpt>
      <trkpt lat="46.70726" lon="-1.91928">
        <ele>19</ele>
        <time>2018-03-23T12:29:05Z</time>
      </trkpt>
      <trkpt lat="46.70721" lon="-1.9193">
        <ele>19</ele>
        <time>2018-03-23T12:30:05Z</time>
      </trkpt>
      <trkpt lat="46.70684" lon="-1.91967">
        <ele>19</ele>
        <time>2018-03-23T12:31:05Z</time>
      </trkpt>
      <trkpt lat="46.70677" lon="-1.91974">
        <ele>19</ele>
        <time>2018-03-23T12:32:05Z</time>
      </trkpt>
      <trkpt lat="46.70671" lon="-1.91985">
        <ele>19</ele>
        <time>2018-03-23T12:33:05Z</time>
      </trkpt>
      <trkpt lat="46.70655" lon="-1.92006">
        <ele>19</ele>
        <time>2018-03-23T12:34:05Z</time>
      </trkpt>
      <trkpt lat="46.70655" lon="-1.92006">
        <ele>19</ele>
        <time>2018-03-23T12:35:05Z</time>
      </trkpt>
      <trkpt lat="46.70655" lon="-1.92007">
        <ele>19</ele>
        <time>2018-03-23T12:36:05Z</time>
      </trkpt>
      <trkpt lat="46.70655" lon="-1.92008">
        <ele>19</ele>
        <time>2018-03-23T12:37:05Z</time>
      </trkpt>
      <trkpt lat="46.70655" lon="-1.92009">
        <ele>19</ele>
        <time>2018-03-23T12:38:05Z</time>
      </trkpt>
      <trkpt lat="46.70655" lon="-1.9201">
        <ele>19</ele>
        <time>2018-03-23T12:39:05Z</time>
      </trkpt>
      <trkpt lat="46.70655" lon="-1.92011">
        <ele>19</ele>
        <time>2018-03-23T12:40:05Z</time>
      </trkpt>
      <trkpt lat="46.70655" lon="-1.92012">
        <ele>19</ele>
        <time>2018-03-23T12:41:05Z</time>
      </trkpt>
      <trkpt lat="46.70655" lon="-1.92013">
        <ele>19</ele>
        <time>2018-03-23T12:42:05Z</time>
      </trkpt>
      <trkpt lat="46.70655" lon="-1.92014">
        <ele>19</ele>
        <time>2018-03-23T12:43:05Z</time>
      </trkpt>
      <trkpt lat="46.70655" lon="-1.92015">
        <ele>19</ele>
        <time>2018-03-23T12:44:05Z</time>
      </trkpt>
      <trkpt lat="46.70654" lon="-1.92015">
        <ele>19</ele>
        <time>2018-03-23T12:45:05Z</time>
      </trkpt>
      <trkpt lat="46.70654" lon="-1.92016">
        <ele>19</ele>
        <time>2018-03-23T12:46:05Z</time>
      </trkpt>
      <trkpt lat="46.70654" lon="-1.92017">
        <ele>19</ele>
        <time>2018-03-23T12:47:05Z</time>
      </trkpt>
      <trkpt lat="46.70654" lon="-1.92018">
        <ele>19</ele>
        <time>2018-03-23T12:48:05Z</time>
      </trkpt>
      <trkpt lat="46.70653" lon="-1.92019">
        <ele>19</ele>
        <time>2018-03-23T12:49:05Z</time>
      </trkpt>
      <trkpt lat="46.70653" lon="-1.9202">
        <ele>19</ele>
        <time>2018-03-23T12:50:05Z</time>
      </trkpt>
      <trkpt lat="46.70652" lon="-1.92021">
        <ele>19</ele>
        <time>2018-03-23T12:51:05Z</time>
      </trkpt>
      <trkpt lat="46.70652" lon="-1.92022">
        <ele>19</ele>
        <time>2018-03-23T12:52:05Z</time>
      </trkpt>
      <trkpt lat="46.70651" lon="-1.92022">
        <ele>19</ele>
        <time>2018-03-23T12:53:05Z</time>
      </trkpt>
      <trkpt lat="46.70651" lon="-1.92023">
        <ele>19</ele>
        <time>2018-03-23T12:54:05Z</time>
      </trkpt>
      <trkpt lat="46.7065" lon="-1.92023">
        <ele>19</ele>
        <time>2018-03-23T12:55:05Z</time>
      </trkpt>
      <trkpt lat="46.70649" lon="-1.92024">
        <ele>19</ele>
        <time>2018-03-23T12:56:05Z</time>
      </trkpt>
      <trkpt lat="46.70644" lon="-1.92039">
        <ele>19</ele>
        <time>2018-03-23T12:57:05Z</time>
      </trkpt>
      <trkpt lat="46.70642" lon="-1.9205">
        <ele>19</ele>
        <time>2018-03-23T12:58:05Z</time>
      </trkpt>
      <trkpt lat="46.70642" lon="-1.92056">
        <ele>19</ele>
        <time>2018-03-23T12:59:05Z</time>
      </trkpt>
      <trkpt lat="46.7064" lon="-1.92095">
        <ele>20</ele>
        <time>2018-03-23T13:00:05Z</time>
      </trkpt>
      <trkpt lat="46.7064" lon="-1.92109">
        <ele>20</ele>
        <time>2018-03-23T13:01:05Z</time>
      </trkpt>
      <trkpt lat="46.70639" lon="-1.92134">
        <ele>19</ele>
        <time>2018-03-23T13:02:05Z</time>
      </trkpt>
      <trkpt lat="46.70637" lon="-1.92186">
        <ele>19</ele>
        <time>2018-03-23T13:03:05Z</time>
      </trkpt>
      <trkpt lat="46.70634" lon="-1.92221">
        <ele>19</ele>
        <time>2018-03-23T13:04:05Z</time>
      </trkpt>
      <trkpt lat="46.70628" lon="-1.92248">
        <ele>20</ele>
        <time>2018-03-23T13:05:05Z</time>
      </trkpt>
      <trkpt lat="46.70619" lon="-1.92271">
        <ele>19</ele>
        <time>2018-03-23T13:06:05Z</time>
      </trkpt>
      <trkpt lat="46.7061" lon="-1.92289">
        <ele>19</ele>
        <time>2018-03-23T13:07:05Z</time>
      </trkpt>
      <trkpt lat="46.70602" lon="-1.92304">
        <ele>18</ele>
        <time>2018-03-23T13:08:05Z</time>
      </trkpt>
      <trkpt lat="46.70586" lon="-1.92327">
        <ele>18</ele>
        <time>2018-03-23T13:09:05Z</time>
      </trkpt>
      <trkpt lat="46.70582" lon="-1.92333">
        <ele>18</ele>
        <time>2018-03-23T13:10:05Z</time>
      </trkpt>
      <trkpt lat="46.70571" lon="-1.92356">
        <ele>17</ele>
        <time>2018-03-23T13:11:05Z</time>
      </trkpt>
      <trkpt lat="46.70562" lon="-1.92377">
        <ele>17</ele>
        <time>2018-03-23T13:12:05Z</time>
      </trkpt>
      <trkpt lat="46.70559" lon="-1.92387">
        <ele>16</ele>
        <time>2018-03-23T13:13:05Z</time>
      </trkpt>
      <trkpt lat="46.70555" lon="-1.92398">
        <ele>16</ele>
        <time>2018-03-23T13:14:05Z</time>
      </trkpt>
      <trkpt lat="46.70552" lon="-1.92414">
        <ele>16</ele>
        <time>2018-03-23T13:15:05Z</time>
      </trkpt>
      <trkpt lat="46.70546" lon="-1.92441">
        <ele>15</ele>
        <time>2018-03-23T13:16:05Z</time>
      </trkpt>
      <trkpt lat="46.70541" lon="-1.92464">
        <ele>15</ele>
        <time>2018-03-23T13:17:05Z</time>
      </trkpt>
      <trkpt lat="46.7054" lon="-1.92472">
        <ele>15</ele>
        <time>2018-03-23T13:18:05Z</time>
      </trkpt>
      <trkpt lat="46.70535" lon="-1.92496">
        <ele>14</ele>
        <time>2018-03-23T13:19:05Z</time>
      </trkpt>
      <trkpt lat="46.70534" lon="-1.925">
        <ele>14</ele>
        <time>2018-03-23T13:20:05Z</time>
      </trkpt>
      <trkpt lat="46.70533" lon="-1.92502">
        <ele>14</ele>
        <time>2018-03-23T13:21:05Z</time>
      </trkpt>
      <trkpt lat="46.70527" lon="-1.92538">
        <ele>13</ele>
        <time>2018-03-23T13:22:05Z</time>
      </trkpt>
      <trkpt lat="46.70523" lon="-1.92561">
        <ele>12</ele>
        <time>2018-03-23T13:23:05Z</time>
      </trkpt>
      <trkpt lat="46.70524" lon="-1.92565">
        <ele>12</ele>
        <time>2018-03-23T13:24:05Z</time>
      </trkpt>
      <trkpt lat="46.70525" lon="-1.92575">
        <ele>12</ele>
        <time>2018-03-23T13:25:05Z</time>
      </trkpt>
      <trkpt lat="46.70525" lon="-1.92582">
        <ele>12</ele>
        <time>2018-03-23T13:26:05Z</time>
      </trkpt>
      <trkpt lat="46.70525" lon="-1.92582">
        <ele>12</ele>
        <time>2018-03-23T13:27:05Z</time>
      </trkpt>
      <trkpt lat="46.70529" lon="-1.92587">
        <ele>12</ele>
        <time>2018-03-23T13:28:05Z</time>
      </trkpt>
      <trkpt lat="46.7053" lon="-1.92592">
        <ele>12</ele>
        <time>2018-03-23T13:29:05Z</time>
      </trkpt>
      <trkpt lat="46.70531" lon="-1.92598">
        <ele>12</ele>
        <time>2018-03-23T13:30:05Z</time>
      </trkpt>
      <trkpt lat="46.7053" lon="-1.92602">
        <ele>12</ele>
        <time>2018-03-23T13:31:05Z</time>
      </trkpt>
      <trkpt lat="46.70528" lon="-1.92606">
        <ele>12</ele>
        <time>2018-03-23T13:32:05Z</time>
      </trkpt>
      <trkpt lat="46.70527" lon="-1.92607">
        <ele>12</ele>
        <time>2018-03-23T13:33:05Z</time>
      </trkpt>
      <trkpt lat="46.70525" lon="-1.92609">
        <ele>12</ele>
        <time>2018-03-23T13:34:05Z</time>
      </trkpt>
      <trkpt lat="46.70523" lon="-1.92609">
        <ele>11</ele>
        <time>2018-03-23T13:35:05Z</time>
      </trkpt>
      <trkpt lat="46.70512" lon="-1.92624">
        <ele>11</ele>
        <time>2018-03-23T13:36:05Z</time>
      </trkpt>
      <trkpt lat="46.70507" lon="-1.92632">
        <ele>11</ele>
        <time>2018-03-23T13:37:05Z</time>
      </trkpt>
      <trkpt lat="46.70504" lon="-1.92634">
        <ele>11</ele>
        <time>2018-03-23T13:38:05Z</time>
      </trkpt>
      <trkpt lat="46.70499" lon="-1.9265">
        <ele>11</ele>
        <time>2018-03-23T13:39:05Z</time>
      </trkpt>
      <trkpt lat="46.70496" lon="-1.9267">
        <ele>11</ele>
        <time>2018-03-23T13:40:05Z</time>
      </trkpt>
      <trkpt lat="46.70489" lon="-1.92701">
        <ele>10</ele>
        <time>2018-03-23T13:41:05Z</time>
      </trkpt>
      <trkpt lat="46.70484" lon="-1.9273">
        <ele>9</ele>
        <time>2018-03-23T13:42:05Z</time>
      </trkpt>
      <trkpt lat="46.70482" lon="-1.92747">
        <ele>8</ele>
        <time>2018-03-23T13:43:05Z</time>
      </trkpt>
      <trkpt lat="46.70478" lon="-1.92796">
        <ele>8</ele>
        <time>2018-03-23T13:44:05Z</time>
      </trkpt>
      <trkpt lat="46.70475" lon="-1.92841">
        <ele>8</ele>
        <time>2018-03-23T13:45:05Z</time>
      </trkpt>
      <trkpt lat="46.70472" lon="-1.92898">
        <ele>8</ele>
        <time>2018-03-23T13:46:05Z</time>
      </trkpt>
      <trkpt lat="46.70468" lon="-1.92952">
        <ele>7</ele>
        <time>2018-03-23T13:47:05Z</time>
      </trkpt>
      <trkpt lat="46.70465" lon="-1.93009">
        <ele>6</ele>
        <time>2018-03-23T13:48:05Z</time>
      </trkpt>
      <trkpt lat="46.70462" lon="-1.93045">
        <ele>6</ele>
        <time>2018-03-23T13:49:05Z</time>
      </trkpt>
      <trkpt lat="46.70458" lon="-1.93108">
        <ele>5</ele>
        <time>2018-03-23T13:50:05Z</time>
      </trkpt>
      <trkpt lat="46.70455" lon="-1.93156">
        <ele>5</ele>
        <time>2018-03-23T13:51:05Z</time>
      </trkpt>
      <trkpt lat="46.70452" lon="-1.93209">
        <ele>4</ele>
        <time>2018-03-23T13:52:05Z</time>
      </trkpt>
      <trkpt lat="46.70449" lon="-1.93254">
        <ele>3</ele>
        <time>2018-03-23T13:53:05Z</time>
      </trkpt>
      <trkpt lat="46.70449" lon="-1.93267">
        <ele>3</ele>
        <time>2018-03-23T13:54:05Z</time>
      </trkpt>
      <trkpt lat="46.70449" lon="-1.93267">
        <ele>3</ele>
        <time>2018-03-23T13:55:05Z</time>
      </trkpt>
      <trkpt lat="46.70439" lon="-1.93265">
        <ele>3</ele>
        <time>2018-03-23T13:56:05Z</time>
      </trkpt>
      <trkpt lat="46.70429" lon="-1.93262">
        <ele>3</ele>
        <time>2018-03-23T13:57:05Z</time>
      </trkpt>
      <trkpt lat="46.70419" lon="-1.93258">
        <ele>3</ele>
        <time>2018-03-23T13:58:05Z</time>
      </trkpt>
      <trkpt lat="46.70398" lon="-1.93249">
        <ele>3</ele>
        <time>2018-03-23T13:59:05Z</time>
      </trkpt>
      <trkpt lat="46.70362" lon="-1.9324">
        <ele>2</ele>
        <time>2018-03-23T14:00:05Z</time>
      </trkpt>
      <trkpt lat="46.70353" lon="-1.93238">
        <ele>2</ele>
        <time>2018-03-23T14:01:05Z</time>
      </trkpt>
      <trkpt lat="46.70353" lon="-1.93238">
        <ele>2</ele>
        <time>2018-03-23T14:02:05Z</time>
      </trkpt>
      <trkpt lat="46.70328" lon="-1.93232">
        <ele>2</ele>
        <time>2018-03-23T14:03:05Z</time>
      </trkpt>
      <trkpt lat="46.70304" lon="-1.9323">
        <ele>2</ele>
        <time>2018-03-23T14:04:05Z</time>
      </trkpt>
      <trkpt lat="46.70304" lon="-1.9323">
        <ele>2</ele>
        <time>2018-03-23T14:05:05Z</time>
      </trkpt>
      <trkpt lat="46.70295" lon="-1.93245">
        <ele>2</ele>
        <time>2018-03-23T14:06:05Z</time>
      </trkpt>
      <trkpt lat="46.70288" lon="-1.93253">
        <ele>2</ele>
        <time>2018-03-23T14:07:05Z</time>
      </trkpt>
      <trkpt lat="46.7028" lon="-1.9326">
        <ele>2</ele>
        <time>2018-03-23T14:08:05Z</time>
      </trkpt>
      <trkpt lat="46.70276" lon="-1.93263">
        <ele>2</ele>
        <time>2018-03-23T14:09:05Z</time>
      </trkpt>
      <trkpt lat="46.70263" lon="-1.93271">
        <ele>2</ele>
        <time>2018-03-23T14:10:05Z</time>
      </trkpt>
      <trkpt lat="46.70251" lon="-1.9328">
        <ele>2</ele>
        <time>2018-03-23T14:11:05Z</time>
      </trkpt>
      <trkpt lat="46.70239" lon="-1.93295">
        <ele>2</ele>
        <time>2018-03-23T14:12:05Z</time>
      </trkpt>
      <trkpt lat="46.70224" lon="-1.9332">
        <ele>1</ele>
        <time>2018-03-23T14:13:05Z</time>
      </trkpt>
      <trkpt lat="46.70216" lon="-1.93332">
        <ele>1</ele>
        <time>2018-03-23T14:14:05Z</time>
      </trkpt>
      <trkpt lat="46.70211" lon="-1.9334">
        <ele>1</ele>
        <time>2018-03-23T14:15:05Z</time>
      </trkpt>
      <trkpt lat="46.70205" lon="-1.93347">
        <ele>1</ele>
        <time>2018-03-23T14:16:05Z</time>
      </trkpt>
      <trkpt lat="46.70194" lon="-1.93356">
        <ele>1</ele>
        <time>2018-03-23T14:17:05Z</time>
      </trkpt>
      <trkpt lat="46.70181" lon="-1.93366">
        <ele>2</ele>
        <time>2018-03-23T14:18:05Z</time>
      </trkpt>
      <trkpt lat="46.70173" lon="-1.93372">
        <ele>1</ele>
        <time>2018-03-23T14:19:05Z</time>
      </trkpt>
      <trkpt lat="46.7017" lon="-1.93374">
        <ele>1</ele>
        <time>2018-03-23T14:20:05Z</time>
      </trkpt>
      <trkpt lat="46.70166" lon="-1.9338">
        <ele>1</ele>
        <time>2018-03-23T14:21:05Z</time>
      </trkpt>
      <trkpt lat="46.70161" lon="-1.93382">
        <ele>1</ele>
        <time>2018-03-23T14:22:05Z</time>
      </trkpt>
      <trkpt lat="46.70152" lon="-1.93386">
        <ele>1</ele>
        <time>2018-03-23T14:23:05Z</time>
      </trkpt>
      <trkpt lat="46.70141" lon="-1.93391">
        <ele>1</ele>
        <time>2018-03-23T14:24:05Z</time>
      </trkpt>
      <trkpt lat="46.70141" lon="-1.93391">
        <ele>1</ele>
        <time>2018-03-23T14:25:05Z</time>
      </trkpt>
      <trkpt lat="46.70141" lon="-1.93393">
        <ele>1</ele>
        <time>2018-03-23T14:26:05Z</time>
      </trkpt>
      <trkpt lat="46.70141" lon="-1.93394">
        <ele>1</ele>
        <time>2018-03-23T14:27:05Z</time>
      </trkpt>
      <trkpt lat="46.70141" lon="-1.93395">
        <ele>1</ele>
        <time>2018-03-23T14:28:05Z</time>
      </trkpt>
      <trkpt lat="46.7014" lon="-1.93396">
        <ele>1</ele>
        <time>2018-03-23T14:29:05Z</time>
      </trkpt>
      <trkpt lat="46.7014" lon="-1.93397">
        <ele>1</ele>
        <time>2018-03-23T14:30:05Z</time>
      </trkpt>
      <trkpt lat="46.7014" lon="-1.93398">
        <ele>1</ele>
        <time>2018-03-23T14:31:05Z</time>
      </trkpt>
      <trkpt lat="46.70139" lon="-1.93399">
        <ele>1</ele>
        <time>2018-03-23T14:32:05Z</time>
      </trkpt>
      <trkpt lat="46.70139" lon="-1.93401">
        <ele>1</ele>
        <time>2018-03-23T14:33:05Z</time>
      </trkpt>
      <trkpt lat="46.70138" lon="-1.93402">
        <ele>1</ele>
        <time>2018-03-23T14:34:05Z</time>
      </trkpt>
      <trkpt lat="46.70138" lon="-1.93403">
        <ele>1</ele>
        <time>2018-03-23T14:35:05Z</time>
      </trkpt>
      <trkpt lat="46.70137" lon="-1.93403">
        <ele>1</ele>
        <time>2018-03-23T14:36:05Z</time>
      </trkpt>
      <trkpt lat="46.70136" lon="-1.93404">
        <ele>1</ele>
        <time>2018-03-23T14:37:05Z</time>
      </trkpt>
      <trkpt lat="46.70136" lon="-1.93405">
        <ele>1</ele>
        <time>2018-03-23T14:38:05Z</time>
      </trkpt>
      <trkpt lat="46.70135" lon="-1.93406">
        <ele>1</ele>
        <time>2018-03-23T14:39:05Z</time>
      </trkpt>
      <trkpt lat="46.70134" lon="-1.93406">
        <ele>1</ele>
        <time>2018-03-23T14:40:05Z</time>
      </trkpt>
      <trkpt lat="46.70133" lon="-1.93407">
        <ele>1</ele>
        <time>2018-03-23T14:41:05Z</time>
      </trkpt>
      <trkpt lat="46.70132" lon="-1.93408">
        <ele>1</ele>
        <time>2018-03-23T14:42:05Z</time>
      </trkpt>
      <trkpt lat="46.70131" lon="-1.93408">
        <ele>1</ele>
        <time>2018-03-23T14:43:05Z</time>
      </trkpt>
      <trkpt lat="46.7013" lon="-1.93409">
        <ele>1</ele>
        <time>2018-03-23T14:44:05Z</time>
      </trkpt>
      <trkpt lat="46.70129" lon="-1.93409">
        <ele>1</ele>
        <time>2018-03-23T14:45:05Z</time>
      </trkpt>
      <trkpt lat="46.70128" lon="-1.93409">
        <ele>1</ele>
        <time>2018-03-23T14:46:05Z</time>
      </trkpt>
      <trkpt lat="46.70127" lon="-1.93409">
        <ele>1</ele>
        <time>2018-03-23T14:47:05Z</time>
      </trkpt>
      <trkpt lat="46.70126" lon="-1.93409">
        <ele>1</ele>
        <time>2018-03-23T14:48:05Z</time>
      </trkpt>
      <trkpt lat="46.70125" lon="-1.93409">
        <ele>1</ele>
        <time>2018-03-23T14:49:05Z</time>
      </trkpt>
      <trkpt lat="46.70124" lon="-1.93408">
        <ele>2</ele>
        <time>2018-03-23T14:50:05Z</time>
      </trkpt>
      <trkpt lat="46.70123" lon="-1.93408">
        <ele>2</ele>
        <time>2018-03-23T14:51:05Z</time>
      </trkpt>
      <trkpt lat="46.70122" lon="-1.93407">
        <ele>2</ele>
        <time>2018-03-23T14:52:05Z</time>
      </trkpt>
      <trkpt lat="46.70121" lon="-1.93407">
        <ele>2</ele>
        <time>2018-03-23T14:53:05Z</time>
      </trkpt>
      <trkpt lat="46.7012" lon="-1.93406">
        <ele>2</ele>
        <time>2018-03-23T14:54:05Z</time>
      </trkpt>
      <trkpt lat="46.7012" lon="-1.93405">
        <ele>2</ele>
        <time>2018-03-23T14:55:05Z</time>
      </trkpt>
      <trkpt lat="46.70119" lon="-1.93405">
        <ele>2</ele>
        <time>2018-03-23T14:56:05Z</time>
      </trkpt>
      <trkpt lat="46.70107" lon="-1.93404">
        <ele>2</ele>
        <time>2018-03-23T14:57:05Z</time>
      </trkpt>
      <trkpt lat="46.701" lon="-1.93405">
        <ele>2</ele>
        <time>2018-03-23T14:58:05Z</time>
      </trkpt>
      <trkpt lat="46.70092" lon="-1.93406">
        <ele>2</ele>
        <time>2018-03-23T14:59:05Z</time>
      </trkpt>
      <trkpt lat="46.70088" lon="-1.93406">
        <ele>2</ele>
        <time>2018-03-23T15:00:05Z</time>
      </trkpt>
      <trkpt lat="46.70085" lon="-1.93405">
        <ele>2</ele>
        <time>2018-03-23T15:01:05Z</time>
      </trkpt>
      <trkpt lat="46.70083" lon="-1.93405">
        <ele>2</ele>
        <time>2018-03-23T15:02:05Z</time>
      </trkpt>
      <trkpt lat="46.70062" lon="-1.93405">
        <ele>2</ele>
        <time>2018-03-23T15:03:05Z</time>
      </trkpt>
      <trkpt lat="46.70062" lon="-1.93406">
        <ele>2</ele>
        <time>2018-03-23T15:04:05Z</time>
      </trkpt>
      <trkpt lat="46.70062" lon="-1.93407">
        <ele>2</ele>
        <time>2018-03-23T15:05:05Z</time>
      </trkpt>
      <trkpt lat="46.70062" lon="-1.93408">
        <ele>2</ele>
        <time>2018-03-23T15:06:05Z</time>
      </trkpt>
      <trkpt lat="46.70062" lon="-1.93409">
        <ele>2</ele>
        <time>2018-03-23T15:07:05Z</time>
      </trkpt>
      <trkpt lat="46.70062" lon="-1.9341">
        <ele>2</ele>
        <time>2018-03-23T15:08:05Z</time>
      </trkpt>
      <trkpt lat="46.70061" lon="-1.9341">
        <ele>2</ele>
        <time>2018-03-23T15:09:05Z</time>
      </trkpt>
      <trkpt lat="46.70061" lon="-1.93411">
        <ele>2</ele>
        <time>2018-03-23T15:10:05Z</time>
      </trkpt>
      <trkpt lat="46.7006" lon="-1.93411">
        <ele>2</ele>
        <time>2018-03-23T15:11:05Z</time>
      </trkpt>
      <trkpt lat="46.7006" lon="-1.93412">
        <ele>2</ele>
        <time>2018-03-23T15:12:05Z</time>
      </trkpt>
      <trkpt lat="46.70059" lon="-1.93412">
        <ele>2</ele>
        <time>2018-03-23T15:13:05Z</time>
      </trkpt>
      <trkpt lat="46.70059" lon="-1.93413">
        <ele>2</ele>
        <time>2018-03-23T15:14:05Z</time>
      </trkpt>
      <trkpt lat="46.70058" lon="-1.93413">
        <ele>2</ele>
        <time>2018-03-23T15:15:05Z</time>
      </trkpt>
      <trkpt lat="46.70057" lon="-1.93413">
        <ele>2</ele>
        <time>2018-03-23T15:16:05Z</time>
      </trkpt>
      <trkpt lat="46.70056" lon="-1.93413">
        <ele>2</ele>
        <time>2018-03-23T15:17:05Z</time>
      </trkpt>
      <trkpt lat="46.70055" lon="-1.93413">
        <ele>2</ele>
        <time>2018-03-23T15:18:05Z</time>
      </trkpt>
      <trkpt lat="46.70055" lon="-1.93412">
        <ele>2</ele>
        <time>2018-03-23T15:19:05Z</time>
      </trkpt>
      <trkpt lat="46.70054" lon="-1.93412">
        <ele>2</ele>
        <time>2018-03-23T15:20:05Z</time>
      </trkpt>
      <trkpt lat="46.70054" lon="-1.93411">
        <ele>2</ele>
        <time>2018-03-23T15:21:05Z</time>
      </trkpt>
      <trkpt lat="46.70053" lon="-1.93411">
        <ele>2</ele>
        <time>2018-03-23T15:22:05Z</time>
      </trkpt>
      <trkpt lat="46.70053" lon="-1.9341">
        <ele>2</ele>
        <time>2018-03-23T15:23:05Z</time>
      </trkpt>
      <trkpt lat="46.70053" lon="-1.93409">
        <ele>2</ele>
        <time>2018-03-23T15:24:05Z</time>
      </trkpt>
      <trkpt lat="46.70052" lon="-1.93409">
        <ele>2</ele>
        <time>2018-03-23T15:25:05Z</time>
      </trkpt>
      <trkpt lat="46.70052" lon="-1.93408">
        <ele>2</ele>
        <time>2018-03-23T15:26:05Z</time>
      </trkpt>
      <trkpt lat="46.70052" lon="-1.93407">
        <ele>2</ele>
        <time>2018-03-23T15:27:05Z</time>
      </trkpt>
      <trkpt lat="46.70052" lon="-1.93406">
        <ele>2</ele>
        <time>2018-03-23T15:28:05Z</time>
      </trkpt>
      <trkpt lat="46.70052" lon="-1.93405">
        <ele>2</ele>
        <time>2018-03-23T15:29:05Z</time>
      </trkpt>
      <trkpt lat="46.70046" lon="-1.93402">
        <ele>2</ele>
        <time>2018-03-23T15:30:05Z</time>
      </trkpt>
      <trkpt lat="46.70043" lon="-1.93401">
        <ele>2</ele>
        <time>2018-03-23T15:31:05Z</time>
      </trkpt>
      <trkpt lat="46.70041" lon="-1.934">
        <ele>2</ele>
        <time>2018-03-23T15:32:05Z</time>
      </trkpt>
      <trkpt lat="46.70038" lon="-1.93398">
        <ele>2</ele>
        <time>2018-03-23T15:33:05Z</time>
      </trkpt>
      <trkpt lat="46.70036" lon="-1.93397">
        <ele>2</ele>
        <time>2018-03-23T15:34:05Z</time>
      </trkpt>
      <trkpt lat="46.70033" lon="-1.93394">
        <ele>2</ele>
        <time>2018-03-23T15:35:05Z</time>
      </trkpt>
      <trkpt lat="46.7003" lon="-1.93391">
        <ele>3</ele>
        <time>2018-03-23T15:36:05Z</time>
      </trkpt>
      <trkpt lat="46.70028" lon="-1.93388">
        <ele>3</ele>
        <time>2018-03-23T15:37:05Z</time>
      </trkpt>
      <trkpt lat="46.70025" lon="-1.93386">
        <ele>3</ele>
        <time>2018-03-23T15:38:05Z</time>
      </trkpt>
      <trkpt lat="46.70023" lon="-1.93384">
        <ele>3</ele>
        <time>2018-03-23T15:39:05Z</time>
      </trkpt>
      <trkpt lat="46.7002" lon="-1.93382">
        <ele>3</ele>
        <time>2018-03-23T15:40:05Z</time>
      </trkpt>
      <trkpt lat="46.70015" lon="-1.9338">
        <ele>3</ele>
        <time>2018-03-23T15:41:05Z</time>
      </trkpt>
      <trkpt lat="46.70002" lon="-1.93375">
        <ele>3</ele>
        <time>2018-03-23T15:42:05Z</time>
      </trkpt>
      <trkpt lat="46.69987" lon="-1.93369">
        <ele>3</ele>
        <time>2018-03-23T15:43:05Z</time>
      </trkpt>
      <trkpt lat="46.69982" lon="-1.93367">
        <ele>3</ele>
        <time>2018-03-23T15:44:05Z</time>
      </trkpt>
      <trkpt lat="46.69979" lon="-1.93366">
        <ele>3</ele>
        <time>2018-03-23T15:45:05Z</time>
      </trkpt>
      <trkpt lat="46.69978" lon="-1.93366">
        <ele>3</ele>
        <time>2018-03-23T15:46:05Z</time>
      </trkpt>
      <trkpt lat="46.69976" lon="-1.93367">
        <ele>4</ele>
        <time>2018-03-23T15:47:05Z</time>
      </trkpt>
      <trkpt lat="46.69973" lon="-1.93367">
        <ele>4</ele>
        <time>2018-03-23T15:48:05Z</time>
      </trkpt>
      <trkpt lat="46.69969" lon="-1.9337">
        <ele>4</ele>
        <time>2018-03-23T15:49:05Z</time>
      </trkpt>
      <trkpt lat="46.69963" lon="-1.93373">
        <ele>4</ele>
        <time>2018-03-23T15:50:05Z</time>
      </trkpt>
      <trkpt lat="46.69958" lon="-1.93375">
        <ele>4</ele>
        <time>2018-03-23T15:51:05Z</time>
      </trkpt>
      <trkpt lat="46.69953" lon="-1.93377">
        <ele>4</ele>
        <time>2018-03-23T15:52:05Z</time>
      </trkpt>
      <trkpt lat="46.69949" lon="-1.93379">
        <ele>4</ele>
        <time>2018-03-23T15:53:05Z</time>
      </trkpt>
      <trkpt lat="46.69944" lon="-1.93381">
        <ele>4</ele>
        <time>2018-03-23T15:54:05Z</time>
      </trkpt>
      <trkpt lat="46.69935" lon="-1.93382">
        <ele>4</ele>
        <time>2018-03-23T15:55:05Z</time>
      </trkpt>
      <trkpt lat="46.69925" lon="-1.93383">
        <ele>4</ele>
        <time>2018-03-23T15:56:05Z</time>
      </trkpt>
      <trkpt lat="46.69922" lon="-1.93383">
        <ele>4</ele>
        <time>2018-03-23T15:57:05Z</time>
      </trkpt>
      <trkpt lat="46.69915" lon="-1.93383">
        <ele>4</ele>
        <time>2018-03-23T15:58:05Z</time>
      </trkpt>
      <trkpt lat="46.69915" lon="-1.93384">
        <ele>4</ele>
        <time>2018-03-23T15:59:05Z</time>
      </trkpt>
      <trkpt lat="46.69913" lon="-1.93385">
        <ele>4</ele>
        <time>2018-03-23T16:00:05Z</time>
      </trkpt>
      <trkpt lat="46.69912" lon="-1.93386">
        <ele>4</ele>
        <time>2018-03-23T16:01:05Z</time>
      </trkpt>
      <trkpt lat="46.69911" lon="-1.93386">
        <ele>4</ele>
        <time>2018-03-23T16:02:05Z</time>
      </trkpt>
      <trkpt lat="46.69909" lon="-1.93385">
        <ele>4</ele>
        <time>2018-03-23T16:03:05Z</time>
      </trkpt>
      <trkpt lat="46.69908" lon="-1.93383">
        <ele>4</ele>
        <time>2018-03-23T16:04:05Z</time>
      </trkpt>
      <trkpt lat="46.69901" lon="-1.93383">
        <ele>5</ele>
        <time>2018-03-23T16:05:05Z</time>
      </trkpt>
      <trkpt lat="46.69898" lon="-1.93383">
        <ele>5</ele>
        <time>2018-03-23T16:06:05Z</time>
      </trkpt>
      <trkpt lat="46.69892" lon="-1.93385">
        <ele>5</ele>
        <time>2018-03-23T16:07:05Z</time>
      </trkpt>
      <trkpt lat="46.69872" lon="-1.93392">
        <ele>5</ele>
        <time>2018-03-23T16:08:05Z</time>
      </trkpt>
    </trkseg>
  </trk>
</gpx>